<?xml version='1.0' encoding='UTF-8'?><gpx version="1.1" creator="JPX - https://github.com/jenetics/jpx" xmlns="http://www.topografix.com/GPX/1/1"><trk><trkseg><trkpt lat="38.163486665516814" lon="15.26858785201291"><ele>105.0</ele><time>2026-04-11T10:39:29.999Z</time></trkpt><trkpt lat="38.16340642739988" lon="15.268553940540805"><ele>105.0</ele><time>2026-04-11T10:39:31.999Z</time></trkpt><trkpt lat="38.16329934725805" lon="15.268456160651127"><ele>105.0</ele><time>2026-04-11T10:39:33.999Z</time></trkpt><trkpt lat="38.16316187139293" lon="15.268356822303758"><ele>105.0</ele><time>2026-04-11T10:39:34.999Z</time></trkpt><trkpt lat="38.163027471480085" lon="15.268269306703797"><ele>103.66666666666666</ele><time>2026-04-11T10:39:35.999Z</time></trkpt><trkpt lat="38.16286933786731" lon="15.268169000080546"><ele>102.33333333333333</ele><time>2026-04-11T10:39:36.999Z</time></trkpt><trkpt lat="38.1627152501443" lon="15.26807125970092"><ele>101.0</ele><time>2026-04-11T10:39:37.999Z</time></trkpt><trkpt lat="38.162554656690624" lon="15.267974106951682"><ele>101.0</ele><time>2026-04-11T10:39:38.999Z</time></trkpt><trkpt lat="38.16238489680721" lon="15.26789873412839"><ele>101.0</ele><time>2026-04-11T10:39:39.999Z</time></trkpt><trkpt lat="38.16223748932969" lon="15.267813149789236"><ele>101.0</ele><time>2026-04-11T10:39:40.999Z</time></trkpt><trkpt lat="38.162135419998805" lon="15.267731965199685"><ele>100.5</ele><time>2026-04-11T10:39:41.999Z</time></trkpt><trkpt lat="38.162014892836105" lon="15.267684866869791"><ele>100.0</ele><time>2026-04-11T10:39:42.999Z</time></trkpt><trkpt lat="38.16188376546723" lon="15.2676096311622"><ele>99.5</ele><time>2026-04-11T10:39:43.999Z</time></trkpt><trkpt lat="38.1617258681377" lon="15.267518373433072"><ele>99.0</ele><time>2026-04-11T10:39:44.999Z</time></trkpt><trkpt lat="38.16156375966708" lon="15.267436277396573"><ele>98.33333333333334</ele><time>2026-04-11T10:39:45.999Z</time></trkpt><trkpt lat="38.161394443138164" lon="15.26737027349352"><ele>97.66666666666667</ele><time>2026-04-11T10:39:46.999Z</time></trkpt><trkpt lat="38.16121575882066" lon="15.267327984026407"><ele>97.0</ele><time>2026-04-11T10:39:47.999Z</time></trkpt><trkpt lat="38.161039236224596" lon="15.267306713365599"><ele>97.0</ele><time>2026-04-11T10:39:48.999Z</time></trkpt><trkpt lat="38.16087990592932" lon="15.267291906060008"><ele>97.0</ele><time>2026-04-11T10:39:49.999Z</time></trkpt><trkpt lat="38.160730892463484" lon="15.267277710785567"><ele>97.0</ele><time>2026-04-11T10:39:50.999Z</time></trkpt><trkpt lat="38.16060965889927" lon="15.267267176030963"><ele>97.0</ele><time>2026-04-11T10:39:51.999Z</time></trkpt><trkpt lat="38.160523540863856" lon="15.267263922521614"><ele>95.8</ele><time>2026-04-11T10:39:52.999Z</time></trkpt><trkpt lat="38.16044280332425" lon="15.267252756046114"><ele>94.6</ele><time>2026-04-11T10:39:54.999Z</time></trkpt><trkpt lat="38.160366962842076" lon="15.267258251880875"><ele>93.39999999999999</ele><time>2026-04-11T10:39:59.999Z</time></trkpt><trkpt lat="38.16038373999961" lon="15.267092553578717"><ele>92.19999999999999</ele><time>2026-04-11T10:40:00.999Z</time></trkpt><trkpt lat="38.16040428395028" lon="15.267003841734349"><ele>91.0</ele><time>2026-04-11T10:40:02.999Z</time></trkpt><trkpt lat="38.1604816321383" lon="15.266929390161218"><ele>91.0</ele><time>2026-04-11T10:40:04.999Z</time></trkpt><trkpt lat="38.16055506564571" lon="15.266894495992286"><ele>91.0</ele><time>2026-04-11T10:40:05.999Z</time></trkpt><trkpt lat="38.16064477998925" lon="15.266846280770054"><ele>91.0</ele><time>2026-04-11T10:40:06.999Z</time></trkpt><trkpt lat="38.16076655600879" lon="15.266749064710776"><ele>91.0</ele><time>2026-04-11T10:40:07.999Z</time></trkpt><trkpt lat="38.16086758086913" lon="15.26668600782376"><ele>91.0</ele><time>2026-04-11T10:40:08.999Z</time></trkpt><trkpt lat="38.16095449823095" lon="15.266638130802852"><ele>90.83333333333333</ele><time>2026-04-11T10:40:09.999Z</time></trkpt><trkpt lat="38.16102701410938" lon="15.26659350653482"><ele>90.66666666666666</ele><time>2026-04-11T10:40:10.999Z</time></trkpt><trkpt lat="38.16108721590461" lon="15.266536406368305"><ele>90.5</ele><time>2026-04-11T10:40:11.999Z</time></trkpt><trkpt lat="38.161118216421" lon="15.26645115718022"><ele>90.33333333333333</ele><time>2026-04-11T10:40:12.999Z</time></trkpt><trkpt lat="38.16114136795426" lon="15.266361127491903"><ele>90.16666666666667</ele><time>2026-04-11T10:40:13.999Z</time></trkpt><trkpt lat="38.16113900794822" lon="15.266250855733576"><ele>90.0</ele><time>2026-04-11T10:40:14.999Z</time></trkpt><trkpt lat="38.16112959200694" lon="15.266126763588234"><ele>89.83333333333333</ele><time>2026-04-11T10:40:15.999Z</time></trkpt><trkpt lat="38.1611241224664" lon="15.265996181072406"><ele>89.66666666666667</ele><time>2026-04-11T10:40:16.999Z</time></trkpt><trkpt lat="38.161131682240395" lon="15.265883559026543"><ele>89.5</ele><time>2026-04-11T10:40:17.999Z</time></trkpt><trkpt lat="38.161152818723195" lon="15.265788289762707"><ele>89.33333333333334</ele><time>2026-04-11T10:40:18.999Z</time></trkpt><trkpt lat="38.16117516633773" lon="15.265705173744065"><ele>89.16666666666667</ele><time>2026-04-11T10:40:19.999Z</time></trkpt><trkpt lat="38.16123041954025" lon="15.265600093698461"><ele>89.0</ele><time>2026-04-11T10:40:20.999Z</time></trkpt><trkpt lat="38.16127958871318" lon="15.265502684067107"><ele>89.0</ele><time>2026-04-11T10:40:21.999Z</time></trkpt><trkpt lat="38.161332384225155" lon="15.265417764544507"><ele>89.0</ele><time>2026-04-11T10:40:22.999Z</time></trkpt><trkpt lat="38.16138431608094" lon="15.26534291106111"><ele>89.0</ele><time>2026-04-11T10:40:23.999Z</time></trkpt><trkpt lat="38.16145732124494" lon="15.265312024379618"><ele>89.0</ele><time>2026-04-11T10:40:24.999Z</time></trkpt><trkpt lat="38.161518355631145" lon="15.265269710543098"><ele>89.0</ele><time>2026-04-11T10:40:25.999Z</time></trkpt><trkpt lat="38.16158667130993" lon="15.265220902171286"><ele>89.0</ele><time>2026-04-11T10:40:27.999Z</time></trkpt><trkpt lat="38.16164646569856" lon="15.265178182962785"><ele>88.66666666666667</ele><time>2026-04-11T10:40:31.999Z</time></trkpt><trkpt lat="38.16171432052146" lon="15.265129706043606"><ele>88.33333333333334</ele><time>2026-04-11T10:40:33.999Z</time></trkpt><trkpt lat="38.16175307525916" lon="15.265006856182822"><ele>88.0</ele><time>2026-04-11T10:40:35.999Z</time></trkpt><trkpt lat="38.16179556374046" lon="15.264937557206519"><ele>87.66666666666667</ele><time>2026-04-11T10:40:36.999Z</time></trkpt><trkpt lat="38.16186606527324" lon="15.264899949055783"><ele>87.33333333333333</ele><time>2026-04-11T10:40:37.999Z</time></trkpt><trkpt lat="38.16194131843889" lon="15.264856160461873"><ele>87.0</ele><time>2026-04-11T10:40:38.999Z</time></trkpt><trkpt lat="38.162003201669066" lon="15.264807854845358"><ele>86.83333333333333</ele><time>2026-04-11T10:40:39.999Z</time></trkpt><trkpt lat="38.16205325538076" lon="15.264756120022815"><ele>86.66666666666667</ele><time>2026-04-11T10:40:40.999Z</time></trkpt><trkpt lat="38.162128024379996" lon="15.264657835194468"><ele>86.5</ele><time>2026-04-11T10:40:42.999Z</time></trkpt><trkpt lat="38.16215669755204" lon="15.264571514448697"><ele>86.33333333333334</ele><time>2026-04-11T10:40:44.999Z</time></trkpt><trkpt lat="38.16217076338338" lon="15.264461744746386"><ele>86.16666666666667</ele><time>2026-04-11T10:40:47.999Z</time></trkpt><trkpt lat="38.162171938549896" lon="15.264368590167257"><ele>86.0</ele><time>2026-04-11T10:41:00.999Z</time></trkpt><trkpt lat="38.16210644130038" lon="15.264278102725376"><ele>86.0</ele><time>2026-04-11T10:41:03.999Z</time></trkpt><trkpt lat="38.16203966916043" lon="15.264217205361412"><ele>86.0</ele><time>2026-04-11T10:41:06.999Z</time></trkpt><trkpt lat="38.161961638176365" lon="15.264195418103192"><ele>86.0</ele><time>2026-04-11T10:41:08.999Z</time></trkpt><trkpt lat="38.16185866657145" lon="15.264189403745354"><ele>86.0</ele><time>2026-04-11T10:41:10.999Z</time></trkpt><trkpt lat="38.16173598556855" lon="15.264181819188092"><ele>86.0</ele><time>2026-04-11T10:41:12.999Z</time></trkpt><trkpt lat="38.16165898584025" lon="15.26417748968262"><ele>86.0</ele><time>2026-04-11T10:41:13.999Z</time></trkpt><trkpt lat="38.16158349389346" lon="15.264168006727319"><ele>86.0</ele><time>2026-04-11T10:41:14.999Z</time></trkpt><trkpt lat="38.16150431320788" lon="15.264156049867056"><ele>86.0</ele><time>2026-04-11T10:41:15.999Z</time></trkpt><trkpt lat="38.16142137058803" lon="15.264141395396585"><ele>86.0</ele><time>2026-04-11T10:41:16.999Z</time></trkpt><trkpt lat="38.161342757610626" lon="15.264128839444847"><ele>86.0</ele><time>2026-04-11T10:41:17.999Z</time></trkpt><trkpt lat="38.16126115196388" lon="15.264132695590918"><ele>86.0</ele><time>2026-04-11T10:41:18.999Z</time></trkpt><trkpt lat="38.16118719825749" lon="15.264094297752328"><ele>86.33333333333334</ele><time>2026-04-11T10:41:19.999Z</time></trkpt><trkpt lat="38.1611213515563" lon="15.26408079196772"><ele>86.66666666666667</ele><time>2026-04-11T10:41:20.999Z</time></trkpt><trkpt lat="38.16100005947882" lon="15.264047611771016"><ele>87.0</ele><time>2026-04-11T10:41:22.999Z</time></trkpt><trkpt lat="38.16093724783655" lon="15.264034563444106"><ele>87.33333333333333</ele><time>2026-04-11T10:41:23.999Z</time></trkpt><trkpt lat="38.16087216891054" lon="15.264024612867894"><ele>87.66666666666666</ele><time>2026-04-11T10:41:24.999Z</time></trkpt><trkpt lat="38.16080644729509" lon="15.26401669811371"><ele>88.0</ele><time>2026-04-11T10:41:25.999Z</time></trkpt><trkpt lat="38.160740160519524" lon="15.2640135579399"><ele>88.16666666666666</ele><time>2026-04-11T10:41:26.999Z</time></trkpt><trkpt lat="38.16067000051644" lon="15.264006470844247"><ele>88.33333333333333</ele><time>2026-04-11T10:41:27.999Z</time></trkpt><trkpt lat="38.16060104006732" lon="15.264002897421758"><ele>88.5</ele><time>2026-04-11T10:41:28.999Z</time></trkpt><trkpt lat="38.16053101233237" lon="15.26400579430757"><ele>88.66666666666667</ele><time>2026-04-11T10:41:29.999Z</time></trkpt><trkpt lat="38.16046386419749" lon="15.26401241369623"><ele>88.83333333333334</ele><time>2026-04-11T10:41:30.999Z</time></trkpt><trkpt lat="38.1603439616392" lon="15.264042441035917"><ele>89.0</ele><time>2026-04-11T10:41:32.999Z</time></trkpt><trkpt lat="38.16028031970623" lon="15.264059455588926"><ele>89.0</ele><time>2026-04-11T10:41:33.999Z</time></trkpt><trkpt lat="38.160196982506946" lon="15.264086091628995"><ele>89.0</ele><time>2026-04-11T10:41:35.999Z</time></trkpt><trkpt lat="38.16009404597193" lon="15.263821519009772"><ele>89.0</ele><time>2026-04-11T10:43:18.999Z</time></trkpt><trkpt lat="38.160022449215234" lon="15.263758492300571"><ele>89.0</ele><time>2026-04-11T10:43:23.999Z</time></trkpt><trkpt lat="38.159981414101715" lon="15.263692210637215"><ele>88.0</ele><time>2026-04-11T10:43:26.064Z</time></trkpt><trkpt lat="38.15993623734176" lon="15.263623496564785"><ele>87.0</ele><time>2026-04-11T10:43:28.045Z</time></trkpt><trkpt lat="38.16024586906791" lon="15.263908252828438"><ele>87.0</ele><time>2026-04-11T10:43:41.999Z</time></trkpt><trkpt lat="38.16021537985027" lon="15.264047084290201"><ele>89.0</ele><time>2026-04-11T10:43:44.999Z</time></trkpt><trkpt lat="38.16017977960499" lon="15.264114248279109"><ele>89.0</ele><time>2026-04-11T10:43:47.999Z</time></trkpt></trkseg><trkseg><trkpt lat="38.16007601245024" lon="15.264127358496708"><ele>89.0</ele><time>2026-04-11T10:59:33.999Z</time></trkpt><trkpt lat="38.16001238207362" lon="15.264143816010074"><ele>89.0</ele><time>2026-04-11T10:59:34.999Z</time></trkpt><trkpt lat="38.15994001356877" lon="15.264150407934219"><ele>89.0</ele><time>2026-04-11T10:59:35.999Z</time></trkpt><trkpt lat="38.15986941618099" lon="15.264147533115686"><ele>89.0</ele><time>2026-04-11T10:59:36.999Z</time></trkpt><trkpt lat="38.15979086283565" lon="15.264145602040674"><ele>89.0</ele><time>2026-04-11T10:59:37.999Z</time></trkpt><trkpt lat="38.15971020450229" lon="15.264136889416925"><ele>89.0</ele><time>2026-04-11T10:59:38.999Z</time></trkpt><trkpt lat="38.15962253719346" lon="15.264131371962426"><ele>89.0</ele><time>2026-04-11T10:59:39.999Z</time></trkpt><trkpt lat="38.159533877267336" lon="15.264125782624564"><ele>89.0</ele><time>2026-04-11T10:59:40.999Z</time></trkpt><trkpt lat="38.15945643992567" lon="15.264123762824521"><ele>89.0</ele><time>2026-04-11T10:59:41.999Z</time></trkpt><trkpt lat="38.15938704386952" lon="15.264126272388154"><ele>89.0</ele><time>2026-04-11T10:59:42.999Z</time></trkpt><trkpt lat="38.15930844094847" lon="15.264125111451275"><ele>89.0</ele><time>2026-04-11T10:59:43.999Z</time></trkpt><trkpt lat="38.15922457828465" lon="15.264122238812183"><ele>89.0</ele><time>2026-04-11T10:59:44.999Z</time></trkpt><trkpt lat="38.159140115833" lon="15.264119772057455"><ele>89.0</ele><time>2026-04-11T10:59:45.999Z</time></trkpt><trkpt lat="38.15905579829678" lon="15.26411711595399"><ele>89.0</ele><time>2026-04-11T10:59:46.999Z</time></trkpt><trkpt lat="38.15897224267096" lon="15.264114265404352"><ele>89.0</ele><time>2026-04-11T10:59:47.999Z</time></trkpt><trkpt lat="38.158888093660416" lon="15.264106556965528"><ele>89.0</ele><time>2026-04-11T10:59:48.999Z</time></trkpt><trkpt lat="38.15880608626778" lon="15.264100372869645"><ele>89.0</ele><time>2026-04-11T10:59:49.999Z</time></trkpt><trkpt lat="38.15873087544666" lon="15.264096925703313"><ele>89.0</ele><time>2026-04-11T10:59:50.999Z</time></trkpt><trkpt lat="38.158646724202484" lon="15.264085861530921"><ele>89.0</ele><time>2026-04-11T10:59:51.999Z</time></trkpt><trkpt lat="38.158573663254685" lon="15.264092309367808"><ele>89.0</ele><time>2026-04-11T10:59:52.999Z</time></trkpt><trkpt lat="38.158499669510476" lon="15.264090712614335"><ele>89.0</ele><time>2026-04-11T10:59:53.999Z</time></trkpt><trkpt lat="38.158426411780354" lon="15.264098449347879"><ele>89.0</ele><time>2026-04-11T10:59:54.999Z</time></trkpt><trkpt lat="38.15834787795536" lon="15.264112249387157"><ele>89.0</ele><time>2026-04-11T10:59:55.999Z</time></trkpt><trkpt lat="38.158266314684546" lon="15.264125470521034"><ele>89.0</ele><time>2026-04-11T10:59:56.999Z</time></trkpt><trkpt lat="38.15818358113528" lon="15.264139554456388"><ele>89.33333333333334</ele><time>2026-04-11T10:59:57.999Z</time></trkpt><trkpt lat="38.158096420127485" lon="15.264154195596117"><ele>89.66666666666667</ele><time>2026-04-11T10:59:58.999Z</time></trkpt><trkpt lat="38.1580109474434" lon="15.264168927415488"><ele>90.0</ele><time>2026-04-11T10:59:59.999Z</time></trkpt><trkpt lat="38.15792095736103" lon="15.264173819624066"><ele>90.33333333333333</ele><time>2026-04-11T11:00:00.999Z</time></trkpt><trkpt lat="38.15783567363398" lon="15.26419973827795"><ele>90.66666666666666</ele><time>2026-04-11T11:00:01.999Z</time></trkpt><trkpt lat="38.1577456903713" lon="15.26420390713332"><ele>91.0</ele><time>2026-04-11T11:00:02.999Z</time></trkpt><trkpt lat="38.15765300322424" lon="15.264205646826289"><ele>91.0</ele><time>2026-04-11T11:00:03.999Z</time></trkpt><trkpt lat="38.15755817491514" lon="15.264185162187944"><ele>91.0</ele><time>2026-04-11T11:00:04.999Z</time></trkpt><trkpt lat="38.15746583245238" lon="15.26418408662623"><ele>91.0</ele><time>2026-04-11T11:00:05.999Z</time></trkpt><trkpt lat="38.1573797956758" lon="15.26418762660748"><ele>91.0</ele><time>2026-04-11T11:00:06.999Z</time></trkpt><trkpt lat="38.15729242875397" lon="15.264187344466373"><ele>91.0</ele><time>2026-04-11T11:00:07.999Z</time></trkpt><trkpt lat="38.157207413445974" lon="15.264192857757125"><ele>91.0</ele><time>2026-04-11T11:00:08.999Z</time></trkpt><trkpt lat="38.15712819325668" lon="15.264205197214798"><ele>91.0</ele><time>2026-04-11T11:00:09.999Z</time></trkpt><trkpt lat="38.15705400063802" lon="15.264227510728784"><ele>91.0</ele><time>2026-04-11T11:00:10.999Z</time></trkpt><trkpt lat="38.15697812670246" lon="15.264239900723101"><ele>91.0</ele><time>2026-04-11T11:00:11.999Z</time></trkpt><trkpt lat="38.15690864499617" lon="15.264299258216854"><ele>91.0</ele><time>2026-04-11T11:00:12.999Z</time></trkpt><trkpt lat="38.156820665664526" lon="15.264332453299447"><ele>91.0</ele><time>2026-04-11T11:00:13.999Z</time></trkpt><trkpt lat="38.15672810496456" lon="15.2643622915118"><ele>91.0</ele><time>2026-04-11T11:00:14.999Z</time></trkpt><trkpt lat="38.15663822996196" lon="15.264382451902767"><ele>91.0</ele><time>2026-04-11T11:00:15.999Z</time></trkpt><trkpt lat="38.15655214412615" lon="15.264394718436252"><ele>91.0</ele><time>2026-04-11T11:00:16.999Z</time></trkpt><trkpt lat="38.15645965098582" lon="15.26440239869689"><ele>91.0</ele><time>2026-04-11T11:00:17.999Z</time></trkpt><trkpt lat="38.156374321710786" lon="15.264401803704828"><ele>91.0</ele><time>2026-04-11T11:00:18.999Z</time></trkpt><trkpt lat="38.15628323619342" lon="15.264392260620292"><ele>91.0</ele><time>2026-04-11T11:00:19.999Z</time></trkpt><trkpt lat="38.156194783430394" lon="15.264375717400597"><ele>91.0</ele><time>2026-04-11T11:00:20.999Z</time></trkpt><trkpt lat="38.15610602539675" lon="15.264352686845577"><ele>91.16666666666666</ele><time>2026-04-11T11:00:21.999Z</time></trkpt><trkpt lat="38.15601507983441" lon="15.264325367493665"><ele>91.33333333333333</ele><time>2026-04-11T11:00:22.999Z</time></trkpt><trkpt lat="38.15592798583833" lon="15.264296577573115"><ele>91.5</ele><time>2026-04-11T11:00:23.999Z</time></trkpt><trkpt lat="38.15585206304384" lon="15.264265962094212"><ele>91.66666666666667</ele><time>2026-04-11T11:00:24.999Z</time></trkpt><trkpt lat="38.15577959455886" lon="15.264245846321463"><ele>91.83333333333334</ele><time>2026-04-11T11:00:25.999Z</time></trkpt><trkpt lat="38.155704974332316" lon="15.264233627100802"><ele>92.0</ele><time>2026-04-11T11:00:26.999Z</time></trkpt><trkpt lat="38.15562757828761" lon="15.264229565820411"><ele>92.5</ele><time>2026-04-11T11:00:27.999Z</time></trkpt><trkpt lat="38.15555194841583" lon="15.264234646219784"><ele>93.0</ele><time>2026-04-11T11:00:28.999Z</time></trkpt><trkpt lat="38.1554748858415" lon="15.264250525382769"><ele>93.5</ele><time>2026-04-11T11:00:29.999Z</time></trkpt><trkpt lat="38.155392565806935" lon="15.264277170127905"><ele>94.0</ele><time>2026-04-11T11:00:30.999Z</time></trkpt><trkpt lat="38.155302817369986" lon="15.264308729320495"><ele>94.5</ele><time>2026-04-11T11:00:31.999Z</time></trkpt><trkpt lat="38.15520523648998" lon="15.26433936798288"><ele>95.0</ele><time>2026-04-11T11:00:32.999Z</time></trkpt><trkpt lat="38.15510334896484" lon="15.2643611335197"><ele>95.0</ele><time>2026-04-11T11:00:33.999Z</time></trkpt><trkpt lat="38.15500030642975" lon="15.264373433436624"><ele>95.0</ele><time>2026-04-11T11:00:34.999Z</time></trkpt><trkpt lat="38.154894135807524" lon="15.264384779343667"><ele>95.0</ele><time>2026-04-11T11:00:35.999Z</time></trkpt><trkpt lat="38.15478706099329" lon="15.26439572719643"><ele>95.0</ele><time>2026-04-11T11:00:36.999Z</time></trkpt><trkpt lat="38.15468158099264" lon="15.264399806182924"><ele>95.0</ele><time>2026-04-11T11:00:37.999Z</time></trkpt><trkpt lat="38.15458094400423" lon="15.264401607276634"><ele>95.0</ele><time>2026-04-11T11:00:38.999Z</time></trkpt><trkpt lat="38.15448020152729" lon="15.264410437844631"><ele>95.0</ele><time>2026-04-11T11:00:39.999Z</time></trkpt><trkpt lat="38.15437461682596" lon="15.26442863059687"><ele>95.0</ele><time>2026-04-11T11:00:40.999Z</time></trkpt><trkpt lat="38.154271679242754" lon="15.264445450968335"><ele>95.0</ele><time>2026-04-11T11:00:41.999Z</time></trkpt><trkpt lat="38.15418815092068" lon="15.264460139405594"><ele>95.0</ele><time>2026-04-11T11:00:42.999Z</time></trkpt><trkpt lat="38.154093696271" lon="15.264474669235069"><ele>95.2</ele><time>2026-04-11T11:00:43.999Z</time></trkpt><trkpt lat="38.153993464867696" lon="15.264486815038193"><ele>95.4</ele><time>2026-04-11T11:00:44.999Z</time></trkpt><trkpt lat="38.153891790162795" lon="15.264493406348713"><ele>95.6</ele><time>2026-04-11T11:00:45.999Z</time></trkpt><trkpt lat="38.15378867334792" lon="15.264494185033254"><ele>95.8</ele><time>2026-04-11T11:00:46.999Z</time></trkpt><trkpt lat="38.153685619785804" lon="15.264488299936634"><ele>96.0</ele><time>2026-04-11T11:00:47.999Z</time></trkpt><trkpt lat="38.15360325228353" lon="15.26449193415682"><ele>96.0</ele><time>2026-04-11T11:00:48.999Z</time></trkpt><trkpt lat="38.153504280960085" lon="15.264499492336471"><ele>96.0</ele><time>2026-04-11T11:00:49.999Z</time></trkpt><trkpt lat="38.15339229859927" lon="15.264508892045823"><ele>96.0</ele><time>2026-04-11T11:00:50.999Z</time></trkpt><trkpt lat="38.15328071163699" lon="15.264525743540993"><ele>96.0</ele><time>2026-04-11T11:00:51.999Z</time></trkpt><trkpt lat="38.15317281309461" lon="15.26454626435928"><ele>96.0</ele><time>2026-04-11T11:00:52.999Z</time></trkpt><trkpt lat="38.15306430432198" lon="15.26456222538756"><ele>96.6</ele><time>2026-04-11T11:00:53.999Z</time></trkpt><trkpt lat="38.15295490874343" lon="15.264576290437867"><ele>97.19999999999999</ele><time>2026-04-11T11:00:54.999Z</time></trkpt><trkpt lat="38.152852844359316" lon="15.264588190373608"><ele>97.80000000000001</ele><time>2026-04-11T11:00:55.999Z</time></trkpt><trkpt lat="38.15275564049054" lon="15.264599275688962"><ele>98.4</ele><time>2026-04-11T11:00:56.999Z</time></trkpt><trkpt lat="38.15266397716903" lon="15.264604858500533"><ele>99.0</ele><time>2026-04-11T11:00:57.999Z</time></trkpt><trkpt lat="38.15256698568965" lon="15.264612522225146"><ele>99.0</ele><time>2026-04-11T11:00:58.999Z</time></trkpt><trkpt lat="38.15246583515968" lon="15.264622692441446"><ele>99.0</ele><time>2026-04-11T11:00:59.999Z</time></trkpt><trkpt lat="38.15236138874741" lon="15.264602038739502"><ele>99.0</ele><time>2026-04-11T11:01:00.999Z</time></trkpt><trkpt lat="38.152253698538765" lon="15.264576566787964"><ele>99.0</ele><time>2026-04-11T11:01:01.999Z</time></trkpt><trkpt lat="38.15213472170328" lon="15.264561714623222"><ele>99.0</ele><time>2026-04-11T11:01:02.999Z</time></trkpt><trkpt lat="38.15201113173286" lon="15.264564099937251"><ele>99.2</ele><time>2026-04-11T11:01:03.999Z</time></trkpt><trkpt lat="38.1518874394573" lon="15.264595789244337"><ele>99.4</ele><time>2026-04-11T11:01:04.999Z</time></trkpt><trkpt lat="38.151776601341965" lon="15.264644156962138"><ele>99.6</ele><time>2026-04-11T11:01:05.999Z</time></trkpt><trkpt lat="38.15167929385454" lon="15.264702731054571"><ele>99.8</ele><time>2026-04-11T11:01:06.999Z</time></trkpt><trkpt lat="38.15160934791897" lon="15.264750519967091"><ele>100.0</ele><time>2026-04-11T11:01:07.999Z</time></trkpt><trkpt lat="38.15154051353606" lon="15.264805801917246"><ele>100.83333333333334</ele><time>2026-04-11T11:01:08.999Z</time></trkpt><trkpt lat="38.15145990657543" lon="15.264843830480938"><ele>101.66666666666667</ele><time>2026-04-11T11:01:09.999Z</time></trkpt><trkpt lat="38.151383343790776" lon="15.264893554473154"><ele>102.5</ele><time>2026-04-11T11:01:10.999Z</time></trkpt><trkpt lat="38.15131128887548" lon="15.264955880862425"><ele>103.33333333333334</ele><time>2026-04-11T11:01:11.999Z</time></trkpt><trkpt lat="38.15124148232351" lon="15.265029028081074"><ele>104.16666666666667</ele><time>2026-04-11T11:01:12.999Z</time></trkpt><trkpt lat="38.15116261665415" lon="15.265100045646687"><ele>105.0</ele><time>2026-04-11T11:01:13.999Z</time></trkpt><trkpt lat="38.15109058917994" lon="15.26518593010629"><ele>105.0</ele><time>2026-04-11T11:01:14.999Z</time></trkpt><trkpt lat="38.15102616428158" lon="15.265272805178569"><ele>105.0</ele><time>2026-04-11T11:01:15.999Z</time></trkpt><trkpt lat="38.15098187171744" lon="15.26536084821598"><ele>105.0</ele><time>2026-04-11T11:01:16.999Z</time></trkpt><trkpt lat="38.150917598182936" lon="15.265421432997536"><ele>105.0</ele><time>2026-04-11T11:01:17.999Z</time></trkpt><trkpt lat="38.150856051519256" lon="15.265467395354365"><ele>105.0</ele><time>2026-04-11T11:01:18.999Z</time></trkpt><trkpt lat="38.15079729424213" lon="15.26550796687425"><ele>105.0</ele><time>2026-04-11T11:01:19.999Z</time></trkpt><trkpt lat="38.15073333979486" lon="15.26552198158336"><ele>105.0</ele><time>2026-04-11T11:01:20.999Z</time></trkpt><trkpt lat="38.15062183059509" lon="15.265566148453752"><ele>105.0</ele><time>2026-04-11T11:01:22.999Z</time></trkpt><trkpt lat="38.15056195481481" lon="15.265607104628364"><ele>105.0</ele><time>2026-04-11T11:01:23.999Z</time></trkpt><trkpt lat="38.1504879204712" lon="15.265618724917589"><ele>105.0</ele><time>2026-04-11T11:01:24.999Z</time></trkpt><trkpt lat="38.150406874579524" lon="15.265642282726517"><ele>105.0</ele><time>2026-04-11T11:01:25.999Z</time></trkpt><trkpt lat="38.15034322326846" lon="15.265661678148655"><ele>105.0</ele><time>2026-04-11T11:01:26.999Z</time></trkpt><trkpt lat="38.15023776057324" lon="15.265695514537235"><ele>105.2</ele><time>2026-04-11T11:01:28.999Z</time></trkpt><trkpt lat="38.15012574071061" lon="15.26574122778471"><ele>105.4</ele><time>2026-04-11T11:01:30.999Z</time></trkpt><trkpt lat="38.150051098292984" lon="15.265773416325993"><ele>105.6</ele><time>2026-04-11T11:01:31.999Z</time></trkpt><trkpt lat="38.149968890359155" lon="15.265814090197017"><ele>105.8</ele><time>2026-04-11T11:01:32.999Z</time></trkpt><trkpt lat="38.14988457008726" lon="15.265858093869339"><ele>106.0</ele><time>2026-04-11T11:01:33.999Z</time></trkpt><trkpt lat="38.14979719779206" lon="15.265904238446875"><ele>106.0</ele><time>2026-04-11T11:01:34.999Z</time></trkpt><trkpt lat="38.149699813994935" lon="15.26595561819274"><ele>106.0</ele><time>2026-04-11T11:01:35.999Z</time></trkpt><trkpt lat="38.14960183040464" lon="15.266010992745798"><ele>106.0</ele><time>2026-04-11T11:01:36.999Z</time></trkpt><trkpt lat="38.149498451378854" lon="15.266068301219988"><ele>106.0</ele><time>2026-04-11T11:01:37.999Z</time></trkpt><trkpt lat="38.14939776990061" lon="15.266123583730586"><ele>106.0</ele><time>2026-04-11T11:01:38.999Z</time></trkpt><trkpt lat="38.14928170823928" lon="15.26617289399321"><ele>106.0</ele><time>2026-04-11T11:01:39.999Z</time></trkpt><trkpt lat="38.149170285039865" lon="15.266228759363726"><ele>106.0</ele><time>2026-04-11T11:01:40.999Z</time></trkpt><trkpt lat="38.14905881825535" lon="15.266284451330073"><ele>106.0</ele><time>2026-04-11T11:01:41.999Z</time></trkpt><trkpt lat="38.148961837701755" lon="15.26633496834587"><ele>106.0</ele><time>2026-04-11T11:01:42.999Z</time></trkpt><trkpt lat="38.148861002524164" lon="15.266392067184336"><ele>106.6</ele><time>2026-04-11T11:01:43.999Z</time></trkpt><trkpt lat="38.148764593521996" lon="15.266444478732437"><ele>107.19999999999999</ele><time>2026-04-11T11:01:44.999Z</time></trkpt><trkpt lat="38.14867141603324" lon="15.266494355528184"><ele>107.80000000000001</ele><time>2026-04-11T11:01:45.999Z</time></trkpt><trkpt lat="38.14856952205437" lon="15.2665496754577"><ele>108.4</ele><time>2026-04-11T11:01:46.999Z</time></trkpt><trkpt lat="38.14846636237561" lon="15.266613055117205"><ele>109.0</ele><time>2026-04-11T11:01:47.999Z</time></trkpt><trkpt lat="38.14836984570607" lon="15.266678477025282"><ele>109.4</ele><time>2026-04-11T11:01:48.999Z</time></trkpt><trkpt lat="38.14827832395423" lon="15.26673920950867"><ele>109.80000000000001</ele><time>2026-04-11T11:01:49.999Z</time></trkpt><trkpt lat="38.148190103344405" lon="15.266794553039608"><ele>110.19999999999999</ele><time>2026-04-11T11:01:50.999Z</time></trkpt><trkpt lat="38.148103297045445" lon="15.266846496251366"><ele>110.6</ele><time>2026-04-11T11:01:51.999Z</time></trkpt><trkpt lat="38.148012901996076" lon="15.266900326488704"><ele>111.0</ele><time>2026-04-11T11:01:52.999Z</time></trkpt><trkpt lat="38.14792133282501" lon="15.26695512193643"><ele>111.4</ele><time>2026-04-11T11:01:53.999Z</time></trkpt><trkpt lat="38.147830157453335" lon="15.26701273220635"><ele>111.8</ele><time>2026-04-11T11:01:54.999Z</time></trkpt><trkpt lat="38.147736903267614" lon="15.267075744638513"><ele>112.20000000000002</ele><time>2026-04-11T11:01:55.999Z</time></trkpt><trkpt lat="38.14764133132062" lon="15.267140725478212"><ele>112.60000000000001</ele><time>2026-04-11T11:01:56.999Z</time></trkpt><trkpt lat="38.14754195420057" lon="15.267202532064413"><ele>113.0</ele><time>2026-04-11T11:01:57.999Z</time></trkpt><trkpt lat="38.147442566205825" lon="15.267270662241872"><ele>113.75</ele><time>2026-04-11T11:01:58.999Z</time></trkpt><trkpt lat="38.14733840025474" lon="15.267341017919343"><ele>114.5</ele><time>2026-04-11T11:01:59.999Z</time></trkpt><trkpt lat="38.14724115030752" lon="15.267407206499184"><ele>115.25</ele><time>2026-04-11T11:02:00.999Z</time></trkpt><trkpt lat="38.14714606432168" lon="15.267477168436672"><ele>116.0</ele><time>2026-04-11T11:02:01.999Z</time></trkpt><trkpt lat="38.14704443920972" lon="15.267549325176356"><ele>115.99999999999999</ele><time>2026-04-11T11:02:02.999Z</time></trkpt><trkpt lat="38.14695061504849" lon="15.267616276218066"><ele>116.0</ele><time>2026-04-11T11:02:03.999Z</time></trkpt><trkpt lat="38.1468726435616" lon="15.267674123803936"><ele>116.0</ele><time>2026-04-11T11:02:04.999Z</time></trkpt><trkpt lat="38.14680353535185" lon="15.267720798780056"><ele>116.0</ele><time>2026-04-11T11:02:06Z</time></trkpt><trkpt lat="38.146729422496804" lon="15.267766203241614"><ele>115.99999999999999</ele><time>2026-04-11T11:02:07Z</time></trkpt><trkpt lat="38.146645859442025" lon="15.267809353269437"><ele>116.0</ele><time>2026-04-11T11:02:08Z</time></trkpt><trkpt lat="38.146557024600355" lon="15.267849294344408"><ele>116.19999999999999</ele><time>2026-04-11T11:02:09Z</time></trkpt><trkpt lat="38.1464644014698" lon="15.267892930900173"><ele>116.39999999999999</ele><time>2026-04-11T11:02:10Z</time></trkpt><trkpt lat="38.14637022282631" lon="15.267936526203766"><ele>116.6</ele><time>2026-04-11T11:02:11Z</time></trkpt><trkpt lat="38.1462717809815" lon="15.267979353169599"><ele>116.8</ele><time>2026-04-11T11:02:12Z</time></trkpt><trkpt lat="38.14617075636828" lon="15.26802221143497"><ele>117.0</ele><time>2026-04-11T11:02:13Z</time></trkpt><trkpt lat="38.146064818614924" lon="15.268073471166499"><ele>117.6</ele><time>2026-04-11T11:02:14Z</time></trkpt><trkpt lat="38.14596214802305" lon="15.268122236808134"><ele>118.19999999999999</ele><time>2026-04-11T11:02:15Z</time></trkpt><trkpt lat="38.1458717457058" lon="15.268159237888037"><ele>118.8</ele><time>2026-04-11T11:02:16Z</time></trkpt><trkpt lat="38.14578966915675" lon="15.26819237516417"><ele>119.4</ele><time>2026-04-11T11:02:17Z</time></trkpt><trkpt lat="38.14571416243295" lon="15.268216223247682"><ele>120.0</ele><time>2026-04-11T11:02:18Z</time></trkpt><trkpt lat="38.145636017811505" lon="15.26826095271741"><ele>120.0</ele><time>2026-04-11T11:02:19Z</time></trkpt><trkpt lat="38.14554024504371" lon="15.26828824802317"><ele>120.0</ele><time>2026-04-11T11:02:20Z</time></trkpt><trkpt lat="38.14545902302982" lon="15.26830104208723"><ele>120.0</ele><time>2026-04-11T11:02:21Z</time></trkpt><trkpt lat="38.14539564855285" lon="15.268290767013765"><ele>120.0</ele><time>2026-04-11T11:02:22Z</time></trkpt><trkpt lat="38.145266248291485" lon="15.268331920207281"><ele>120.0</ele><time>2026-04-11T11:02:24Z</time></trkpt><trkpt lat="38.145202407001676" lon="15.268360060127174"><ele>120.0</ele><time>2026-04-11T11:02:25Z</time></trkpt><trkpt lat="38.14513810515329" lon="15.26838988792307"><ele>120.0</ele><time>2026-04-11T11:02:26Z</time></trkpt><trkpt lat="38.145073300511044" lon="15.268419822600858"><ele>120.0</ele><time>2026-04-11T11:02:27Z</time></trkpt><trkpt lat="38.14500406337303" lon="15.268454185510636"><ele>120.0</ele><time>2026-04-11T11:02:28Z</time></trkpt><trkpt lat="38.14493173362431" lon="15.268492779608826"><ele>120.0</ele><time>2026-04-11T11:02:29Z</time></trkpt><trkpt lat="38.14485604081434" lon="15.268532072053524"><ele>120.0</ele><time>2026-04-11T11:02:30Z</time></trkpt><trkpt lat="38.14478219310066" lon="15.268568099897692"><ele>120.0</ele><time>2026-04-11T11:02:31Z</time></trkpt><trkpt lat="38.14471535609943" lon="15.268596276657744"><ele>120.4</ele><time>2026-04-11T11:02:32Z</time></trkpt><trkpt lat="38.144600669874826" lon="15.268658839996421"><ele>120.8</ele><time>2026-04-11T11:02:34Z</time></trkpt><trkpt lat="38.14451348580234" lon="15.268751011072744"><ele>121.19999999999999</ele><time>2026-04-11T11:02:36Z</time></trkpt><trkpt lat="38.144392571522914" lon="15.268801842521707"><ele>121.6</ele><time>2026-04-11T11:02:38Z</time></trkpt><trkpt lat="38.144333942314105" lon="15.268847867678742"><ele>122.0</ele><time>2026-04-11T11:02:39Z</time></trkpt><trkpt lat="38.14426936290233" lon="15.268892793570691"><ele>121.99999999999999</ele><time>2026-04-11T11:02:40Z</time></trkpt><trkpt lat="38.144202899522256" lon="15.268938178568417"><ele>122.0</ele><time>2026-04-11T11:02:41Z</time></trkpt><trkpt lat="38.14413405927272" lon="15.268980391072189"><ele>122.0</ele><time>2026-04-11T11:02:42Z</time></trkpt><trkpt lat="38.14405720033762" lon="15.26902033668865"><ele>122.0</ele><time>2026-04-11T11:02:43Z</time></trkpt><trkpt lat="38.14397337348491" lon="15.269056801313628"><ele>121.99999999999999</ele><time>2026-04-11T11:02:44Z</time></trkpt><trkpt lat="38.14388304095695" lon="15.269096366381797"><ele>122.0</ele><time>2026-04-11T11:02:45Z</time></trkpt><trkpt lat="38.143793726144395" lon="15.26913771343911"><ele>122.39999999999999</ele><time>2026-04-11T11:02:46Z</time></trkpt><trkpt lat="38.14370166433292" lon="15.269182246862563"><ele>122.79999999999998</ele><time>2026-04-11T11:02:46.999Z</time></trkpt><trkpt lat="38.14360467563294" lon="15.269226498920865"><ele>123.2</ele><time>2026-04-11T11:02:47.999Z</time></trkpt><trkpt lat="38.14350296754229" lon="15.269273456581848"><ele>123.6</ele><time>2026-04-11T11:02:48.999Z</time></trkpt><trkpt lat="38.14341456592206" lon="15.269316958970684"><ele>124.0</ele><time>2026-04-11T11:02:49.999Z</time></trkpt><trkpt lat="38.14333117119543" lon="15.269355735238484"><ele>124.0</ele><time>2026-04-11T11:02:50.999Z</time></trkpt><trkpt lat="38.14324737516388" lon="15.26939256295721"><ele>124.0</ele><time>2026-04-11T11:02:51.999Z</time></trkpt><trkpt lat="38.14316072291767" lon="15.269429822889762"><ele>124.0</ele><time>2026-04-11T11:02:52.999Z</time></trkpt><trkpt lat="38.143071001119395" lon="15.26946702449062"><ele>124.0</ele><time>2026-04-11T11:02:53.999Z</time></trkpt><trkpt lat="38.14297660384127" lon="15.269504290831039"><ele>124.0</ele><time>2026-04-11T11:02:54.999Z</time></trkpt><trkpt lat="38.14288201075065" lon="15.269541376092384"><ele>124.0</ele><time>2026-04-11T11:02:55.999Z</time></trkpt><trkpt lat="38.1427856237266" lon="15.269579213164183"><ele>124.0</ele><time>2026-04-11T11:02:56.999Z</time></trkpt><trkpt lat="38.14269266717423" lon="15.26961566214181"><ele>124.0</ele><time>2026-04-11T11:02:57.999Z</time></trkpt><trkpt lat="38.14259820262547" lon="15.269654858996248"><ele>124.0</ele><time>2026-04-11T11:02:58.999Z</time></trkpt><trkpt lat="38.14249357824963" lon="15.269673512838548"><ele>124.0</ele><time>2026-04-11T11:02:59.999Z</time></trkpt><trkpt lat="38.142394226304944" lon="15.269711879775755"><ele>124.80000000000001</ele><time>2026-04-11T11:03:00.999Z</time></trkpt><trkpt lat="38.14229612795118" lon="15.269749762640457"><ele>125.60000000000001</ele><time>2026-04-11T11:03:01.999Z</time></trkpt><trkpt lat="38.14219483279463" lon="15.269788879980725"><ele>126.4</ele><time>2026-04-11T11:03:02.999Z</time></trkpt><trkpt lat="38.14209105931601" lon="15.269828954414555"><ele>127.2</ele><time>2026-04-11T11:03:03.999Z</time></trkpt><trkpt lat="38.14198687037889" lon="15.269869189243133"><ele>128.0</ele><time>2026-04-11T11:03:04.999Z</time></trkpt><trkpt lat="38.14189775942711" lon="15.269925073667034"><ele>128.33333333333331</ele><time>2026-04-11T11:03:05.999Z</time></trkpt><trkpt lat="38.14180504833941" lon="15.269960365406035"><ele>128.66666666666666</ele><time>2026-04-11T11:03:06.999Z</time></trkpt><trkpt lat="38.14172755933533" lon="15.270002284576991"><ele>129.0</ele><time>2026-04-11T11:03:07.999Z</time></trkpt><trkpt lat="38.141657030420404" lon="15.270043995884171"><ele>129.33333333333334</ele><time>2026-04-11T11:03:08.999Z</time></trkpt><trkpt lat="38.14159137490907" lon="15.270081729110432"><ele>129.66666666666669</ele><time>2026-04-11T11:03:09.999Z</time></trkpt><trkpt lat="38.141521118781725" lon="15.270123789033349"><ele>130.0</ele><time>2026-04-11T11:03:10.999Z</time></trkpt><trkpt lat="38.14144037758975" lon="15.270175475629166"><ele>130.0</ele><time>2026-04-11T11:03:11.999Z</time></trkpt><trkpt lat="38.141360364720036" lon="15.270212670400324"><ele>130.0</ele><time>2026-04-11T11:03:12.999Z</time></trkpt><trkpt lat="38.14127931570945" lon="15.270241333083566"><ele>130.0</ele><time>2026-04-11T11:03:13.999Z</time></trkpt><trkpt lat="38.1412031577179" lon="15.270293033436179"><ele>130.0</ele><time>2026-04-11T11:03:14.999Z</time></trkpt><trkpt lat="38.14112812303679" lon="15.270337544547527"><ele>130.0</ele><time>2026-04-11T11:03:15.999Z</time></trkpt><trkpt lat="38.14104582229064" lon="15.270386365908786"><ele>130.0</ele><time>2026-04-11T11:03:16.999Z</time></trkpt><trkpt lat="38.1409628475245" lon="15.270434311123733"><ele>130.0</ele><time>2026-04-11T11:03:17.999Z</time></trkpt><trkpt lat="38.14087802710959" lon="15.270479458593243"><ele>130.0</ele><time>2026-04-11T11:03:18.999Z</time></trkpt><trkpt lat="38.14078663112724" lon="15.270522526118079"><ele>130.0</ele><time>2026-04-11T11:03:19.999Z</time></trkpt><trkpt lat="38.14069522506615" lon="15.270562438208016"><ele>130.0</ele><time>2026-04-11T11:03:20.999Z</time></trkpt><trkpt lat="38.14060478554995" lon="15.270597875796613"><ele>130.0</ele><time>2026-04-11T11:03:21.999Z</time></trkpt><trkpt lat="38.14051262978112" lon="15.270633985815936"><ele>130.83333333333334</ele><time>2026-04-11T11:03:22.999Z</time></trkpt><trkpt lat="38.14042433335584" lon="15.270668583598143"><ele>131.66666666666669</ele><time>2026-04-11T11:03:23.999Z</time></trkpt><trkpt lat="38.14033965781671" lon="15.270702386211985"><ele>132.5</ele><time>2026-04-11T11:03:24.999Z</time></trkpt><trkpt lat="38.14025186357252" lon="15.270738062764934"><ele>133.33333333333334</ele><time>2026-04-11T11:03:25.999Z</time></trkpt><trkpt lat="38.140171925517" lon="15.270773213200442"><ele>134.16666666666666</ele><time>2026-04-11T11:03:26.999Z</time></trkpt><trkpt lat="38.14008694958053" lon="15.270810765989658"><ele>135.0</ele><time>2026-04-11T11:03:27.999Z</time></trkpt><trkpt lat="38.13999917552321" lon="15.27085002567616"><ele>135.0</ele><time>2026-04-11T11:03:28.999Z</time></trkpt><trkpt lat="38.139903399702455" lon="15.27089436141185"><ele>135.0</ele><time>2026-04-11T11:03:29.999Z</time></trkpt><trkpt lat="38.13979994775293" lon="15.270942250534539"><ele>135.0</ele><time>2026-04-11T11:03:30.999Z</time></trkpt><trkpt lat="38.139698648093095" lon="15.270990056963404"><ele>135.0</ele><time>2026-04-11T11:03:31.999Z</time></trkpt><trkpt lat="38.13958981021993" lon="15.271041850459119"><ele>135.0</ele><time>2026-04-11T11:03:32.999Z</time></trkpt><trkpt lat="38.13948281419893" lon="15.27109276750119"><ele>135.2</ele><time>2026-04-11T11:03:33.999Z</time></trkpt><trkpt lat="38.13937497475577" lon="15.271144085854447"><ele>135.4</ele><time>2026-04-11T11:03:34.999Z</time></trkpt><trkpt lat="38.13927155787064" lon="15.271193299631095"><ele>135.6</ele><time>2026-04-11T11:03:35.999Z</time></trkpt><trkpt lat="38.13917714261693" lon="15.271239675358105"><ele>135.8</ele><time>2026-04-11T11:03:36.999Z</time></trkpt><trkpt lat="38.13907239483226" lon="15.271292089106035"><ele>136.0</ele><time>2026-04-11T11:03:37.999Z</time></trkpt><trkpt lat="38.13899007104345" lon="15.271342604798397"><ele>136.5</ele><time>2026-04-11T11:03:38.999Z</time></trkpt><trkpt lat="38.138901709671565" lon="15.271400039016147"><ele>137.0</ele><time>2026-04-11T11:03:39.999Z</time></trkpt><trkpt lat="38.13879089187279" lon="15.271470256868081"><ele>137.5</ele><time>2026-04-11T11:03:40.999Z</time></trkpt><trkpt lat="38.13867907049574" lon="15.27153730589367"><ele>138.0</ele><time>2026-04-11T11:03:41.999Z</time></trkpt><trkpt lat="38.13857656160446" lon="15.271597391226024"><ele>138.0</ele><time>2026-04-11T11:03:42.999Z</time></trkpt><trkpt lat="38.13847297466278" lon="15.2716581085068"><ele>138.0</ele><time>2026-04-11T11:03:43.999Z</time></trkpt><trkpt lat="38.13836200795172" lon="15.271722483340794"><ele>138.0</ele><time>2026-04-11T11:03:44.999Z</time></trkpt><trkpt lat="38.138260732806096" lon="15.271778056974037"><ele>138.0</ele><time>2026-04-11T11:03:45.999Z</time></trkpt><trkpt lat="38.13813475170334" lon="15.271839171723034"><ele>138.75</ele><time>2026-04-11T11:03:46.999Z</time></trkpt><trkpt lat="38.138013439975026" lon="15.271891351804133"><ele>139.5</ele><time>2026-04-11T11:03:47.999Z</time></trkpt><trkpt lat="38.13789848612525" lon="15.271936435089515"><ele>140.25</ele><time>2026-04-11T11:03:48.999Z</time></trkpt><trkpt lat="38.13778042961389" lon="15.271980509564278"><ele>141.0</ele><time>2026-04-11T11:03:49.999Z</time></trkpt><trkpt lat="38.13767196619387" lon="15.272018578263479"><ele>141.0</ele><time>2026-04-11T11:03:50.999Z</time></trkpt><trkpt lat="38.13755771141108" lon="15.27205867956232"><ele>141.0</ele><time>2026-04-11T11:03:51.999Z</time></trkpt><trkpt lat="38.13744368832664" lon="15.272098699513894"><ele>141.0</ele><time>2026-04-11T11:03:52.999Z</time></trkpt><trkpt lat="38.13734298774757" lon="15.272134043586153"><ele>141.0</ele><time>2026-04-11T11:03:53.999Z</time></trkpt><trkpt lat="38.13725531599177" lon="15.272166325030234"><ele>141.0</ele><time>2026-04-11T11:03:54.999Z</time></trkpt><trkpt lat="38.13715806505416" lon="15.272202771215571"><ele>141.5</ele><time>2026-04-11T11:03:55.999Z</time></trkpt><trkpt lat="38.13705093846549" lon="15.27224291849432"><ele>142.0</ele><time>2026-04-11T11:03:56.999Z</time></trkpt><trkpt lat="38.13693499947116" lon="15.272283220870992"><ele>142.5</ele><time>2026-04-11T11:03:57.999Z</time></trkpt><trkpt lat="38.1368114170918" lon="15.2723173340383"><ele>143.0</ele><time>2026-04-11T11:03:58.999Z</time></trkpt><trkpt lat="38.13670344327953" lon="15.272341131795496"><ele>143.0</ele><time>2026-04-11T11:03:59.999Z</time></trkpt><trkpt lat="38.13660475767346" lon="15.272373499117741"><ele>143.0</ele><time>2026-04-11T11:04:00.999Z</time></trkpt><trkpt lat="38.13652368557216" lon="15.272406323404033"><ele>143.0</ele><time>2026-04-11T11:04:01.999Z</time></trkpt><trkpt lat="38.13645045549231" lon="15.272445074210982"><ele>143.0</ele><time>2026-04-11T11:04:02.999Z</time></trkpt><trkpt lat="38.13636584152574" lon="15.272479527885048"><ele>143.0</ele><time>2026-04-11T11:04:03.999Z</time></trkpt><trkpt lat="38.13629412560304" lon="15.2725380056919"><ele>143.0</ele><time>2026-04-11T11:04:04.999Z</time></trkpt><trkpt lat="38.13622405290722" lon="15.272588436064078"><ele>143.33333333333331</ele><time>2026-04-11T11:04:05.999Z</time></trkpt><trkpt lat="38.136157862445096" lon="15.272635175775292"><ele>143.66666666666666</ele><time>2026-04-11T11:04:06.999Z</time></trkpt><trkpt lat="38.13608746666481" lon="15.272678182438625"><ele>144.0</ele><time>2026-04-11T11:04:07.999Z</time></trkpt><trkpt lat="38.136008908257494" lon="15.272721778787767"><ele>144.33333333333334</ele><time>2026-04-11T11:04:08.999Z</time></trkpt><trkpt lat="38.1359185165096" lon="15.27277721855433"><ele>144.66666666666669</ele><time>2026-04-11T11:04:09.999Z</time></trkpt><trkpt lat="38.1358276272812" lon="15.27282267684413"><ele>145.0</ele><time>2026-04-11T11:04:10.999Z</time></trkpt><trkpt lat="38.13573090857647" lon="15.272868390657335"><ele>145.6</ele><time>2026-04-11T11:04:12Z</time></trkpt><trkpt lat="38.13562921129446" lon="15.27291165169497"><ele>146.2</ele><time>2026-04-11T11:04:13Z</time></trkpt><trkpt lat="38.1355263780957" lon="15.272956670520362"><ele>146.8</ele><time>2026-04-11T11:04:14Z</time></trkpt><trkpt lat="38.13541815033227" lon="15.272998223188171"><ele>147.4</ele><time>2026-04-11T11:04:15Z</time></trkpt><trkpt lat="38.135316416230395" lon="15.273035592860849"><ele>148.0</ele><time>2026-04-11T11:04:16Z</time></trkpt><trkpt lat="38.135209416467234" lon="15.273066581261336"><ele>148.0</ele><time>2026-04-11T11:04:17Z</time></trkpt><trkpt lat="38.13509856735268" lon="15.273092167386817"><ele>148.0</ele><time>2026-04-11T11:04:18Z</time></trkpt><trkpt lat="38.13498469332483" lon="15.27311406694653"><ele>148.0</ele><time>2026-04-11T11:04:19Z</time></trkpt><trkpt lat="38.134868692390036" lon="15.273136718422187"><ele>148.0</ele><time>2026-04-11T11:04:20Z</time></trkpt><trkpt lat="38.134752181823416" lon="15.273168518375675"><ele>149.0</ele><time>2026-04-11T11:04:21Z</time></trkpt><trkpt lat="38.134633197353814" lon="15.273202166399427"><ele>150.0</ele><time>2026-04-11T11:04:22Z</time></trkpt><trkpt lat="38.13451036530779" lon="15.273235857235587"><ele>151.0</ele><time>2026-04-11T11:04:23Z</time></trkpt><trkpt lat="38.13439047496079" lon="15.27326473356002"><ele>152.0</ele><time>2026-04-11T11:04:24Z</time></trkpt><trkpt lat="38.134274043606744" lon="15.27328802218974"><ele>152.0</ele><time>2026-04-11T11:04:25Z</time></trkpt><trkpt lat="38.13415455321305" lon="15.273316591754151"><ele>152.0</ele><time>2026-04-11T11:04:26Z</time></trkpt><trkpt lat="38.13404030269819" lon="15.27335143291253"><ele>152.0</ele><time>2026-04-11T11:04:27Z</time></trkpt><trkpt lat="38.13392921421924" lon="15.27338918533509"><ele>152.0</ele><time>2026-04-11T11:04:28Z</time></trkpt><trkpt lat="38.133818646062856" lon="15.273407738442247"><ele>152.5</ele><time>2026-04-11T11:04:29Z</time></trkpt><trkpt lat="38.133713516749005" lon="15.273437837957172"><ele>153.0</ele><time>2026-04-11T11:04:30Z</time></trkpt><trkpt lat="38.133606686374684" lon="15.273469216059292"><ele>153.5</ele><time>2026-04-11T11:04:31Z</time></trkpt><trkpt lat="38.13349397408718" lon="15.273502321720025"><ele>154.0</ele><time>2026-04-11T11:04:32.001Z</time></trkpt><trkpt lat="38.13338242672311" lon="15.2735533440086"><ele>154.0</ele><time>2026-04-11T11:04:33.001Z</time></trkpt><trkpt lat="38.13326547375044" lon="15.273581765916985"><ele>154.0</ele><time>2026-04-11T11:04:34.001Z</time></trkpt><trkpt lat="38.133146641837364" lon="15.273610268894863"><ele>154.0</ele><time>2026-04-11T11:04:35.001Z</time></trkpt><trkpt lat="38.133021947208675" lon="15.273635255693526"><ele>154.0</ele><time>2026-04-11T11:04:36.001Z</time></trkpt><trkpt lat="38.13289804259237" lon="15.27365561130024"><ele>154.33333333333334</ele><time>2026-04-11T11:04:37.001Z</time></trkpt><trkpt lat="38.13265418082901" lon="15.273715429116073"><ele>154.66666666666666</ele><time>2026-04-11T11:04:39.001Z</time></trkpt><trkpt lat="38.132549562445185" lon="15.273736137224589"><ele>155.0</ele><time>2026-04-11T11:04:40.001Z</time></trkpt><trkpt lat="38.13245035360077" lon="15.27376594453857"><ele>155.2</ele><time>2026-04-11T11:04:41.001Z</time></trkpt><trkpt lat="38.13235775925251" lon="15.273814611688945"><ele>155.4</ele><time>2026-04-11T11:04:42.001Z</time></trkpt><trkpt lat="38.13227202144352" lon="15.273876468543786"><ele>155.6</ele><time>2026-04-11T11:04:43.001Z</time></trkpt><trkpt lat="38.13216298323999" lon="15.273949294691286"><ele>155.8</ele><time>2026-04-11T11:04:44.001Z</time></trkpt><trkpt lat="38.13204946988039" lon="15.274006664428656"><ele>156.0</ele><time>2026-04-11T11:04:45.001Z</time></trkpt><trkpt lat="38.13193266852458" lon="15.274055281092124"><ele>156.5</ele><time>2026-04-11T11:04:46.001Z</time></trkpt><trkpt lat="38.131814719112434" lon="15.274098505474027"><ele>157.0</ele><time>2026-04-11T11:04:47.001Z</time></trkpt><trkpt lat="38.13168587440887" lon="15.27413693204032"><ele>157.5</ele><time>2026-04-11T11:04:48.001Z</time></trkpt><trkpt lat="38.13153578852643" lon="15.27416212941646"><ele>158.0</ele><time>2026-04-11T11:04:49.001Z</time></trkpt><trkpt lat="38.13138650593264" lon="15.27416327093684"><ele>158.5</ele><time>2026-04-11T11:04:50.001Z</time></trkpt><trkpt lat="38.13124630649263" lon="15.274150616087061"><ele>159.0</ele><time>2026-04-11T11:04:51Z</time></trkpt><trkpt lat="38.131112569291915" lon="15.274124674239072"><ele>159.5</ele><time>2026-04-11T11:04:52Z</time></trkpt><trkpt lat="38.13099806039512" lon="15.274103629591972"><ele>160.0</ele><time>2026-04-11T11:04:53Z</time></trkpt><trkpt lat="38.130883564602726" lon="15.274089162839232"><ele>160.0</ele><time>2026-04-11T11:04:54Z</time></trkpt><trkpt lat="38.13076547348015" lon="15.274081036285523"><ele>160.0</ele><time>2026-04-11T11:04:55Z</time></trkpt><trkpt lat="38.13064348048336" lon="15.27407572877267"><ele>160.0</ele><time>2026-04-11T11:04:56Z</time></trkpt><trkpt lat="38.13054114923521" lon="15.274073958317961"><ele>160.0</ele><time>2026-04-11T11:04:57Z</time></trkpt><trkpt lat="38.13045061576969" lon="15.274072348993215"><ele>160.0</ele><time>2026-04-11T11:04:58Z</time></trkpt><trkpt lat="38.130354291366295" lon="15.274072820677878"><ele>160.0</ele><time>2026-04-11T11:04:59Z</time></trkpt><trkpt lat="38.13026440074363" lon="15.274073260857541"><ele>160.0</ele><time>2026-04-11T11:05:00Z</time></trkpt><trkpt lat="38.13018650483038" lon="15.274073642299811"><ele>160.0</ele><time>2026-04-11T11:05:01Z</time></trkpt><trkpt lat="38.13006116184921" lon="15.274076205401034"><ele>160.0</ele><time>2026-04-11T11:05:03Z</time></trkpt><trkpt lat="38.12995496499583" lon="15.27408056367369"><ele>160.0</ele><time>2026-04-11T11:05:05Z</time></trkpt><trkpt lat="38.12987624542772" lon="15.274083937971765"><ele>160.33333333333334</ele><time>2026-04-11T11:05:08Z</time></trkpt><trkpt lat="38.129784236927044" lon="15.274087881890578"><ele>160.66666666666666</ele><time>2026-04-11T11:05:10Z</time></trkpt><trkpt lat="38.129667661732896" lon="15.274092804852197"><ele>161.0</ele><time>2026-04-11T11:05:12Z</time></trkpt><trkpt lat="38.12964735918031" lon="15.27372360224991"><ele>161.0</ele><time>2026-04-11T11:05:13Z</time></trkpt><trkpt lat="38.12956333039896" lon="15.274096327677434"><ele>161.0</ele><time>2026-04-11T11:05:14Z</time></trkpt><trkpt lat="38.129480121360814" lon="15.274095854889028"><ele>161.0</ele><time>2026-04-11T11:05:15Z</time></trkpt><trkpt lat="38.12939966715607" lon="15.274096360662485"><ele>161.0</ele><time>2026-04-11T11:05:16Z</time></trkpt><trkpt lat="38.1293144850667" lon="15.27409535445404"><ele>161.0</ele><time>2026-04-11T11:05:17Z</time></trkpt><trkpt lat="38.12923324785898" lon="15.274093879397666"><ele>161.0</ele><time>2026-04-11T11:05:18Z</time></trkpt><trkpt lat="38.129136427387785" lon="15.274087495802343"><ele>161.0</ele><time>2026-04-11T11:05:19Z</time></trkpt><trkpt lat="38.129056136344246" lon="15.274072301168705"><ele>161.0</ele><time>2026-04-11T11:05:20Z</time></trkpt><trkpt lat="38.12896873487847" lon="15.27407362759466"><ele>161.0</ele><time>2026-04-11T11:05:21Z</time></trkpt><trkpt lat="38.1288901267984" lon="15.274084497002951"><ele>161.4</ele><time>2026-04-11T11:05:22Z</time></trkpt><trkpt lat="38.128798115912346" lon="15.27410630284334"><ele>161.8</ele><time>2026-04-11T11:05:23Z</time></trkpt><trkpt lat="38.12870140600928" lon="15.274131897891177"><ele>162.20000000000002</ele><time>2026-04-11T11:05:24Z</time></trkpt><trkpt lat="38.12860218682193" lon="15.274155859905981"><ele>162.60000000000002</ele><time>2026-04-11T11:05:25Z</time></trkpt><trkpt lat="38.12850227116799" lon="15.27417289144685"><ele>163.0</ele><time>2026-04-11T11:05:26Z</time></trkpt><trkpt lat="38.12840902414365" lon="15.274189034596864"><ele>163.0</ele><time>2026-04-11T11:05:27Z</time></trkpt><trkpt lat="38.128311780582514" lon="15.27420586960162"><ele>163.0</ele><time>2026-04-11T11:05:28Z</time></trkpt><trkpt lat="38.12822271518573" lon="15.27422421436536"><ele>163.0</ele><time>2026-04-11T11:05:29Z</time></trkpt><trkpt lat="38.12813778686711" lon="15.274247168932924"><ele>163.0</ele><time>2026-04-11T11:05:30Z</time></trkpt><trkpt lat="38.12806068082402" lon="15.274268673735309"><ele>163.0</ele><time>2026-04-11T11:05:31Z</time></trkpt><trkpt lat="38.12797017325166" lon="15.274292453249105"><ele>163.0</ele><time>2026-04-11T11:05:32Z</time></trkpt><trkpt lat="38.12787410948677" lon="15.27431448177797"><ele>163.8</ele><time>2026-04-11T11:05:33Z</time></trkpt><trkpt lat="38.12778523482943" lon="15.274334861691388"><ele>164.60000000000002</ele><time>2026-04-11T11:05:34Z</time></trkpt><trkpt lat="38.12769164177457" lon="15.274353436005294"><ele>165.39999999999998</ele><time>2026-04-11T11:05:35Z</time></trkpt><trkpt lat="38.12759418820992" lon="15.274369444721309"><ele>166.2</ele><time>2026-04-11T11:05:36Z</time></trkpt><trkpt lat="38.12749581727583" lon="15.274377971818867"><ele>167.0</ele><time>2026-04-11T11:05:37Z</time></trkpt><trkpt lat="38.12739830554527" lon="15.274377419066063"><ele>167.2</ele><time>2026-04-11T11:05:38Z</time></trkpt><trkpt lat="38.12730076285801" lon="15.274370763559649"><ele>167.39999999999998</ele><time>2026-04-11T11:05:39Z</time></trkpt><trkpt lat="38.12720359410428" lon="15.274363275792547"><ele>167.60000000000002</ele><time>2026-04-11T11:05:40Z</time></trkpt><trkpt lat="38.127107882097" lon="15.274356714624561"><ele>167.8</ele><time>2026-04-11T11:05:41Z</time></trkpt><trkpt lat="38.127013389251395" lon="15.274351098178158"><ele>168.0</ele><time>2026-04-11T11:05:42Z</time></trkpt><trkpt lat="38.12691099780409" lon="15.274343459645696"><ele>168.0</ele><time>2026-04-11T11:05:43Z</time></trkpt><trkpt lat="38.12680361175064" lon="15.274372325329443"><ele>168.0</ele><time>2026-04-11T11:05:44Z</time></trkpt><trkpt lat="38.126695758650996" lon="15.274401715590407"><ele>168.0</ele><time>2026-04-11T11:05:45Z</time></trkpt><trkpt lat="38.12659121146633" lon="15.274426712392836"><ele>168.0</ele><time>2026-04-11T11:05:46Z</time></trkpt><trkpt lat="38.12649523284833" lon="15.274479974637288"><ele>168.0</ele><time>2026-04-11T11:05:47Z</time></trkpt><trkpt lat="38.12643085139241" lon="15.27452057315256"><ele>168.33333333333334</ele><time>2026-04-11T11:05:48Z</time></trkpt><trkpt lat="38.126358084299085" lon="15.274568673396665"><ele>168.66666666666666</ele><time>2026-04-11T11:05:49Z</time></trkpt><trkpt lat="38.12627840200063" lon="15.274621344758009"><ele>169.0</ele><time>2026-04-11T11:05:50Z</time></trkpt><trkpt lat="38.12620202173189" lon="15.2746718335078"><ele>169.33333333333331</ele><time>2026-04-11T11:05:51Z</time></trkpt><trkpt lat="38.126132710147616" lon="15.27471720350895"><ele>169.66666666666666</ele><time>2026-04-11T11:05:52Z</time></trkpt><trkpt lat="38.12605189474072" lon="15.274764394557153"><ele>170.0</ele><time>2026-04-11T11:05:53Z</time></trkpt><trkpt lat="38.12596160693801" lon="15.27480340568218"><ele>170.8</ele><time>2026-04-11T11:05:54Z</time></trkpt><trkpt lat="38.125866495398554" lon="15.274837761084243"><ele>171.6</ele><time>2026-04-11T11:05:55Z</time></trkpt><trkpt lat="38.12576958712984" lon="15.27486567978049"><ele>172.39999999999998</ele><time>2026-04-11T11:05:56Z</time></trkpt><trkpt lat="38.125668295120185" lon="15.274887599731986"><ele>173.2</ele><time>2026-04-11T11:05:57Z</time></trkpt><trkpt lat="38.125561556761625" lon="15.274899242419846"><ele>174.0</ele><time>2026-04-11T11:05:58Z</time></trkpt><trkpt lat="38.125459810960486" lon="15.274906015484248"><ele>174.2</ele><time>2026-04-11T11:05:59Z</time></trkpt><trkpt lat="38.12536018513513" lon="15.274910497333392"><ele>174.39999999999998</ele><time>2026-04-11T11:06:00Z</time></trkpt><trkpt lat="38.125258204428334" lon="15.274909417338298"><ele>174.6</ele><time>2026-04-11T11:06:01Z</time></trkpt><trkpt lat="38.12515206754824" lon="15.274932617927975"><ele>174.8</ele><time>2026-04-11T11:06:02Z</time></trkpt><trkpt lat="38.12504084334435" lon="15.274959964267532"><ele>175.0</ele><time>2026-04-11T11:06:03Z</time></trkpt><trkpt lat="38.1249296548432" lon="15.274963370600643"><ele>175.83333333333334</ele><time>2026-04-11T11:06:04Z</time></trkpt><trkpt lat="38.12483891066555" lon="15.274985857191508"><ele>176.66666666666669</ele><time>2026-04-11T11:06:05Z</time></trkpt><trkpt lat="38.12474446258265" lon="15.27501593730064"><ele>177.5</ele><time>2026-04-11T11:06:06Z</time></trkpt><trkpt lat="38.12465644762617" lon="15.275053140605202"><ele>178.33333333333334</ele><time>2026-04-11T11:06:07Z</time></trkpt><trkpt lat="38.124582243629796" lon="15.275109955402964"><ele>179.16666666666666</ele><time>2026-04-11T11:06:08Z</time></trkpt><trkpt lat="38.12451209990238" lon="15.275127347739039"><ele>180.0</ele><time>2026-04-11T11:06:09Z</time></trkpt><trkpt lat="38.12444670572982" lon="15.275141055030861"><ele>180.0</ele><time>2026-04-11T11:06:10Z</time></trkpt><trkpt lat="38.12437652743923" lon="15.275121744132537"><ele>180.0</ele><time>2026-04-11T11:06:11Z</time></trkpt><trkpt lat="38.12430668484365" lon="15.275110917350375"><ele>180.0</ele><time>2026-04-11T11:06:12Z</time></trkpt><trkpt lat="38.124233907947996" lon="15.275099565464245"><ele>180.0</ele><time>2026-04-11T11:06:13Z</time></trkpt><trkpt lat="38.124164716587785" lon="15.275097140823018"><ele>180.0</ele><time>2026-04-11T11:06:14Z</time></trkpt><trkpt lat="38.12405784563273" lon="15.275080106787412"><ele>180.0</ele><time>2026-04-11T11:06:16Z</time></trkpt><trkpt lat="38.12394318756986" lon="15.275041743964733"><ele>180.28571428571428</ele><time>2026-04-11T11:06:18.001Z</time></trkpt><trkpt lat="38.12387108379641" lon="15.275023934773282"><ele>180.57142857142858</ele><time>2026-04-11T11:06:19.001Z</time></trkpt><trkpt lat="38.12379642058391" lon="15.274998292820383"><ele>180.85714285714286</ele><time>2026-04-11T11:06:20.001Z</time></trkpt><trkpt lat="38.12372676876376" lon="15.274970927575707"><ele>181.14285714285714</ele><time>2026-04-11T11:06:21.001Z</time></trkpt><trkpt lat="38.123653487453105" lon="15.274954362287284"><ele>181.42857142857144</ele><time>2026-04-11T11:06:22.001Z</time></trkpt><trkpt lat="38.12358874032026" lon="15.274917990017048"><ele>181.71428571428572</ele><time>2026-04-11T11:06:23.001Z</time></trkpt><trkpt lat="38.12352280270211" lon="15.274881815652366"><ele>182.0</ele><time>2026-04-11T11:06:24.001Z</time></trkpt><trkpt lat="38.12345283545115" lon="15.274847847105127"><ele>182.0</ele><time>2026-04-11T11:06:25.001Z</time></trkpt><trkpt lat="38.123385397061185" lon="15.274815248727796"><ele>182.0</ele><time>2026-04-11T11:06:26.001Z</time></trkpt><trkpt lat="38.12331478014215" lon="15.274781065904092"><ele>182.0</ele><time>2026-04-11T11:06:27.001Z</time></trkpt><trkpt lat="38.12324534676774" lon="15.274747321143824"><ele>182.0</ele><time>2026-04-11T11:06:28.001Z</time></trkpt><trkpt lat="38.12318474175748" lon="15.274719669196358"><ele>182.0</ele><time>2026-04-11T11:06:29.001Z</time></trkpt><trkpt lat="38.12311725857746" lon="15.274688640766227"><ele>182.0</ele><time>2026-04-11T11:06:31.001Z</time></trkpt><trkpt lat="38.12305046994647" lon="15.274640608437291"><ele>182.0</ele><time>2026-04-11T11:06:34.001Z</time></trkpt><trkpt lat="38.12298696993211" lon="15.274607940160656"><ele>181.33333333333331</ele><time>2026-04-11T11:06:36.001Z</time></trkpt><trkpt lat="38.12288736203574" lon="15.274564695719029"><ele>180.66666666666666</ele><time>2026-04-11T11:06:38.001Z</time></trkpt><trkpt lat="38.12282261528518" lon="15.274551459666279"><ele>180.0</ele><time>2026-04-11T11:06:39.001Z</time></trkpt><trkpt lat="38.12275262239395" lon="15.274539911133186"><ele>179.33333333333334</ele><time>2026-04-11T11:06:40.001Z</time></trkpt><trkpt lat="38.12267987621089" lon="15.274536070790914"><ele>178.66666666666669</ele><time>2026-04-11T11:06:41.001Z</time></trkpt><trkpt lat="38.12260063944149" lon="15.274519958437736"><ele>178.0</ele><time>2026-04-11T11:06:42.001Z</time></trkpt><trkpt lat="38.12251761977422" lon="15.274548593420196"><ele>178.0</ele><time>2026-04-11T11:06:43.001Z</time></trkpt><trkpt lat="38.1224354460653" lon="15.274529026508366"><ele>178.0</ele><time>2026-04-11T11:06:44.001Z</time></trkpt><trkpt lat="38.12236941172967" lon="15.274524372448308"><ele>178.0</ele><time>2026-04-11T11:06:45.001Z</time></trkpt><trkpt lat="38.12224439286867" lon="15.274497902558975"><ele>178.0</ele><time>2026-04-11T11:06:47.001Z</time></trkpt><trkpt lat="38.1221667418703" lon="15.27448901420797"><ele>178.0</ele><time>2026-04-11T11:06:48.001Z</time></trkpt><trkpt lat="38.12208631147899" lon="15.274461113608679"><ele>178.0</ele><time>2026-04-11T11:06:49.001Z</time></trkpt><trkpt lat="38.12200640629906" lon="15.27441004657819"><ele>178.4</ele><time>2026-04-11T11:06:50.001Z</time></trkpt><trkpt lat="38.12191743802973" lon="15.27438271594133"><ele>178.8</ele><time>2026-04-11T11:06:51.001Z</time></trkpt><trkpt lat="38.12182530433858" lon="15.274355023667049"><ele>179.2</ele><time>2026-04-11T11:06:52.001Z</time></trkpt><trkpt lat="38.12173618884704" lon="15.274328079899387"><ele>179.6</ele><time>2026-04-11T11:06:53.001Z</time></trkpt><trkpt lat="38.121636780685435" lon="15.27434943897912"><ele>180.0</ele><time>2026-04-11T11:06:54.001Z</time></trkpt><trkpt lat="38.12154592689358" lon="15.274331849853"><ele>180.5</ele><time>2026-04-11T11:06:55.001Z</time></trkpt><trkpt lat="38.12145458763697" lon="15.274310409298325"><ele>181.0</ele><time>2026-04-11T11:06:56.001Z</time></trkpt><trkpt lat="38.12137026284987" lon="15.274292104290044"><ele>181.5</ele><time>2026-04-11T11:06:57.001Z</time></trkpt><trkpt lat="38.121301768718155" lon="15.274211253921822"><ele>182.0</ele><time>2026-04-11T11:06:58.001Z</time></trkpt><trkpt lat="38.12121610686919" lon="15.274191572556573"><ele>182.5</ele><time>2026-04-11T11:06:59.001Z</time></trkpt><trkpt lat="38.12113065466709" lon="15.274173010893204"><ele>183.0</ele><time>2026-04-11T11:07:00.001Z</time></trkpt><trkpt lat="38.121043126548145" lon="15.274157217658905"><ele>183.0</ele><time>2026-04-11T11:07:01.001Z</time></trkpt><trkpt lat="38.12095844083665" lon="15.274145068144298"><ele>183.0</ele><time>2026-04-11T11:07:02.001Z</time></trkpt><trkpt lat="38.120892655028875" lon="15.27413806746559"><ele>183.0</ele><time>2026-04-11T11:07:03.001Z</time></trkpt><trkpt lat="38.12082861122036" lon="15.274133356828104"><ele>183.0</ele><time>2026-04-11T11:07:04.001Z</time></trkpt><trkpt lat="38.12075223077126" lon="15.274132302031187"><ele>183.0</ele><time>2026-04-11T11:07:05.001Z</time></trkpt><trkpt lat="38.12067971089525" lon="15.274132775702078"><ele>183.0</ele><time>2026-04-11T11:07:06.001Z</time></trkpt><trkpt lat="38.12060537000441" lon="15.27413649812451"><ele>183.0</ele><time>2026-04-11T11:07:07.001Z</time></trkpt><trkpt lat="38.120533206301744" lon="15.274140111541563"><ele>183.28571428571428</ele><time>2026-04-11T11:07:08.001Z</time></trkpt><trkpt lat="38.12046572859881" lon="15.274143490313987"><ele>183.57142857142858</ele><time>2026-04-11T11:07:09.001Z</time></trkpt><trkpt lat="38.12039464634883" lon="15.274147049580654"><ele>183.85714285714283</ele><time>2026-04-11T11:07:10.001Z</time></trkpt><trkpt lat="38.120321837476915" lon="15.274150695286878"><ele>184.14285714285714</ele><time>2026-04-11T11:07:11.001Z</time></trkpt><trkpt lat="38.12025124610815" lon="15.274154229972176"><ele>184.42857142857142</ele><time>2026-04-11T11:07:12.001Z</time></trkpt><trkpt lat="38.12017632591678" lon="15.27415848972948"><ele>184.7142857142857</ele><time>2026-04-11T11:07:13.001Z</time></trkpt><trkpt lat="38.12010371535402" lon="15.27416345997265"><ele>185.0</ele><time>2026-04-11T11:07:14.001Z</time></trkpt><trkpt lat="38.12003603196924" lon="15.2741700189853"><ele>185.0</ele><time>2026-04-11T11:07:15.001Z</time></trkpt><trkpt lat="38.119962309988416" lon="15.274179581260308"><ele>185.0</ele><time>2026-04-11T11:07:16Z</time></trkpt><trkpt lat="38.119848243394834" lon="15.274201518627818"><ele>185.0</ele><time>2026-04-11T11:07:18Z</time></trkpt><trkpt lat="38.11977758025699" lon="15.274221125746783"><ele>185.0</ele><time>2026-04-11T11:07:19Z</time></trkpt><trkpt lat="38.11971047429034" lon="15.274243780929911"><ele>185.0</ele><time>2026-04-11T11:07:20Z</time></trkpt><trkpt lat="38.119623270610425" lon="15.274290501336843"><ele>185.0</ele><time>2026-04-11T11:07:21Z</time></trkpt><trkpt lat="38.11954764245954" lon="15.274344269441729"><ele>185.33333333333331</ele><time>2026-04-11T11:07:22Z</time></trkpt><trkpt lat="38.11948535456076" lon="15.274390921504516"><ele>185.66666666666666</ele><time>2026-04-11T11:07:23Z</time></trkpt><trkpt lat="38.11941763794376" lon="15.274441639615711"><ele>186.0</ele><time>2026-04-11T11:07:24Z</time></trkpt><trkpt lat="38.119351132950136" lon="15.274492603551"><ele>186.33333333333334</ele><time>2026-04-11T11:07:25Z</time></trkpt><trkpt lat="38.11928961747088" lon="15.274541253238446"><ele>186.66666666666669</ele><time>2026-04-11T11:07:26Z</time></trkpt><trkpt lat="38.11918276077581" lon="15.27462697485443"><ele>187.0</ele><time>2026-04-11T11:07:28Z</time></trkpt><trkpt lat="38.11912502138797" lon="15.274676173662177"><ele>187.5</ele><time>2026-04-11T11:07:29Z</time></trkpt><trkpt lat="38.119064085849665" lon="15.274730098237137"><ele>188.0</ele><time>2026-04-11T11:07:30Z</time></trkpt><trkpt lat="38.119003706652215" lon="15.274784693681209"><ele>188.5</ele><time>2026-04-11T11:07:31Z</time></trkpt><trkpt lat="38.118941856049275" lon="15.274846434610149"><ele>189.0</ele><time>2026-04-11T11:07:32Z</time></trkpt><trkpt lat="38.118890378478824" lon="15.274899720319828"><ele>189.5</ele><time>2026-04-11T11:07:33Z</time></trkpt><trkpt lat="38.11882227892577" lon="15.274973395058172"><ele>190.0</ele><time>2026-04-11T11:07:35Z</time></trkpt><trkpt lat="38.11874047224449" lon="15.275077066907091"><ele>190.0</ele><time>2026-04-11T11:07:37Z</time></trkpt><trkpt lat="38.11869087816611" lon="15.275151315502127"><ele>190.0</ele><time>2026-04-11T11:07:38Z</time></trkpt><trkpt lat="38.11863966210034" lon="15.275229237183268"><ele>190.0</ele><time>2026-04-11T11:07:39Z</time></trkpt><trkpt lat="38.11858502259641" lon="15.275314255744341"><ele>190.0</ele><time>2026-04-11T11:07:40Z</time></trkpt><trkpt lat="38.11852869792959" lon="15.275407401252917"><ele>190.0</ele><time>2026-04-11T11:07:41Z</time></trkpt><trkpt lat="38.11847075592704" lon="15.275502330201087"><ele>190.0</ele><time>2026-04-11T11:07:42Z</time></trkpt><trkpt lat="38.118409518091276" lon="15.275599221735973"><ele>190.33333333333334</ele><time>2026-04-11T11:07:43Z</time></trkpt><trkpt lat="38.11834829941568" lon="15.275691510627981"><ele>190.66666666666669</ele><time>2026-04-11T11:07:44Z</time></trkpt><trkpt lat="38.118284129754734" lon="15.275781385942446"><ele>191.0</ele><time>2026-04-11T11:07:45Z</time></trkpt><trkpt lat="38.11822356904275" lon="15.275861591185016"><ele>191.33333333333334</ele><time>2026-04-11T11:07:46Z</time></trkpt><trkpt lat="38.11817074007389" lon="15.275930144032406"><ele>191.66666666666666</ele><time>2026-04-11T11:07:47Z</time></trkpt><trkpt lat="38.11811646662896" lon="15.276007148726245"><ele>192.0</ele><time>2026-04-11T11:07:48Z</time></trkpt><trkpt lat="38.118044397346544" lon="15.276066673473371"><ele>192.0</ele><time>2026-04-11T11:07:49Z</time></trkpt><trkpt lat="38.11797735248792" lon="15.276120301238816"><ele>192.0</ele><time>2026-04-11T11:07:50Z</time></trkpt><trkpt lat="38.117928029178906" lon="15.276177775680392"><ele>192.0</ele><time>2026-04-11T11:07:51Z</time></trkpt><trkpt lat="38.11783015595501" lon="15.276271064817193"><ele>192.0</ele><time>2026-04-11T11:07:53Z</time></trkpt><trkpt lat="38.117770328297446" lon="15.276325688258181"><ele>192.0</ele><time>2026-04-11T11:07:54Z</time></trkpt><trkpt lat="38.11770772240804" lon="15.276381589484629"><ele>192.0</ele><time>2026-04-11T11:07:55Z</time></trkpt><trkpt lat="38.1176410358903" lon="15.276435263304926"><ele>192.5</ele><time>2026-04-11T11:07:56Z</time></trkpt><trkpt lat="38.11757583852505" lon="15.27648780570759"><ele>193.0</ele><time>2026-04-11T11:07:57Z</time></trkpt><trkpt lat="38.117511885935755" lon="15.276537978691186"><ele>193.5</ele><time>2026-04-11T11:07:58Z</time></trkpt><trkpt lat="38.11744554031078" lon="15.27659002924263"><ele>194.0</ele><time>2026-04-11T11:07:59Z</time></trkpt><trkpt lat="38.11737812250191" lon="15.276642920857407"><ele>194.5</ele><time>2026-04-11T11:08:00Z</time></trkpt><trkpt lat="38.1173150630143" lon="15.276691036766596"><ele>195.0</ele><time>2026-04-11T11:08:01Z</time></trkpt><trkpt lat="38.11724685076356" lon="15.2767421571443"><ele>195.0</ele><time>2026-04-11T11:08:02Z</time></trkpt><trkpt lat="38.11718454551101" lon="15.276786330989319"><ele>195.0</ele><time>2026-04-11T11:08:03Z</time></trkpt><trkpt lat="38.11711580671261" lon="15.276835352944557"><ele>195.0</ele><time>2026-04-11T11:08:04Z</time></trkpt><trkpt lat="38.11704464719211" lon="15.276881845196163"><ele>195.0</ele><time>2026-04-11T11:08:05Z</time></trkpt><trkpt lat="38.11696065234656" lon="15.276930725495342"><ele>195.0</ele><time>2026-04-11T11:08:06Z</time></trkpt><trkpt lat="38.11687559973347" lon="15.276971037571242"><ele>195.0</ele><time>2026-04-11T11:08:07Z</time></trkpt><trkpt lat="38.116791336361146" lon="15.277007062745671"><ele>195.0</ele><time>2026-04-11T11:08:08Z</time></trkpt><trkpt lat="38.116704307261564" lon="15.27704181608868"><ele>195.0</ele><time>2026-04-11T11:08:09Z</time></trkpt><trkpt lat="38.11660720366059" lon="15.277079208564244"><ele>195.0</ele><time>2026-04-11T11:08:10Z</time></trkpt><trkpt lat="38.11650377103908" lon="15.277113549879196"><ele>195.0</ele><time>2026-04-11T11:08:11Z</time></trkpt><trkpt lat="38.11640905127906" lon="15.277137003063684"><ele>195.0</ele><time>2026-04-11T11:08:12Z</time></trkpt><trkpt lat="38.11631193993511" lon="15.277149648686553"><ele>196.0</ele><time>2026-04-11T11:08:13Z</time></trkpt><trkpt lat="38.1162243455324" lon="15.27714728405124"><ele>197.0</ele><time>2026-04-11T11:08:14Z</time></trkpt><trkpt lat="38.11608901266533" lon="15.277107433132501"><ele>198.0</ele><time>2026-04-11T11:08:16Z</time></trkpt><trkpt lat="38.11603014621927" lon="15.277078079067495"><ele>199.0</ele><time>2026-04-11T11:08:18Z</time></trkpt><trkpt lat="38.11596444961856" lon="15.277064840254928"><ele>200.0</ele><time>2026-04-11T11:08:20Z</time></trkpt><trkpt lat="38.11585895862354" lon="15.277045756105785"><ele>200.00000000000003</ele><time>2026-04-11T11:08:22Z</time></trkpt><trkpt lat="38.115794086760644" lon="15.277038110547474"><ele>200.0</ele><time>2026-04-11T11:08:23.001Z</time></trkpt><trkpt lat="38.11571847216992" lon="15.277031755115635"><ele>200.0</ele><time>2026-04-11T11:08:24.001Z</time></trkpt><trkpt lat="38.115648245412956" lon="15.27702677209043"><ele>200.0</ele><time>2026-04-11T11:08:25.001Z</time></trkpt><trkpt lat="38.11557512975477" lon="15.277021584062409"><ele>200.0</ele><time>2026-04-11T11:08:26.001Z</time></trkpt><trkpt lat="38.11549512842869" lon="15.277015062389117"><ele>200.00000000000003</ele><time>2026-04-11T11:08:27.001Z</time></trkpt><trkpt lat="38.115413813492516" lon="15.277005978892653"><ele>200.0</ele><time>2026-04-11T11:08:28.001Z</time></trkpt><trkpt lat="38.11533645704025" lon="15.27697562893567"><ele>200.33333333333334</ele><time>2026-04-11T11:08:29.001Z</time></trkpt><trkpt lat="38.115257756733904" lon="15.276978268855373"><ele>200.66666666666669</ele><time>2026-04-11T11:08:30.001Z</time></trkpt><trkpt lat="38.11517659011237" lon="15.276974776514"><ele>201.0</ele><time>2026-04-11T11:08:31.001Z</time></trkpt><trkpt lat="38.115085642579245" lon="15.276975245242983"><ele>201.33333333333331</ele><time>2026-04-11T11:08:32.001Z</time></trkpt><trkpt lat="38.115001127162394" lon="15.276948416976587"><ele>201.66666666666666</ele><time>2026-04-11T11:08:33.001Z</time></trkpt><trkpt lat="38.114915204901536" lon="15.276928881549072"><ele>202.0</ele><time>2026-04-11T11:08:34.001Z</time></trkpt><trkpt lat="38.11482704528728" lon="15.276908835165836"><ele>202.49999999999997</ele><time>2026-04-11T11:08:35.001Z</time></trkpt><trkpt lat="38.11474137935032" lon="15.276889355807892"><ele>203.0</ele><time>2026-04-11T11:08:36.001Z</time></trkpt><trkpt lat="38.114661667558345" lon="15.276871490600627"><ele>203.5</ele><time>2026-04-11T11:08:37.001Z</time></trkpt><trkpt lat="38.11458226182189" lon="15.27685377768878"><ele>204.0</ele><time>2026-04-11T11:08:38.001Z</time></trkpt><trkpt lat="38.11450006443183" lon="15.2768354420803"><ele>204.49999999999997</ele><time>2026-04-11T11:08:39.001Z</time></trkpt><trkpt lat="38.11441908928906" lon="15.276817379089138"><ele>205.0</ele><time>2026-04-11T11:08:40.001Z</time></trkpt><trkpt lat="38.11433849363109" lon="15.276798662700816"><ele>205.0</ele><time>2026-04-11T11:08:41.001Z</time></trkpt><trkpt lat="38.114248405977726" lon="15.276775562061623"><ele>205.0</ele><time>2026-04-11T11:08:42.001Z</time></trkpt><trkpt lat="38.11415543823187" lon="15.276747472709506"><ele>205.0</ele><time>2026-04-11T11:08:43.001Z</time></trkpt><trkpt lat="38.11405760693683" lon="15.276712258081833"><ele>205.0</ele><time>2026-04-11T11:08:44.001Z</time></trkpt><trkpt lat="38.11396214711047" lon="15.27667096194249"><ele>205.0</ele><time>2026-04-11T11:08:45.001Z</time></trkpt><trkpt lat="38.113862410036795" lon="15.276622409906869"><ele>205.2</ele><time>2026-04-11T11:08:46.001Z</time></trkpt><trkpt lat="38.11376321341714" lon="15.276572232851885"><ele>205.4</ele><time>2026-04-11T11:08:47.001Z</time></trkpt><trkpt lat="38.113665694501066" lon="15.276523767777277"><ele>205.60000000000002</ele><time>2026-04-11T11:08:48.001Z</time></trkpt><trkpt lat="38.11357275110666" lon="15.276478352232624"><ele>205.8</ele><time>2026-04-11T11:08:49.001Z</time></trkpt><trkpt lat="38.11348826719663" lon="15.276439937413862"><ele>206.0</ele><time>2026-04-11T11:08:50.001Z</time></trkpt><trkpt lat="38.113397916133245" lon="15.276398854821656"><ele>206.0</ele><time>2026-04-11T11:08:51.001Z</time></trkpt><trkpt lat="38.11330143331671" lon="15.276354984142381"><ele>206.0</ele><time>2026-04-11T11:08:52.001Z</time></trkpt><trkpt lat="38.11319996283676" lon="15.276308845576311"><ele>206.0</ele><time>2026-04-11T11:08:53.001Z</time></trkpt><trkpt lat="38.11310015386062" lon="15.276263462496313"><ele>206.0</ele><time>2026-04-11T11:08:54.001Z</time></trkpt><trkpt lat="38.11300598346205" lon="15.276220643240755"><ele>206.0</ele><time>2026-04-11T11:08:55.001Z</time></trkpt><trkpt lat="38.11291795673898" lon="15.276180617660978"><ele>206.50000000000003</ele><time>2026-04-11T11:08:56.001Z</time></trkpt><trkpt lat="38.112828843811144" lon="15.27614009867451"><ele>207.0</ele><time>2026-04-11T11:08:57.001Z</time></trkpt><trkpt lat="38.11274238550875" lon="15.276122711435969"><ele>207.5</ele><time>2026-04-11T11:08:58.001Z</time></trkpt><trkpt lat="38.112665645057575" lon="15.276083636507373"><ele>208.0</ele><time>2026-04-11T11:08:59.001Z</time></trkpt><trkpt lat="38.11258559532116" lon="15.276041227214932"><ele>208.50000000000003</ele><time>2026-04-11T11:09:00.001Z</time></trkpt><trkpt lat="38.112506882969726" lon="15.275999087091252"><ele>209.0</ele><time>2026-04-11T11:09:01.001Z</time></trkpt><trkpt lat="38.11242942776188" lon="15.275954050950867"><ele>210.0</ele><time>2026-04-11T11:09:02.001Z</time></trkpt><trkpt lat="38.11234645600502" lon="15.275906022701163"><ele>211.0</ele><time>2026-04-11T11:09:03.001Z</time></trkpt><trkpt lat="38.11226557834251" lon="15.275865281366881"><ele>211.99999999999997</ele><time>2026-04-11T11:09:04.001Z</time></trkpt><trkpt lat="38.112181415454955" lon="15.27582230057783"><ele>213.0</ele><time>2026-04-11T11:09:05.001Z</time></trkpt><trkpt lat="38.11209048465339" lon="15.27578311019842"><ele>214.0</ele><time>2026-04-11T11:09:06.001Z</time></trkpt><trkpt lat="38.112006481397" lon="15.27574750132664"><ele>213.99999999999997</ele><time>2026-04-11T11:09:07Z</time></trkpt><trkpt lat="38.11193282355201" lon="15.275718037001466"><ele>214.0</ele><time>2026-04-11T11:09:08Z</time></trkpt><trkpt lat="38.111857442342284" lon="15.275694687471866"><ele>214.0</ele><time>2026-04-11T11:09:09Z</time></trkpt><trkpt lat="38.111783812484994" lon="15.275677687405366"><ele>214.0</ele><time>2026-04-11T11:09:10Z</time></trkpt><trkpt lat="38.11171361424068" lon="15.275671180271734"><ele>213.99999999999997</ele><time>2026-04-11T11:09:11Z</time></trkpt><trkpt lat="38.11164003081044" lon="15.275673376087541"><ele>214.0</ele><time>2026-04-11T11:09:12Z</time></trkpt><trkpt lat="38.111560617796165" lon="15.275685661945127"><ele>215.16666666666666</ele><time>2026-04-11T11:09:13Z</time></trkpt><trkpt lat="38.11148213494385" lon="15.275703411637753"><ele>216.33333333333331</ele><time>2026-04-11T11:09:14Z</time></trkpt><trkpt lat="38.11139785864393" lon="15.275726423496291"><ele>217.5</ele><time>2026-04-11T11:09:15Z</time></trkpt><trkpt lat="38.11132883441354" lon="15.275745839440784"><ele>218.66666666666669</ele><time>2026-04-11T11:09:16Z</time></trkpt><trkpt lat="38.11126160696718" lon="15.275768530475371"><ele>219.83333333333334</ele><time>2026-04-11T11:09:17Z</time></trkpt><trkpt lat="38.11118636000077" lon="15.275781260729456"><ele>221.0</ele><time>2026-04-11T11:09:18Z</time></trkpt><trkpt lat="38.11110681879725" lon="15.275778541415724"><ele>221.00000000000003</ele><time>2026-04-11T11:09:19Z</time></trkpt><trkpt lat="38.11102631114149" lon="15.275777781230875"><ele>221.0</ele><time>2026-04-11T11:09:20Z</time></trkpt><trkpt lat="38.110944464415134" lon="15.275777231405627"><ele>221.0</ele><time>2026-04-11T11:09:21Z</time></trkpt><trkpt lat="38.110861307617505" lon="15.275764618120734"><ele>221.0</ele><time>2026-04-11T11:09:22Z</time></trkpt><trkpt lat="38.11077873120529" lon="15.27574732026924"><ele>221.00000000000003</ele><time>2026-04-11T11:09:23Z</time></trkpt><trkpt lat="38.11068890466953" lon="15.275729293993388"><ele>221.0</ele><time>2026-04-11T11:09:24Z</time></trkpt><trkpt lat="38.110597191739934" lon="15.275705182267995"><ele>220.4</ele><time>2026-04-11T11:09:25Z</time></trkpt><trkpt lat="38.110508275720434" lon="15.275678202797357"><ele>219.8</ele><time>2026-04-11T11:09:26Z</time></trkpt><trkpt lat="38.110420210366904" lon="15.275652642656159"><ele>219.20000000000002</ele><time>2026-04-11T11:09:27Z</time></trkpt><trkpt lat="38.11033161493863" lon="15.275626326925913"><ele>218.60000000000002</ele><time>2026-04-11T11:09:28Z</time></trkpt><trkpt lat="38.11024345441554" lon="15.275607041935142"><ele>218.0</ele><time>2026-04-11T11:09:29Z</time></trkpt><trkpt lat="38.1101520270854" lon="15.275593296980137"><ele>218.00000000000003</ele><time>2026-04-11T11:09:30Z</time></trkpt><trkpt lat="38.11006160274049" lon="15.275586229118648"><ele>218.0</ele><time>2026-04-11T11:09:31Z</time></trkpt><trkpt lat="38.10997189957621" lon="15.275587919706389"><ele>218.0</ele><time>2026-04-11T11:09:32Z</time></trkpt><trkpt lat="38.109883815223874" lon="15.275594562695277"><ele>218.0</ele><time>2026-04-11T11:09:33Z</time></trkpt><trkpt lat="38.1097966120453" lon="15.275608395159553"><ele>218.00000000000003</ele><time>2026-04-11T11:09:34Z</time></trkpt><trkpt lat="38.10970627232231" lon="15.275624760609688"><ele>218.0</ele><time>2026-04-11T11:09:35Z</time></trkpt><trkpt lat="38.1096087179537" lon="15.275641744274846"><ele>219.60000000000002</ele><time>2026-04-11T11:09:36Z</time></trkpt><trkpt lat="38.109504665380896" lon="15.275663714300405"><ele>221.20000000000002</ele><time>2026-04-11T11:09:37Z</time></trkpt><trkpt lat="38.10941340818538" lon="15.275686502553192"><ele>222.8</ele><time>2026-04-11T11:09:38Z</time></trkpt><trkpt lat="38.109320136617946" lon="15.275713829616018"><ele>224.4</ele><time>2026-04-11T11:09:39Z</time></trkpt><trkpt lat="38.10923158225885" lon="15.275742906918815"><ele>226.0</ele><time>2026-04-11T11:09:40Z</time></trkpt><trkpt lat="38.10914884950999" lon="15.275769076464597"><ele>226.16666666666666</ele><time>2026-04-11T11:09:41Z</time></trkpt><trkpt lat="38.10906501669273" lon="15.275794647949885"><ele>226.33333333333331</ele><time>2026-04-11T11:09:42Z</time></trkpt><trkpt lat="38.108980007526476" lon="15.275818002625602"><ele>226.5</ele><time>2026-04-11T11:09:43Z</time></trkpt><trkpt lat="38.1088948933968" lon="15.275841556615923"><ele>226.66666666666669</ele><time>2026-04-11T11:09:44Z</time></trkpt><trkpt lat="38.10881847999943" lon="15.27586320473241"><ele>226.83333333333334</ele><time>2026-04-11T11:09:45Z</time></trkpt><trkpt lat="38.10874960675808" lon="15.275874726344725"><ele>227.0</ele><time>2026-04-11T11:09:46Z</time></trkpt><trkpt lat="38.10867929598713" lon="15.275884812148023"><ele>227.00000000000003</ele><time>2026-04-11T11:09:47Z</time></trkpt><trkpt lat="38.108607575895505" lon="15.275897304866081"><ele>227.0</ele><time>2026-04-11T11:09:48Z</time></trkpt><trkpt lat="38.1085404130204" lon="15.275908377066576"><ele>227.0</ele><time>2026-04-11T11:09:49Z</time></trkpt><trkpt lat="38.10847509661006" lon="15.275924523096277"><ele>227.0</ele><time>2026-04-11T11:09:50Z</time></trkpt><trkpt lat="38.10840762416307" lon="15.275947900054005"><ele>227.00000000000003</ele><time>2026-04-11T11:09:51Z</time></trkpt><trkpt lat="38.10833795710468" lon="15.275983660458493"><ele>227.0</ele><time>2026-04-11T11:09:52Z</time></trkpt><trkpt lat="38.1082291294015" lon="15.276059231058102"><ele>227.2857142857143</ele><time>2026-04-11T11:09:54Z</time></trkpt><trkpt lat="38.10817908794867" lon="15.27611325870501"><ele>227.5714285714286</ele><time>2026-04-11T11:09:55Z</time></trkpt><trkpt lat="38.10813100007831" lon="15.27617384669662"><ele>227.85714285714286</ele><time>2026-04-11T11:09:56Z</time></trkpt><trkpt lat="38.10809005193856" lon="15.276235920355422"><ele>228.14285714285717</ele><time>2026-04-11T11:09:57Z</time></trkpt><trkpt lat="38.10805100451837" lon="15.276305419315817"><ele>228.42857142857144</ele><time>2026-04-11T11:09:58Z</time></trkpt><trkpt lat="38.10801181175246" lon="15.276385835160061"><ele>228.71428571428572</ele><time>2026-04-11T11:09:59Z</time></trkpt><trkpt lat="38.10797263861311" lon="15.27645837832083"><ele>229.0</ele><time>2026-04-11T11:10:00Z</time></trkpt><trkpt lat="38.10793267174238" lon="15.276529330077615"><ele>229.39999999999998</ele><time>2026-04-11T11:10:01Z</time></trkpt><trkpt lat="38.107848303937125" lon="15.276652501921772"><ele>229.79999999999998</ele><time>2026-04-11T11:10:03Z</time></trkpt><trkpt lat="38.107789349059814" lon="15.276705692056218"><ele>230.20000000000002</ele><time>2026-04-11T11:10:04Z</time></trkpt><trkpt lat="38.107723640557545" lon="15.276762035937999"><ele>230.60000000000002</ele><time>2026-04-11T11:10:05Z</time></trkpt><trkpt lat="38.10765551828963" lon="15.276824235189414"><ele>231.0</ele><time>2026-04-11T11:10:06Z</time></trkpt><trkpt lat="38.107580732661475" lon="15.276893156152282"><ele>231.0</ele><time>2026-04-11T11:10:07Z</time></trkpt><trkpt lat="38.107504149144866" lon="15.276963349348938"><ele>231.00000000000003</ele><time>2026-04-11T11:10:08Z</time></trkpt><trkpt lat="38.107428318291255" lon="15.277033684322454"><ele>231.00000000000003</ele><time>2026-04-11T11:10:09Z</time></trkpt><trkpt lat="38.10735665658956" lon="15.277102289240966"><ele>231.0</ele><time>2026-04-11T11:10:10Z</time></trkpt><trkpt lat="38.10728636160941" lon="15.277175321764963"><ele>231.0</ele><time>2026-04-11T11:10:11Z</time></trkpt><trkpt lat="38.10721627526183" lon="15.277250318402993"><ele>230.83333333333334</ele><time>2026-04-11T11:10:12Z</time></trkpt><trkpt lat="38.10715241557684" lon="15.277328136382087"><ele>230.66666666666669</ele><time>2026-04-11T11:10:13Z</time></trkpt><trkpt lat="38.10709594767292" lon="15.277410626010756"><ele>230.5</ele><time>2026-04-11T11:10:14Z</time></trkpt><trkpt lat="38.10705205674443" lon="15.277502101451713"><ele>230.33333333333334</ele><time>2026-04-11T11:10:15Z</time></trkpt><trkpt lat="38.107015253506574" lon="15.27759587609264"><ele>230.16666666666669</ele><time>2026-04-11T11:10:16Z</time></trkpt><trkpt lat="38.10698623152432" lon="15.277677269262908"><ele>230.0</ele><time>2026-04-11T11:10:17Z</time></trkpt><trkpt lat="38.10696134020046" lon="15.277751254640542"><ele>230.0</ele><time>2026-04-11T11:10:18Z</time></trkpt><trkpt lat="38.10690801060912" lon="15.277861781597366"><ele>230.0</ele><time>2026-04-11T11:10:20Z</time></trkpt><trkpt lat="38.1068281220329" lon="15.27796808696634"><ele>230.0</ele><time>2026-04-11T11:10:22Z</time></trkpt><trkpt lat="38.10673411940545" lon="15.278080050734152"><ele>230.0</ele><time>2026-04-11T11:10:24Z</time></trkpt><trkpt lat="38.106690493963775" lon="15.278139176876554"><ele>230.0</ele><time>2026-04-11T11:10:25Z</time></trkpt><trkpt lat="38.10662358309878" lon="15.278226561870701"><ele>230.33333333333334</ele><time>2026-04-11T11:10:27Z</time></trkpt><trkpt lat="38.106554663810655" lon="15.278321365061668"><ele>230.66666666666669</ele><time>2026-04-11T11:10:30Z</time></trkpt><trkpt lat="38.10648011623429" lon="15.278432893262124"><ele>231.0</ele><time>2026-04-11T11:10:32Z</time></trkpt><trkpt lat="38.10644219198269" lon="15.278507604375251"><ele>231.33333333333331</ele><time>2026-04-11T11:10:33Z</time></trkpt><trkpt lat="38.106399582947006" lon="15.278589031358608"><ele>231.66666666666666</ele><time>2026-04-11T11:10:34Z</time></trkpt><trkpt lat="38.106353545839966" lon="15.27867965447659"><ele>232.0</ele><time>2026-04-11T11:10:35Z</time></trkpt><trkpt lat="38.10630251307629" lon="15.278772285620297"><ele>231.99999999999997</ele><time>2026-04-11T11:10:36Z</time></trkpt><trkpt lat="38.10625282806881" lon="15.278858944547366"><ele>232.0</ele><time>2026-04-11T11:10:37Z</time></trkpt><trkpt lat="38.10620151874016" lon="15.278946949239824"><ele>232.0</ele><time>2026-04-11T11:10:38Z</time></trkpt><trkpt lat="38.10615289399459" lon="15.27902504778547"><ele>232.0</ele><time>2026-04-11T11:10:39Z</time></trkpt><trkpt lat="38.10610435160692" lon="15.279094120866237"><ele>231.99999999999997</ele><time>2026-04-11T11:10:40Z</time></trkpt><trkpt lat="38.106049866627494" lon="15.279166234204041"><ele>232.0</ele><time>2026-04-11T11:10:41Z</time></trkpt><trkpt lat="38.105989772670085" lon="15.279239860978704"><ele>231.83333333333331</ele><time>2026-04-11T11:10:42Z</time></trkpt><trkpt lat="38.10592627453002" lon="15.279312064537255"><ele>231.66666666666666</ele><time>2026-04-11T11:10:43Z</time></trkpt><trkpt lat="38.105861636174595" lon="15.2793832903353"><ele>231.5</ele><time>2026-04-11T11:10:44Z</time></trkpt><trkpt lat="38.10579134213515" lon="15.27945474621055"><ele>231.33333333333331</ele><time>2026-04-11T11:10:45Z</time></trkpt><trkpt lat="38.105723821074506" lon="15.279531861447495"><ele>231.16666666666666</ele><time>2026-04-11T11:10:46Z</time></trkpt><trkpt lat="38.10566484780458" lon="15.279597511126301"><ele>231.0</ele><time>2026-04-11T11:10:47Z</time></trkpt><trkpt lat="38.10560443245266" lon="15.279647277396142"><ele>231.8</ele><time>2026-04-11T11:10:48Z</time></trkpt><trkpt lat="38.1055441966601" lon="15.279692856483985"><ele>232.60000000000002</ele><time>2026-04-11T11:10:49Z</time></trkpt><trkpt lat="38.1054138112472" lon="15.279729436740249"><ele>233.4</ele><time>2026-04-11T11:10:51Z</time></trkpt><trkpt lat="38.10533766672496" lon="15.27974144140035"><ele>234.2</ele><time>2026-04-11T11:10:52Z</time></trkpt><trkpt lat="38.1052548002841" lon="15.279756724150117"><ele>235.0</ele><time>2026-04-11T11:10:53Z</time></trkpt><trkpt lat="38.10516628743351" lon="15.279777288294188"><ele>234.99999999999997</ele><time>2026-04-11T11:10:54Z</time></trkpt><trkpt lat="38.105075767280915" lon="15.279797617726432"><ele>235.0</ele><time>2026-04-11T11:10:55Z</time></trkpt><trkpt lat="38.10498661170361" lon="15.27981977338083"><ele>235.0</ele><time>2026-04-11T11:10:56Z</time></trkpt><trkpt lat="38.10489847197107" lon="15.279842825842847"><ele>235.0</ele><time>2026-04-11T11:10:57Z</time></trkpt><trkpt lat="38.10481678648197" lon="15.279876333418434"><ele>234.99999999999997</ele><time>2026-04-11T11:10:58Z</time></trkpt><trkpt lat="38.10473698281597" lon="15.279906657292187"><ele>235.0</ele><time>2026-04-11T11:10:59Z</time></trkpt><trkpt lat="38.10466001105984" lon="15.279932176377207"><ele>235.0</ele><time>2026-04-11T11:11:00Z</time></trkpt><trkpt lat="38.10457824334224" lon="15.279948489190916"><ele>235.0</ele><time>2026-04-11T11:11:01Z</time></trkpt><trkpt lat="38.10448888725652" lon="15.27995729787132"><ele>235.0</ele><time>2026-04-11T11:11:02Z</time></trkpt><trkpt lat="38.104394373110374" lon="15.27996245572407"><ele>235.0</ele><time>2026-04-11T11:11:03Z</time></trkpt><trkpt lat="38.104289367053525" lon="15.27997073074746"><ele>235.0</ele><time>2026-04-11T11:11:04Z</time></trkpt><trkpt lat="38.10419414258982" lon="15.27997420340514"><ele>235.0</ele><time>2026-04-11T11:11:05Z</time></trkpt><trkpt lat="38.10409703295974" lon="15.279978948164404"><ele>235.0</ele><time>2026-04-11T11:11:06Z</time></trkpt><trkpt lat="38.10400247075358" lon="15.279983961859374"><ele>235.0</ele><time>2026-04-11T11:11:07Z</time></trkpt><trkpt lat="38.10390804584976" lon="15.279986547711205"><ele>235.0</ele><time>2026-04-11T11:11:08Z</time></trkpt><trkpt lat="38.10381690458025" lon="15.279980489875744"><ele>235.0</ele><time>2026-04-11T11:11:09Z</time></trkpt><trkpt lat="38.10373495459132" lon="15.279971162000074"><ele>236.66666666666666</ele><time>2026-04-11T11:11:10Z</time></trkpt><trkpt lat="38.10366425362445" lon="15.279955992080096"><ele>238.33333333333331</ele><time>2026-04-11T11:11:11Z</time></trkpt><trkpt lat="38.10359247451978" lon="15.27993285378105"><ele>240.0</ele><time>2026-04-11T11:11:12Z</time></trkpt><trkpt lat="38.103522845075176" lon="15.2799011330494"><ele>241.66666666666669</ele><time>2026-04-11T11:11:13Z</time></trkpt><trkpt lat="38.103447514978065" lon="15.2798567821195"><ele>243.33333333333334</ele><time>2026-04-11T11:11:14Z</time></trkpt><trkpt lat="38.103376383180084" lon="15.279804859965394"><ele>245.0</ele><time>2026-04-11T11:11:15Z</time></trkpt><trkpt lat="38.10330561904012" lon="15.27974318902415"><ele>247.4</ele><time>2026-04-11T11:11:16Z</time></trkpt><trkpt lat="38.103230805560294" lon="15.279676637022755"><ele>249.8</ele><time>2026-04-11T11:11:17Z</time></trkpt><trkpt lat="38.103155643710465" lon="15.279614043314197"><ele>252.2</ele><time>2026-04-11T11:11:18Z</time></trkpt><trkpt lat="38.10307529086141" lon="15.279543728801297"><ele>254.6</ele><time>2026-04-11T11:11:19Z</time></trkpt><trkpt lat="38.10299505280538" lon="15.279480738370712"><ele>257.0</ele><time>2026-04-11T11:11:20Z</time></trkpt><trkpt lat="38.10292547155278" lon="15.27942170504179"><ele>257.0</ele><time>2026-04-11T11:11:21Z</time></trkpt><trkpt lat="38.10286814092777" lon="15.279361433060243"><ele>257.0</ele><time>2026-04-11T11:11:22Z</time></trkpt><trkpt lat="38.102818622464795" lon="15.279288698491445"><ele>257.0</ele><time>2026-04-11T11:11:23Z</time></trkpt><trkpt lat="38.10276883477194" lon="15.27921903717304"><ele>257.0</ele><time>2026-04-11T11:11:24Z</time></trkpt><trkpt lat="38.10272563848558" lon="15.279145435340086"><ele>257.0</ele><time>2026-04-11T11:11:25Z</time></trkpt><trkpt lat="38.10269028833571" lon="15.279059266414336"><ele>257.0</ele><time>2026-04-11T11:11:26Z</time></trkpt><trkpt lat="38.102658364674355" lon="15.278968945933647"><ele>254.8</ele><time>2026-04-11T11:11:27Z</time></trkpt><trkpt lat="38.10262810224471" lon="15.278880312731244"><ele>252.6</ele><time>2026-04-11T11:11:28Z</time></trkpt><trkpt lat="38.10257076894933" lon="15.27873437639554"><ele>250.40000000000003</ele><time>2026-04-11T11:11:30Z</time></trkpt><trkpt lat="38.10252367646261" lon="15.278666915023079"><ele>248.20000000000002</ele><time>2026-04-11T11:11:31Z</time></trkpt><trkpt lat="38.10247547988003" lon="15.278603375808347"><ele>246.0</ele><time>2026-04-11T11:11:32Z</time></trkpt><trkpt lat="38.10238056887975" lon="15.278497483193975"><ele>246.0</ele><time>2026-04-11T11:11:34Z</time></trkpt><trkpt lat="38.10227333243942" lon="15.27841743734658"><ele>246.0</ele><time>2026-04-11T11:11:36Z</time></trkpt><trkpt lat="38.10221033648276" lon="15.278380035821844"><ele>246.0</ele><time>2026-04-11T11:11:37Z</time></trkpt><trkpt lat="38.102149214547026" lon="15.278346031193443"><ele>246.0</ele><time>2026-04-11T11:11:38Z</time></trkpt><trkpt lat="38.102084070053536" lon="15.278317499067642"><ele>246.0</ele><time>2026-04-11T11:11:39Z</time></trkpt><trkpt lat="38.1019837875435" lon="15.278270080725648"><ele>246.0</ele><time>2026-04-11T11:11:41Z</time></trkpt><trkpt lat="38.10191545445062" lon="15.278227925095736"><ele>246.0</ele><time>2026-04-11T11:11:43Z</time></trkpt><trkpt lat="38.101836987306015" lon="15.278171049270805"><ele>246.0</ele><time>2026-04-11T11:11:46Z</time></trkpt><trkpt lat="38.10175611190989" lon="15.27813526973627"><ele>246.0</ele><time>2026-04-11T11:11:48Z</time></trkpt><trkpt lat="38.101651324332245" lon="15.278129068329498"><ele>246.0</ele><time>2026-04-11T11:11:50Z</time></trkpt><trkpt lat="38.101583567095126" lon="15.278148331524179"><ele>246.0</ele><time>2026-04-11T11:11:51Z</time></trkpt><trkpt lat="38.10151883887973" lon="15.278180742683569"><ele>246.0</ele><time>2026-04-11T11:11:52Z</time></trkpt><trkpt lat="38.10140412567011" lon="15.278252395499981"><ele>247.0</ele><time>2026-04-11T11:11:54Z</time></trkpt><trkpt lat="38.10134526180456" lon="15.27829744821151"><ele>248.0</ele><time>2026-04-11T11:11:55Z</time></trkpt><trkpt lat="38.101282088526176" lon="15.278357432035142"><ele>249.0</ele><time>2026-04-11T11:11:56Z</time></trkpt><trkpt lat="38.10121530332249" lon="15.27841579468387"><ele>250.0</ele><time>2026-04-11T11:11:57Z</time></trkpt><trkpt lat="38.10114029261815" lon="15.278472184829308"><ele>251.0</ele><time>2026-04-11T11:11:58Z</time></trkpt><trkpt lat="38.10106106169893" lon="15.278520177218333"><ele>252.0</ele><time>2026-04-11T11:11:59Z</time></trkpt><trkpt lat="38.10097834573062" lon="15.278569982453272"><ele>252.0</ele><time>2026-04-11T11:12:00Z</time></trkpt><trkpt lat="38.100901333499436" lon="15.278618064857213"><ele>252.0</ele><time>2026-04-11T11:12:01Z</time></trkpt><trkpt lat="38.100824829101754" lon="15.27866818722889"><ele>252.0</ele><time>2026-04-11T11:12:02Z</time></trkpt><trkpt lat="38.100755765251165" lon="15.278720610739903"><ele>252.0</ele><time>2026-04-11T11:12:03Z</time></trkpt><trkpt lat="38.10068216836923" lon="15.278779911589133"><ele>252.0</ele><time>2026-04-11T11:12:04Z</time></trkpt><trkpt lat="38.10060479797721" lon="15.27882706546134"><ele>252.0</ele><time>2026-04-11T11:12:05Z</time></trkpt><trkpt lat="38.100526784484515" lon="15.278872373628845"><ele>251.66666666666666</ele><time>2026-04-11T11:12:06Z</time></trkpt><trkpt lat="38.10045175051844" lon="15.278902239790167"><ele>251.33333333333331</ele><time>2026-04-11T11:12:07Z</time></trkpt><trkpt lat="38.10036629128973" lon="15.278927587306134"><ele>251.0</ele><time>2026-04-11T11:12:08Z</time></trkpt><trkpt lat="38.10028147740488" lon="15.278961896905066"><ele>250.66666666666666</ele><time>2026-04-11T11:12:09Z</time></trkpt><trkpt lat="38.10019870988097" lon="15.279009377437747"><ele>250.33333333333331</ele><time>2026-04-11T11:12:10Z</time></trkpt><trkpt lat="38.10012853629663" lon="15.279060720568895"><ele>250.0</ele><time>2026-04-11T11:12:11Z</time></trkpt><trkpt lat="38.1000619155148" lon="15.279113931843085"><ele>249.99999999999997</ele><time>2026-04-11T11:12:12Z</time></trkpt><trkpt lat="38.0999966711369" lon="15.279174597077713"><ele>250.0</ele><time>2026-04-11T11:12:13Z</time></trkpt><trkpt lat="38.09992384847515" lon="15.279229139979318"><ele>250.0</ele><time>2026-04-11T11:12:14Z</time></trkpt><trkpt lat="38.09984623277749" lon="15.279273873106973"><ele>250.0</ele><time>2026-04-11T11:12:15Z</time></trkpt><trkpt lat="38.099771661704736" lon="15.279306075027508"><ele>249.99999999999997</ele><time>2026-04-11T11:12:16Z</time></trkpt><trkpt lat="38.09969679399298" lon="15.27932525793575"><ele>250.0</ele><time>2026-04-11T11:12:17Z</time></trkpt><trkpt lat="38.09961965268161" lon="15.279335032820972"><ele>250.83333333333331</ele><time>2026-04-11T11:12:18Z</time></trkpt><trkpt lat="38.09954281368955" lon="15.279349952491737"><ele>251.66666666666666</ele><time>2026-04-11T11:12:19Z</time></trkpt><trkpt lat="38.09946635842809" lon="15.279376720194241"><ele>252.5</ele><time>2026-04-11T11:12:20Z</time></trkpt><trkpt lat="38.09940680259635" lon="15.27940756797791"><ele>253.33333333333331</ele><time>2026-04-11T11:12:21Z</time></trkpt><trkpt lat="38.09933311065307" lon="15.279460539331252"><ele>254.16666666666666</ele><time>2026-04-11T11:12:23Z</time></trkpt><trkpt lat="38.099267116053305" lon="15.27953331610517"><ele>255.0</ele><time>2026-04-11T11:12:25Z</time></trkpt><trkpt lat="38.09922239149131" lon="15.279606456605103"><ele>255.0</ele><time>2026-04-11T11:12:27Z</time></trkpt><trkpt lat="38.09917066830804" lon="15.279716371046938"><ele>255.0</ele><time>2026-04-11T11:12:29Z</time></trkpt><trkpt lat="38.099146270133424" lon="15.279794997414836"><ele>255.0</ele><time>2026-04-11T11:12:30Z</time></trkpt><trkpt lat="38.099126089022654" lon="15.279882657338186"><ele>255.0</ele><time>2026-04-11T11:12:31Z</time></trkpt><trkpt lat="38.099109342737734" lon="15.279980840539672"><ele>255.0</ele><time>2026-04-11T11:12:32Z</time></trkpt><trkpt lat="38.099094413382595" lon="15.28007465803941"><ele>255.0</ele><time>2026-04-11T11:12:33Z</time></trkpt><trkpt lat="38.09907642049115" lon="15.280177428718918"><ele>257.6666666666667</ele><time>2026-04-11T11:12:34Z</time></trkpt><trkpt lat="38.09906106719227" lon="15.280273494142309"><ele>260.3333333333333</ele><time>2026-04-11T11:12:35.001Z</time></trkpt><trkpt lat="38.09904481883239" lon="15.280380408323314"><ele>263.0</ele><time>2026-04-11T11:12:36.001Z</time></trkpt><trkpt lat="38.099028669599704" lon="15.280494259442245"><ele>265.66666666666663</ele><time>2026-04-11T11:12:37.001Z</time></trkpt><trkpt lat="38.09901302488131" lon="15.280615301304351"><ele>268.3333333333333</ele><time>2026-04-11T11:12:38.001Z</time></trkpt><trkpt lat="38.09899923251206" lon="15.28073439089472"><ele>271.0</ele><time>2026-04-11T11:12:39.001Z</time></trkpt><trkpt lat="38.09898469311185" lon="15.280849283936156"><ele>272.2</ele><time>2026-04-11T11:12:40.001Z</time></trkpt><trkpt lat="38.098964039707425" lon="15.280964802340987"><ele>273.40000000000003</ele><time>2026-04-11T11:12:41.001Z</time></trkpt><trkpt lat="38.098945566501136" lon="15.281085071869336"><ele>274.6</ele><time>2026-04-11T11:12:42.001Z</time></trkpt><trkpt lat="38.098930779573664" lon="15.281195966385054"><ele>275.8</ele><time>2026-04-11T11:12:43.001Z</time></trkpt><trkpt lat="38.098913053667026" lon="15.281305874680013"><ele>277.0</ele><time>2026-04-11T11:12:44.001Z</time></trkpt><trkpt lat="38.09889848269249" lon="15.281417936185923"><ele>276.0</ele><time>2026-04-11T11:12:45.001Z</time></trkpt><trkpt lat="38.098879808899774" lon="15.28152755129732"><ele>275.0</ele><time>2026-04-11T11:12:46.001Z</time></trkpt><trkpt lat="38.09885102482651" lon="15.2816372635462"><ele>274.0</ele><time>2026-04-11T11:12:47.001Z</time></trkpt><trkpt lat="38.09881587615574" lon="15.281738320411101"><ele>273.0</ele><time>2026-04-11T11:12:48.001Z</time></trkpt><trkpt lat="38.098776755102996" lon="15.281845254442985"><ele>272.0</ele><time>2026-04-11T11:12:49.001Z</time></trkpt><trkpt lat="38.09874021398066" lon="15.281958870261525"><ele>272.0</ele><time>2026-04-11T11:12:50.001Z</time></trkpt><trkpt lat="38.09870783067639" lon="15.282078194719364"><ele>272.0</ele><time>2026-04-11T11:12:51.001Z</time></trkpt><trkpt lat="38.09868240870258" lon="15.28219786833583"><ele>272.0</ele><time>2026-04-11T11:12:52.001Z</time></trkpt><trkpt lat="38.09865330276117" lon="15.282314919378264"><ele>272.0</ele><time>2026-04-11T11:12:53.001Z</time></trkpt><trkpt lat="38.09862207950035" lon="15.282441213716004"><ele>272.0</ele><time>2026-04-11T11:12:54.001Z</time></trkpt><trkpt lat="38.09859766600071" lon="15.282552638381574"><ele>271.5</ele><time>2026-04-11T11:12:55.001Z</time></trkpt><trkpt lat="38.09857258963668" lon="15.282653184196056"><ele>271.0</ele><time>2026-04-11T11:12:56.001Z</time></trkpt><trkpt lat="38.098551319368084" lon="15.282738711646282"><ele>270.5</ele><time>2026-04-11T11:12:57.001Z</time></trkpt><trkpt lat="38.098529347482064" lon="15.282861612501497"><ele>270.0</ele><time>2026-04-11T11:12:59Z</time></trkpt><trkpt lat="38.09852537185383" lon="15.282954916822906"><ele>269.5</ele><time>2026-04-11T11:13:01Z</time></trkpt><trkpt lat="38.09852839459062" lon="15.283037794790662"><ele>269.0</ele><time>2026-04-11T11:13:03Z</time></trkpt><trkpt lat="38.09855463175295" lon="15.283134658696472"><ele>269.0</ele><time>2026-04-11T11:13:05Z</time></trkpt><trkpt lat="38.09862911696089" lon="15.283247184947024"><ele>269.0</ele><time>2026-04-11T11:13:07Z</time></trkpt><trkpt lat="38.09867247140487" lon="15.28331892647305"><ele>269.0</ele><time>2026-04-11T11:13:08Z</time></trkpt><trkpt lat="38.09872045266188" lon="15.283390866405568"><ele>269.0</ele><time>2026-04-11T11:13:09Z</time></trkpt><trkpt lat="38.09876663533503" lon="15.28346576765727"><ele>269.0</ele><time>2026-04-11T11:13:10Z</time></trkpt><trkpt lat="38.09880660279422" lon="15.283541079795423"><ele>269.0</ele><time>2026-04-11T11:13:11Z</time></trkpt><trkpt lat="38.098838695117045" lon="15.283622122222562"><ele>269.0</ele><time>2026-04-11T11:13:12Z</time></trkpt><trkpt lat="38.09886082619386" lon="15.283706954933768"><ele>269.0</ele><time>2026-04-11T11:13:13Z</time></trkpt><trkpt lat="38.09886917701181" lon="15.283792677300847"><ele>269.0</ele><time>2026-04-11T11:13:14Z</time></trkpt><trkpt lat="38.09887245809252" lon="15.28388136333546"><ele>269.0</ele><time>2026-04-11T11:13:15Z</time></trkpt><trkpt lat="38.09887212788778" lon="15.283973049676025"><ele>269.0</ele><time>2026-04-11T11:13:16Z</time></trkpt><trkpt lat="38.098860169728496" lon="15.284063334359281"><ele>269.0</ele><time>2026-04-11T11:13:17Z</time></trkpt><trkpt lat="38.098839442087936" lon="15.284152965793188"><ele>269.0</ele><time>2026-04-11T11:13:18Z</time></trkpt><trkpt lat="38.09881201922917" lon="15.284243955391872"><ele>270.0</ele><time>2026-04-11T11:13:19Z</time></trkpt><trkpt lat="38.09878172733726" lon="15.284339205318561"><ele>271.0</ele><time>2026-04-11T11:13:20Z</time></trkpt><trkpt lat="38.098749152819735" lon="15.284434523907393"><ele>272.0</ele><time>2026-04-11T11:13:21Z</time></trkpt><trkpt lat="38.09870388893337" lon="15.284522925349933"><ele>273.0</ele><time>2026-04-11T11:13:22Z</time></trkpt><trkpt lat="38.09865450538572" lon="15.284592504619855"><ele>274.0</ele><time>2026-04-11T11:13:23Z</time></trkpt><trkpt lat="38.09859874911392" lon="15.28464839864203"><ele>275.0</ele><time>2026-04-11T11:13:24Z</time></trkpt><trkpt lat="38.0985277327351" lon="15.284697240554566"><ele>275.0</ele><time>2026-04-11T11:13:25Z</time></trkpt><trkpt lat="38.09844898465136" lon="15.284735073090793"><ele>275.0</ele><time>2026-04-11T11:13:26Z</time></trkpt><trkpt lat="38.098362521054376" lon="15.284753723964263"><ele>275.0</ele><time>2026-04-11T11:13:27Z</time></trkpt><trkpt lat="38.09826781787296" lon="15.284759957409907"><ele>275.0</ele><time>2026-04-11T11:13:28Z</time></trkpt><trkpt lat="38.09817113612549" lon="15.284756631692128"><ele>275.0</ele><time>2026-04-11T11:13:29Z</time></trkpt><trkpt lat="38.09807185849255" lon="15.284751711486416"><ele>276.8</ele><time>2026-04-11T11:13:30Z</time></trkpt><trkpt lat="38.09797115079022" lon="15.28474106024565"><ele>278.6</ele><time>2026-04-11T11:13:31Z</time></trkpt><trkpt lat="38.09788896870914" lon="15.28471587883011"><ele>280.4</ele><time>2026-04-11T11:13:32Z</time></trkpt><trkpt lat="38.09779800783137" lon="15.284679793514826"><ele>282.2</ele><time>2026-04-11T11:13:33Z</time></trkpt><trkpt lat="38.09769896176827" lon="15.28464515406289"><ele>284.0</ele><time>2026-04-11T11:13:34Z</time></trkpt><trkpt lat="38.09760175000162" lon="15.284616070488193"><ele>284.0</ele><time>2026-04-11T11:13:35Z</time></trkpt><trkpt lat="38.09750654846651" lon="15.284581291541768"><ele>284.0</ele><time>2026-04-11T11:13:36Z</time></trkpt><trkpt lat="38.09741125494479" lon="15.284553892683396"><ele>284.0</ele><time>2026-04-11T11:13:37Z</time></trkpt><trkpt lat="38.09732224310197" lon="15.284527022949007"><ele>284.0</ele><time>2026-04-11T11:13:38Z</time></trkpt><trkpt lat="38.09722923924296" lon="15.284496670115976"><ele>284.0</ele><time>2026-04-11T11:13:39Z</time></trkpt><trkpt lat="38.09713063450456" lon="15.284458426681637"><ele>283.59999999999997</ele><time>2026-04-11T11:13:40Z</time></trkpt><trkpt lat="38.09702660997224" lon="15.284420087384252"><ele>283.2</ele><time>2026-04-11T11:13:41Z</time></trkpt><trkpt lat="38.0969314764875" lon="15.284385674256297"><ele>282.79999999999995</ele><time>2026-04-11T11:13:42Z</time></trkpt><trkpt lat="38.09683433096693" lon="15.284346897217796"><ele>282.4</ele><time>2026-04-11T11:13:43Z</time></trkpt><trkpt lat="38.0967377356009" lon="15.284301636439055"><ele>282.0</ele><time>2026-04-11T11:13:44Z</time></trkpt><trkpt lat="38.09664167093083" lon="15.284266397636927"><ele>282.5</ele><time>2026-04-11T11:13:45Z</time></trkpt><trkpt lat="38.09656738020976" lon="15.284240868731821"><ele>283.0</ele><time>2026-04-11T11:13:46Z</time></trkpt><trkpt lat="38.09648494682103" lon="15.284212586785337"><ele>283.5</ele><time>2026-04-11T11:13:47Z</time></trkpt><trkpt lat="38.09639794781433" lon="15.284189916803454"><ele>284.0</ele><time>2026-04-11T11:13:48Z</time></trkpt><trkpt lat="38.096307259010466" lon="15.284159832665992"><ele>284.5</ele><time>2026-04-11T11:13:49Z</time></trkpt><trkpt lat="38.09622690539255" lon="15.284128332417033"><ele>285.0</ele><time>2026-04-11T11:13:50Z</time></trkpt><trkpt lat="38.0961560853977" lon="15.284100834967631"><ele>285.0</ele><time>2026-04-11T11:13:51Z</time></trkpt><trkpt lat="38.096092929864184" lon="15.284082379495782"><ele>285.0</ele><time>2026-04-11T11:13:52Z</time></trkpt><trkpt lat="38.096027479570786" lon="15.284069412481301"><ele>285.0</ele><time>2026-04-11T11:13:53Z</time></trkpt><trkpt lat="38.09595000405478" lon="15.284063162133496"><ele>285.0</ele><time>2026-04-11T11:13:54Z</time></trkpt><trkpt lat="38.09586777888678" lon="15.284067578449902"><ele>285.0</ele><time>2026-04-11T11:13:55Z</time></trkpt><trkpt lat="38.09578976889585" lon="15.284077488955992"><ele>285.0</ele><time>2026-04-11T11:13:56Z</time></trkpt><trkpt lat="38.09571034316808" lon="15.284091457703386"><ele>284.6666666666667</ele><time>2026-04-11T11:13:57Z</time></trkpt><trkpt lat="38.09563204087756" lon="15.28411057735339"><ele>284.3333333333333</ele><time>2026-04-11T11:13:58Z</time></trkpt><trkpt lat="38.09555045998414" lon="15.284136603178162"><ele>284.0</ele><time>2026-04-11T11:13:59Z</time></trkpt><trkpt lat="38.09546468223996" lon="15.284162382471049"><ele>283.66666666666663</ele><time>2026-04-11T11:14:00Z</time></trkpt><trkpt lat="38.09538081904178" lon="15.284187387241369"><ele>283.3333333333333</ele><time>2026-04-11T11:14:01Z</time></trkpt><trkpt lat="38.09530586672011" lon="15.284213412958591"><ele>283.0</ele><time>2026-04-11T11:14:02Z</time></trkpt><trkpt lat="38.09524167032047" lon="15.284248065455918"><ele>283.0</ele><time>2026-04-11T11:14:03Z</time></trkpt><trkpt lat="38.09515320968567" lon="15.284330751796162"><ele>283.0</ele><time>2026-04-11T11:14:05Z</time></trkpt><trkpt lat="38.09509872249794" lon="15.284463634890388"><ele>283.0</ele><time>2026-04-11T11:14:07Z</time></trkpt><trkpt lat="38.09508833923807" lon="15.284545409728956"><ele>283.0</ele><time>2026-04-11T11:14:08Z</time></trkpt><trkpt lat="38.0950834169548" lon="15.284638584091388"><ele>283.0</ele><time>2026-04-11T11:14:09Z</time></trkpt><trkpt lat="38.09508336538515" lon="15.28475044816359"><ele>284.3333333333333</ele><time>2026-04-11T11:14:10Z</time></trkpt><trkpt lat="38.09507575348105" lon="15.284854876010128"><ele>285.66666666666663</ele><time>2026-04-11T11:14:11Z</time></trkpt><trkpt lat="38.09506402061021" lon="15.284963571020945"><ele>287.0</ele><time>2026-04-11T11:14:12Z</time></trkpt><trkpt lat="38.09504534333329" lon="15.285067628114215"><ele>288.3333333333333</ele><time>2026-04-11T11:14:13Z</time></trkpt><trkpt lat="38.09502798962467" lon="15.285161529885906"><ele>289.6666666666667</ele><time>2026-04-11T11:14:14Z</time></trkpt><trkpt lat="38.095003742925975" lon="15.285259347871158"><ele>291.0</ele><time>2026-04-11T11:14:15Z</time></trkpt><trkpt lat="38.094968232700865" lon="15.28535118141036"><ele>291.0</ele><time>2026-04-11T11:14:16Z</time></trkpt><trkpt lat="38.09492899086489" lon="15.285450660891241"><ele>291.0</ele><time>2026-04-11T11:14:17Z</time></trkpt><trkpt lat="38.09487957291046" lon="15.28553735395648"><ele>291.0</ele><time>2026-04-11T11:14:18Z</time></trkpt><trkpt lat="38.094823668167734" lon="15.285617319057407"><ele>291.0</ele><time>2026-04-11T11:14:19Z</time></trkpt><trkpt lat="38.094765994187206" lon="15.285696087564014"><ele>291.0</ele><time>2026-04-11T11:14:20Z</time></trkpt><trkpt lat="38.09470218808296" lon="15.28576356126268"><ele>291.0</ele><time>2026-04-11T11:14:21Z</time></trkpt><trkpt lat="38.0946473291739" lon="15.285809703117907"><ele>291.3333333333333</ele><time>2026-04-11T11:14:22Z</time></trkpt><trkpt lat="38.09457897277461" lon="15.285850544935235"><ele>291.6666666666667</ele><time>2026-04-11T11:14:23Z</time></trkpt><trkpt lat="38.0945085977381" lon="15.285875361925672"><ele>292.0</ele><time>2026-04-11T11:14:24Z</time></trkpt><trkpt lat="38.094426330107396" lon="15.285890358434177"><ele>292.33333333333337</ele><time>2026-04-11T11:14:25Z</time></trkpt><trkpt lat="38.09433623859424" lon="15.285889476312958"><ele>292.6666666666667</ele><time>2026-04-11T11:14:26Z</time></trkpt><trkpt lat="38.09424264060511" lon="15.285879793385867"><ele>293.0</ele><time>2026-04-11T11:14:27Z</time></trkpt><trkpt lat="38.094146551315674" lon="15.285857380722033"><ele>295.8</ele><time>2026-04-11T11:14:28Z</time></trkpt><trkpt lat="38.094045850214584" lon="15.285835218056492"><ele>298.6</ele><time>2026-04-11T11:14:29Z</time></trkpt><trkpt lat="38.09394898546034" lon="15.285807568040712"><ele>301.4</ele><time>2026-04-11T11:14:30Z</time></trkpt><trkpt lat="38.093867234390665" lon="15.285779427031477"><ele>304.2</ele><time>2026-04-11T11:14:31Z</time></trkpt><trkpt lat="38.093785312792335" lon="15.285754509987969"><ele>307.0</ele><time>2026-04-11T11:14:32Z</time></trkpt><trkpt lat="38.0936958235899" lon="15.285730128076134"><ele>307.0</ele><time>2026-04-11T11:14:33Z</time></trkpt><trkpt lat="38.09359715922287" lon="15.28569951128925"><ele>307.0</ele><time>2026-04-11T11:14:34Z</time></trkpt><trkpt lat="38.09349975144888" lon="15.285674269960307"><ele>307.0</ele><time>2026-04-11T11:14:35Z</time></trkpt><trkpt lat="38.093405630761225" lon="15.28563377379052"><ele>307.0</ele><time>2026-04-11T11:14:36Z</time></trkpt><trkpt lat="38.09332162086414" lon="15.285596715157393"><ele>307.0</ele><time>2026-04-11T11:14:37Z</time></trkpt><trkpt lat="38.093233961613045" lon="15.285567437079724"><ele>304.8</ele><time>2026-04-11T11:14:38Z</time></trkpt><trkpt lat="38.09314288617343" lon="15.285540712484964"><ele>302.6</ele><time>2026-04-11T11:14:39Z</time></trkpt><trkpt lat="38.093048890932224" lon="15.285519779730814"><ele>300.40000000000003</ele><time>2026-04-11T11:14:40Z</time></trkpt><trkpt lat="38.092949613429774" lon="15.285509703926445"><ele>298.2</ele><time>2026-04-11T11:14:41.001Z</time></trkpt><trkpt lat="38.0928388068934" lon="15.28549708005639"><ele>296.0</ele><time>2026-04-11T11:14:42.001Z</time></trkpt><trkpt lat="38.0927250932065" lon="15.285478692268178"><ele>296.0</ele><time>2026-04-11T11:14:43.001Z</time></trkpt><trkpt lat="38.09262669092815" lon="15.285459127091634"><ele>296.0</ele><time>2026-04-11T11:14:44.001Z</time></trkpt><trkpt lat="38.09254196810305" lon="15.285434506585936"><ele>296.0</ele><time>2026-04-11T11:14:45.001Z</time></trkpt><trkpt lat="38.092447864072874" lon="15.28540380335336"><ele>296.0</ele><time>2026-04-11T11:14:46.001Z</time></trkpt><trkpt lat="38.09236243513657" lon="15.285371705492071"><ele>296.0</ele><time>2026-04-11T11:14:47.001Z</time></trkpt><trkpt lat="38.092279149369425" lon="15.285333860479675"><ele>297.1666666666667</ele><time>2026-04-11T11:14:48.001Z</time></trkpt><trkpt lat="38.09220562983738" lon="15.285294132083902"><ele>298.33333333333337</ele><time>2026-04-11T11:14:49.001Z</time></trkpt><trkpt lat="38.09213768011386" lon="15.285244627384895"><ele>299.5</ele><time>2026-04-11T11:14:50.001Z</time></trkpt><trkpt lat="38.09206755440537" lon="15.285181354122415"><ele>300.6666666666667</ele><time>2026-04-11T11:14:51.001Z</time></trkpt><trkpt lat="38.09199175306638" lon="15.285108180631847"><ele>301.8333333333333</ele><time>2026-04-11T11:14:52.001Z</time></trkpt><trkpt lat="38.0919142875709" lon="15.285034002358671"><ele>303.0</ele><time>2026-04-11T11:14:53.001Z</time></trkpt><trkpt lat="38.09183380372938" lon="15.284954341847099"><ele>303.0</ele><time>2026-04-11T11:14:54.001Z</time></trkpt><trkpt lat="38.09176204561647" lon="15.284873365314683"><ele>303.0</ele><time>2026-04-11T11:14:55.001Z</time></trkpt><trkpt lat="38.091691894249465" lon="15.284801970696131"><ele>303.0</ele><time>2026-04-11T11:14:56.001Z</time></trkpt><trkpt lat="38.091630546889725" lon="15.284744841949612"><ele>303.0</ele><time>2026-04-11T11:14:57.001Z</time></trkpt><trkpt lat="38.09152580291204" lon="15.284690578923243"><ele>303.0</ele><time>2026-04-11T11:14:59.001Z</time></trkpt><trkpt lat="38.09145757266027" lon="15.28467875517222"><ele>303.0</ele><time>2026-04-11T11:15:01.001Z</time></trkpt><trkpt lat="38.09139644782686" lon="15.284714368952372"><ele>303.1666666666667</ele><time>2026-04-11T11:15:03.001Z</time></trkpt><trkpt lat="38.0913610917266" lon="15.284825933229868"><ele>303.3333333333333</ele><time>2026-04-11T11:15:05.001Z</time></trkpt><trkpt lat="38.09136149405843" lon="15.284908022295427"><ele>303.5</ele><time>2026-04-11T11:15:06.001Z</time></trkpt><trkpt lat="38.0913586186548" lon="15.285008122473059"><ele>303.66666666666663</ele><time>2026-04-11T11:15:07.001Z</time></trkpt><trkpt lat="38.09135151839944" lon="15.28512175911657"><ele>303.8333333333333</ele><time>2026-04-11T11:15:08.001Z</time></trkpt><trkpt lat="38.09134396131561" lon="15.285246258833709"><ele>304.0</ele><time>2026-04-11T11:15:09Z</time></trkpt><trkpt lat="38.09133764523788" lon="15.285369158158296"><ele>304.0</ele><time>2026-04-11T11:15:10Z</time></trkpt><trkpt lat="38.09132571874681" lon="15.285490092040343"><ele>304.0</ele><time>2026-04-11T11:15:11Z</time></trkpt><trkpt lat="38.09130013384823" lon="15.285605641952325"><ele>304.0</ele><time>2026-04-11T11:15:12Z</time></trkpt><trkpt lat="38.091260965018236" lon="15.285713274001155"><ele>304.0</ele><time>2026-04-11T11:15:13Z</time></trkpt><trkpt lat="38.091210393340845" lon="15.285810889402978"><ele>304.0</ele><time>2026-04-11T11:15:14Z</time></trkpt><trkpt lat="38.091154049931525" lon="15.28590354275267"><ele>303.59999999999997</ele><time>2026-04-11T11:15:15Z</time></trkpt><trkpt lat="38.09109386552537" lon="15.285996782015722"><ele>303.2</ele><time>2026-04-11T11:15:16Z</time></trkpt><trkpt lat="38.09103379338714" lon="15.286092065005763"><ele>302.79999999999995</ele><time>2026-04-11T11:15:17Z</time></trkpt><trkpt lat="38.09096766857246" lon="15.286195507077212"><ele>302.4</ele><time>2026-04-11T11:15:18Z</time></trkpt><trkpt lat="38.090899368681285" lon="15.286306146644215"><ele>302.0</ele><time>2026-04-11T11:15:19Z</time></trkpt><trkpt lat="38.09083443950506" lon="15.28642098043093"><ele>302.4</ele><time>2026-04-11T11:15:20Z</time></trkpt><trkpt lat="38.09077168079209" lon="15.286534535692107"><ele>302.79999999999995</ele><time>2026-04-11T11:15:21Z</time></trkpt><trkpt lat="38.09071239873566" lon="15.28664204480327"><ele>303.2</ele><time>2026-04-11T11:15:22Z</time></trkpt><trkpt lat="38.09065296674859" lon="15.28673415272957"><ele>303.59999999999997</ele><time>2026-04-11T11:15:23Z</time></trkpt><trkpt lat="38.0905813522152" lon="15.286828103532143"><ele>304.0</ele><time>2026-04-11T11:15:24Z</time></trkpt><trkpt lat="38.090511405021424" lon="15.286924416879398"><ele>305.3333333333333</ele><time>2026-04-11T11:15:25Z</time></trkpt><trkpt lat="38.09044946296557" lon="15.287021737279325"><ele>306.66666666666663</ele><time>2026-04-11T11:15:26Z</time></trkpt><trkpt lat="38.090397357430916" lon="15.287106532419473"><ele>308.0</ele><time>2026-04-11T11:15:27Z</time></trkpt><trkpt lat="38.09034745630706" lon="15.287192315530442"><ele>309.3333333333333</ele><time>2026-04-11T11:15:28Z</time></trkpt><trkpt lat="38.09030518872156" lon="15.287266164056296"><ele>310.6666666666667</ele><time>2026-04-11T11:15:29Z</time></trkpt><trkpt lat="38.090265555072094" lon="15.287334758012351"><ele>312.0</ele><time>2026-04-11T11:15:30Z</time></trkpt><trkpt lat="38.090219754859376" lon="15.287410222877217"><ele>312.0</ele><time>2026-04-11T11:15:31Z</time></trkpt><trkpt lat="38.090179427938274" lon="15.287492139595368"><ele>312.0</ele><time>2026-04-11T11:15:32Z</time></trkpt><trkpt lat="38.09014526359124" lon="15.287571721590554"><ele>312.0</ele><time>2026-04-11T11:15:33Z</time></trkpt><trkpt lat="38.090113480567005" lon="15.287657456704794"><ele>312.0</ele><time>2026-04-11T11:15:34Z</time></trkpt><trkpt lat="38.09008405041945" lon="15.287743506900426"><ele>312.0</ele><time>2026-04-11T11:15:35Z</time></trkpt><trkpt lat="38.09005415419992" lon="15.287832243942045"><ele>312.0</ele><time>2026-04-11T11:15:36Z</time></trkpt><trkpt lat="38.09000749863878" lon="15.28795720143378"><ele>312.0</ele><time>2026-04-11T11:15:38Z</time></trkpt><trkpt lat="38.08998448600967" lon="15.288035164971088"><ele>312.0</ele><time>2026-04-11T11:15:40Z</time></trkpt><trkpt lat="38.08998745028982" lon="15.288120933470923"><ele>312.0</ele><time>2026-04-11T11:15:43Z</time></trkpt><trkpt lat="38.0900396981646" lon="15.288218192134092"><ele>312.0</ele><time>2026-04-11T11:15:45Z</time></trkpt><trkpt lat="38.09008892383949" lon="15.288353892572156"><ele>312.0</ele><time>2026-04-11T11:15:47Z</time></trkpt><trkpt lat="38.090143632015526" lon="15.288511152171377"><ele>312.6666666666667</ele><time>2026-04-11T11:15:49Z</time></trkpt><trkpt lat="38.0901667220115" lon="15.288604956741214"><ele>313.3333333333333</ele><time>2026-04-11T11:15:50Z</time></trkpt><trkpt lat="38.09018651643096" lon="15.28870122550058"><ele>314.0</ele><time>2026-04-11T11:15:51Z</time></trkpt><trkpt lat="38.09020174189121" lon="15.288799301703838"><ele>314.66666666666663</ele><time>2026-04-11T11:15:52Z</time></trkpt><trkpt lat="38.0902119274665" lon="15.288901700526102"><ele>315.3333333333333</ele><time>2026-04-11T11:15:53Z</time></trkpt><trkpt lat="38.09021890074464" lon="15.28900849447173"><ele>316.0</ele><time>2026-04-11T11:15:54Z</time></trkpt><trkpt lat="38.090217272172616" lon="15.289114008419137"><ele>316.0</ele><time>2026-04-11T11:15:55Z</time></trkpt><trkpt lat="38.09022145675235" lon="15.289216698800217"><ele>316.0</ele><time>2026-04-11T11:15:56Z</time></trkpt><trkpt lat="38.09020821452819" lon="15.289321934127624"><ele>316.0</ele><time>2026-04-11T11:15:57Z</time></trkpt><trkpt lat="38.09019664855166" lon="15.289436814585141"><ele>316.0</ele><time>2026-04-11T11:15:58Z</time></trkpt><trkpt lat="38.09019528993262" lon="15.289547019616732"><ele>316.0</ele><time>2026-04-11T11:15:59Z</time></trkpt><trkpt lat="38.09018957081039" lon="15.289663940576352"><ele>316.0</ele><time>2026-04-11T11:16:00Z</time></trkpt><trkpt lat="38.09017700939662" lon="15.289781210549911"><ele>316.0</ele><time>2026-04-11T11:16:01Z</time></trkpt><trkpt lat="38.09017269022356" lon="15.289899067535874"><ele>316.0</ele><time>2026-04-11T11:16:02Z</time></trkpt><trkpt lat="38.09017510935569" lon="15.290011025890022"><ele>316.0</ele><time>2026-04-11T11:16:03Z</time></trkpt><trkpt lat="38.09018714162195" lon="15.290116895614181"><ele>316.0</ele><time>2026-04-11T11:16:04Z</time></trkpt><trkpt lat="38.09021399817039" lon="15.290217030768176"><ele>316.0</ele><time>2026-04-11T11:16:05Z</time></trkpt><trkpt lat="38.090250346789645" lon="15.290314989399809"><ele>316.0</ele><time>2026-04-11T11:16:06Z</time></trkpt><trkpt lat="38.090297893182594" lon="15.2904078214918"><ele>316.0</ele><time>2026-04-11T11:16:07Z</time></trkpt><trkpt lat="38.09034746962381" lon="15.290498727208272"><ele>316.0</ele><time>2026-04-11T11:16:08Z</time></trkpt><trkpt lat="38.09040725166034" lon="15.290595944290768"><ele>316.0</ele><time>2026-04-11T11:16:09Z</time></trkpt><trkpt lat="38.0904691756562" lon="15.29070132000962"><ele>316.0</ele><time>2026-04-11T11:16:10Z</time></trkpt><trkpt lat="38.090530100682585" lon="15.290814697523983"><ele>316.0</ele><time>2026-04-11T11:16:11Z</time></trkpt><trkpt lat="38.09059250850524" lon="15.290930516882122"><ele>316.0</ele><time>2026-04-11T11:16:12Z</time></trkpt><trkpt lat="38.090657824769366" lon="15.291045006324259"><ele>316.0</ele><time>2026-04-11T11:16:13Z</time></trkpt><trkpt lat="38.09071755428982" lon="15.291152583752492"><ele>316.0</ele><time>2026-04-11T11:16:14Z</time></trkpt><trkpt lat="38.09076947561931" lon="15.291258848881006"><ele>316.0</ele><time>2026-04-11T11:16:15Z</time></trkpt><trkpt lat="38.09082828508152" lon="15.291370427430046"><ele>316.0</ele><time>2026-04-11T11:16:16Z</time></trkpt><trkpt lat="38.09089272280543" lon="15.291478199294938"><ele>317.20000000000005</ele><time>2026-04-11T11:16:17Z</time></trkpt><trkpt lat="38.09095654879501" lon="15.291580588330154"><ele>318.40000000000003</ele><time>2026-04-11T11:16:18Z</time></trkpt><trkpt lat="38.09101512407152" lon="15.29167237239048"><ele>319.6</ele><time>2026-04-11T11:16:19Z</time></trkpt><trkpt lat="38.0910730508569" lon="15.29175330534646"><ele>320.8</ele><time>2026-04-11T11:16:20Z</time></trkpt><trkpt lat="38.09114555303879" lon="15.291823274817183"><ele>322.0</ele><time>2026-04-11T11:16:21Z</time></trkpt><trkpt lat="38.091198729980064" lon="15.29190879398679"><ele>322.0</ele><time>2026-04-11T11:16:22Z</time></trkpt><trkpt lat="38.09126389262828" lon="15.291976963957644"><ele>322.0</ele><time>2026-04-11T11:16:23Z</time></trkpt><trkpt lat="38.09133223731196" lon="15.292041854737356"><ele>322.0</ele><time>2026-04-11T11:16:24Z</time></trkpt><trkpt lat="38.09140497323978" lon="15.29210202622701"><ele>322.0</ele><time>2026-04-11T11:16:25Z</time></trkpt><trkpt lat="38.091479250901266" lon="15.292157169635686"><ele>322.0</ele><time>2026-04-11T11:16:26Z</time></trkpt><trkpt lat="38.091553065261635" lon="15.292217770009414"><ele>322.0</ele><time>2026-04-11T11:16:27Z</time></trkpt><trkpt lat="38.0916195286288" lon="15.292286088662525"><ele>324.66666666666663</ele><time>2026-04-11T11:16:28Z</time></trkpt><trkpt lat="38.09168162706716" lon="15.292366777263462"><ele>327.3333333333333</ele><time>2026-04-11T11:16:29Z</time></trkpt><trkpt lat="38.09173796737184" lon="15.292458391966068"><ele>330.0</ele><time>2026-04-11T11:16:30Z</time></trkpt><trkpt lat="38.091789959910614" lon="15.292550657875978"><ele>332.6666666666667</ele><time>2026-04-11T11:16:31Z</time></trkpt><trkpt lat="38.091843303406876" lon="15.29264652348396"><ele>335.33333333333337</ele><time>2026-04-11T11:16:32Z</time></trkpt><trkpt lat="38.09188648122954" lon="15.29274132741333"><ele>338.0</ele><time>2026-04-11T11:16:33Z</time></trkpt><trkpt lat="38.09191759406939" lon="15.292839377892463"><ele>338.0</ele><time>2026-04-11T11:16:34Z</time></trkpt><trkpt lat="38.091941554135936" lon="15.292940454299286"><ele>338.0</ele><time>2026-04-11T11:16:35Z</time></trkpt><trkpt lat="38.0919541639573" lon="15.293050482520616"><ele>338.0</ele><time>2026-04-11T11:16:36Z</time></trkpt><trkpt lat="38.09196215577193" lon="15.29315687047217"><ele>338.0</ele><time>2026-04-11T11:16:37Z</time></trkpt><trkpt lat="38.09195672982378" lon="15.293259803109997"><ele>338.0</ele><time>2026-04-11T11:16:38Z</time></trkpt><trkpt lat="38.09194192056724" lon="15.29335860718413"><ele>338.0</ele><time>2026-04-11T11:16:39Z</time></trkpt><trkpt lat="38.09191122129842" lon="15.293449633896333"><ele>337.4</ele><time>2026-04-11T11:16:40Z</time></trkpt><trkpt lat="38.09186930474258" lon="15.293549875996607"><ele>336.79999999999995</ele><time>2026-04-11T11:16:41Z</time></trkpt><trkpt lat="38.09181728217231" lon="15.293658842740243"><ele>336.2</ele><time>2026-04-11T11:16:42Z</time></trkpt><trkpt lat="38.09176010417899" lon="15.293773715456398"><ele>335.6</ele><time>2026-04-11T11:16:43Z</time></trkpt><trkpt lat="38.091698877843896" lon="15.293887047036511"><ele>335.0</ele><time>2026-04-11T11:16:44Z</time></trkpt><trkpt lat="38.09162890662505" lon="15.294006977949712"><ele>335.0</ele><time>2026-04-11T11:16:45Z</time></trkpt><trkpt lat="38.09157143934458" lon="15.29410427279408"><ele>335.0</ele><time>2026-04-11T11:16:46.001Z</time></trkpt><trkpt lat="38.09151774837483" lon="15.294193269528629"><ele>335.0</ele><time>2026-04-11T11:16:47.001Z</time></trkpt><trkpt lat="38.091464179653805" lon="15.294280145295568"><ele>335.0</ele><time>2026-04-11T11:16:48.001Z</time></trkpt><trkpt lat="38.09141262078869" lon="15.29436440073645"><ele>335.0</ele><time>2026-04-11T11:16:49.001Z</time></trkpt><trkpt lat="38.09136741426172" lon="15.29443629572334"><ele>335.0</ele><time>2026-04-11T11:16:50.001Z</time></trkpt><trkpt lat="38.09133433349233" lon="15.294506971563367"><ele>334.99999999999994</ele><time>2026-04-11T11:16:51.001Z</time></trkpt><trkpt lat="38.09130599649077" lon="15.294593065330275"><ele>335.0</ele><time>2026-04-11T11:16:52.001Z</time></trkpt><trkpt lat="38.091288323390124" lon="15.294683686110858"><ele>335.0</ele><time>2026-04-11T11:16:53.001Z</time></trkpt><trkpt lat="38.09128327837725" lon="15.294769276243533"><ele>335.0</ele><time>2026-04-11T11:16:54.001Z</time></trkpt><trkpt lat="38.09127542112086" lon="15.294853813100726"><ele>335.0</ele><time>2026-04-11T11:16:55.001Z</time></trkpt><trkpt lat="38.09127921133793" lon="15.294936001425652"><ele>334.99999999999994</ele><time>2026-04-11T11:16:56.001Z</time></trkpt><trkpt lat="38.09129748274588" lon="15.295021851604544"><ele>335.0</ele><time>2026-04-11T11:16:57.001Z</time></trkpt><trkpt lat="38.09132472707252" lon="15.295107804125754"><ele>334.1666666666667</ele><time>2026-04-11T11:16:58.001Z</time></trkpt><trkpt lat="38.091351302117886" lon="15.295199409031753"><ele>333.33333333333337</ele><time>2026-04-11T11:16:59.001Z</time></trkpt><trkpt lat="38.09137298017711" lon="15.295307514622047"><ele>332.5</ele><time>2026-04-11T11:17:00.001Z</time></trkpt><trkpt lat="38.091412350212025" lon="15.295415184464382"><ele>331.6666666666667</ele><time>2026-04-11T11:17:01.001Z</time></trkpt><trkpt lat="38.091436135767374" lon="15.295520478437668"><ele>330.8333333333333</ele><time>2026-04-11T11:17:02.001Z</time></trkpt><trkpt lat="38.09145960322764" lon="15.295616319705061"><ele>330.0</ele><time>2026-04-11T11:17:03.001Z</time></trkpt><trkpt lat="38.09148099392569" lon="15.295713217131969"><ele>333.0</ele><time>2026-04-11T11:17:04.001Z</time></trkpt><trkpt lat="38.09150230104596" lon="15.295812080850553"><ele>336.0</ele><time>2026-04-11T11:17:05.001Z</time></trkpt><trkpt lat="38.09153175634964" lon="15.295894714492142"><ele>339.0</ele><time>2026-04-11T11:17:06.001Z</time></trkpt><trkpt lat="38.09153796437203" lon="15.296012410231391"><ele>342.0</ele><time>2026-04-11T11:17:08.001Z</time></trkpt><trkpt lat="38.091523399969" lon="15.296103897500062"><ele>345.0</ele><time>2026-04-11T11:17:11.001Z</time></trkpt><trkpt lat="38.0914923817386" lon="15.296212308631883"><ele>348.0</ele><time>2026-04-11T11:17:13Z</time></trkpt><trkpt lat="38.09143660033736" lon="15.296330091584398"><ele>348.0</ele><time>2026-04-11T11:17:15Z</time></trkpt><trkpt lat="38.09139932061439" lon="15.29640505833132"><ele>348.0</ele><time>2026-04-11T11:17:16Z</time></trkpt><trkpt lat="38.091364488410875" lon="15.296482524673156"><ele>348.0</ele><time>2026-04-11T11:17:17Z</time></trkpt><trkpt lat="38.09132365915252" lon="15.296558403018174"><ele>348.0</ele><time>2026-04-11T11:17:18Z</time></trkpt><trkpt lat="38.09127874382524" lon="15.296623531029619"><ele>348.0</ele><time>2026-04-11T11:17:19Z</time></trkpt><trkpt lat="38.09122435219846" lon="15.296670249403268"><ele>348.0</ele><time>2026-04-11T11:17:20Z</time></trkpt><trkpt lat="38.091158308732595" lon="15.296715995554518"><ele>348.0</ele><time>2026-04-11T11:17:21Z</time></trkpt><trkpt lat="38.091088178524934" lon="15.296760793553075"><ele>350.2</ele><time>2026-04-11T11:17:22Z</time></trkpt><trkpt lat="38.091006551227636" lon="15.296849719443204"><ele>352.4</ele><time>2026-04-11T11:17:24Z</time></trkpt><trkpt lat="38.090948719835055" lon="15.29695679413799"><ele>354.59999999999997</ele><time>2026-04-11T11:17:26Z</time></trkpt><trkpt lat="38.090930581506264" lon="15.297069299608916"><ele>356.79999999999995</ele><time>2026-04-11T11:17:28Z</time></trkpt><trkpt lat="38.09095511678481" lon="15.297187263855301"><ele>359.0</ele><time>2026-04-11T11:17:30Z</time></trkpt><trkpt lat="38.09101849094954" lon="15.297304170682795"><ele>359.5</ele><time>2026-04-11T11:17:32Z</time></trkpt><trkpt lat="38.091060154181534" lon="15.297372798184552"><ele>360.0</ele><time>2026-04-11T11:17:33Z</time></trkpt><trkpt lat="38.09110001107087" lon="15.297445219492118"><ele>360.5</ele><time>2026-04-11T11:17:34Z</time></trkpt><trkpt lat="38.091135583030656" lon="15.29756053810783"><ele>361.0</ele><time>2026-04-11T11:17:36Z</time></trkpt><trkpt lat="38.09113791014043" lon="15.297699328431131"><ele>361.5</ele><time>2026-04-11T11:17:38Z</time></trkpt><trkpt lat="38.09111689433328" lon="15.2978183602059"><ele>362.0</ele><time>2026-04-11T11:17:40Z</time></trkpt><trkpt lat="38.09107156530615" lon="15.297915408541112"><ele>362.0</ele><time>2026-04-11T11:17:42Z</time></trkpt><trkpt lat="38.09100791966321" lon="15.298021174559711"><ele>362.0</ele><time>2026-04-11T11:17:44Z</time></trkpt><trkpt lat="38.09095177678704" lon="15.298128975406096"><ele>362.0</ele><time>2026-04-11T11:17:46Z</time></trkpt><trkpt lat="38.09091973845601" lon="15.298235407842997"><ele>362.0</ele><time>2026-04-11T11:17:48Z</time></trkpt><trkpt lat="38.09089997432936" lon="15.298313997433063"><ele>362.0</ele><time>2026-04-11T11:17:50Z</time></trkpt><trkpt lat="38.09090645948349" lon="15.29823086913502"><ele>362.0</ele><time>2026-04-11T11:19:43Z</time></trkpt><trkpt lat="38.0909103322913" lon="15.298147493222586"><ele>362.0</ele><time>2026-04-11T11:19:48Z</time></trkpt><trkpt lat="38.09090897317035" lon="15.298066326084356"><ele>362.0</ele><time>2026-04-11T11:19:54Z</time></trkpt><trkpt lat="38.09096741855332" lon="15.298021044463797"><ele>362.0</ele><time>2026-04-11T11:20:48Z</time></trkpt><trkpt lat="38.09094488774154" lon="15.298098148883277"><ele>362.0</ele><time>2026-04-11T11:21:18Z</time></trkpt><trkpt lat="38.09092917564683" lon="15.298175999801426"><ele>362.0</ele><time>2026-04-11T11:21:25Z</time></trkpt><trkpt lat="38.09089998495748" lon="15.29824687244628"><ele>362.0</ele><time>2026-04-11T11:21:31Z</time></trkpt><trkpt lat="38.09091144018379" lon="15.298328989342961"><ele>362.0</ele><time>2026-04-11T11:22:55Z</time></trkpt><trkpt lat="38.090958823597845" lon="15.298187971449497"><ele>362.0</ele><time>2026-04-11T11:23:20Z</time></trkpt><trkpt lat="38.09100041880019" lon="15.298081635768584"><ele>362.0</ele><time>2026-04-11T11:23:22Z</time></trkpt><trkpt lat="38.09105817281008" lon="15.297966384487415"><ele>362.0</ele><time>2026-04-11T11:23:24Z</time></trkpt><trkpt lat="38.09111102053265" lon="15.297854402021246"><ele>362.0</ele><time>2026-04-11T11:23:26Z</time></trkpt><trkpt lat="38.09113855585363" lon="15.297760076455766"><ele>362.0</ele><time>2026-04-11T11:23:28Z</time></trkpt><trkpt lat="38.091129032461964" lon="15.297656008908103"><ele>362.0</ele><time>2026-04-11T11:23:31Z</time></trkpt><trkpt lat="38.091067648557406" lon="15.297681467455323"><ele>362.0</ele><time>2026-04-11T11:23:38Z</time></trkpt><trkpt lat="38.09102599950541" lon="15.29777422576636"><ele>362.0</ele><time>2026-04-11T11:23:41Z</time></trkpt><trkpt lat="38.09096406791421" lon="15.2978172262076"><ele>362.0</ele><time>2026-04-11T11:23:45Z</time></trkpt><trkpt lat="38.09090146141709" lon="15.29784196987845"><ele>362.0</ele><time>2026-04-11T11:23:47Z</time></trkpt><trkpt lat="38.09080173399498" lon="15.297868207978071"><ele>362.0</ele><time>2026-04-11T11:23:50Z</time></trkpt><trkpt lat="38.09070758253114" lon="15.297864178503378"><ele>367.6666666666667</ele><time>2026-04-11T11:23:53Z</time></trkpt><trkpt lat="38.09064107212065" lon="15.297865663900735"><ele>373.33333333333337</ele><time>2026-04-11T11:24:07Z</time></trkpt><trkpt lat="38.0905551131944" lon="15.297866293396622"><ele>379.0</ele><time>2026-04-11T11:24:09Z</time></trkpt><trkpt lat="38.09045820604138" lon="15.297851579417369"><ele>384.6666666666667</ele><time>2026-04-11T11:24:11Z</time></trkpt><trkpt lat="38.09039383900414" lon="15.297849710976584"><ele>390.3333333333333</ele><time>2026-04-11T11:24:13Z</time></trkpt><trkpt lat="38.09032051609668" lon="15.297869423044954"><ele>396.0</ele><time>2026-04-11T11:24:15Z</time></trkpt><trkpt lat="38.09026233872838" lon="15.297909339867624"><ele>396.0</ele><time>2026-04-11T11:24:17Z</time></trkpt><trkpt lat="38.09022808223925" lon="15.297987570212763"><ele>396.0</ele><time>2026-04-11T11:24:19Z</time></trkpt><trkpt lat="38.0902015263215" lon="15.298080544274626"><ele>396.0</ele><time>2026-04-11T11:24:21Z</time></trkpt><trkpt lat="38.09018806132174" lon="15.298182486332916"><ele>396.0</ele><time>2026-04-11T11:24:24Z</time></trkpt><trkpt lat="38.09019662581316" lon="15.298262003535553"><ele>396.0</ele><time>2026-04-11T11:24:27Z</time></trkpt><trkpt lat="38.090219821240865" lon="15.29834659272479"><ele>396.0</ele><time>2026-04-11T11:25:26Z</time></trkpt><trkpt lat="38.090247716803" lon="15.298425241805614"><ele>396.0</ele><time>2026-04-11T11:25:31Z</time></trkpt><trkpt lat="38.090273513080206" lon="15.298502156789548"><ele>395.8571428571429</ele><time>2026-04-11T11:25:36Z</time></trkpt><trkpt lat="38.090258974477614" lon="15.298583878309081"><ele>395.71428571428567</ele><time>2026-04-11T11:25:46Z</time></trkpt><trkpt lat="38.090261931631105" lon="15.29867152722433"><ele>395.57142857142856</ele><time>2026-04-11T11:25:52Z</time></trkpt><trkpt lat="38.09025260190242" lon="15.298756100445846"><ele>395.42857142857144</ele><time>2026-04-11T11:25:58Z</time></trkpt><trkpt lat="38.09024885840129" lon="15.298843954248055"><ele>395.28571428571433</ele><time>2026-04-11T11:26:04Z</time></trkpt><trkpt lat="38.09024988889365" lon="15.29892630732529"><ele>395.1428571428571</ele><time>2026-04-11T11:26:09Z</time></trkpt><trkpt lat="38.090267483216785" lon="15.299007749645156"><ele>395.0</ele><time>2026-04-11T11:26:14Z</time></trkpt><trkpt lat="38.09023418857644" lon="15.298924792349837"><ele>395.0</ele><time>2026-04-11T11:26:23Z</time></trkpt><trkpt lat="38.09024305317145" lon="15.298828234888918"><ele>395.0</ele><time>2026-04-11T11:26:29Z</time></trkpt><trkpt lat="38.09023757175699" lon="15.298740003518995"><ele>395.0</ele><time>2026-04-11T11:26:35Z</time></trkpt><trkpt lat="38.09025271804095" lon="15.298643769189017"><ele>395.0</ele><time>2026-04-11T11:26:40Z</time></trkpt><trkpt lat="38.090251767140565" lon="15.298552558150451"><ele>395.0</ele><time>2026-04-11T11:26:46Z</time></trkpt><trkpt lat="38.09024593033408" lon="15.298470129431301"><ele>395.0</ele><time>2026-04-11T11:26:52Z</time></trkpt><trkpt lat="38.090227627706874" lon="15.298378267060865"><ele>395.0</ele><time>2026-04-11T11:26:58Z</time></trkpt><trkpt lat="38.09020117637513" lon="15.298300202171381"><ele>394.99999999999994</ele><time>2026-04-11T11:27:05Z</time></trkpt><trkpt lat="38.09024513407956" lon="15.298406723208423"><ele>395.0</ele><time>2026-04-11T11:27:31Z</time></trkpt><trkpt lat="38.09024352486914" lon="15.29849285443275"><ele>395.0</ele><time>2026-04-11T11:28:58Z</time></trkpt><trkpt lat="38.09022841732536" lon="15.298401332012782"><ele>395.0</ele><time>2026-04-11T11:29:05Z</time></trkpt><trkpt lat="38.0902102749737" lon="15.298312801709137"><ele>394.99999999999994</ele><time>2026-04-11T11:29:12Z</time></trkpt><trkpt lat="38.09024441857956" lon="15.298415798883523"><ele>395.0</ele><time>2026-04-11T11:29:27Z</time></trkpt><trkpt lat="38.09025276335892" lon="15.298516999388093"><ele>395.0</ele><time>2026-04-11T11:30:32Z</time></trkpt><trkpt lat="38.090271958221685" lon="15.298593902695055"><ele>395.0</ele><time>2026-04-11T11:30:34Z</time></trkpt><trkpt lat="38.09026524547383" lon="15.298715470896493"><ele>395.0</ele><time>2026-04-11T11:30:37Z</time></trkpt><trkpt lat="38.09025779759067" lon="15.29880768526207"><ele>395.0</ele><time>2026-04-11T11:30:39Z</time></trkpt><trkpt lat="38.090250355118194" lon="15.298894569299879"><ele>395.0</ele><time>2026-04-11T11:30:41Z</time></trkpt><trkpt lat="38.09025615800101" lon="15.298984159133179"><ele>395.0</ele><time>2026-04-11T11:30:43Z</time></trkpt><trkpt lat="38.09024391849995" lon="15.299070286492876"><ele>395.0</ele><time>2026-04-11T11:30:46Z</time></trkpt><trkpt lat="38.09021239144863" lon="15.299155933789269"><ele>394.66666666666663</ele><time>2026-04-11T11:30:48Z</time></trkpt><trkpt lat="38.090169344210864" lon="15.299260288891878"><ele>394.3333333333333</ele><time>2026-04-11T11:30:50Z</time></trkpt><trkpt lat="38.09014536707866" lon="15.299356760965475"><ele>394.0</ele><time>2026-04-11T11:30:52Z</time></trkpt><trkpt lat="38.090133836940375" lon="15.299443173975169"><ele>393.66666666666663</ele><time>2026-04-11T11:30:54Z</time></trkpt><trkpt lat="38.090098622140715" lon="15.299517136612378"><ele>393.3333333333333</ele><time>2026-04-11T11:30:56Z</time></trkpt><trkpt lat="38.09006387216438" lon="15.299597793946775"><ele>393.0</ele><time>2026-04-11T11:30:58Z</time></trkpt><trkpt lat="38.090019924111246" lon="15.2996788480407"><ele>392.8571428571429</ele><time>2026-04-11T11:31:00Z</time></trkpt><trkpt lat="38.089985171012316" lon="15.299765706227975"><ele>392.7142857142857</ele><time>2026-04-11T11:31:02Z</time></trkpt><trkpt lat="38.08996134344891" lon="15.299840025107848"><ele>392.57142857142856</ele><time>2026-04-11T11:31:04Z</time></trkpt><trkpt lat="38.08996128775237" lon="15.299938968723465"><ele>392.42857142857144</ele><time>2026-04-11T11:31:07Z</time></trkpt><trkpt lat="38.0899171356242" lon="15.300010915369993"><ele>392.2857142857143</ele><time>2026-04-11T11:31:10Z</time></trkpt><trkpt lat="38.08987191621541" lon="15.300070901088356"><ele>392.14285714285717</ele><time>2026-04-11T11:31:14Z</time></trkpt><trkpt lat="38.08983300571238" lon="15.300147250498739"><ele>392.0</ele><time>2026-04-11T11:32:04Z</time></trkpt><trkpt lat="38.089787428135395" lon="15.300222639282378"><ele>397.7142857142857</ele><time>2026-04-11T11:32:08Z</time></trkpt><trkpt lat="38.08978006230167" lon="15.300302885594544"><ele>403.42857142857144</ele><time>2026-04-11T11:32:11Z</time></trkpt><trkpt lat="38.08977881250457" lon="15.300384395940704"><ele>409.1428571428571</ele><time>2026-04-11T11:32:16Z</time></trkpt><trkpt lat="38.08975987395611" lon="15.300477711789693"><ele>414.8571428571429</ele><time>2026-04-11T11:32:21Z</time></trkpt><trkpt lat="38.08976494032534" lon="15.300387431107639"><ele>420.57142857142856</ele><time>2026-04-11T11:32:27Z</time></trkpt><trkpt lat="38.089770538603986" lon="15.300299719234362"><ele>426.2857142857143</ele><time>2026-04-11T11:32:33Z</time></trkpt><trkpt lat="38.08978936551135" lon="15.300215411450926"><ele>432.0</ele><time>2026-04-11T11:32:38Z</time></trkpt><trkpt lat="38.08984707565045" lon="15.300142211682047"><ele>432.0</ele><time>2026-04-11T11:32:44Z</time></trkpt><trkpt lat="38.08987482483213" lon="15.300057494233233"><ele>432.0</ele><time>2026-04-11T11:32:50Z</time></trkpt><trkpt lat="38.08991953766836" lon="15.299964996402643"><ele>432.0</ele><time>2026-04-11T11:36:13Z</time></trkpt><trkpt lat="38.08997269116655" lon="15.29986010750798"><ele>432.0</ele><time>2026-04-11T11:37:39Z</time></trkpt><trkpt lat="38.089954721670196" lon="15.299950473337656"><ele>432.0</ele><time>2026-04-11T11:38:00Z</time></trkpt><trkpt lat="38.08992691521154" lon="15.300026872827857"><ele>432.0</ele><time>2026-04-11T11:38:05Z</time></trkpt><trkpt lat="38.089868482912514" lon="15.300082562547429"><ele>432.0</ele><time>2026-04-11T11:38:29Z</time></trkpt><trkpt lat="38.08989883552718" lon="15.299973755708232"><ele>432.0</ele><time>2026-04-11T11:40:29Z</time></trkpt><trkpt lat="38.08995645663489" lon="15.299881553434611"><ele>432.0</ele><time>2026-04-11T11:40:37Z</time></trkpt><trkpt lat="38.08994291385636" lon="15.299775389315819"><ele>432.0</ele><time>2026-04-11T11:40:59Z</time></trkpt><trkpt lat="38.08998763651619" lon="15.299691506022429"><ele>432.0</ele><time>2026-04-11T11:41:03Z</time></trkpt><trkpt lat="38.09001793559688" lon="15.299618074521076"><ele>432.0</ele><time>2026-04-11T11:41:06Z</time></trkpt><trkpt lat="38.090055779208114" lon="15.299551291569424"><ele>425.5</ele><time>2026-04-11T11:41:08Z</time></trkpt><trkpt lat="38.09009448317306" lon="15.299473289748482"><ele>419.0</ele><time>2026-04-11T11:41:10Z</time></trkpt><trkpt lat="38.09012683729427" lon="15.299385175591949"><ele>412.5</ele><time>2026-04-11T11:41:12Z</time></trkpt><trkpt lat="38.09015168589174" lon="15.299294698723466"><ele>406.0</ele><time>2026-04-11T11:41:14Z</time></trkpt><trkpt lat="38.09018419079144" lon="15.299205656203462"><ele>399.5</ele><time>2026-04-11T11:41:16Z</time></trkpt><trkpt lat="38.090225443212745" lon="15.29909655349433"><ele>393.0</ele><time>2026-04-11T11:41:19Z</time></trkpt><trkpt lat="38.09025920369581" lon="15.29900675347529"><ele>393.3333333333333</ele><time>2026-04-11T11:41:22Z</time></trkpt><trkpt lat="38.0902595789586" lon="15.298896468654663"><ele>393.66666666666663</ele><time>2026-04-11T11:41:25Z</time></trkpt><trkpt lat="38.09026164608569" lon="15.298788415382681"><ele>394.0</ele><time>2026-04-11T11:41:28Z</time></trkpt><trkpt lat="38.0902677143521" lon="15.298683397087505"><ele>394.3333333333333</ele><time>2026-04-11T11:41:30Z</time></trkpt><trkpt lat="38.090270009565714" lon="15.298600891527979"><ele>394.66666666666663</ele><time>2026-04-11T11:41:32Z</time></trkpt><trkpt lat="38.090261793041364" lon="15.298504191400406"><ele>395.0</ele><time>2026-04-11T11:41:34Z</time></trkpt><trkpt lat="38.09023646612275" lon="15.298408407154547"><ele>394.99999999999994</ele><time>2026-04-11T11:41:47Z</time></trkpt><trkpt lat="38.09021585349072" lon="15.298320630938807"><ele>395.0</ele><time>2026-04-11T11:41:53Z</time></trkpt><trkpt lat="38.09025314556079" lon="15.29839697225801"><ele>395.0</ele><time>2026-04-11T11:42:06Z</time></trkpt><trkpt lat="38.09022010008402" lon="15.298325992341624"><ele>395.0</ele><time>2026-04-11T11:42:26Z</time></trkpt><trkpt lat="38.090201539550854" lon="15.298248170194352"><ele>394.99999999999994</ele><time>2026-04-11T11:42:30Z</time></trkpt><trkpt lat="38.090208421073505" lon="15.298134940900937"><ele>395.0</ele><time>2026-04-11T11:43:43Z</time></trkpt><trkpt lat="38.0902342709989" lon="15.298015892050056"><ele>395.16666666666663</ele><time>2026-04-11T11:43:46Z</time></trkpt><trkpt lat="38.09027427489629" lon="15.297921594515811"><ele>395.3333333333333</ele><time>2026-04-11T11:43:49Z</time></trkpt><trkpt lat="38.09033831285748" lon="15.297873179791926"><ele>395.5</ele><time>2026-04-11T11:43:52Z</time></trkpt><trkpt lat="38.09040381193622" lon="15.297857620248065"><ele>395.66666666666663</ele><time>2026-04-11T11:43:56Z</time></trkpt><trkpt lat="38.090480586489676" lon="15.297858806919963"><ele>395.8333333333333</ele><time>2026-04-11T11:43:58Z</time></trkpt><trkpt lat="38.090546731206594" lon="15.297857398825775"><ele>396.0</ele><time>2026-04-11T11:44:00Z</time></trkpt><trkpt lat="38.090641220546345" lon="15.297865391430907"><ele>396.0</ele><time>2026-04-11T11:44:03Z</time></trkpt><trkpt lat="38.090737327578765" lon="15.297882513187837"><ele>396.0</ele><time>2026-04-11T11:44:06Z</time></trkpt><trkpt lat="38.09080098668164" lon="15.297882824593557"><ele>396.0</ele><time>2026-04-11T11:44:09Z</time></trkpt><trkpt lat="38.09087333026699" lon="15.29786673209763"><ele>396.0</ele><time>2026-04-11T11:44:13Z</time></trkpt><trkpt lat="38.09082683918446" lon="15.297811113612557"><ele>396.0</ele><time>2026-04-11T11:44:43Z</time></trkpt><trkpt lat="38.090756526521005" lon="15.297795695169548"><ele>396.0</ele><time>2026-04-11T11:44:50Z</time></trkpt><trkpt lat="38.09068841977819" lon="15.29777391880287"><ele>396.0</ele><time>2026-04-11T11:44:56Z</time></trkpt><trkpt lat="38.09076176030431" lon="15.29778135642979"><ele>391.14285714285717</ele><time>2026-04-11T11:45:19Z</time></trkpt><trkpt lat="38.0908174663505" lon="15.297820873364822"><ele>386.2857142857143</ele><time>2026-04-11T11:45:25Z</time></trkpt><trkpt lat="38.090884528404885" lon="15.297868556654063"><ele>381.42857142857144</ele><time>2026-04-11T11:46:30Z</time></trkpt><trkpt lat="38.09095481998416" lon="15.297858924041678"><ele>376.57142857142856</ele><time>2026-04-11T11:46:35Z</time></trkpt><trkpt lat="38.09102342040521" lon="15.297819655689334"><ele>371.71428571428567</ele><time>2026-04-11T11:46:38Z</time></trkpt><trkpt lat="38.091060732884316" lon="15.297727779887662"><ele>366.85714285714283</ele><time>2026-04-11T11:46:41Z</time></trkpt><trkpt lat="38.09110090308902" lon="15.297644497962704"><ele>362.0</ele><time>2026-04-11T11:46:43Z</time></trkpt><trkpt lat="38.091137936011336" lon="15.297571380911762"><ele>362.0</ele><time>2026-04-11T11:46:47Z</time></trkpt><trkpt lat="38.09111629864272" lon="15.297489710121022"><ele>362.0</ele><time>2026-04-11T11:46:50Z</time></trkpt><trkpt lat="38.09107578292102" lon="15.297422216329808"><ele>362.0</ele><time>2026-04-11T11:46:52Z</time></trkpt><trkpt lat="38.09102800425597" lon="15.297324108378971"><ele>362.0</ele><time>2026-04-11T11:46:54Z</time></trkpt><trkpt lat="38.09097656167941" lon="15.297232084437674"><ele>362.0</ele><time>2026-04-11T11:46:56Z</time></trkpt><trkpt lat="38.090951642087624" lon="15.297132597985355"><ele>362.0</ele><time>2026-04-11T11:46:58Z</time></trkpt><trkpt lat="38.09095040737557" lon="15.29704806823342"><ele>361.5</ele><time>2026-04-11T11:47:00Z</time></trkpt><trkpt lat="38.0909675939907" lon="15.29696718234719"><ele>361.0</ele><time>2026-04-11T11:47:02Z</time></trkpt><trkpt lat="38.091002664645714" lon="15.296887136560231"><ele>360.5</ele><time>2026-04-11T11:47:04Z</time></trkpt><trkpt lat="38.09106528583131" lon="15.296819265575223"><ele>360.0</ele><time>2026-04-11T11:47:06Z</time></trkpt><trkpt lat="38.09114225967092" lon="15.296750608237033"><ele>359.5</ele><time>2026-04-11T11:47:08Z</time></trkpt><trkpt lat="38.09122633098289" lon="15.29669496785366"><ele>359.0</ele><time>2026-04-11T11:47:10Z</time></trkpt><trkpt lat="38.09129608662244" lon="15.296621381615937"><ele>359.0</ele><time>2026-04-11T11:47:12Z</time></trkpt><trkpt lat="38.09134899638933" lon="15.296531121610697"><ele>359.0</ele><time>2026-04-11T11:47:14Z</time></trkpt><trkpt lat="38.09139612232084" lon="15.296434693058522"><ele>359.0</ele><time>2026-04-11T11:47:16Z</time></trkpt><trkpt lat="38.09144383569379" lon="15.296334593017644"><ele>359.0</ele><time>2026-04-11T11:47:18Z</time></trkpt><trkpt lat="38.0914828287318" lon="15.296252534963331"><ele>359.0</ele><time>2026-04-11T11:47:20Z</time></trkpt><trkpt lat="38.091518217143445" lon="15.296161349864123"><ele>359.0</ele><time>2026-04-11T11:47:22Z</time></trkpt><trkpt lat="38.09153605729743" lon="15.296072765226315"><ele>357.1666666666667</ele><time>2026-04-11T11:47:24Z</time></trkpt><trkpt lat="38.091538007437606" lon="15.295967753165444"><ele>355.33333333333337</ele><time>2026-04-11T11:47:27Z</time></trkpt><trkpt lat="38.09152701636168" lon="15.295856175865397"><ele>353.5</ele><time>2026-04-11T11:47:30Z</time></trkpt><trkpt lat="38.09149547149006" lon="15.295759040153582"><ele>351.6666666666667</ele><time>2026-04-11T11:47:32Z</time></trkpt><trkpt lat="38.09146907171108" lon="15.295658090503574"><ele>349.8333333333333</ele><time>2026-04-11T11:47:34Z</time></trkpt><trkpt lat="38.091440624992394" lon="15.2955514757647"><ele>348.0</ele><time>2026-04-11T11:47:36Z</time></trkpt><trkpt lat="38.09141141721658" lon="15.295440122229616"><ele>344.4</ele><time>2026-04-11T11:47:38Z</time></trkpt><trkpt lat="38.09137993745764" lon="15.29531931474042"><ele>340.79999999999995</ele><time>2026-04-11T11:47:40Z</time></trkpt><trkpt lat="38.09134594782466" lon="15.295206124983297"><ele>337.2</ele><time>2026-04-11T11:47:42Z</time></trkpt><trkpt lat="38.09131149279986" lon="15.295092627378848"><ele>333.6</ele><time>2026-04-11T11:47:44Z</time></trkpt><trkpt lat="38.09129312394622" lon="15.294977749868911"><ele>330.0</ele><time>2026-04-11T11:47:46Z</time></trkpt><trkpt lat="38.09128320460544" lon="15.294881847098663"><ele>330.00000000000006</ele><time>2026-04-11T11:47:48Z</time></trkpt><trkpt lat="38.091280552933526" lon="15.294792417288928"><ele>330.0</ele><time>2026-04-11T11:47:50.999Z</time></trkpt><trkpt lat="38.09125853731104" lon="15.294715189574632"><ele>330.0</ele><time>2026-04-11T11:47:53.999Z</time></trkpt><trkpt lat="38.09120539234116" lon="15.29465352223811"><ele>330.0</ele><time>2026-04-11T11:47:57.999Z</time></trkpt><trkpt lat="38.09116079466288" lon="15.294722633801113"><ele>330.0</ele><time>2026-04-11T11:49:16Z</time></trkpt><trkpt lat="38.09110402254113" lon="15.29476995835597"><ele>330.00000000000006</ele><time>2026-04-11T11:49:20Z</time></trkpt><trkpt lat="38.09101983074265" lon="15.294760367087212"><ele>330.0</ele><time>2026-04-11T11:49:24Z</time></trkpt><trkpt lat="38.090939151190334" lon="15.294786690326255"><ele>330.00000000000006</ele><time>2026-04-11T11:49:26Z</time></trkpt><trkpt lat="38.09087042720629" lon="15.294824112581038"><ele>330.0</ele><time>2026-04-11T11:49:28Z</time></trkpt><trkpt lat="38.090776780068914" lon="15.294856619870101"><ele>330.0</ele><time>2026-04-11T11:49:30Z</time></trkpt><trkpt lat="38.090706231116556" lon="15.294878959090209"><ele>330.0</ele><time>2026-04-11T11:49:32Z</time></trkpt><trkpt lat="38.09063892329613" lon="15.29491053757087"><ele>330.0</ele><time>2026-04-11T11:49:34Z</time></trkpt><trkpt lat="38.09057243302186" lon="15.29492861915869"><ele>330.00000000000006</ele><time>2026-04-11T11:50:02.999Z</time></trkpt><trkpt lat="38.09063689920305" lon="15.29492523932626"><ele>330.0</ele><time>2026-04-11T11:50:25Z</time></trkpt><trkpt lat="38.0907042855134" lon="15.294885635026777"><ele>330.0</ele><time>2026-04-11T11:50:27Z</time></trkpt><trkpt lat="38.09078700004606" lon="15.294860505184106"><ele>330.0</ele><time>2026-04-11T11:50:30Z</time></trkpt><trkpt lat="38.09084842168615" lon="15.294835932789695"><ele>330.0</ele><time>2026-04-11T11:50:32Z</time></trkpt><trkpt lat="38.090918663481126" lon="15.294806447396816"><ele>330.0</ele><time>2026-04-11T11:50:34Z</time></trkpt><trkpt lat="38.09098754763579" lon="15.29478014274687"><ele>330.0</ele><time>2026-04-11T11:50:37Z</time></trkpt><trkpt lat="38.091054179809575" lon="15.294754667501955"><ele>330.0</ele><time>2026-04-11T11:50:41Z</time></trkpt><trkpt lat="38.09114476247906" lon="15.294727401472377"><ele>330.7142857142857</ele><time>2026-04-11T11:50:44Z</time></trkpt><trkpt lat="38.0912160410353" lon="15.294700563541136"><ele>331.42857142857144</ele><time>2026-04-11T11:50:46Z</time></trkpt><trkpt lat="38.09127491893026" lon="15.294632831309453"><ele>332.1428571428571</ele><time>2026-04-11T11:50:49Z</time></trkpt><trkpt lat="38.091325187878766" lon="15.294546448806265"><ele>332.8571428571429</ele><time>2026-04-11T11:50:52Z</time></trkpt><trkpt lat="38.09136510059265" lon="15.2944825793386"><ele>333.57142857142856</ele><time>2026-04-11T11:50:54Z</time></trkpt><trkpt lat="38.09139166593053" lon="15.294408143341515"><ele>334.2857142857143</ele><time>2026-04-11T11:50:56Z</time></trkpt><trkpt lat="38.0914306217995" lon="15.294339557852211"><ele>335.0</ele><time>2026-04-11T11:50:58Z</time></trkpt><trkpt lat="38.09148136154411" lon="15.294272506424562"><ele>335.0</ele><time>2026-04-11T11:51:00Z</time></trkpt><trkpt lat="38.09153302506705" lon="15.294198292583498"><ele>335.0</ele><time>2026-04-11T11:51:02Z</time></trkpt><trkpt lat="38.09158342189755" lon="15.294114480699726"><ele>335.0</ele><time>2026-04-11T11:51:04Z</time></trkpt><trkpt lat="38.091650888905576" lon="15.294005129927275"><ele>335.0</ele><time>2026-04-11T11:51:06Z</time></trkpt><trkpt lat="38.09169634682215" lon="15.293940787914805"><ele>335.0</ele><time>2026-04-11T11:51:07Z</time></trkpt><trkpt lat="38.091740089251374" lon="15.29386484929724"><ele>335.0</ele><time>2026-04-11T11:51:08Z</time></trkpt><trkpt lat="38.09178415232018" lon="15.293783302781808"><ele>334.57142857142856</ele><time>2026-04-11T11:51:09Z</time></trkpt><trkpt lat="38.09181823811023" lon="15.293700409660163"><ele>334.1428571428571</ele><time>2026-04-11T11:51:10Z</time></trkpt><trkpt lat="38.091841550073" lon="15.29362524980367"><ele>333.71428571428567</ele><time>2026-04-11T11:51:11Z</time></trkpt><trkpt lat="38.091871162569184" lon="15.293542344889183"><ele>333.2857142857143</ele><time>2026-04-11T11:51:12Z</time></trkpt><trkpt lat="38.091900467154176" lon="15.293454541422276"><ele>332.8571428571429</ele><time>2026-04-11T11:51:13Z</time></trkpt><trkpt lat="38.09192240789351" lon="15.293363378672272"><ele>332.4285714285714</ele><time>2026-04-11T11:51:14Z</time></trkpt><trkpt lat="38.09193822101608" lon="15.293274508759069"><ele>332.0</ele><time>2026-04-11T11:51:15Z</time></trkpt><trkpt lat="38.09194404300638" lon="15.293191664644777"><ele>332.0</ele><time>2026-04-11T11:51:16Z</time></trkpt><trkpt lat="38.09194432008358" lon="15.293106552492752"><ele>332.0</ele><time>2026-04-11T11:51:17Z</time></trkpt><trkpt lat="38.09194141464001" lon="15.293019727466906"><ele>332.0</ele><time>2026-04-11T11:51:18Z</time></trkpt><trkpt lat="38.09192805617632" lon="15.292930919642966"><ele>332.0</ele><time>2026-04-11T11:51:19Z</time></trkpt><trkpt lat="38.091912216142596" lon="15.292845069185919"><ele>332.0</ele><time>2026-04-11T11:51:20Z</time></trkpt><trkpt lat="38.091888575337265" lon="15.292765106468735"><ele>332.0</ele><time>2026-04-11T11:51:21Z</time></trkpt><trkpt lat="38.09185929921445" lon="15.29269057040857"><ele>332.0</ele><time>2026-04-11T11:51:22Z</time></trkpt><trkpt lat="38.091824264632166" lon="15.292615725094313"><ele>332.85714285714283</ele><time>2026-04-11T11:51:23Z</time></trkpt><trkpt lat="38.091785120896944" lon="15.29254256577889"><ele>333.7142857142857</ele><time>2026-04-11T11:51:24Z</time></trkpt><trkpt lat="38.0917396890582" lon="15.292469306549737"><ele>334.57142857142856</ele><time>2026-04-11T11:51:25Z</time></trkpt><trkpt lat="38.09169344619188" lon="15.29239536100021"><ele>335.42857142857144</ele><time>2026-04-11T11:51:26Z</time></trkpt><trkpt lat="38.09164110763309" lon="15.29232015937251"><ele>336.2857142857143</ele><time>2026-04-11T11:51:27Z</time></trkpt><trkpt lat="38.0915881017021" lon="15.292252820136252"><ele>337.14285714285717</ele><time>2026-04-11T11:51:28Z</time></trkpt><trkpt lat="38.09152604177201" lon="15.292193291328276"><ele>338.0</ele><time>2026-04-11T11:51:29Z</time></trkpt><trkpt lat="38.091453450303135" lon="15.292138306345803"><ele>335.33333333333337</ele><time>2026-04-11T11:51:30Z</time></trkpt><trkpt lat="38.091386256634905" lon="15.292090505862939"><ele>332.6666666666667</ele><time>2026-04-11T11:51:31Z</time></trkpt><trkpt lat="38.09132292840032" lon="15.29203826276447"><ele>330.0</ele><time>2026-04-11T11:51:32Z</time></trkpt><trkpt lat="38.09125977053124" lon="15.29197930175282"><ele>327.3333333333333</ele><time>2026-04-11T11:51:33Z</time></trkpt><trkpt lat="38.091203195712005" lon="15.291911851123674"><ele>324.66666666666663</ele><time>2026-04-11T11:51:34Z</time></trkpt><trkpt lat="38.09114348954822" lon="15.291840910083934"><ele>322.0</ele><time>2026-04-11T11:51:35Z</time></trkpt><trkpt lat="38.091082491342824" lon="15.291764244389729"><ele>322.0</ele><time>2026-04-11T11:51:36Z</time></trkpt><trkpt lat="38.0910232145431" lon="15.291681657252424"><ele>322.0</ele><time>2026-04-11T11:51:37Z</time></trkpt><trkpt lat="38.09096399830662" lon="15.291593014492955"><ele>322.0</ele><time>2026-04-11T11:51:38Z</time></trkpt><trkpt lat="38.09090407192371" lon="15.291499716120278"><ele>322.0</ele><time>2026-04-11T11:51:39Z</time></trkpt><trkpt lat="38.09084492745992" lon="15.291407293705142"><ele>322.0</ele><time>2026-04-11T11:51:40Z</time></trkpt><trkpt lat="38.090790523400884" lon="15.291308532242782"><ele>320.8</ele><time>2026-04-11T11:51:41Z</time></trkpt><trkpt lat="38.09074060250362" lon="15.291210547101594"><ele>319.6</ele><time>2026-04-11T11:51:42Z</time></trkpt><trkpt lat="38.09068851716715" lon="15.2911123784989"><ele>318.40000000000003</ele><time>2026-04-11T11:51:43Z</time></trkpt><trkpt lat="38.09063507547343" lon="15.291008259476769"><ele>317.20000000000005</ele><time>2026-04-11T11:51:44Z</time></trkpt><trkpt lat="38.09057690746454" lon="15.290904354732431"><ele>316.0</ele><time>2026-04-11T11:51:44.999Z</time></trkpt><trkpt lat="38.090521968019786" lon="15.290805758550672"><ele>316.0</ele><time>2026-04-11T11:51:45.999Z</time></trkpt><trkpt lat="38.090468022956756" lon="15.29071070713802"><ele>316.0</ele><time>2026-04-11T11:51:46.999Z</time></trkpt><trkpt lat="38.090418931886276" lon="15.290622793203736"><ele>316.0</ele><time>2026-04-11T11:51:47.999Z</time></trkpt><trkpt lat="38.090377140531785" lon="15.29054343774236"><ele>316.0</ele><time>2026-04-11T11:51:48.999Z</time></trkpt><trkpt lat="38.09034249210752" lon="15.29046670439878"><ele>316.0</ele><time>2026-04-11T11:51:49.999Z</time></trkpt><trkpt lat="38.090310803330524" lon="15.290394104272513"><ele>316.0</ele><time>2026-04-11T11:51:50.999Z</time></trkpt><trkpt lat="38.090249142814486" lon="15.290270463377169"><ele>316.0</ele><time>2026-04-11T11:51:52.999Z</time></trkpt><trkpt lat="38.09021419363153" lon="15.290142949274701"><ele>316.0</ele><time>2026-04-11T11:51:54.999Z</time></trkpt><trkpt lat="38.09019996332109" lon="15.29006031327392"><ele>316.0</ele><time>2026-04-11T11:51:55.999Z</time></trkpt><trkpt lat="38.09018725981557" lon="15.289916065507937"><ele>316.0</ele><time>2026-04-11T11:51:57.999Z</time></trkpt><trkpt lat="38.090187813770505" lon="15.289776695587177"><ele>316.0</ele><time>2026-04-11T11:51:59.999Z</time></trkpt><trkpt lat="38.09019376520583" lon="15.289695972473721"><ele>316.00000000000006</ele><time>2026-04-11T11:52:00.999Z</time></trkpt><trkpt lat="38.090202222600574" lon="15.289607404397975"><ele>316.0</ele><time>2026-04-11T11:52:01.999Z</time></trkpt><trkpt lat="38.09020714100278" lon="15.289513911787687"><ele>316.0</ele><time>2026-04-11T11:52:02.999Z</time></trkpt><trkpt lat="38.090211466282724" lon="15.28942198726868"><ele>316.0</ele><time>2026-04-11T11:52:03.999Z</time></trkpt><trkpt lat="38.09021723535005" lon="15.289326982479515"><ele>316.0</ele><time>2026-04-11T11:52:04.999Z</time></trkpt><trkpt lat="38.090222652373704" lon="15.289239532226448"><ele>316.00000000000006</ele><time>2026-04-11T11:52:05.999Z</time></trkpt><trkpt lat="38.09023220504598" lon="15.289145864535604"><ele>316.0</ele><time>2026-04-11T11:52:06.999Z</time></trkpt><trkpt lat="38.09023622453299" lon="15.28904643401963"><ele>316.00000000000006</ele><time>2026-04-11T11:52:07.999Z</time></trkpt><trkpt lat="38.090233376146706" lon="15.288951883790181"><ele>316.0</ele><time>2026-04-11T11:52:08.999Z</time></trkpt><trkpt lat="38.09022871939007" lon="15.28886297454052"><ele>316.0</ele><time>2026-04-11T11:52:09.999Z</time></trkpt><trkpt lat="38.09021881709649" lon="15.288775742242086"><ele>316.0</ele><time>2026-04-11T11:52:10.999Z</time></trkpt><trkpt lat="38.09020490018171" lon="15.288688784906142"><ele>316.0</ele><time>2026-04-11T11:52:11.999Z</time></trkpt><trkpt lat="38.09018828503252" lon="15.28860683867895"><ele>316.00000000000006</ele><time>2026-04-11T11:52:12.999Z</time></trkpt><trkpt lat="38.09016767438024" lon="15.288527825244502"><ele>316.0</ele><time>2026-04-11T11:52:13.999Z</time></trkpt><trkpt lat="38.090139463019455" lon="15.288440558951581"><ele>316.5</ele><time>2026-04-11T11:52:14.999Z</time></trkpt><trkpt lat="38.090107118090835" lon="15.288348944293194"><ele>317.0</ele><time>2026-04-11T11:52:15.999Z</time></trkpt><trkpt lat="38.090075199604726" lon="15.288263065563008"><ele>317.5</ele><time>2026-04-11T11:52:16.999Z</time></trkpt><trkpt lat="38.090031287933" lon="15.288142828891353"><ele>318.0</ele><time>2026-04-11T11:52:18.999Z</time></trkpt><trkpt lat="38.0900163240736" lon="15.288038951664642"><ele>318.5</ele><time>2026-04-11T11:52:21Z</time></trkpt><trkpt lat="38.090025552328434" lon="15.28792799484255"><ele>319.0</ele><time>2026-04-11T11:52:23Z</time></trkpt><trkpt lat="38.09007034924469" lon="15.287831013438916"><ele>317.59999999999997</ele><time>2026-04-11T11:52:25Z</time></trkpt><trkpt lat="38.09012010323465" lon="15.287677968514176"><ele>316.2</ele><time>2026-04-11T11:52:27Z</time></trkpt><trkpt lat="38.0901504233012" lon="15.287589125336947"><ele>314.79999999999995</ele><time>2026-04-11T11:52:28Z</time></trkpt><trkpt lat="38.090181706984374" lon="15.287509573888913"><ele>313.4</ele><time>2026-04-11T11:52:29Z</time></trkpt><trkpt lat="38.09025234356975" lon="15.287373125847056"><ele>312.0</ele><time>2026-04-11T11:52:31Z</time></trkpt><trkpt lat="38.09029660229938" lon="15.287295690041113"><ele>312.4</ele><time>2026-04-11T11:52:32Z</time></trkpt><trkpt lat="38.09034392487927" lon="15.287209906813564"><ele>312.79999999999995</ele><time>2026-04-11T11:52:33Z</time></trkpt><trkpt lat="38.09039538418783" lon="15.287119028006522"><ele>313.2</ele><time>2026-04-11T11:52:34Z</time></trkpt><trkpt lat="38.09045425689085" lon="15.287034281761013"><ele>313.59999999999997</ele><time>2026-04-11T11:52:35Z</time></trkpt><trkpt lat="38.09051937569099" lon="15.286945638563584"><ele>314.0</ele><time>2026-04-11T11:52:36Z</time></trkpt><trkpt lat="38.09058851117728" lon="15.286851108662942"><ele>314.0</ele><time>2026-04-11T11:52:37Z</time></trkpt><trkpt lat="38.09065350140662" lon="15.286761133492528"><ele>314.0</ele><time>2026-04-11T11:52:38Z</time></trkpt><trkpt lat="38.09071428440824" lon="15.286668848819518"><ele>314.0</ele><time>2026-04-11T11:52:39Z</time></trkpt><trkpt lat="38.09077104963692" lon="15.286577655026921"><ele>314.0</ele><time>2026-04-11T11:52:40Z</time></trkpt><trkpt lat="38.09082646139309" lon="15.286485364116016"><ele>314.0</ele><time>2026-04-11T11:52:41Z</time></trkpt><trkpt lat="38.09088371087217" lon="15.286390887624773"><ele>312.0</ele><time>2026-04-11T11:52:42Z</time></trkpt><trkpt lat="38.090937879726106" lon="15.286287612025541"><ele>310.0</ele><time>2026-04-11T11:52:43Z</time></trkpt><trkpt lat="38.09099298571493" lon="15.286179739728894"><ele>308.0</ele><time>2026-04-11T11:52:44Z</time></trkpt><trkpt lat="38.09104355647156" lon="15.286092610529721"><ele>306.0</ele><time>2026-04-11T11:52:45Z</time></trkpt><trkpt lat="38.0910873425616" lon="15.286024059073492"><ele>304.0</ele><time>2026-04-11T11:52:46Z</time></trkpt><trkpt lat="38.09113253748655" lon="15.285953493312789"><ele>302.0</ele><time>2026-04-11T11:52:47Z</time></trkpt><trkpt lat="38.09118424260532" lon="15.285887564847839"><ele>302.00000000000006</ele><time>2026-04-11T11:52:48Z</time></trkpt><trkpt lat="38.091231385113666" lon="15.285817960330188"><ele>302.0</ele><time>2026-04-11T11:52:49Z</time></trkpt><trkpt lat="38.09126644029645" lon="15.285741943765982"><ele>302.0</ele><time>2026-04-11T11:52:50Z</time></trkpt><trkpt lat="38.09129741043288" lon="15.285657339375488"><ele>302.0</ele><time>2026-04-11T11:52:51Z</time></trkpt><trkpt lat="38.09131844119159" lon="15.285561767297878"><ele>302.0</ele><time>2026-04-11T11:52:52Z</time></trkpt><trkpt lat="38.091330867851575" lon="15.285463736601546"><ele>302.00000000000006</ele><time>2026-04-11T11:52:53Z</time></trkpt><trkpt lat="38.09133870120348" lon="15.285365253429857"><ele>302.0</ele><time>2026-04-11T11:52:54Z</time></trkpt><trkpt lat="38.09134559621878" lon="15.285265587205574"><ele>302.33333333333337</ele><time>2026-04-11T11:52:55Z</time></trkpt><trkpt lat="38.0913481240705" lon="15.285167800772706"><ele>302.6666666666667</ele><time>2026-04-11T11:52:56Z</time></trkpt><trkpt lat="38.09135542281141" lon="15.285068977639163"><ele>303.0</ele><time>2026-04-11T11:52:57Z</time></trkpt><trkpt lat="38.09136159034196" lon="15.284983077756493"><ele>303.3333333333333</ele><time>2026-04-11T11:52:58Z</time></trkpt><trkpt lat="38.09137844644487" lon="15.284846016667561"><ele>303.66666666666663</ele><time>2026-04-11T11:53:00Z</time></trkpt><trkpt lat="38.0914042742246" lon="15.284750650638012"><ele>304.0</ele><time>2026-04-11T11:53:02Z</time></trkpt><trkpt lat="38.091461624242534" lon="15.284701944711298"><ele>303.8333333333333</ele><time>2026-04-11T11:53:04Z</time></trkpt><trkpt lat="38.09153781382236" lon="15.28469792599859"><ele>303.66666666666663</ele><time>2026-04-11T11:53:06Z</time></trkpt><trkpt lat="38.091639304506444" lon="15.28476250514699"><ele>303.5</ele><time>2026-04-11T11:53:08Z</time></trkpt><trkpt lat="38.09169367310242" lon="15.284819164002096"><ele>303.3333333333333</ele><time>2026-04-11T11:53:09Z</time></trkpt><trkpt lat="38.09175407940762" lon="15.284883397569155"><ele>303.1666666666667</ele><time>2026-04-11T11:53:10Z</time></trkpt><trkpt lat="38.091820681870104" lon="15.284952439483892"><ele>303.0</ele><time>2026-04-11T11:53:11Z</time></trkpt><trkpt lat="38.09189124519806" lon="15.285024179974396"><ele>303.0</ele><time>2026-04-11T11:53:12Z</time></trkpt><trkpt lat="38.091961215417996" lon="15.28509594257133"><ele>303.0</ele><time>2026-04-11T11:53:13Z</time></trkpt><trkpt lat="38.09203022215203" lon="15.285169102287059"><ele>303.0</ele><time>2026-04-11T11:53:14Z</time></trkpt><trkpt lat="38.092099464768005" lon="15.285229437730589"><ele>303.0</ele><time>2026-04-11T11:53:15Z</time></trkpt><trkpt lat="38.09216585828574" lon="15.285278139364987"><ele>303.0</ele><time>2026-04-11T11:53:16Z</time></trkpt><trkpt lat="38.092233577416614" lon="15.285317862143591"><ele>303.0</ele><time>2026-04-11T11:53:17Z</time></trkpt><trkpt lat="38.092305719625315" lon="15.285356554000861"><ele>303.0</ele><time>2026-04-11T11:53:18Z</time></trkpt><trkpt lat="38.09238154798454" lon="15.285393098059503"><ele>303.0</ele><time>2026-04-11T11:53:19Z</time></trkpt><trkpt lat="38.09245917253804" lon="15.285424478976294"><ele>303.0</ele><time>2026-04-11T11:53:20Z</time></trkpt><trkpt lat="38.092539300993664" lon="15.28544694579542"><ele>303.0</ele><time>2026-04-11T11:53:21Z</time></trkpt><trkpt lat="38.09262417035034" lon="15.285464357079675"><ele>303.0</ele><time>2026-04-11T11:53:22Z</time></trkpt><trkpt lat="38.092712252966464" lon="15.285481608631901"><ele>303.0</ele><time>2026-04-11T11:53:23Z</time></trkpt><trkpt lat="38.092799933682755" lon="15.285496939694571"><ele>301.6</ele><time>2026-04-11T11:53:24Z</time></trkpt><trkpt lat="38.092894091946505" lon="15.285508697090693"><ele>300.20000000000005</ele><time>2026-04-11T11:53:25Z</time></trkpt><trkpt lat="38.09298826935701" lon="15.285525046822643"><ele>298.8</ele><time>2026-04-11T11:53:26Z</time></trkpt><trkpt lat="38.093081426498216" lon="15.285543337540211"><ele>297.40000000000003</ele><time>2026-04-11T11:53:27Z</time></trkpt><trkpt lat="38.09317273763741" lon="15.285563010774288"><ele>296.0</ele><time>2026-04-11T11:53:28Z</time></trkpt><trkpt lat="38.09326280796133" lon="15.285590240758118"><ele>298.2</ele><time>2026-04-11T11:53:29Z</time></trkpt><trkpt lat="38.093352146821665" lon="15.285625857283799"><ele>300.40000000000003</ele><time>2026-04-11T11:53:30Z</time></trkpt><trkpt lat="38.09343503897506" lon="15.285658826669883"><ele>302.6</ele><time>2026-04-11T11:53:31Z</time></trkpt><trkpt lat="38.09352112871125" lon="15.285690664155064"><ele>304.8</ele><time>2026-04-11T11:53:32Z</time></trkpt><trkpt lat="38.09361527252472" lon="15.285720092149406"><ele>307.0</ele><time>2026-04-11T11:53:33Z</time></trkpt><trkpt lat="38.09371000197553" lon="15.285747806272354"><ele>307.0</ele><time>2026-04-11T11:53:34Z</time></trkpt><trkpt lat="38.09380332164316" lon="15.285774226014981"><ele>307.0</ele><time>2026-04-11T11:53:35Z</time></trkpt><trkpt lat="38.093902161311235" lon="15.28580295296225"><ele>307.0</ele><time>2026-04-11T11:53:36Z</time></trkpt><trkpt lat="38.09399002422242" lon="15.285821197285927"><ele>307.0</ele><time>2026-04-11T11:53:37Z</time></trkpt><trkpt lat="38.09407418497693" lon="15.28583989705465"><ele>307.0</ele><time>2026-04-11T11:53:38Z</time></trkpt><trkpt lat="38.094154757573776" lon="15.285870496335718"><ele>304.66666666666663</ele><time>2026-04-11T11:53:39Z</time></trkpt><trkpt lat="38.09423474822196" lon="15.285881317054427"><ele>302.3333333333333</ele><time>2026-04-11T11:53:40Z</time></trkpt><trkpt lat="38.0943207205095" lon="15.285889184798144"><ele>300.0</ele><time>2026-04-11T11:53:41Z</time></trkpt><trkpt lat="38.094401230830506" lon="15.28588917235696"><ele>297.6666666666667</ele><time>2026-04-11T11:53:42Z</time></trkpt><trkpt lat="38.09448032902718" lon="15.285875922874634"><ele>295.33333333333337</ele><time>2026-04-11T11:53:43Z</time></trkpt><trkpt lat="38.094555882819584" lon="15.28584925804102"><ele>293.0</ele><time>2026-04-11T11:53:44Z</time></trkpt><trkpt lat="38.09461883085349" lon="15.285812607470818"><ele>293.0</ele><time>2026-04-11T11:53:45Z</time></trkpt><trkpt lat="38.09467580478253" lon="15.285764540379484"><ele>293.0</ele><time>2026-04-11T11:53:46Z</time></trkpt><trkpt lat="38.0947348349392" lon="15.285699051605619"><ele>293.0</ele><time>2026-04-11T11:53:47Z</time></trkpt><trkpt lat="38.09479231217265" lon="15.285627377062173"><ele>293.0</ele><time>2026-04-11T11:53:48Z</time></trkpt><trkpt lat="38.09484878036749" lon="15.285543860293691"><ele>293.0</ele><time>2026-04-11T11:53:49Z</time></trkpt><trkpt lat="38.09489754202958" lon="15.285465082459147"><ele>293.0</ele><time>2026-04-11T11:53:50Z</time></trkpt><trkpt lat="38.094940229961296" lon="15.285374371286675"><ele>292.6666666666667</ele><time>2026-04-11T11:53:51Z</time></trkpt><trkpt lat="38.09497404621789" lon="15.285278533961723"><ele>292.33333333333337</ele><time>2026-04-11T11:53:52Z</time></trkpt><trkpt lat="38.09500112824291" lon="15.285174501613607"><ele>292.0</ele><time>2026-04-11T11:53:52.999Z</time></trkpt><trkpt lat="38.095020961540094" lon="15.285062539307985"><ele>291.6666666666667</ele><time>2026-04-11T11:53:53.999Z</time></trkpt><trkpt lat="38.095041217069344" lon="15.284949007515388"><ele>291.3333333333333</ele><time>2026-04-11T11:53:54.999Z</time></trkpt><trkpt lat="38.0950538902287" lon="15.28484150007562"><ele>291.0</ele><time>2026-04-11T11:53:55.999Z</time></trkpt><trkpt lat="38.09506292808777" lon="15.284741182134074"><ele>289.6666666666667</ele><time>2026-04-11T11:53:56.999Z</time></trkpt><trkpt lat="38.09506734643807" lon="15.284653476272602"><ele>288.3333333333333</ele><time>2026-04-11T11:53:57.999Z</time></trkpt><trkpt lat="38.09508236189643" lon="15.284506075800502"><ele>287.0</ele><time>2026-04-11T11:53:59.999Z</time></trkpt><trkpt lat="38.095111923043895" lon="15.284403527612687"><ele>285.66666666666663</ele><time>2026-04-11T11:54:01.999Z</time></trkpt><trkpt lat="38.09518144326419" lon="15.284305227855421"><ele>284.3333333333333</ele><time>2026-04-11T11:54:03.999Z</time></trkpt><trkpt lat="38.09523605373714" lon="15.284262894329041"><ele>283.0</ele><time>2026-04-11T11:54:04.999Z</time></trkpt><trkpt lat="38.09530262096651" lon="15.284226589792146"><ele>283.0</ele><time>2026-04-11T11:54:05.999Z</time></trkpt><trkpt lat="38.09537428033769" lon="15.284197966161825"><ele>283.0</ele><time>2026-04-11T11:54:06.999Z</time></trkpt><trkpt lat="38.095451576112914" lon="15.284169456307234"><ele>283.0</ele><time>2026-04-11T11:54:07.999Z</time></trkpt><trkpt lat="38.09552126915206" lon="15.284146988848137"><ele>283.0</ele><time>2026-04-11T11:54:08.999Z</time></trkpt><trkpt lat="38.09558761479235" lon="15.284123027805508"><ele>283.0</ele><time>2026-04-11T11:54:09.999Z</time></trkpt><trkpt lat="38.09565782339587" lon="15.284101579369196"><ele>283.0</ele><time>2026-04-11T11:54:10.999Z</time></trkpt><trkpt lat="38.09572818045872" lon="15.284088114837605"><ele>283.0</ele><time>2026-04-11T11:54:11.999Z</time></trkpt><trkpt lat="38.09580255683148" lon="15.28407962225686"><ele>283.3333333333333</ele><time>2026-04-11T11:54:12.999Z</time></trkpt><trkpt lat="38.09587957118745" lon="15.284077256944657"><ele>283.66666666666663</ele><time>2026-04-11T11:54:13.999Z</time></trkpt><trkpt lat="38.09595737462514" lon="15.284079846592919"><ele>284.0</ele><time>2026-04-11T11:54:14.999Z</time></trkpt><trkpt lat="38.09603512241426" lon="15.284088905369178"><ele>284.3333333333333</ele><time>2026-04-11T11:54:15.999Z</time></trkpt><trkpt lat="38.09609822490718" lon="15.284098646735"><ele>284.6666666666667</ele><time>2026-04-11T11:54:16.999Z</time></trkpt><trkpt lat="38.096213414123014" lon="15.284130980001695"><ele>285.0</ele><time>2026-04-11T11:54:18.999Z</time></trkpt><trkpt lat="38.09627230575708" lon="15.284162414014874"><ele>285.0</ele><time>2026-04-11T11:54:19.999Z</time></trkpt><trkpt lat="38.09633671748079" lon="15.284200066418599"><ele>285.0</ele><time>2026-04-11T11:54:20.999Z</time></trkpt><trkpt lat="38.09639801441064" lon="15.284226264078738"><ele>285.0</ele><time>2026-04-11T11:54:21.999Z</time></trkpt><trkpt lat="38.096524947155935" lon="15.284254317352488"><ele>285.0</ele><time>2026-04-11T11:54:23.999Z</time></trkpt><trkpt lat="38.09659734545439" lon="15.284269453545344"><ele>285.0</ele><time>2026-04-11T11:54:24.999Z</time></trkpt><trkpt lat="38.09667123556084" lon="15.284292818452922"><ele>285.0</ele><time>2026-04-11T11:54:25.999Z</time></trkpt><trkpt lat="38.09674042058024" lon="15.284322674803294"><ele>284.5</ele><time>2026-04-11T11:54:27Z</time></trkpt><trkpt lat="38.096819541566816" lon="15.284320886603643"><ele>284.0</ele><time>2026-04-11T11:54:28Z</time></trkpt><trkpt lat="38.09689572748592" lon="15.2843197515228"><ele>283.5</ele><time>2026-04-11T11:54:29Z</time></trkpt><trkpt lat="38.09697678793056" lon="15.284414586684997"><ele>283.0</ele><time>2026-04-11T11:54:30Z</time></trkpt><trkpt lat="38.09704496973024" lon="15.28444470756008"><ele>282.5</ele><time>2026-04-11T11:54:31Z</time></trkpt><trkpt lat="38.09714012537954" lon="15.28447785721478"><ele>282.0</ele><time>2026-04-11T11:54:32Z</time></trkpt><trkpt lat="38.09722568304062" lon="15.284506555399968"><ele>282.0</ele><time>2026-04-11T11:54:33Z</time></trkpt><trkpt lat="38.09731883371415" lon="15.284533279394857"><ele>282.0</ele><time>2026-04-11T11:54:34Z</time></trkpt><trkpt lat="38.09740802351891" lon="15.284547182537233"><ele>282.0</ele><time>2026-04-11T11:54:35Z</time></trkpt><trkpt lat="38.09748335616537" lon="15.284563507512564"><ele>282.0</ele><time>2026-04-11T11:54:36Z</time></trkpt><trkpt lat="38.097565991345284" lon="15.284591681085677"><ele>282.0</ele><time>2026-04-11T11:54:37Z</time></trkpt><trkpt lat="38.09764880978889" lon="15.284624537185513"><ele>282.0</ele><time>2026-04-11T11:54:38Z</time></trkpt><trkpt lat="38.097736071791736" lon="15.284661992861597"><ele>282.3333333333333</ele><time>2026-04-11T11:54:39Z</time></trkpt><trkpt lat="38.09781078981071" lon="15.284688988566415"><ele>282.6666666666667</ele><time>2026-04-11T11:54:40Z</time></trkpt><trkpt lat="38.09789696284384" lon="15.284722336371429"><ele>283.0</ele><time>2026-04-11T11:54:41Z</time></trkpt><trkpt lat="38.09798024073607" lon="15.28473547649397"><ele>283.33333333333337</ele><time>2026-04-11T11:54:42Z</time></trkpt><trkpt lat="38.09805349194804" lon="15.284752654630402"><ele>283.6666666666667</ele><time>2026-04-11T11:54:43Z</time></trkpt><trkpt lat="38.098119863702735" lon="15.28476905668532"><ele>284.0</ele><time>2026-04-11T11:54:44Z</time></trkpt><trkpt lat="38.09822939280478" lon="15.284763429839343"><ele>282.7142857142857</ele><time>2026-04-11T11:54:46Z</time></trkpt><trkpt lat="38.09829617171355" lon="15.28475861145036"><ele>281.4285714285714</ele><time>2026-04-11T11:54:47Z</time></trkpt><trkpt lat="38.098375202714976" lon="15.284759085599331"><ele>280.1428571428571</ele><time>2026-04-11T11:54:48Z</time></trkpt><trkpt lat="38.098451774470355" lon="15.284745327018154"><ele>278.85714285714283</ele><time>2026-04-11T11:54:49Z</time></trkpt><trkpt lat="38.09852266140752" lon="15.284726203910719"><ele>277.57142857142856</ele><time>2026-04-11T11:54:50Z</time></trkpt><trkpt lat="38.09858217446162" lon="15.284693606550515"><ele>276.2857142857143</ele><time>2026-04-11T11:54:51Z</time></trkpt><trkpt lat="38.09863217991008" lon="15.284632297972948"><ele>275.0</ele><time>2026-04-11T11:54:52Z</time></trkpt><trkpt lat="38.0986789878432" lon="15.284572062988351"><ele>275.0</ele><time>2026-04-11T11:54:53Z</time></trkpt><trkpt lat="38.09872045139978" lon="15.284492162048721"><ele>275.0</ele><time>2026-04-11T11:54:54Z</time></trkpt><trkpt lat="38.09875623338659" lon="15.284409063902228"><ele>275.0</ele><time>2026-04-11T11:54:55Z</time></trkpt><trkpt lat="38.09878984702611" lon="15.284319890796258"><ele>275.0</ele><time>2026-04-11T11:54:56Z</time></trkpt><trkpt lat="38.09881502308804" lon="15.284230965584324"><ele>275.0</ele><time>2026-04-11T11:54:57Z</time></trkpt><trkpt lat="38.0988391456184" lon="15.284138840019345"><ele>275.0</ele><time>2026-04-11T11:54:58Z</time></trkpt><trkpt lat="38.098855055362186" lon="15.284044554785927"><ele>275.0</ele><time>2026-04-11T11:54:59Z</time></trkpt><trkpt lat="38.098866797749054" lon="15.283946793592062"><ele>275.0</ele><time>2026-04-11T11:55:00Z</time></trkpt><trkpt lat="38.098870821302214" lon="15.283846815384123"><ele>275.0</ele><time>2026-04-11T11:55:01Z</time></trkpt><trkpt lat="38.098863198700506" lon="15.2837575760718"><ele>275.0</ele><time>2026-04-11T11:55:02Z</time></trkpt><trkpt lat="38.09884470013909" lon="15.283669421292254"><ele>275.0</ele><time>2026-04-11T11:55:03Z</time></trkpt><trkpt lat="38.0987788355032" lon="15.283527179526281"><ele>275.0</ele><time>2026-04-11T11:55:05Z</time></trkpt><trkpt lat="38.0987331959272" lon="15.28344818946655"><ele>274.0</ele><time>2026-04-11T11:55:06Z</time></trkpt><trkpt lat="38.09868515758895" lon="15.28336787585792"><ele>273.0</ele><time>2026-04-11T11:55:07Z</time></trkpt><trkpt lat="38.098636904379354" lon="15.28329500671197"><ele>272.0</ele><time>2026-04-11T11:55:08Z</time></trkpt><trkpt lat="38.09859559921029" lon="15.283220172859904"><ele>271.0</ele><time>2026-04-11T11:55:09Z</time></trkpt><trkpt lat="38.09855701736301" lon="15.283145226462237"><ele>270.0</ele><time>2026-04-11T11:55:10Z</time></trkpt><trkpt lat="38.09851343234519" lon="15.283028800438322"><ele>269.0</ele><time>2026-04-11T11:55:12Z</time></trkpt><trkpt lat="38.098517206206125" lon="15.282909569862465"><ele>269.0</ele><time>2026-04-11T11:55:14Z</time></trkpt><trkpt lat="38.098547720202326" lon="15.282755643513461"><ele>269.0</ele><time>2026-04-11T11:55:16Z</time></trkpt><trkpt lat="38.098566546182205" lon="15.282672313455352"><ele>269.0</ele><time>2026-04-11T11:55:17Z</time></trkpt><trkpt lat="38.09859065559556" lon="15.282580593955768"><ele>269.0</ele><time>2026-04-11T11:55:18Z</time></trkpt><trkpt lat="38.098615845038125" lon="15.282479612944943"><ele>269.0</ele><time>2026-04-11T11:55:19Z</time></trkpt><trkpt lat="38.09864217938325" lon="15.282380943719884"><ele>269.0</ele><time>2026-04-11T11:55:20Z</time></trkpt><trkpt lat="38.098665825363454" lon="15.28228071549782"><ele>269.5</ele><time>2026-04-11T11:55:21Z</time></trkpt><trkpt lat="38.09869231920301" lon="15.28217693576216"><ele>270.0</ele><time>2026-04-11T11:55:22Z</time></trkpt><trkpt lat="38.09871844467403" lon="15.282075172867657"><ele>270.5</ele><time>2026-04-11T11:55:23Z</time></trkpt><trkpt lat="38.098745994084375" lon="15.281981935512851"><ele>271.0</ele><time>2026-04-11T11:55:24Z</time></trkpt><trkpt lat="38.09877202164772" lon="15.281885313838744"><ele>271.5</ele><time>2026-04-11T11:55:25Z</time></trkpt><trkpt lat="38.098803156817404" lon="15.281792406633034"><ele>272.0</ele><time>2026-04-11T11:55:26Z</time></trkpt><trkpt lat="38.0988386854653" lon="15.28169822620002"><ele>272.0</ele><time>2026-04-11T11:55:27Z</time></trkpt><trkpt lat="38.098870825675284" lon="15.281604929682912"><ele>272.0</ele><time>2026-04-11T11:55:28Z</time></trkpt><trkpt lat="38.09889940594444" lon="15.281503525809875"><ele>272.0</ele><time>2026-04-11T11:55:29Z</time></trkpt><trkpt lat="38.098918754390255" lon="15.281404776291135"><ele>272.0</ele><time>2026-04-11T11:55:30Z</time></trkpt><trkpt lat="38.098931049871624" lon="15.281294654748741"><ele>272.0</ele><time>2026-04-11T11:55:31Z</time></trkpt><trkpt lat="38.09894226993463" lon="15.28118178521472"><ele>272.0</ele><time>2026-04-11T11:55:32Z</time></trkpt><trkpt lat="38.09895492924608" lon="15.281065838622077"><ele>271.8</ele><time>2026-04-11T11:55:33Z</time></trkpt><trkpt lat="38.098975025671876" lon="15.28095620479442"><ele>271.6</ele><time>2026-04-11T11:55:34Z</time></trkpt><trkpt lat="38.09898888985689" lon="15.280836471793238"><ele>271.40000000000003</ele><time>2026-04-11T11:55:35Z</time></trkpt><trkpt lat="38.09900453954859" lon="15.280722596967067"><ele>271.2</ele><time>2026-04-11T11:55:36Z</time></trkpt><trkpt lat="38.09901854674978" lon="15.280607381988128"><ele>271.0</ele><time>2026-04-11T11:55:37Z</time></trkpt><trkpt lat="38.09903590786626" lon="15.280500589525284"><ele>271.0</ele><time>2026-04-11T11:55:38Z</time></trkpt><trkpt lat="38.099064024387374" lon="15.280405373195363"><ele>271.0</ele><time>2026-04-11T11:55:39Z</time></trkpt><trkpt lat="38.099069501507564" lon="15.280273059244111"><ele>271.0</ele><time>2026-04-11T11:55:40Z</time></trkpt><trkpt lat="38.099090975802234" lon="15.280163984327093"><ele>271.0</ele><time>2026-04-11T11:55:41Z</time></trkpt><trkpt lat="38.09910942048341" lon="15.280051245778902"><ele>271.0</ele><time>2026-04-11T11:55:42Z</time></trkpt><trkpt lat="38.09913584288505" lon="15.279945779594186"><ele>269.16666666666663</ele><time>2026-04-11T11:55:43Z</time></trkpt><trkpt lat="38.099158440383334" lon="15.279837820493322"><ele>267.3333333333333</ele><time>2026-04-11T11:55:44Z</time></trkpt><trkpt lat="38.0991784597566" lon="15.279744667372105"><ele>265.5</ele><time>2026-04-11T11:55:45Z</time></trkpt><trkpt lat="38.09920289603248" lon="15.279665808356228"><ele>263.6666666666667</ele><time>2026-04-11T11:55:46Z</time></trkpt><trkpt lat="38.0992537266549" lon="15.27955824922148"><ele>261.83333333333337</ele><time>2026-04-11T11:55:48Z</time></trkpt><trkpt lat="38.099341370550114" lon="15.27947152402022"><ele>260.0</ele><time>2026-04-11T11:55:50Z</time></trkpt><trkpt lat="38.09941195168175" lon="15.279423383320376"><ele>259.1666666666667</ele><time>2026-04-11T11:55:51Z</time></trkpt><trkpt lat="38.09948332360205" lon="15.279385918331597"><ele>258.33333333333337</ele><time>2026-04-11T11:55:52Z</time></trkpt><trkpt lat="38.0995605813935" lon="15.2793667995663"><ele>257.5</ele><time>2026-04-11T11:55:53Z</time></trkpt><trkpt lat="38.09964413281711" lon="15.279354010379999"><ele>256.6666666666667</ele><time>2026-04-11T11:55:54Z</time></trkpt><trkpt lat="38.09972283099787" lon="15.279327355626638"><ele>255.83333333333334</ele><time>2026-04-11T11:55:55Z</time></trkpt><trkpt lat="38.09979611140061" lon="15.279301190122336"><ele>255.0</ele><time>2026-04-11T11:55:56Z</time></trkpt><trkpt lat="38.09987446105051" lon="15.279270900916641"><ele>254.16666666666666</ele><time>2026-04-11T11:55:57Z</time></trkpt><trkpt lat="38.09995536173501" lon="15.279218881631943"><ele>253.33333333333331</ele><time>2026-04-11T11:55:58Z</time></trkpt><trkpt lat="38.100033608315314" lon="15.27915086701772"><ele>252.5</ele><time>2026-04-11T11:55:59Z</time></trkpt><trkpt lat="38.10010413498427" lon="15.279091901780673"><ele>251.66666666666666</ele><time>2026-04-11T11:56:00Z</time></trkpt><trkpt lat="38.100174615200146" lon="15.279045122137033"><ele>250.83333333333331</ele><time>2026-04-11T11:56:01Z</time></trkpt><trkpt lat="38.100250382922425" lon="15.279007599435298"><ele>250.0</ele><time>2026-04-11T11:56:02Z</time></trkpt><trkpt lat="38.100322090578686" lon="15.278969455258164"><ele>250.33333333333331</ele><time>2026-04-11T11:56:03Z</time></trkpt><trkpt lat="38.10039438179347" lon="15.278933328438425"><ele>250.66666666666666</ele><time>2026-04-11T11:56:04Z</time></trkpt><trkpt lat="38.100471370250126" lon="15.278911173529096"><ele>251.0</ele><time>2026-04-11T11:56:04.999Z</time></trkpt><trkpt lat="38.100545688196924" lon="15.278875980440654"><ele>251.33333333333331</ele><time>2026-04-11T11:56:05.999Z</time></trkpt><trkpt lat="38.10062427967122" lon="15.278832896972169"><ele>251.66666666666666</ele><time>2026-04-11T11:56:06.999Z</time></trkpt><trkpt lat="38.100697177998526" lon="15.27878105656152"><ele>252.0</ele><time>2026-04-11T11:56:07.999Z</time></trkpt><trkpt lat="38.100770009368766" lon="15.278720269605111"><ele>252.0</ele><time>2026-04-11T11:56:08.999Z</time></trkpt><trkpt lat="38.10084276716972" lon="15.278666107154955"><ele>252.0</ele><time>2026-04-11T11:56:09.999Z</time></trkpt><trkpt lat="38.10092321534918" lon="15.278618033921592"><ele>252.0</ele><time>2026-04-11T11:56:10.999Z</time></trkpt><trkpt lat="38.101001566755805" lon="15.278564954222105"><ele>252.0</ele><time>2026-04-11T11:56:11.999Z</time></trkpt><trkpt lat="38.101073077585795" lon="15.27852655395315"><ele>252.0</ele><time>2026-04-11T11:56:12.999Z</time></trkpt><trkpt lat="38.101140842755555" lon="15.278485233803185"><ele>252.0</ele><time>2026-04-11T11:56:13.999Z</time></trkpt><trkpt lat="38.10120296785905" lon="15.278438876589588"><ele>252.0</ele><time>2026-04-11T11:56:14.999Z</time></trkpt><trkpt lat="38.101270114655115" lon="15.278376844359546"><ele>252.0</ele><time>2026-04-11T11:56:15.999Z</time></trkpt><trkpt lat="38.1013389002919" lon="15.278311526341582"><ele>252.0</ele><time>2026-04-11T11:56:16.999Z</time></trkpt><trkpt lat="38.10140119725842" lon="15.278258576642877"><ele>252.0</ele><time>2026-04-11T11:56:17.999Z</time></trkpt><trkpt lat="38.101462756780094" lon="15.278217231962044"><ele>252.0</ele><time>2026-04-11T11:56:18.999Z</time></trkpt><trkpt lat="38.101528962762515" lon="15.278180398223506"><ele>252.0</ele><time>2026-04-11T11:56:19.999Z</time></trkpt><trkpt lat="38.10159059441779" lon="15.278152058742016"><ele>250.8</ele><time>2026-04-11T11:56:20.999Z</time></trkpt><trkpt lat="38.10166422568131" lon="15.278140224356264"><ele>249.6</ele><time>2026-04-11T11:56:21.999Z</time></trkpt><trkpt lat="38.101764466986005" lon="15.27815480418317"><ele>248.40000000000003</ele><time>2026-04-11T11:56:23.999Z</time></trkpt><trkpt lat="38.10184816219369" lon="15.278199555399718"><ele>247.20000000000002</ele><time>2026-04-11T11:56:25.999Z</time></trkpt><trkpt lat="38.101921987091615" lon="15.278246606375014"><ele>246.0</ele><time>2026-04-11T11:56:27.999Z</time></trkpt><trkpt lat="38.102046656216615" lon="15.278327121815284"><ele>246.00000000000003</ele><time>2026-04-11T11:56:29.999Z</time></trkpt><trkpt lat="38.102116858835636" lon="15.278366295872836"><ele>246.0</ele><time>2026-04-11T11:56:30.999Z</time></trkpt><trkpt lat="38.10218253437403" lon="15.278397271166513"><ele>246.00000000000003</ele><time>2026-04-11T11:56:31.999Z</time></trkpt><trkpt lat="38.102260834266964" lon="15.278429937869046"><ele>246.00000000000003</ele><time>2026-04-11T11:56:33Z</time></trkpt><trkpt lat="38.10232503367521" lon="15.278468736707637"><ele>246.0</ele><time>2026-04-11T11:56:34Z</time></trkpt><trkpt lat="38.10237971349279" lon="15.278517117985633"><ele>246.00000000000003</ele><time>2026-04-11T11:56:35Z</time></trkpt><trkpt lat="38.10242530724641" lon="15.278576570608054"><ele>246.00000000000003</ele><time>2026-04-11T11:56:36Z</time></trkpt><trkpt lat="38.1024809263485" lon="15.278642690879664"><ele>245.83333333333334</ele><time>2026-04-11T11:56:37Z</time></trkpt><trkpt lat="38.10253486191624" lon="15.278717480766085"><ele>245.66666666666669</ele><time>2026-04-11T11:56:38Z</time></trkpt><trkpt lat="38.10258262328359" lon="15.278797628953113"><ele>245.5</ele><time>2026-04-11T11:56:39Z</time></trkpt><trkpt lat="38.10262331077617" lon="15.278873678788736"><ele>245.33333333333334</ele><time>2026-04-11T11:56:40Z</time></trkpt><trkpt lat="38.102651780078375" lon="15.278953839540323"><ele>245.16666666666669</ele><time>2026-04-11T11:56:41Z</time></trkpt><trkpt lat="38.10267293663292" lon="15.279040601975444"><ele>245.0</ele><time>2026-04-11T11:56:42Z</time></trkpt><trkpt lat="38.10270448435264" lon="15.279132437359767"><ele>247.4</ele><time>2026-04-11T11:56:43Z</time></trkpt><trkpt lat="38.102746939099184" lon="15.279211738524998"><ele>249.8</ele><time>2026-04-11T11:56:44Z</time></trkpt><trkpt lat="38.10280313848426" lon="15.279291044415478"><ele>252.2</ele><time>2026-04-11T11:56:45Z</time></trkpt><trkpt lat="38.1028700400337" lon="15.279374864530256"><ele>254.6</ele><time>2026-04-11T11:56:46Z</time></trkpt><trkpt lat="38.10294857392839" lon="15.279457667856734"><ele>257.0</ele><time>2026-04-11T11:56:47Z</time></trkpt><trkpt lat="38.10302996561027" lon="15.279530465677828"><ele>257.0</ele><time>2026-04-11T11:56:48Z</time></trkpt><trkpt lat="38.103124608164805" lon="15.279603106247624"><ele>257.0</ele><time>2026-04-11T11:56:49Z</time></trkpt><trkpt lat="38.103211715622095" lon="15.279668188347571"><ele>257.0</ele><time>2026-04-11T11:56:50Z</time></trkpt><trkpt lat="38.10327952555883" lon="15.279728993016072"><ele>257.0</ele><time>2026-04-11T11:56:51Z</time></trkpt><trkpt lat="38.10334077654506" lon="15.27978857005604"><ele>257.0</ele><time>2026-04-11T11:56:52Z</time></trkpt><trkpt lat="38.103395945021774" lon="15.279843376722908"><ele>257.0</ele><time>2026-04-11T11:56:53Z</time></trkpt><trkpt lat="38.103455933207044" lon="15.279895345714353"><ele>255.16666666666669</ele><time>2026-04-11T11:56:54Z</time></trkpt><trkpt lat="38.103527953679134" lon="15.279935989786765"><ele>253.33333333333334</ele><time>2026-04-11T11:56:55Z</time></trkpt><trkpt lat="38.10360663061426" lon="15.279971140494588"><ele>251.5</ele><time>2026-04-11T11:56:56Z</time></trkpt><trkpt lat="38.10369594346548" lon="15.279990922425162"><ele>249.66666666666669</ele><time>2026-04-11T11:56:57Z</time></trkpt><trkpt lat="38.10378951224013" lon="15.28000049540765"><ele>247.83333333333334</ele><time>2026-04-11T11:56:58Z</time></trkpt><trkpt lat="38.103888220130045" lon="15.280002848756022"><ele>246.0</ele><time>2026-04-11T11:56:59Z</time></trkpt><trkpt lat="38.103993509801015" lon="15.280003015197813"><ele>243.8</ele><time>2026-04-11T11:57:00Z</time></trkpt><trkpt lat="38.10410583448183" lon="15.279999902547537"><ele>241.60000000000002</ele><time>2026-04-11T11:57:01Z</time></trkpt><trkpt lat="38.104216141917306" lon="15.279994615305261"><ele>239.4</ele><time>2026-04-11T11:57:02Z</time></trkpt><trkpt lat="38.10433342180762" lon="15.279988027908162"><ele>237.2</ele><time>2026-04-11T11:57:03Z</time></trkpt><trkpt lat="38.104442209497066" lon="15.279980392403473"><ele>235.0</ele><time>2026-04-11T11:57:04Z</time></trkpt><trkpt lat="38.104546069781186" lon="15.27996014683701"><ele>235.0</ele><time>2026-04-11T11:57:05Z</time></trkpt><trkpt lat="38.10465158289832" lon="15.279933759580981"><ele>235.0</ele><time>2026-04-11T11:57:06Z</time></trkpt><trkpt lat="38.104761403501634" lon="15.27989802163435"><ele>235.0</ele><time>2026-04-11T11:57:07Z</time></trkpt><trkpt lat="38.10486578139435" lon="15.2798581953678"><ele>235.0</ele><time>2026-04-11T11:57:08Z</time></trkpt><trkpt lat="38.1049559043673" lon="15.279827687827"><ele>235.0</ele><time>2026-04-11T11:57:09Z</time></trkpt><trkpt lat="38.105039408923616" lon="15.27980273628049"><ele>234.99999999999997</ele><time>2026-04-11T11:57:10Z</time></trkpt><trkpt lat="38.10512421766458" lon="15.279791878609203"><ele>235.0</ele><time>2026-04-11T11:57:11Z</time></trkpt><trkpt lat="38.10522023211601" lon="15.279782959983786"><ele>235.0</ele><time>2026-04-11T11:57:12Z</time></trkpt><trkpt lat="38.10530227708945" lon="15.279773545769853"><ele>235.0</ele><time>2026-04-11T11:57:13Z</time></trkpt><trkpt lat="38.10538135597809" lon="15.279756234858654"><ele>234.99999999999997</ele><time>2026-04-11T11:57:14Z</time></trkpt><trkpt lat="38.105452457875124" lon="15.27973428775438"><ele>235.0</ele><time>2026-04-11T11:57:15Z</time></trkpt><trkpt lat="38.105524370858944" lon="15.279708165020441"><ele>235.33333333333331</ele><time>2026-04-11T11:57:16Z</time></trkpt><trkpt lat="38.10558599846478" lon="15.279669110556226"><ele>235.66666666666666</ele><time>2026-04-11T11:57:17Z</time></trkpt><trkpt lat="38.10564903673582" lon="15.27961631938565"><ele>236.0</ele><time>2026-04-11T11:57:18Z</time></trkpt><trkpt lat="38.10571031845904" lon="15.27954520330814"><ele>236.33333333333331</ele><time>2026-04-11T11:57:19Z</time></trkpt><trkpt lat="38.105771931876205" lon="15.279470547788609"><ele>236.66666666666666</ele><time>2026-04-11T11:57:20Z</time></trkpt><trkpt lat="38.10584086642032" lon="15.27939472012967"><ele>237.0</ele><time>2026-04-11T11:57:21Z</time></trkpt><trkpt lat="38.10591192310924" lon="15.279318012391903"><ele>236.0</ele><time>2026-04-11T11:57:22Z</time></trkpt><trkpt lat="38.105976435125044" lon="15.279246605839313"><ele>235.0</ele><time>2026-04-11T11:57:23Z</time></trkpt><trkpt lat="38.106037796615084" lon="15.27917382098293"><ele>234.0</ele><time>2026-04-11T11:57:24Z</time></trkpt><trkpt lat="38.10609826350934" lon="15.279091099161722"><ele>233.0</ele><time>2026-04-11T11:57:25Z</time></trkpt><trkpt lat="38.10615696147526" lon="15.278994250930438"><ele>232.0</ele><time>2026-04-11T11:57:26Z</time></trkpt><trkpt lat="38.10622045354443" lon="15.278888469521615"><ele>231.99999999999997</ele><time>2026-04-11T11:57:27Z</time></trkpt><trkpt lat="38.10628492711132" lon="15.27878246216931"><ele>232.0</ele><time>2026-04-11T11:57:28Z</time></trkpt><trkpt lat="38.10634324619103" lon="15.278681577507182"><ele>232.0</ele><time>2026-04-11T11:57:29Z</time></trkpt><trkpt lat="38.10639370066991" lon="15.278587229410409"><ele>232.0</ele><time>2026-04-11T11:57:30Z</time></trkpt><trkpt lat="38.106435504683304" lon="15.278501594238325"><ele>231.99999999999997</ele><time>2026-04-11T11:57:31Z</time></trkpt><trkpt lat="38.10646705276043" lon="15.27842777341764"><ele>232.0</ele><time>2026-04-11T11:57:32Z</time></trkpt><trkpt lat="38.10651287288332" lon="15.278319525199137"><ele>231.66666666666666</ele><time>2026-04-11T11:57:34Z</time></trkpt><trkpt lat="38.10658251533316" lon="15.278244720952541"><ele>231.33333333333331</ele><time>2026-04-11T11:57:37Z</time></trkpt><trkpt lat="38.10667271858284" lon="15.278148087322577"><ele>231.0</ele><time>2026-04-11T11:57:39Z</time></trkpt><trkpt lat="38.106732627709526" lon="15.278085369487139"><ele>230.66666666666669</ele><time>2026-04-11T11:57:40Z</time></trkpt><trkpt lat="38.10679121298234" lon="15.278014527730756"><ele>230.33333333333334</ele><time>2026-04-11T11:57:41Z</time></trkpt><trkpt lat="38.10684706972262" lon="15.277940541413951"><ele>230.0</ele><time>2026-04-11T11:57:42Z</time></trkpt><trkpt lat="38.10690093952373" lon="15.277847514986606"><ele>230.00000000000003</ele><time>2026-04-11T11:57:43Z</time></trkpt><trkpt lat="38.106946528654994" lon="15.277767281698758"><ele>230.0</ele><time>2026-04-11T11:57:44Z</time></trkpt><trkpt lat="38.10698004178741" lon="15.27769663569158"><ele>230.0</ele><time>2026-04-11T11:57:45Z</time></trkpt><trkpt lat="38.10701468112837" lon="15.277607002007752"><ele>230.0</ele><time>2026-04-11T11:57:46Z</time></trkpt><trkpt lat="38.10704965729562" lon="15.277511581435"><ele>230.00000000000003</ele><time>2026-04-11T11:57:47Z</time></trkpt><trkpt lat="38.1070987208818" lon="15.277419169014152"><ele>230.0</ele><time>2026-04-11T11:57:48Z</time></trkpt><trkpt lat="38.10715113520762" lon="15.27733049908539"><ele>230.2</ele><time>2026-04-11T11:57:49Z</time></trkpt><trkpt lat="38.1072143876881" lon="15.277263868733597"><ele>230.4</ele><time>2026-04-11T11:57:50Z</time></trkpt><trkpt lat="38.107285886687414" lon="15.277189812524554"><ele>230.60000000000002</ele><time>2026-04-11T11:57:51Z</time></trkpt><trkpt lat="38.1073584110352" lon="15.277112238368161"><ele>230.8</ele><time>2026-04-11T11:57:52Z</time></trkpt><trkpt lat="38.107434110483716" lon="15.277045910708871"><ele>231.0</ele><time>2026-04-11T11:57:53Z</time></trkpt><trkpt lat="38.107513754121904" lon="15.276982481404358"><ele>231.0</ele><time>2026-04-11T11:57:54Z</time></trkpt><trkpt lat="38.10759499224465" lon="15.276913706573945"><ele>231.00000000000003</ele><time>2026-04-11T11:57:55Z</time></trkpt><trkpt lat="38.10767909527065" lon="15.276835916946338"><ele>231.00000000000003</ele><time>2026-04-11T11:57:56Z</time></trkpt><trkpt lat="38.10775360292801" lon="15.276761507408864"><ele>231.0</ele><time>2026-04-11T11:57:57Z</time></trkpt><trkpt lat="38.10782251400643" lon="15.276684428281326"><ele>231.0</ele><time>2026-04-11T11:57:58Z</time></trkpt><trkpt lat="38.10788424824901" lon="15.276614680812697"><ele>231.0</ele><time>2026-04-11T11:57:59Z</time></trkpt><trkpt lat="38.107939578489855" lon="15.276538502641307"><ele>231.0</ele><time>2026-04-11T11:58:00Z</time></trkpt><trkpt lat="38.10798724219999" lon="15.276453149486734"><ele>231.0</ele><time>2026-04-11T11:58:01Z</time></trkpt><trkpt lat="38.10803134177254" lon="15.27636162085382"><ele>231.0</ele><time>2026-04-11T11:58:02Z</time></trkpt><trkpt lat="38.1080746377071" lon="15.276283662935825"><ele>231.0</ele><time>2026-04-11T11:58:03Z</time></trkpt><trkpt lat="38.108116913011266" lon="15.276212427173776"><ele>231.0</ele><time>2026-04-11T11:58:04Z</time></trkpt><trkpt lat="38.10816202079739" lon="15.276150043318804"><ele>230.71428571428572</ele><time>2026-04-11T11:58:05Z</time></trkpt><trkpt lat="38.10820863233422" lon="15.276088184285282"><ele>230.42857142857144</ele><time>2026-04-11T11:58:06Z</time></trkpt><trkpt lat="38.10826625342407" lon="15.276029861593239"><ele>230.14285714285714</ele><time>2026-04-11T11:58:07Z</time></trkpt><trkpt lat="38.108327169266005" lon="15.27598694140377"><ele>229.85714285714286</ele><time>2026-04-11T11:58:08Z</time></trkpt><trkpt lat="38.108390505604916" lon="15.275953398460024"><ele>229.57142857142858</ele><time>2026-04-11T11:58:08.999Z</time></trkpt><trkpt lat="38.10846296047569" lon="15.275924667971656"><ele>229.28571428571428</ele><time>2026-04-11T11:58:09.999Z</time></trkpt><trkpt lat="38.10854277135303" lon="15.275904576295536"><ele>229.0</ele><time>2026-04-11T11:58:10.999Z</time></trkpt><trkpt lat="38.10863022302606" lon="15.27589233998622"><ele>228.6</ele><time>2026-04-11T11:58:11.999Z</time></trkpt><trkpt lat="38.108722604622" lon="15.275878973979271"><ele>228.2</ele><time>2026-04-11T11:58:12.999Z</time></trkpt><trkpt lat="38.108815385720376" lon="15.275867131341089"><ele>227.79999999999998</ele><time>2026-04-11T11:58:13.999Z</time></trkpt><trkpt lat="38.10891341537212" lon="15.275846256089354"><ele>227.39999999999998</ele><time>2026-04-11T11:58:14.999Z</time></trkpt><trkpt lat="38.109009411510975" lon="15.275818182159524"><ele>227.0</ele><time>2026-04-11T11:58:15.999Z</time></trkpt><trkpt lat="38.109104125135126" lon="15.27578561047824"><ele>226.8</ele><time>2026-04-11T11:58:16.999Z</time></trkpt><trkpt lat="38.109197598859296" lon="15.27575725641506"><ele>226.6</ele><time>2026-04-11T11:58:17.999Z</time></trkpt><trkpt lat="38.109285487967455" lon="15.275731420773736"><ele>226.40000000000003</ele><time>2026-04-11T11:58:18.999Z</time></trkpt><trkpt lat="38.109377296703734" lon="15.275708537290988"><ele>226.20000000000002</ele><time>2026-04-11T11:58:19.999Z</time></trkpt><trkpt lat="38.10946786619173" lon="15.275684127029377"><ele>226.0</ele><time>2026-04-11T11:58:20.999Z</time></trkpt><trkpt lat="38.10955068721533" lon="15.275672432612556"><ele>226.0</ele><time>2026-04-11T11:58:21.999Z</time></trkpt><trkpt lat="38.10964560852656" lon="15.275664381812987"><ele>226.00000000000003</ele><time>2026-04-11T11:58:22.999Z</time></trkpt><trkpt lat="38.10974737259382" lon="15.275651352962415"><ele>226.00000000000003</ele><time>2026-04-11T11:58:23.999Z</time></trkpt><trkpt lat="38.10983664662134" lon="15.275646849277193"><ele>226.0</ele><time>2026-04-11T11:58:24.999Z</time></trkpt><trkpt lat="38.10992958665393" lon="15.275643945306195"><ele>226.0</ele><time>2026-04-11T11:58:25.999Z</time></trkpt><trkpt lat="38.11002238573722" lon="15.27563958526292"><ele>226.20000000000002</ele><time>2026-04-11T11:58:26.999Z</time></trkpt><trkpt lat="38.11011324463169" lon="15.275646747262552"><ele>226.40000000000003</ele><time>2026-04-11T11:58:27.999Z</time></trkpt><trkpt lat="38.11021154741049" lon="15.275659268414692"><ele>226.6</ele><time>2026-04-11T11:58:28.999Z</time></trkpt><trkpt lat="38.11031308475825" lon="15.275677823632659"><ele>226.8</ele><time>2026-04-11T11:58:29.999Z</time></trkpt><trkpt lat="38.11040947298994" lon="15.275700159278328"><ele>227.0</ele><time>2026-04-11T11:58:30.999Z</time></trkpt><trkpt lat="38.11050480104926" lon="15.275726374129006"><ele>227.0</ele><time>2026-04-11T11:58:31.999Z</time></trkpt><trkpt lat="38.11060587139012" lon="15.275755940786317"><ele>227.0</ele><time>2026-04-11T11:58:32.999Z</time></trkpt><trkpt lat="38.110705538042815" lon="15.275782520074026"><ele>227.0</ele><time>2026-04-11T11:58:33.999Z</time></trkpt><trkpt lat="38.11081032319095" lon="15.275802278703267"><ele>227.0</ele><time>2026-04-11T11:58:34.999Z</time></trkpt><trkpt lat="38.11091716922651" lon="15.275813496611162"><ele>227.0</ele><time>2026-04-11T11:58:35.999Z</time></trkpt><trkpt lat="38.11101763584164" lon="15.275817795576582"><ele>225.8</ele><time>2026-04-11T11:58:36.999Z</time></trkpt><trkpt lat="38.11111740498426" lon="15.275809895230513"><ele>224.6</ele><time>2026-04-11T11:58:37.999Z</time></trkpt><trkpt lat="38.111222045471045" lon="15.27578935663223"><ele>223.40000000000003</ele><time>2026-04-11T11:58:39Z</time></trkpt><trkpt lat="38.111328397394736" lon="15.275757625637603"><ele>222.20000000000002</ele><time>2026-04-11T11:58:40Z</time></trkpt><trkpt lat="38.111427470588765" lon="15.275720255808954"><ele>221.0</ele><time>2026-04-11T11:58:41Z</time></trkpt><trkpt lat="38.11150312835167" lon="15.275692581551308"><ele>221.0</ele><time>2026-04-11T11:58:42Z</time></trkpt><trkpt lat="38.11156490617404" lon="15.275673758456557"><ele>221.00000000000003</ele><time>2026-04-11T11:58:43Z</time></trkpt><trkpt lat="38.1116571937049" lon="15.275654218238493"><ele>221.00000000000003</ele><time>2026-04-11T11:58:45Z</time></trkpt><trkpt lat="38.11175064669156" lon="15.275671426348373"><ele>221.0</ele><time>2026-04-11T11:58:47Z</time></trkpt><trkpt lat="38.11188310955474" lon="15.275702959466487"><ele>221.0</ele><time>2026-04-11T11:58:49Z</time></trkpt><trkpt lat="38.111956234405994" lon="15.275725532631096"><ele>219.83333333333334</ele><time>2026-04-11T11:58:50Z</time></trkpt><trkpt lat="38.11202762484779" lon="15.275752167539512"><ele>218.66666666666669</ele><time>2026-04-11T11:58:51Z</time></trkpt><trkpt lat="38.11210163629932" lon="15.275785894268974"><ele>217.5</ele><time>2026-04-11T11:58:52Z</time></trkpt><trkpt lat="38.1121787490824" lon="15.275828760069434"><ele>216.33333333333331</ele><time>2026-04-11T11:58:53Z</time></trkpt><trkpt lat="38.1122651971562" lon="15.27586500370358"><ele>215.16666666666666</ele><time>2026-04-11T11:58:54Z</time></trkpt><trkpt lat="38.11235246263535" lon="15.275906911733955"><ele>214.0</ele><time>2026-04-11T11:58:55Z</time></trkpt><trkpt lat="38.11243762012538" lon="15.2759503978346"><ele>213.0</ele><time>2026-04-11T11:58:56Z</time></trkpt><trkpt lat="38.1125185315222" lon="15.275995810994697"><ele>211.99999999999997</ele><time>2026-04-11T11:58:57Z</time></trkpt><trkpt lat="38.11260054018351" lon="15.276042740573821"><ele>211.0</ele><time>2026-04-11T11:58:58Z</time></trkpt><trkpt lat="38.112683092061985" lon="15.27608994699324"><ele>210.0</ele><time>2026-04-11T11:58:59Z</time></trkpt><trkpt lat="38.11277512274286" lon="15.276133980617411"><ele>209.0</ele><time>2026-04-11T11:59:00Z</time></trkpt><trkpt lat="38.11286982151531" lon="15.276181656450236"><ele>209.0</ele><time>2026-04-11T11:59:01Z</time></trkpt><trkpt lat="38.11296477409377" lon="15.276226038795908"><ele>209.0</ele><time>2026-04-11T11:59:02Z</time></trkpt><trkpt lat="38.11306203870168" lon="15.276270323354387"><ele>209.0</ele><time>2026-04-11T11:59:03Z</time></trkpt><trkpt lat="38.11315475220305" lon="15.276315146668992"><ele>209.0</ele><time>2026-04-11T11:59:04Z</time></trkpt><trkpt lat="38.113233751171784" lon="15.276353710573549"><ele>209.0</ele><time>2026-04-11T11:59:05Z</time></trkpt><trkpt lat="38.11331252253854" lon="15.276391797691284"><ele>208.79999999999998</ele><time>2026-04-11T11:59:06Z</time></trkpt><trkpt lat="38.11339682780127" lon="15.27643507085142"><ele>208.6</ele><time>2026-04-11T11:59:07Z</time></trkpt><trkpt lat="38.11348518075153" lon="15.276479886352933"><ele>208.4</ele><time>2026-04-11T11:59:08Z</time></trkpt><trkpt lat="38.113573676056916" lon="15.276521238251574"><ele>208.2</ele><time>2026-04-11T11:59:09Z</time></trkpt><trkpt lat="38.113665790346175" lon="15.276562609999406"><ele>208.0</ele><time>2026-04-11T11:59:10Z</time></trkpt><trkpt lat="38.11376206696995" lon="15.276603756064333"><ele>208.0</ele><time>2026-04-11T11:59:11Z</time></trkpt><trkpt lat="38.11386178199913" lon="15.276645467934063"><ele>208.0</ele><time>2026-04-11T11:59:12Z</time></trkpt><trkpt lat="38.113959364105824" lon="15.276693737675973"><ele>208.0</ele><time>2026-04-11T11:59:13Z</time></trkpt><trkpt lat="38.114059759841" lon="15.276739211166097"><ele>208.0</ele><time>2026-04-11T11:59:14Z</time></trkpt><trkpt lat="38.11415544364724" lon="15.276777282151908"><ele>208.0</ele><time>2026-04-11T11:59:15Z</time></trkpt><trkpt lat="38.11425369725967" lon="15.276816431670895"><ele>207.49999999999997</ele><time>2026-04-11T11:59:16Z</time></trkpt><trkpt lat="38.114349968785675" lon="15.276852308603345"><ele>207.0</ele><time>2026-04-11T11:59:17Z</time></trkpt><trkpt lat="38.11443427861395" lon="15.276883793298685"><ele>206.5</ele><time>2026-04-11T11:59:18Z</time></trkpt><trkpt lat="38.114512244504915" lon="15.276907645709386"><ele>206.0</ele><time>2026-04-11T11:59:19Z</time></trkpt><trkpt lat="38.11459348845691" lon="15.276924392840817"><ele>205.49999999999997</ele><time>2026-04-11T11:59:20Z</time></trkpt><trkpt lat="38.11467880855782" lon="15.276937085133644"><ele>205.0</ele><time>2026-04-11T11:59:21Z</time></trkpt><trkpt lat="38.114761891589346" lon="15.276949665134461"><ele>205.0</ele><time>2026-04-11T11:59:22Z</time></trkpt><trkpt lat="38.11485031420268" lon="15.276959150371967"><ele>205.0</ele><time>2026-04-11T11:59:23Z</time></trkpt><trkpt lat="38.11494270230996" lon="15.27696534811689"><ele>205.0</ele><time>2026-04-11T11:59:24Z</time></trkpt><trkpt lat="38.11503739416034" lon="15.276972418288482"><ele>205.0</ele><time>2026-04-11T11:59:25Z</time></trkpt><trkpt lat="38.11513303362384" lon="15.27697492396044"><ele>205.0</ele><time>2026-04-11T11:59:26Z</time></trkpt><trkpt lat="38.11522890978721" lon="15.27697752498609"><ele>204.4</ele><time>2026-04-11T11:59:27Z</time></trkpt><trkpt lat="38.11532490642032" lon="15.276981429029277"><ele>203.8</ele><time>2026-04-11T11:59:28Z</time></trkpt><trkpt lat="38.115421536759186" lon="15.276980179843624"><ele>203.2</ele><time>2026-04-11T11:59:29Z</time></trkpt><trkpt lat="38.11552144096708" lon="15.276976171863183"><ele>202.6</ele><time>2026-04-11T11:59:30Z</time></trkpt><trkpt lat="38.115618395275504" lon="15.276974303179166"><ele>202.0</ele><time>2026-04-11T11:59:31Z</time></trkpt><trkpt lat="38.11571333086119" lon="15.276978228033558"><ele>201.66666666666666</ele><time>2026-04-11T11:59:32Z</time></trkpt><trkpt lat="38.115799289175854" lon="15.276984717845991"><ele>201.33333333333331</ele><time>2026-04-11T11:59:33Z</time></trkpt><trkpt lat="38.11587712845289" lon="15.276998458754472"><ele>201.0</ele><time>2026-04-11T11:59:34Z</time></trkpt><trkpt lat="38.11595415298882" lon="15.277005640674494"><ele>200.66666666666669</ele><time>2026-04-11T11:59:35Z</time></trkpt><trkpt lat="38.11603422021514" lon="15.277006227704948"><ele>200.33333333333334</ele><time>2026-04-11T11:59:36Z</time></trkpt><trkpt lat="38.11611382814334" lon="15.276996089302246"><ele>200.0</ele><time>2026-04-11T11:59:37Z</time></trkpt><trkpt lat="38.11619506004472" lon="15.276975389830476"><ele>200.0</ele><time>2026-04-11T11:59:38Z</time></trkpt><trkpt lat="38.116274169504344" lon="15.27694177510413"><ele>200.0</ele><time>2026-04-11T11:59:39Z</time></trkpt><trkpt lat="38.11636421321441" lon="15.276901692101164"><ele>200.0</ele><time>2026-04-11T11:59:40Z</time></trkpt><trkpt lat="38.11645761378975" lon="15.276866221972396"><ele>200.0</ele><time>2026-04-11T11:59:41Z</time></trkpt><trkpt lat="38.11655595772955" lon="15.276824480983286"><ele>200.0</ele><time>2026-04-11T11:59:42Z</time></trkpt><trkpt lat="38.116653558671224" lon="15.276789566512834"><ele>199.16666666666669</ele><time>2026-04-11T11:59:43Z</time></trkpt><trkpt lat="38.11675234296485" lon="15.276753954130958"><ele>198.33333333333334</ele><time>2026-04-11T11:59:44Z</time></trkpt><trkpt lat="38.11684212299094" lon="15.276721161714237"><ele>197.5</ele><time>2026-04-11T11:59:45Z</time></trkpt><trkpt lat="38.11692190510829" lon="15.276695340699238"><ele>196.66666666666669</ele><time>2026-04-11T11:59:46Z</time></trkpt><trkpt lat="38.116997946974756" lon="15.276664410744385"><ele>195.83333333333334</ele><time>2026-04-11T11:59:47Z</time></trkpt><trkpt lat="38.11707442098059" lon="15.276630735459015"><ele>195.0</ele><time>2026-04-11T11:59:48Z</time></trkpt><trkpt lat="38.117153955288835" lon="15.276594038566655"><ele>195.0</ele><time>2026-04-11T11:59:49Z</time></trkpt><trkpt lat="38.11724230244696" lon="15.276547835695379"><ele>195.0</ele><time>2026-04-11T11:59:50Z</time></trkpt><trkpt lat="38.117323719033244" lon="15.276496970207885"><ele>195.0</ele><time>2026-04-11T11:59:51Z</time></trkpt><trkpt lat="38.11740219997129" lon="15.276436672710965"><ele>195.0</ele><time>2026-04-11T11:59:52Z</time></trkpt><trkpt lat="38.11748448869603" lon="15.276376775790261"><ele>195.0</ele><time>2026-04-11T11:59:53Z</time></trkpt><trkpt lat="38.11756691323077" lon="15.276324831823393"><ele>194.4</ele><time>2026-04-11T11:59:54Z</time></trkpt><trkpt lat="38.11765778141169" lon="15.27627912065252"><ele>193.8</ele><time>2026-04-11T11:59:55Z</time></trkpt><trkpt lat="38.1177483480126" lon="15.276246452783703"><ele>193.2</ele><time>2026-04-11T11:59:56Z</time></trkpt><trkpt lat="38.11784000234737" lon="15.276214192966478"><ele>192.6</ele><time>2026-04-11T11:59:57Z</time></trkpt><trkpt lat="38.117923970247624" lon="15.276178390244358"><ele>192.0</ele><time>2026-04-11T11:59:58Z</time></trkpt><trkpt lat="38.11800306933713" lon="15.276144545217864"><ele>192.0</ele><time>2026-04-11T11:59:59Z</time></trkpt><trkpt lat="38.11807417017837" lon="15.276096462552934"><ele>192.0</ele><time>2026-04-11T12:00:00Z</time></trkpt><trkpt lat="38.118136155692646" lon="15.276041887180286"><ele>192.0</ele><time>2026-04-11T12:00:01Z</time></trkpt><trkpt lat="38.11820033498308" lon="15.275979798722396"><ele>192.0</ele><time>2026-04-11T12:00:02Z</time></trkpt><trkpt lat="38.11826633022026" lon="15.27590999875726"><ele>192.0</ele><time>2026-04-11T12:00:03Z</time></trkpt><trkpt lat="38.11833154325042" lon="15.275832896666994"><ele>192.0</ele><time>2026-04-11T12:00:04Z</time></trkpt><trkpt lat="38.11839563378545" lon="15.27574279135085"><ele>192.0</ele><time>2026-04-11T12:00:05Z</time></trkpt><trkpt lat="38.11845816171611" lon="15.275656770610427"><ele>192.0</ele><time>2026-04-11T12:00:06Z</time></trkpt><trkpt lat="38.11850953668515" lon="15.275542309462686"><ele>192.0</ele><time>2026-04-11T12:00:07Z</time></trkpt><trkpt lat="38.11856761939829" lon="15.275447150111141"><ele>192.0</ele><time>2026-04-11T12:00:08Z</time></trkpt><trkpt lat="38.11862569517533" lon="15.27535125853542"><ele>192.0</ele><time>2026-04-11T12:00:09Z</time></trkpt><trkpt lat="38.1186781783109" lon="15.275269594956333"><ele>191.66666666666666</ele><time>2026-04-11T12:00:10Z</time></trkpt><trkpt lat="38.11872503312978" lon="15.27519809057465"><ele>191.33333333333334</ele><time>2026-04-11T12:00:11Z</time></trkpt><trkpt lat="38.1187652102715" lon="15.275135135822392"><ele>191.0</ele><time>2026-04-11T12:00:12Z</time></trkpt><trkpt lat="38.118839810805056" lon="15.275037681959828"><ele>190.66666666666669</ele><time>2026-04-11T12:00:13.999Z</time></trkpt><trkpt lat="38.118932152121" lon="15.274936527438767"><ele>190.33333333333334</ele><time>2026-04-11T12:00:15.999Z</time></trkpt><trkpt lat="38.11899236870463" lon="15.274876704670136"><ele>190.0</ele><time>2026-04-11T12:00:16.999Z</time></trkpt><trkpt lat="38.119064708305096" lon="15.274807311983743"><ele>189.4</ele><time>2026-04-11T12:00:17.999Z</time></trkpt><trkpt lat="38.11914751578518" lon="15.274733297572132"><ele>188.8</ele><time>2026-04-11T12:00:18.999Z</time></trkpt><trkpt lat="38.11924014877994" lon="15.274655188288312"><ele>188.2</ele><time>2026-04-11T12:00:19.999Z</time></trkpt><trkpt lat="38.11932190443286" lon="15.27459033796102"><ele>187.6</ele><time>2026-04-11T12:00:20.999Z</time></trkpt><trkpt lat="38.11939890404391" lon="15.274529450403971"><ele>187.0</ele><time>2026-04-11T12:00:21.999Z</time></trkpt><trkpt lat="38.119473902359765" lon="15.274473035528098"><ele>187.0</ele><time>2026-04-11T12:00:22.999Z</time></trkpt><trkpt lat="38.119544443980466" lon="15.274420201518632"><ele>187.0</ele><time>2026-04-11T12:00:23.999Z</time></trkpt><trkpt lat="38.119613275692984" lon="15.274369427942467"><ele>187.0</ele><time>2026-04-11T12:00:24.999Z</time></trkpt><trkpt lat="38.11969187554076" lon="15.274319730061741"><ele>187.0</ele><time>2026-04-11T12:00:25.999Z</time></trkpt><trkpt lat="38.119792376295024" lon="15.27428129685296"><ele>187.0</ele><time>2026-04-11T12:00:26.999Z</time></trkpt><trkpt lat="38.11987342262216" lon="15.27425847361178"><ele>187.0</ele><time>2026-04-11T12:00:27.999Z</time></trkpt><trkpt lat="38.119967228305946" lon="15.274242573008612"><ele>186.66666666666669</ele><time>2026-04-11T12:00:28.999Z</time></trkpt><trkpt lat="38.12004944648607" lon="15.274232194238344"><ele>186.33333333333334</ele><time>2026-04-11T12:00:29.999Z</time></trkpt><trkpt lat="38.12013055523604" lon="15.274224334107505"><ele>186.0</ele><time>2026-04-11T12:00:30.999Z</time></trkpt><trkpt lat="38.12021533600607" lon="15.274219236367523"><ele>185.66666666666666</ele><time>2026-04-11T12:00:31.999Z</time></trkpt><trkpt lat="38.12029890379681" lon="15.274215184522392"><ele>185.33333333333331</ele><time>2026-04-11T12:00:32.999Z</time></trkpt><trkpt lat="38.120380770412915" lon="15.274211085263575"><ele>185.0</ele><time>2026-04-11T12:00:33.999Z</time></trkpt><trkpt lat="38.12046537803102" lon="15.274206848759798"><ele>185.0</ele><time>2026-04-11T12:00:34.999Z</time></trkpt><trkpt lat="38.12055697612615" lon="15.274202262221356"><ele>185.0</ele><time>2026-04-11T12:00:35.999Z</time></trkpt><trkpt lat="38.12063991389725" lon="15.274198109324523"><ele>185.0</ele><time>2026-04-11T12:00:36.999Z</time></trkpt><trkpt lat="38.12071608822651" lon="15.274194295037136"><ele>185.0</ele><time>2026-04-11T12:00:37.999Z</time></trkpt><trkpt lat="38.12078512652006" lon="15.274195593435898"><ele>185.0</ele><time>2026-04-11T12:00:38.999Z</time></trkpt><trkpt lat="38.12086166590188" lon="15.274198872020051"><ele>185.0</ele><time>2026-04-11T12:00:39.999Z</time></trkpt><trkpt lat="38.120943228892855" lon="15.274206565107484"><ele>184.66666666666666</ele><time>2026-04-11T12:00:40.999Z</time></trkpt><trkpt lat="38.121031386977194" lon="15.274219109506255"><ele>184.33333333333331</ele><time>2026-04-11T12:00:41.999Z</time></trkpt><trkpt lat="38.121112315735786" lon="15.274233445021634"><ele>184.0</ele><time>2026-04-11T12:00:42.999Z</time></trkpt><trkpt lat="38.12118499369949" lon="15.274248749589677"><ele>183.66666666666666</ele><time>2026-04-11T12:00:43.999Z</time></trkpt><trkpt lat="38.121258972684544" lon="15.274265746735836"><ele>183.33333333333334</ele><time>2026-04-11T12:00:45Z</time></trkpt><trkpt lat="38.12133043273506" lon="15.274294488833885"><ele>183.0</ele><time>2026-04-11T12:00:46Z</time></trkpt><trkpt lat="38.121411980321284" lon="15.274299393342396"><ele>183.0</ele><time>2026-04-11T12:00:47Z</time></trkpt><trkpt lat="38.121488600195846" lon="15.274309178019116"><ele>183.0</ele><time>2026-04-11T12:00:48Z</time></trkpt><trkpt lat="38.12157076004959" lon="15.274330765178302"><ele>183.0</ele><time>2026-04-11T12:00:49Z</time></trkpt><trkpt lat="38.12165311484701" lon="15.274352667307648"><ele>183.0</ele><time>2026-04-11T12:00:50Z</time></trkpt><trkpt lat="38.121731521740735" lon="15.274369624599965"><ele>183.0</ele><time>2026-04-11T12:00:51Z</time></trkpt><trkpt lat="38.121811015593735" lon="15.27437834949881"><ele>183.0</ele><time>2026-04-11T12:00:52Z</time></trkpt><trkpt lat="38.121892388448394" lon="15.274397088324168"><ele>182.5</ele><time>2026-04-11T12:00:53Z</time></trkpt><trkpt lat="38.12197141019581" lon="15.274442579618382"><ele>182.0</ele><time>2026-04-11T12:00:54Z</time></trkpt><trkpt lat="38.122043186344854" lon="15.27446796210017"><ele>181.5</ele><time>2026-04-11T12:00:55Z</time></trkpt><trkpt lat="38.122109611939266" lon="15.274493799526958"><ele>181.0</ele><time>2026-04-11T12:00:56Z</time></trkpt><trkpt lat="38.122194192974675" lon="15.2745076920631"><ele>180.5</ele><time>2026-04-11T12:00:57Z</time></trkpt><trkpt lat="38.122274431539914" lon="15.27453566256395"><ele>180.0</ele><time>2026-04-11T12:00:58Z</time></trkpt><trkpt lat="38.12235708383633" lon="15.274556721642892"><ele>179.66666666666666</ele><time>2026-04-11T12:00:59Z</time></trkpt><trkpt lat="38.12243646638773" lon="15.274570167998563"><ele>179.33333333333334</ele><time>2026-04-11T12:01:00Z</time></trkpt><trkpt lat="38.122512135631894" lon="15.27456804562309"><ele>179.0</ele><time>2026-04-11T12:01:01Z</time></trkpt><trkpt lat="38.122584848561694" lon="15.274547475259409"><ele>178.66666666666669</ele><time>2026-04-11T12:01:02Z</time></trkpt><trkpt lat="38.12265946514656" lon="15.274540778471165"><ele>178.33333333333334</ele><time>2026-04-11T12:01:03Z</time></trkpt><trkpt lat="38.12273828067062" lon="15.274545551653993"><ele>178.0</ele><time>2026-04-11T12:01:04Z</time></trkpt><trkpt lat="38.12281670365207" lon="15.27457917745061"><ele>178.0</ele><time>2026-04-11T12:01:05Z</time></trkpt><trkpt lat="38.122885703469606" lon="15.274603387954494"><ele>178.0</ele><time>2026-04-11T12:01:06Z</time></trkpt><trkpt lat="38.12298645779721" lon="15.274651180908684"><ele>178.0</ele><time>2026-04-11T12:01:08Z</time></trkpt><trkpt lat="38.12304763625577" lon="15.274682045439299"><ele>178.0</ele><time>2026-04-11T12:01:09Z</time></trkpt><trkpt lat="38.12316878284348" lon="15.274743409621292"><ele>178.0</ele><time>2026-04-11T12:01:11Z</time></trkpt><trkpt lat="38.123247940929325" lon="15.274763090560874"><ele>178.66666666666669</ele><time>2026-04-11T12:01:12Z</time></trkpt><trkpt lat="38.1233185728398" lon="15.274819669633525"><ele>179.33333333333334</ele><time>2026-04-11T12:01:13Z</time></trkpt><trkpt lat="38.12339953007513" lon="15.274860886032624"><ele>180.0</ele><time>2026-04-11T12:01:14Z</time></trkpt><trkpt lat="38.12348236221795" lon="15.274901652535533"><ele>180.66666666666666</ele><time>2026-04-11T12:01:15Z</time></trkpt><trkpt lat="38.1235652741084" lon="15.274940757454702"><ele>181.33333333333331</ele><time>2026-04-11T12:01:16Z</time></trkpt><trkpt lat="38.12365044809165" lon="15.274980095818492"><ele>182.0</ele><time>2026-04-11T12:01:17Z</time></trkpt><trkpt lat="38.123731248173705" lon="15.275017184293244"><ele>182.0</ele><time>2026-04-11T12:01:18Z</time></trkpt><trkpt lat="38.12381876245171" lon="15.275049568314547"><ele>182.0</ele><time>2026-04-11T12:01:19Z</time></trkpt><trkpt lat="38.123913089762496" lon="15.275056498720964"><ele>182.0</ele><time>2026-04-11T12:01:20Z</time></trkpt><trkpt lat="38.124011467127765" lon="15.275083592446158"><ele>182.0</ele><time>2026-04-11T12:01:21Z</time></trkpt><trkpt lat="38.12410990183517" lon="15.275107624934531"><ele>182.0</ele><time>2026-04-11T12:01:22Z</time></trkpt><trkpt lat="38.12420334167902" lon="15.275130859215327"><ele>181.66666666666666</ele><time>2026-04-11T12:01:23Z</time></trkpt><trkpt lat="38.12428652571938" lon="15.275146037363056"><ele>181.33333333333331</ele><time>2026-04-11T12:01:24Z</time></trkpt><trkpt lat="38.124365947596566" lon="15.275157809560104"><ele>181.0</ele><time>2026-04-11T12:01:25Z</time></trkpt><trkpt lat="38.12443939975223" lon="15.275163693996111"><ele>180.66666666666666</ele><time>2026-04-11T12:01:26Z</time></trkpt><trkpt lat="38.124504766948505" lon="15.275157508171487"><ele>180.33333333333334</ele><time>2026-04-11T12:01:27Z</time></trkpt><trkpt lat="38.12456738408085" lon="15.275126803950926"><ele>180.0</ele><time>2026-04-11T12:01:28Z</time></trkpt><trkpt lat="38.12464385776881" lon="15.27509991466244"><ele>180.0</ele><time>2026-04-11T12:01:29Z</time></trkpt><trkpt lat="38.12472896618856" lon="15.275065751637888"><ele>180.0</ele><time>2026-04-11T12:01:30Z</time></trkpt><trkpt lat="38.12481916069218" lon="15.275034016568494"><ele>180.0</ele><time>2026-04-11T12:01:31Z</time></trkpt><trkpt lat="38.12491523498227" lon="15.2750078300628"><ele>180.0</ele><time>2026-04-11T12:01:32Z</time></trkpt><trkpt lat="38.125013742258346" lon="15.274981872430143"><ele>180.0</ele><time>2026-04-11T12:01:33Z</time></trkpt><trkpt lat="38.12510713326743" lon="15.27498436629742"><ele>179.0</ele><time>2026-04-11T12:01:34Z</time></trkpt><trkpt lat="38.125197544404806" lon="15.274981150886173"><ele>178.0</ele><time>2026-04-11T12:01:35Z</time></trkpt><trkpt lat="38.125297074077814" lon="15.274976673366439"><ele>177.0</ele><time>2026-04-11T12:01:36Z</time></trkpt><trkpt lat="38.125393798624586" lon="15.274972322033415"><ele>176.0</ele><time>2026-04-11T12:01:37Z</time></trkpt><trkpt lat="38.12548786698886" lon="15.27496889161579"><ele>175.0</ele><time>2026-04-11T12:01:38Z</time></trkpt><trkpt lat="38.12558563596631" lon="15.274961538379253"><ele>175.0</ele><time>2026-04-11T12:01:39Z</time></trkpt><trkpt lat="38.12569070278923" lon="15.274947068893326"><ele>175.0</ele><time>2026-04-11T12:01:40Z</time></trkpt><trkpt lat="38.125792851592536" lon="15.274924314224895"><ele>175.0</ele><time>2026-04-11T12:01:41Z</time></trkpt><trkpt lat="38.12589341245757" lon="15.274894364634902"><ele>175.0</ele><time>2026-04-11T12:01:42Z</time></trkpt><trkpt lat="38.125980779363914" lon="15.274862176286545"><ele>175.0</ele><time>2026-04-11T12:01:43Z</time></trkpt><trkpt lat="38.12605996079381" lon="15.274828054173161"><ele>174.83333333333334</ele><time>2026-04-11T12:01:44Z</time></trkpt><trkpt lat="38.12613723744936" lon="15.274784781899585"><ele>174.66666666666669</ele><time>2026-04-11T12:01:45Z</time></trkpt><trkpt lat="38.12620937907939" lon="15.274738376150216"><ele>174.5</ele><time>2026-04-11T12:01:46Z</time></trkpt><trkpt lat="38.126292304938836" lon="15.274683560784117"><ele>174.33333333333334</ele><time>2026-04-11T12:01:47Z</time></trkpt><trkpt lat="38.12637046322279" lon="15.274631896824163"><ele>174.16666666666666</ele><time>2026-04-11T12:01:48Z</time></trkpt><trkpt lat="38.126449074471516" lon="15.274579933426322"><ele>174.0</ele><time>2026-04-11T12:01:49Z</time></trkpt><trkpt lat="38.12654020050665" lon="15.274522951202872"><ele>172.79999999999998</ele><time>2026-04-11T12:01:50Z</time></trkpt><trkpt lat="38.126635900600846" lon="15.274466799308852"><ele>171.6</ele><time>2026-04-11T12:01:51Z</time></trkpt><trkpt lat="38.12674286858458" lon="15.27442221262181"><ele>170.4</ele><time>2026-04-11T12:01:52Z</time></trkpt><trkpt lat="38.12685893070315" lon="15.274406030676353"><ele>169.2</ele><time>2026-04-11T12:01:53Z</time></trkpt><trkpt lat="38.12696882435276" lon="15.27441181603182"><ele>168.0</ele><time>2026-04-11T12:01:54Z</time></trkpt><trkpt lat="38.12707868205535" lon="15.274418345723111"><ele>168.0</ele><time>2026-04-11T12:01:55Z</time></trkpt><trkpt lat="38.12719027532816" lon="15.274425663570018"><ele>168.0</ele><time>2026-04-11T12:01:56Z</time></trkpt><trkpt lat="38.127299014097574" lon="15.274434042918624"><ele>168.0</ele><time>2026-04-11T12:01:57Z</time></trkpt><trkpt lat="38.12741051612572" lon="15.274441116413225"><ele>168.0</ele><time>2026-04-11T12:01:58Z</time></trkpt><trkpt lat="38.12754001521428" lon="15.274439898852277"><ele>167.8</ele><time>2026-04-11T12:01:59Z</time></trkpt><trkpt lat="38.12765831861879" lon="15.274423597214552"><ele>167.60000000000002</ele><time>2026-04-11T12:02:00Z</time></trkpt><trkpt lat="38.12777356063722" lon="15.274401865708372"><ele>167.39999999999998</ele><time>2026-04-11T12:02:01Z</time></trkpt><trkpt lat="38.127882408845636" lon="15.274376905607884"><ele>167.2</ele><time>2026-04-11T12:02:02Z</time></trkpt><trkpt lat="38.127974829238916" lon="15.274355712590717"><ele>167.0</ele><time>2026-04-11T12:02:03Z</time></trkpt><trkpt lat="38.12805563813064" lon="15.27433489497468"><ele>167.0</ele><time>2026-04-11T12:02:04Z</time></trkpt><trkpt lat="38.12812605811831" lon="15.274315254940584"><ele>167.0</ele><time>2026-04-11T12:02:05Z</time></trkpt><trkpt lat="38.12820637643085" lon="15.274292565032026"><ele>167.0</ele><time>2026-04-11T12:02:06Z</time></trkpt><trkpt lat="38.128299185389814" lon="15.274271936228574"><ele>167.0</ele><time>2026-04-11T12:02:06.999Z</time></trkpt><trkpt lat="38.12841450628514" lon="15.274251971630056"><ele>167.0</ele><time>2026-04-11T12:02:07.999Z</time></trkpt><trkpt lat="38.12851537268769" lon="15.274234509438818"><ele>166.2</ele><time>2026-04-11T12:02:08.999Z</time></trkpt><trkpt lat="38.128626718216" lon="15.274214630796731"><ele>165.39999999999998</ele><time>2026-04-11T12:02:09.999Z</time></trkpt><trkpt lat="38.12872656932478" lon="15.274189903576865"><ele>164.60000000000002</ele><time>2026-04-11T12:02:10.999Z</time></trkpt><trkpt lat="38.12881475624877" lon="15.274166564264226"><ele>163.8</ele><time>2026-04-11T12:02:11.999Z</time></trkpt><trkpt lat="38.128897288699086" lon="15.274147156046281"><ele>163.0</ele><time>2026-04-11T12:02:12.999Z</time></trkpt><trkpt lat="38.12897892576258" lon="15.274133044688984"><ele>163.0</ele><time>2026-04-11T12:02:13.999Z</time></trkpt><trkpt lat="38.12905052719215" lon="15.274135598180882"><ele>163.0</ele><time>2026-04-11T12:02:14.999Z</time></trkpt><trkpt lat="38.12911855307417" lon="15.274146460585824"><ele>163.0</ele><time>2026-04-11T12:02:15.999Z</time></trkpt><trkpt lat="38.1292320794462" lon="15.274157161715301"><ele>163.0</ele><time>2026-04-11T12:02:16.999Z</time></trkpt><trkpt lat="38.12932615180275" lon="15.27415886982437"><ele>163.0</ele><time>2026-04-11T12:02:17.999Z</time></trkpt><trkpt lat="38.12942536891645" lon="15.274159498261055"><ele>163.0</ele><time>2026-04-11T12:02:18.999Z</time></trkpt><trkpt lat="38.12950910858458" lon="15.274158971833478"><ele>162.66666666666669</ele><time>2026-04-11T12:02:19.999Z</time></trkpt><trkpt lat="38.12958235409263" lon="15.274158511378445"><ele>162.33333333333334</ele><time>2026-04-11T12:02:20.999Z</time></trkpt><trkpt lat="38.12964917577618" lon="15.27415809129823"><ele>162.0</ele><time>2026-04-11T12:02:21.999Z</time></trkpt><trkpt lat="38.12972023738292" lon="15.274153962582254"><ele>161.66666666666666</ele><time>2026-04-11T12:02:22.999Z</time></trkpt><trkpt lat="38.12982315056895" lon="15.274149551235281"><ele>161.33333333333331</ele><time>2026-04-11T12:02:24.999Z</time></trkpt><trkpt lat="38.12989023423095" lon="15.274146675705449"><ele>161.0</ele><time>2026-04-11T12:02:25.999Z</time></trkpt><trkpt lat="38.13002001936626" lon="15.274140423687484"><ele>160.8</ele><time>2026-04-11T12:02:27.999Z</time></trkpt><trkpt lat="38.13009867865694" lon="15.274138688532512"><ele>160.60000000000002</ele><time>2026-04-11T12:02:28.999Z</time></trkpt><trkpt lat="38.13018453484168" lon="15.274136953522325"><ele>160.4</ele><time>2026-04-11T12:02:29.999Z</time></trkpt><trkpt lat="38.13027689284786" lon="15.274136501262253"><ele>160.2</ele><time>2026-04-11T12:02:30.999Z</time></trkpt><trkpt lat="38.130376519386935" lon="15.274136013410741"><ele>160.0</ele><time>2026-04-11T12:02:31.999Z</time></trkpt><trkpt lat="38.130483908176714" lon="15.27413607845234"><ele>160.0</ele><time>2026-04-11T12:02:32.999Z</time></trkpt><trkpt lat="38.130593522217794" lon="15.274138356292676"><ele>160.0</ele><time>2026-04-11T12:02:33.999Z</time></trkpt><trkpt lat="38.130692403582096" lon="15.274140411142303"><ele>160.0</ele><time>2026-04-11T12:02:34.999Z</time></trkpt><trkpt lat="38.13079095502598" lon="15.27414548338128"><ele>160.0</ele><time>2026-04-11T12:02:35.999Z</time></trkpt><trkpt lat="38.130889063204414" lon="15.274153086950244"><ele>160.0</ele><time>2026-04-11T12:02:36.999Z</time></trkpt><trkpt lat="38.13098963202773" lon="15.274166113884077"><ele>160.0</ele><time>2026-04-11T12:02:37.999Z</time></trkpt><trkpt lat="38.1310964461498" lon="15.274185581560529"><ele>160.0</ele><time>2026-04-11T12:02:38.999Z</time></trkpt><trkpt lat="38.13121894434175" lon="15.27421058206366"><ele>160.0</ele><time>2026-04-11T12:02:39.999Z</time></trkpt><trkpt lat="38.13134829404281" lon="15.274224331626911"><ele>160.0</ele><time>2026-04-11T12:02:40.999Z</time></trkpt><trkpt lat="38.13149692908353" lon="15.274227964919138"><ele>159.5</ele><time>2026-04-11T12:02:41.999Z</time></trkpt><trkpt lat="38.13163804320228" lon="15.274213094485736"><ele>159.0</ele><time>2026-04-11T12:02:42.999Z</time></trkpt><trkpt lat="38.13179302132193" lon="15.274171753297253"><ele>158.5</ele><time>2026-04-11T12:02:43.999Z</time></trkpt><trkpt lat="38.13193059163909" lon="15.274122222800097"><ele>158.0</ele><time>2026-04-11T12:02:44.999Z</time></trkpt><trkpt lat="38.13204813954597" lon="15.27407420052077"><ele>158.0</ele><time>2026-04-11T12:02:45.999Z</time></trkpt><trkpt lat="38.132171893012206" lon="15.27401320802144"><ele>158.0</ele><time>2026-04-11T12:02:46.999Z</time></trkpt><trkpt lat="38.1322909610874" lon="15.273935440094924"><ele>158.0</ele><time>2026-04-11T12:02:47.999Z</time></trkpt><trkpt lat="38.132367508919465" lon="15.273877879316585"><ele>158.0</ele><time>2026-04-11T12:02:48.999Z</time></trkpt><trkpt lat="38.13244811570465" lon="15.273832058055472"><ele>158.0</ele><time>2026-04-11T12:02:49.999Z</time></trkpt><trkpt lat="38.132546555102664" lon="15.27380080213375"><ele>157.25</ele><time>2026-04-11T12:02:51Z</time></trkpt><trkpt lat="38.13266009596771" lon="15.27377833311001"><ele>156.5</ele><time>2026-04-11T12:02:52Z</time></trkpt><trkpt lat="38.13277124059383" lon="15.273747989260086"><ele>155.75</ele><time>2026-04-11T12:02:53Z</time></trkpt><trkpt lat="38.13287891174367" lon="15.273718353418966"><ele>155.0</ele><time>2026-04-11T12:02:54Z</time></trkpt><trkpt lat="38.132993827217504" lon="15.273686723601086"><ele>155.0</ele><time>2026-04-11T12:02:55Z</time></trkpt><trkpt lat="38.13310453321109" lon="15.273656252423631"><ele>155.0</ele><time>2026-04-11T12:02:56Z</time></trkpt><trkpt lat="38.13320009732815" lon="15.27361095093135"><ele>155.0</ele><time>2026-04-11T12:02:57Z</time></trkpt><trkpt lat="38.13329481777455" lon="15.273587944133375"><ele>155.0</ele><time>2026-04-11T12:02:58Z</time></trkpt><trkpt lat="38.1333881482659" lon="15.273565604760629"><ele>155.0</ele><time>2026-04-11T12:02:59Z</time></trkpt><trkpt lat="38.13348763534953" lon="15.273546509256935"><ele>154.8</ele><time>2026-04-11T12:03:00Z</time></trkpt><trkpt lat="38.13358425986128" lon="15.273524561813835"><ele>154.6</ele><time>2026-04-11T12:03:01Z</time></trkpt><trkpt lat="38.133682839983116" lon="15.273497445536183"><ele>154.4</ele><time>2026-04-11T12:03:02Z</time></trkpt><trkpt lat="38.13378955664713" lon="15.273467024744908"><ele>154.2</ele><time>2026-04-11T12:03:03Z</time></trkpt><trkpt lat="38.13389954038624" lon="15.273430074232303"><ele>154.0</ele><time>2026-04-11T12:03:04Z</time></trkpt><trkpt lat="38.13399348069421" lon="15.273399200551468"><ele>153.6</ele><time>2026-04-11T12:03:05Z</time></trkpt><trkpt lat="38.13408938569911" lon="15.273373336156487"><ele>153.2</ele><time>2026-04-11T12:03:06Z</time></trkpt><trkpt lat="38.13418544927777" lon="15.273349635456164"><ele>152.79999999999998</ele><time>2026-04-11T12:03:07Z</time></trkpt><trkpt lat="38.13428326891557" lon="15.273328133047178"><ele>152.4</ele><time>2026-04-11T12:03:08Z</time></trkpt><trkpt lat="38.13438124535757" lon="15.273307623385767"><ele>152.0</ele><time>2026-04-11T12:03:09Z</time></trkpt><trkpt lat="38.13446983457908" lon="15.273281775879385"><ele>152.0</ele><time>2026-04-11T12:03:10Z</time></trkpt><trkpt lat="38.13454496135332" lon="15.273258291508816"><ele>152.0</ele><time>2026-04-11T12:03:11Z</time></trkpt><trkpt lat="38.13461801470796" lon="15.273234982663633"><ele>152.0</ele><time>2026-04-11T12:03:12Z</time></trkpt><trkpt lat="38.13469263288766" lon="15.273231445127458"><ele>152.0</ele><time>2026-04-11T12:03:13Z</time></trkpt><trkpt lat="38.13476405114834" lon="15.273214259748293"><ele>152.0</ele><time>2026-04-11T12:03:14Z</time></trkpt><trkpt lat="38.13483923659978" lon="15.273196167859139"><ele>152.0</ele><time>2026-04-11T12:03:15Z</time></trkpt><trkpt lat="38.13491652679043" lon="15.273177569132319"><ele>151.4</ele><time>2026-04-11T12:03:16Z</time></trkpt><trkpt lat="38.134998202381375" lon="15.27315758305473"><ele>150.79999999999998</ele><time>2026-04-11T12:03:17Z</time></trkpt><trkpt lat="38.13508578677501" lon="15.273125338649624"><ele>150.2</ele><time>2026-04-11T12:03:18Z</time></trkpt><trkpt lat="38.1351818846256" lon="15.273104019052171"><ele>149.6</ele><time>2026-04-11T12:03:19Z</time></trkpt><trkpt lat="38.135289493297016" lon="15.273071482155208"><ele>149.0</ele><time>2026-04-11T12:03:20Z</time></trkpt><trkpt lat="38.13539688566951" lon="15.273037789471179"><ele>148.75</ele><time>2026-04-11T12:03:21Z</time></trkpt><trkpt lat="38.13550607324104" lon="15.273004667841317"><ele>148.5</ele><time>2026-04-11T12:03:22Z</time></trkpt><trkpt lat="38.13562418291222" lon="15.27295892005727"><ele>148.25</ele><time>2026-04-11T12:03:23Z</time></trkpt><trkpt lat="38.135743901452585" lon="15.272898038741182"><ele>148.0</ele><time>2026-04-11T12:03:24Z</time></trkpt><trkpt lat="38.135852720471576" lon="15.2728422602197"><ele>147.4</ele><time>2026-04-11T12:03:25Z</time></trkpt><trkpt lat="38.1359633540009" lon="15.27278796176661"><ele>146.8</ele><time>2026-04-11T12:03:26Z</time></trkpt><trkpt lat="38.1360615472025" lon="15.272737886772372"><ele>146.2</ele><time>2026-04-11T12:03:27Z</time></trkpt><trkpt lat="38.13614775914498" lon="15.272693016288818"><ele>145.6</ele><time>2026-04-11T12:03:28Z</time></trkpt><trkpt lat="38.13622694643112" lon="15.272644421019258"><ele>145.0</ele><time>2026-04-11T12:03:29Z</time></trkpt><trkpt lat="38.13630063926171" lon="15.272592987768475"><ele>145.0</ele><time>2026-04-11T12:03:30Z</time></trkpt><trkpt lat="38.13638156288833" lon="15.27255610991139"><ele>145.0</ele><time>2026-04-11T12:03:31Z</time></trkpt><trkpt lat="38.13647863290475" lon="15.272498248758511"><ele>145.0</ele><time>2026-04-11T12:03:32Z</time></trkpt><trkpt lat="38.13658053727231" lon="15.272448473018489"><ele>145.0</ele><time>2026-04-11T12:03:33Z</time></trkpt><trkpt lat="38.13666294932594" lon="15.2724170985706"><ele>145.0</ele><time>2026-04-11T12:03:34Z</time></trkpt><trkpt lat="38.13673839214052" lon="15.272395125990194"><ele>144.6</ele><time>2026-04-11T12:03:35Z</time></trkpt><trkpt lat="38.13681509485074" lon="15.27238093173033"><ele>144.2</ele><time>2026-04-11T12:03:36Z</time></trkpt><trkpt lat="38.136913021839824" lon="15.272355780358659"><ele>143.8</ele><time>2026-04-11T12:03:37Z</time></trkpt><trkpt lat="38.13700613509079" lon="15.272325729429712"><ele>143.4</ele><time>2026-04-11T12:03:38Z</time></trkpt><trkpt lat="38.13709477949264" lon="15.272292508714722"><ele>143.0</ele><time>2026-04-11T12:03:39Z</time></trkpt><trkpt lat="38.13719963910215" lon="15.272253211113126"><ele>143.0</ele><time>2026-04-11T12:03:40Z</time></trkpt><trkpt lat="38.13730660180921" lon="15.272213125210353"><ele>143.0</ele><time>2026-04-11T12:03:41Z</time></trkpt><trkpt lat="38.13740909841397" lon="15.27217653274594"><ele>143.0</ele><time>2026-04-11T12:03:42Z</time></trkpt><trkpt lat="38.137515834770284" lon="15.272139070289562"><ele>143.0</ele><time>2026-04-11T12:03:43Z</time></trkpt><trkpt lat="38.137618726753516" lon="15.272102957054486"><ele>143.0</ele><time>2026-04-11T12:03:44Z</time></trkpt><trkpt lat="38.13772421359389" lon="15.272065933122164"><ele>142.5</ele><time>2026-04-11T12:03:45Z</time></trkpt><trkpt lat="38.13784993618514" lon="15.272021353168833"><ele>142.0</ele><time>2026-04-11T12:03:46Z</time></trkpt><trkpt lat="38.13797638753645" lon="15.271972551440644"><ele>141.5</ele><time>2026-04-11T12:03:47Z</time></trkpt><trkpt lat="38.13812250160692" lon="15.271912404820906"><ele>141.0</ele><time>2026-04-11T12:03:48Z</time></trkpt><trkpt lat="38.13825989706193" lon="15.271847510844824"><ele>140.25</ele><time>2026-04-11T12:03:49Z</time></trkpt><trkpt lat="38.138371009204036" lon="15.271786539124175"><ele>139.5</ele><time>2026-04-11T12:03:50Z</time></trkpt><trkpt lat="38.1384881873187" lon="15.271718951874565"><ele>138.75</ele><time>2026-04-11T12:03:51Z</time></trkpt><trkpt lat="38.13859795356327" lon="15.271654612569149"><ele>138.0</ele><time>2026-04-11T12:03:52Z</time></trkpt><trkpt lat="38.1387104020211" lon="15.271588701169392"><ele>138.0</ele><time>2026-04-11T12:03:52.999Z</time></trkpt><trkpt lat="38.13882476924794" lon="15.271519842804462"><ele>138.0</ele><time>2026-04-11T12:03:53.999Z</time></trkpt><trkpt lat="38.13894372828502" lon="15.271444089437436"><ele>138.0</ele><time>2026-04-11T12:03:54.999Z</time></trkpt><trkpt lat="38.13904499418156" lon="15.271380360775323"><ele>138.0</ele><time>2026-04-11T12:03:55.999Z</time></trkpt><trkpt lat="38.13913627444454" lon="15.271328196677384"><ele>137.5</ele><time>2026-04-11T12:03:56.999Z</time></trkpt><trkpt lat="38.13924160158825" lon="15.27127549210823"><ele>137.0</ele><time>2026-04-11T12:03:57.999Z</time></trkpt><trkpt lat="38.13935151345026" lon="15.271222883823079"><ele>136.5</ele><time>2026-04-11T12:03:58.999Z</time></trkpt><trkpt lat="38.139465759739636" lon="15.271168516572564"><ele>136.0</ele><time>2026-04-11T12:03:59.999Z</time></trkpt><trkpt lat="38.139567330516556" lon="15.271120181318055"><ele>136.0</ele><time>2026-04-11T12:04:00.999Z</time></trkpt><trkpt lat="38.139653151396885" lon="15.271079341046123"><ele>136.0</ele><time>2026-04-11T12:04:01.999Z</time></trkpt><trkpt lat="38.139744548380314" lon="15.271035847259242"><ele>136.0</ele><time>2026-04-11T12:04:02.999Z</time></trkpt><trkpt lat="38.13984336103363" lon="15.270989561958244"><ele>136.0</ele><time>2026-04-11T12:04:03.999Z</time></trkpt><trkpt lat="38.13994499392534" lon="15.270942514882721"><ele>136.0</ele><time>2026-04-11T12:04:04.999Z</time></trkpt><trkpt lat="38.14003928998831" lon="15.270898882684259"><ele>135.8</ele><time>2026-04-11T12:04:05.999Z</time></trkpt><trkpt lat="38.140143789571226" lon="15.270852701986565"><ele>135.6</ele><time>2026-04-11T12:04:06.999Z</time></trkpt><trkpt lat="38.14024074780255" lon="15.270809070337117"><ele>135.4</ele><time>2026-04-11T12:04:07.999Z</time></trkpt><trkpt lat="38.14033386173467" lon="15.270771231742522"><ele>135.2</ele><time>2026-04-11T12:04:08.999Z</time></trkpt><trkpt lat="38.14042251990533" lon="15.270735566011036"><ele>135.0</ele><time>2026-04-11T12:04:09.999Z</time></trkpt><trkpt lat="38.14051719073712" lon="15.270698470443442"><ele>135.0</ele><time>2026-04-11T12:04:10.999Z</time></trkpt><trkpt lat="38.14061957592427" lon="15.270658352242362"><ele>135.0</ele><time>2026-04-11T12:04:11.999Z</time></trkpt><trkpt lat="38.14072651399948" lon="15.270616449844201"><ele>135.0</ele><time>2026-04-11T12:04:12.999Z</time></trkpt><trkpt lat="38.14084419722093" lon="15.270564240688302"><ele>135.0</ele><time>2026-04-11T12:04:13.999Z</time></trkpt><trkpt lat="38.14096360975772" lon="15.270502831616202"><ele>133.75</ele><time>2026-04-11T12:04:14.999Z</time></trkpt><trkpt lat="38.14108377847746" lon="15.27043376315442"><ele>132.5</ele><time>2026-04-11T12:04:15.999Z</time></trkpt><trkpt lat="38.14120429798274" lon="15.270362270035594"><ele>131.25</ele><time>2026-04-11T12:04:16.999Z</time></trkpt><trkpt lat="38.14131550551214" lon="15.27029490110539"><ele>130.0</ele><time>2026-04-11T12:04:17.999Z</time></trkpt><trkpt lat="38.14140958108986" lon="15.270226004224634"><ele>130.0</ele><time>2026-04-11T12:04:18.999Z</time></trkpt><trkpt lat="38.14149703160223" lon="15.270190265663242"><ele>130.0</ele><time>2026-04-11T12:04:19.999Z</time></trkpt><trkpt lat="38.141574588875116" lon="15.270151857034492"><ele>130.0</ele><time>2026-04-11T12:04:20.999Z</time></trkpt><trkpt lat="38.1416884842725" lon="15.270080400925231"><ele>130.0</ele><time>2026-04-11T12:04:22.999Z</time></trkpt><trkpt lat="38.141751817175404" lon="15.27003783281584"><ele>130.0</ele><time>2026-04-11T12:04:23.999Z</time></trkpt><trkpt lat="38.14182895309762" lon="15.269997932546723"><ele>130.2</ele><time>2026-04-11T12:04:24.999Z</time></trkpt><trkpt lat="38.141918646255945" lon="15.269960328989981"><ele>130.4</ele><time>2026-04-11T12:04:25.999Z</time></trkpt><trkpt lat="38.14202196161991" lon="15.269931152789688"><ele>130.6</ele><time>2026-04-11T12:04:26.999Z</time></trkpt><trkpt lat="38.14212719479447" lon="15.269896492283461"><ele>130.8</ele><time>2026-04-11T12:04:27.999Z</time></trkpt><trkpt lat="38.14223140827169" lon="15.269857599193903"><ele>131.0</ele><time>2026-04-11T12:04:28.999Z</time></trkpt><trkpt lat="38.14232845501476" lon="15.269815724847268"><ele>130.6</ele><time>2026-04-11T12:04:29.999Z</time></trkpt><trkpt lat="38.14242964280157" lon="15.269779898176301"><ele>130.2</ele><time>2026-04-11T12:04:30.999Z</time></trkpt><trkpt lat="38.142535364245404" lon="15.269738034469015"><ele>129.8</ele><time>2026-04-11T12:04:31.999Z</time></trkpt><trkpt lat="38.14264440558537" lon="15.269691996112552"><ele>129.4</ele><time>2026-04-11T12:04:32.999Z</time></trkpt><trkpt lat="38.14275388239964" lon="15.269645111098308"><ele>129.0</ele><time>2026-04-11T12:04:33.999Z</time></trkpt><trkpt lat="38.14286191753303" lon="15.269601064410434"><ele>127.75</ele><time>2026-04-11T12:04:34.999Z</time></trkpt><trkpt lat="38.14297273497161" lon="15.269552192375405"><ele>126.5</ele><time>2026-04-11T12:04:35.999Z</time></trkpt><trkpt lat="38.14309268696046" lon="15.269490387437747"><ele>125.25</ele><time>2026-04-11T12:04:36.999Z</time></trkpt><trkpt lat="38.14321063783237" lon="15.269445066980472"><ele>124.0</ele><time>2026-04-11T12:04:37.999Z</time></trkpt><trkpt lat="38.143334722419866" lon="15.269396230946256"><ele>124.0</ele><time>2026-04-11T12:04:38.999Z</time></trkpt><trkpt lat="38.143459053904756" lon="15.269346645538757"><ele>124.0</ele><time>2026-04-11T12:04:39.999Z</time></trkpt><trkpt lat="38.14357672709208" lon="15.269290810757647"><ele>124.0</ele><time>2026-04-11T12:04:40.999Z</time></trkpt><trkpt lat="38.14368737691333" lon="15.269237332593114"><ele>124.0</ele><time>2026-04-11T12:04:41.999Z</time></trkpt><trkpt lat="38.143806006449736" lon="15.269183363563641"><ele>124.0</ele><time>2026-04-11T12:04:42.999Z</time></trkpt><trkpt lat="38.143927025702396" lon="15.269126889388772"><ele>124.0</ele><time>2026-04-11T12:04:43.999Z</time></trkpt><trkpt lat="38.144049959625" lon="15.269067414520656"><ele>124.0</ele><time>2026-04-11T12:04:44.999Z</time></trkpt><trkpt lat="38.14416795896565" lon="15.269008143694547"><ele>124.0</ele><time>2026-04-11T12:04:45.999Z</time></trkpt><trkpt lat="38.14427108025682" lon="15.268948725752642"><ele>123.5</ele><time>2026-04-11T12:04:46.999Z</time></trkpt><trkpt lat="38.14437848794021" lon="15.268881868937184"><ele>123.0</ele><time>2026-04-11T12:04:47.999Z</time></trkpt><trkpt lat="38.14448725869152" lon="15.26881314869925"><ele>122.5</ele><time>2026-04-11T12:04:48.999Z</time></trkpt><trkpt lat="38.14460312897558" lon="15.268768607575206"><ele>122.0</ele><time>2026-04-11T12:04:49.999Z</time></trkpt><trkpt lat="38.14471421918334" lon="15.268699640281381"><ele>122.0</ele><time>2026-04-11T12:04:50.999Z</time></trkpt><trkpt lat="38.1448229928675" lon="15.268633323248293"><ele>121.99999999999999</ele><time>2026-04-11T12:04:51.999Z</time></trkpt><trkpt lat="38.14490776024944" lon="15.268545844025232"><ele>121.99999999999999</ele><time>2026-04-11T12:04:52.999Z</time></trkpt><trkpt lat="38.144997925000006" lon="15.268507204883328"><ele>122.0</ele><time>2026-04-11T12:04:53.999Z</time></trkpt><trkpt lat="38.14508995444473" lon="15.268463589974072"><ele>122.0</ele><time>2026-04-11T12:04:54.999Z</time></trkpt><trkpt lat="38.145192287794" lon="15.268424701000132"><ele>121.5</ele><time>2026-04-11T12:04:56Z</time></trkpt><trkpt lat="38.14530401370711" lon="15.268380372693658"><ele>121.0</ele><time>2026-04-11T12:04:57Z</time></trkpt><trkpt lat="38.145425157603384" lon="15.268350113452126"><ele>120.5</ele><time>2026-04-11T12:04:58Z</time></trkpt><trkpt lat="38.1455579193973" lon="15.268312075971002"><ele>120.0</ele><time>2026-04-11T12:04:59Z</time></trkpt><trkpt lat="38.145705971530376" lon="15.26829485430889"><ele>120.0</ele><time>2026-04-11T12:05:00Z</time></trkpt><trkpt lat="38.14583745469813" lon="15.268210554866778"><ele>120.0</ele><time>2026-04-11T12:05:01Z</time></trkpt><trkpt lat="38.14597249219033" lon="15.268153424878568"><ele>120.0</ele><time>2026-04-11T12:05:02Z</time></trkpt><trkpt lat="38.14610897009645" lon="15.268094892069751"><ele>120.0</ele><time>2026-04-11T12:05:03Z</time></trkpt><trkpt lat="38.146251226411536" lon="15.2680340009294"><ele>119.25</ele><time>2026-04-11T12:05:04Z</time></trkpt><trkpt lat="38.14639542621676" lon="15.26796814366106"><ele>118.5</ele><time>2026-04-11T12:05:05Z</time></trkpt><trkpt lat="38.146524581629706" lon="15.267906808582627"><ele>117.75</ele><time>2026-04-11T12:05:06Z</time></trkpt><trkpt lat="38.14664063441879" lon="15.267850161386248"><ele>117.0</ele><time>2026-04-11T12:05:07Z</time></trkpt><trkpt lat="38.14674627890114" lon="15.267793590787042"><ele>116.8</ele><time>2026-04-11T12:05:08Z</time></trkpt><trkpt lat="38.14683977348561" lon="15.26773422622911"><ele>116.6</ele><time>2026-04-11T12:05:09Z</time></trkpt><trkpt lat="38.146917306111945" lon="15.267674506557036"><ele>116.39999999999999</ele><time>2026-04-11T12:05:10Z</time></trkpt><trkpt lat="38.147006866360755" lon="15.26761225619766"><ele>116.19999999999999</ele><time>2026-04-11T12:05:11Z</time></trkpt><trkpt lat="38.14710894255691" lon="15.267537246466775"><ele>116.0</ele><time>2026-04-11T12:05:12Z</time></trkpt><trkpt lat="38.14721070858143" lon="15.26746198237343"><ele>116.0</ele><time>2026-04-11T12:05:13Z</time></trkpt><trkpt lat="38.147322467478325" lon="15.267408917781374"><ele>116.0</ele><time>2026-04-11T12:05:14Z</time></trkpt><trkpt lat="38.14743391223987" lon="15.267343618627653"><ele>116.0</ele><time>2026-04-11T12:05:15Z</time></trkpt><trkpt lat="38.14754806337278" lon="15.26727772790092"><ele>116.0</ele><time>2026-04-11T12:05:16Z</time></trkpt><trkpt lat="38.14765598008435" lon="15.267212712771393"><ele>115.25</ele><time>2026-04-11T12:05:17Z</time></trkpt><trkpt lat="38.14775365092355" lon="15.267150785210188"><ele>114.5</ele><time>2026-04-11T12:05:18Z</time></trkpt><trkpt lat="38.147859086030984" lon="15.267080465115782"><ele>113.75</ele><time>2026-04-11T12:05:19Z</time></trkpt><trkpt lat="38.14797200182491" lon="15.267004416226316"><ele>113.0</ele><time>2026-04-11T12:05:20Z</time></trkpt><trkpt lat="38.1480897528183" lon="15.26692511076266"><ele>113.0</ele><time>2026-04-11T12:05:21Z</time></trkpt><trkpt lat="38.14820661803197" lon="15.266847361889058"><ele>113.0</ele><time>2026-04-11T12:05:22Z</time></trkpt><trkpt lat="38.14832241353898" lon="15.266772187618521"><ele>113.0</ele><time>2026-04-11T12:05:23Z</time></trkpt><trkpt lat="38.14843563370676" lon="15.26667497127699"><ele>113.0</ele><time>2026-04-11T12:05:24Z</time></trkpt><trkpt lat="38.14855616250949" lon="15.266603325025034"><ele>112.60000000000001</ele><time>2026-04-11T12:05:25Z</time></trkpt><trkpt lat="38.148666458226785" lon="15.266544715982112"><ele>112.20000000000002</ele><time>2026-04-11T12:05:26Z</time></trkpt><trkpt lat="38.148777590741155" lon="15.26648574049082"><ele>111.8</ele><time>2026-04-11T12:05:27Z</time></trkpt><trkpt lat="38.1488765992213" lon="15.266434838294733"><ele>111.4</ele><time>2026-04-11T12:05:28Z</time></trkpt><trkpt lat="38.1489692361195" lon="15.266384663735082"><ele>111.0</ele><time>2026-04-11T12:05:29Z</time></trkpt><trkpt lat="38.14906968479019" lon="15.266331912777472"><ele>109.75</ele><time>2026-04-11T12:05:30Z</time></trkpt><trkpt lat="38.14917931031997" lon="15.266280702015813"><ele>108.5</ele><time>2026-04-11T12:05:31Z</time></trkpt><trkpt lat="38.14928922688097" lon="15.266221229736866"><ele>107.25</ele><time>2026-04-11T12:05:32Z</time></trkpt><trkpt lat="38.14940381818182" lon="15.26615564186848"><ele>106.0</ele><time>2026-04-11T12:05:33Z</time></trkpt><trkpt lat="38.149524184330026" lon="15.266084776173326"><ele>106.0</ele><time>2026-04-11T12:05:34Z</time></trkpt><trkpt lat="38.14964395599528" lon="15.266018674221533"><ele>106.0</ele><time>2026-04-11T12:05:35Z</time></trkpt><trkpt lat="38.14975702412814" lon="15.26596063376112"><ele>106.0</ele><time>2026-04-11T12:05:36Z</time></trkpt><trkpt lat="38.1498582935481" lon="15.265913100293602"><ele>106.0</ele><time>2026-04-11T12:05:37Z</time></trkpt><trkpt lat="38.14995647267212" lon="15.265868139931298"><ele>106.5</ele><time>2026-04-11T12:05:38Z</time></trkpt><trkpt lat="38.150062482540314" lon="15.26581978027452"><ele>107.0</ele><time>2026-04-11T12:05:39Z</time></trkpt><trkpt lat="38.15017591145032" lon="15.26577901432598"><ele>107.5</ele><time>2026-04-11T12:05:40Z</time></trkpt><trkpt lat="38.15028699279348" lon="15.265723484128452"><ele>108.0</ele><time>2026-04-11T12:05:41Z</time></trkpt><trkpt lat="38.150397403050846" lon="15.26568681126987"><ele>108.0</ele><time>2026-04-11T12:05:42Z</time></trkpt><trkpt lat="38.150487743280195" lon="15.265653087330936"><ele>108.00000000000001</ele><time>2026-04-11T12:05:43Z</time></trkpt><trkpt lat="38.1505878345911" lon="15.265617896583192"><ele>108.00000000000001</ele><time>2026-04-11T12:05:45Z</time></trkpt><trkpt lat="38.15066842706014" lon="15.265603870758692"><ele>108.0</ele><time>2026-04-11T12:05:48Z</time></trkpt><trkpt lat="38.1507437965884" lon="15.2655811726228"><ele>108.0</ele><time>2026-04-11T12:05:50Z</time></trkpt><trkpt lat="38.150833166660526" lon="15.265519284075108"><ele>107.4</ele><time>2026-04-11T12:05:52Z</time></trkpt><trkpt lat="38.15093626114207" lon="15.265423507995576"><ele>106.80000000000001</ele><time>2026-04-11T12:05:54Z</time></trkpt><trkpt lat="38.1509982506675" lon="15.265360563716213"><ele>106.2</ele><time>2026-04-11T12:05:55Z</time></trkpt><trkpt lat="38.151061958871246" lon="15.265276058074166"><ele>105.6</ele><time>2026-04-11T12:05:56Z</time></trkpt><trkpt lat="38.151124902715196" lon="15.265189357342747"><ele>105.0</ele><time>2026-04-11T12:05:57Z</time></trkpt><trkpt lat="38.15118763067064" lon="15.26510278460969"><ele>105.0</ele><time>2026-04-11T12:05:58Z</time></trkpt><trkpt lat="38.15126884728453" lon="15.265048937283144"><ele>105.0</ele><time>2026-04-11T12:05:59Z</time></trkpt><trkpt lat="38.15134617777705" lon="15.26499051171196"><ele>105.0</ele><time>2026-04-11T12:06:00Z</time></trkpt><trkpt lat="38.15141487011016" lon="15.26493827057069"><ele>105.0</ele><time>2026-04-11T12:06:01Z</time></trkpt><trkpt lat="38.151490556065006" lon="15.264882998447975"><ele>105.0</ele><time>2026-04-11T12:06:02Z</time></trkpt><trkpt lat="38.15157221465613" lon="15.264824594807013"><ele>105.0</ele><time>2026-04-11T12:06:03Z</time></trkpt><trkpt lat="38.15166344334058" lon="15.264766032741122"><ele>103.75</ele><time>2026-04-11T12:06:04Z</time></trkpt><trkpt lat="38.1517725374414" lon="15.264739145004045"><ele>102.5</ele><time>2026-04-11T12:06:05Z</time></trkpt><trkpt lat="38.15187589061696" lon="15.264664892849348"><ele>101.25</ele><time>2026-04-11T12:06:06Z</time></trkpt><trkpt lat="38.151999883074154" lon="15.264629543097328"><ele>100.0</ele><time>2026-04-11T12:06:07Z</time></trkpt><trkpt lat="38.152136607198976" lon="15.264625094747133"><ele>100.0</ele><time>2026-04-11T12:06:08Z</time></trkpt><trkpt lat="38.15226444818061" lon="15.26465582594424"><ele>100.0</ele><time>2026-04-11T12:06:08.999Z</time></trkpt><trkpt lat="38.152398542194426" lon="15.264643059445074"><ele>100.0</ele><time>2026-04-11T12:06:09.999Z</time></trkpt><trkpt lat="38.152538638761435" lon="15.26465560800664"><ele>100.0</ele><time>2026-04-11T12:06:10.999Z</time></trkpt><trkpt lat="38.15268289310887" lon="15.26462034847137"><ele>99.75</ele><time>2026-04-11T12:06:11.999Z</time></trkpt><trkpt lat="38.15283133234348" lon="15.264603750610188"><ele>99.5</ele><time>2026-04-11T12:06:12.999Z</time></trkpt><trkpt lat="38.1529734524203" lon="15.264586637103838"><ele>99.25</ele><time>2026-04-11T12:06:13.999Z</time></trkpt><trkpt lat="38.15309902188347" lon="15.264574767641236"><ele>99.0</ele><time>2026-04-11T12:06:14.999Z</time></trkpt><trkpt lat="38.153228241164" lon="15.264586894974364"><ele>98.25</ele><time>2026-04-11T12:06:15.999Z</time></trkpt><trkpt lat="38.1533646356576" lon="15.264578332450508"><ele>97.5</ele><time>2026-04-11T12:06:16.999Z</time></trkpt><trkpt lat="38.15350682319089" lon="15.264569406256053"><ele>96.75</ele><time>2026-04-11T12:06:17.999Z</time></trkpt><trkpt lat="38.153651546644554" lon="15.264560320857303"><ele>96.0</ele><time>2026-04-11T12:06:18.999Z</time></trkpt><trkpt lat="38.153800060962254" lon="15.264550286446307"><ele>96.0</ele><time>2026-04-11T12:06:19.999Z</time></trkpt><trkpt lat="38.15395283595793" lon="15.264538047560933"><ele>96.0</ele><time>2026-04-11T12:06:20.999Z</time></trkpt><trkpt lat="38.154098266587155" lon="15.264520127569332"><ele>96.0</ele><time>2026-04-11T12:06:21.999Z</time></trkpt><trkpt lat="38.15423699330522" lon="15.264494072640497"><ele>96.0</ele><time>2026-04-11T12:06:22.999Z</time></trkpt><trkpt lat="38.15437031463008" lon="15.264445415656242"><ele>95.75</ele><time>2026-04-11T12:06:23.999Z</time></trkpt><trkpt lat="38.15450653280571" lon="15.264425727728145"><ele>95.5</ele><time>2026-04-11T12:06:24.999Z</time></trkpt><trkpt lat="38.154644482641395" lon="15.264416591964308"><ele>95.25</ele><time>2026-04-11T12:06:25.999Z</time></trkpt><trkpt lat="38.154781869713275" lon="15.264445781246069"><ele>95.0</ele><time>2026-04-11T12:06:26.999Z</time></trkpt><trkpt lat="38.154905676968106" lon="15.264445267961475"><ele>95.0</ele><time>2026-04-11T12:06:27.999Z</time></trkpt><trkpt lat="38.15501632705833" lon="15.264428883503694"><ele>95.0</ele><time>2026-04-11T12:06:28.999Z</time></trkpt><trkpt lat="38.1551165727314" lon="15.264406021840038"><ele>95.0</ele><time>2026-04-11T12:06:29.999Z</time></trkpt><trkpt lat="38.15521534046707" lon="15.264378848981819"><ele>95.0</ele><time>2026-04-11T12:06:30.999Z</time></trkpt><trkpt lat="38.15530538197947" lon="15.264353764729096"><ele>95.0</ele><time>2026-04-11T12:06:31.999Z</time></trkpt><trkpt lat="38.15538699159553" lon="15.264319587605398"><ele>95.0</ele><time>2026-04-11T12:06:32.999Z</time></trkpt><trkpt lat="38.155448498105734" lon="15.264296304772694"><ele>95.0</ele><time>2026-04-11T12:06:33.999Z</time></trkpt><trkpt lat="38.15553843657564" lon="15.264276111592276"><ele>95.0</ele><time>2026-04-11T12:06:35.999Z</time></trkpt><trkpt lat="38.15563700935268" lon="15.264281314387372"><ele>95.0</ele><time>2026-04-11T12:06:37.999Z</time></trkpt><trkpt lat="38.15570455762272" lon="15.26429008544397"><ele>95.0</ele><time>2026-04-11T12:06:38.999Z</time></trkpt><trkpt lat="38.1557830330949" lon="15.264313873520278"><ele>95.0</ele><time>2026-04-11T12:06:39.999Z</time></trkpt><trkpt lat="38.15587909158404" lon="15.264322925574877"><ele>94.4</ele><time>2026-04-11T12:06:40.999Z</time></trkpt><trkpt lat="38.15597627440108" lon="15.264360405078843"><ele>93.8</ele><time>2026-04-11T12:06:41.999Z</time></trkpt><trkpt lat="38.15608485478223" lon="15.264392654070907"><ele>93.19999999999999</ele><time>2026-04-11T12:06:42.999Z</time></trkpt><trkpt lat="38.15618580111777" lon="15.264416629354686"><ele>92.6</ele><time>2026-04-11T12:06:43.999Z</time></trkpt><trkpt lat="38.156282858201756" lon="15.264430968277367"><ele>92.0</ele><time>2026-04-11T12:06:44.999Z</time></trkpt><trkpt lat="38.156380303438056" lon="15.264437881321282"><ele>92.0</ele><time>2026-04-11T12:06:45.999Z</time></trkpt><trkpt lat="38.15647809725499" lon="15.264439064145135"><ele>92.0</ele><time>2026-04-11T12:06:46.999Z</time></trkpt><trkpt lat="38.15658153808565" lon="15.264424670098876"><ele>92.0</ele><time>2026-04-11T12:06:47.999Z</time></trkpt><trkpt lat="38.15668961876201" lon="15.264397903742406"><ele>92.0</ele><time>2026-04-11T12:06:48.999Z</time></trkpt><trkpt lat="38.15680331025707" lon="15.26436234236748"><ele>92.0</ele><time>2026-04-11T12:06:49.999Z</time></trkpt><trkpt lat="38.15691854738109" lon="15.264309231872657"><ele>91.8</ele><time>2026-04-11T12:06:50.999Z</time></trkpt><trkpt lat="38.15702705983668" lon="15.264256944172276"><ele>91.6</ele><time>2026-04-11T12:06:51.999Z</time></trkpt><trkpt lat="38.15709704363861" lon="15.264226283628945"><ele>91.39999999999999</ele><time>2026-04-11T12:06:52.999Z</time></trkpt><trkpt lat="38.15718918940139" lon="15.26424421085692"><ele>91.19999999999999</ele><time>2026-04-11T12:06:53.999Z</time></trkpt><trkpt lat="38.15728285813861" lon="15.264247295051547"><ele>91.0</ele><time>2026-04-11T12:06:54.999Z</time></trkpt><trkpt lat="38.15738122562774" lon="15.264254405527383"><ele>91.0</ele><time>2026-04-11T12:06:55.999Z</time></trkpt><trkpt lat="38.15749571186671" lon="15.26426439488478"><ele>91.0</ele><time>2026-04-11T12:06:56.999Z</time></trkpt><trkpt lat="38.157616868575445" lon="15.26426853406032"><ele>91.0</ele><time>2026-04-11T12:06:57.999Z</time></trkpt><trkpt lat="38.15774477559369" lon="15.264267280310879"><ele>91.0</ele><time>2026-04-11T12:06:58.999Z</time></trkpt><trkpt lat="38.157865869165896" lon="15.26426075161439"><ele>91.0</ele><time>2026-04-11T12:06:59.999Z</time></trkpt><trkpt lat="38.157974944310126" lon="15.264240265881687"><ele>91.0</ele><time>2026-04-11T12:07:00.999Z</time></trkpt><trkpt lat="38.158081604484885" lon="15.264217359920979"><ele>91.0</ele><time>2026-04-11T12:07:02Z</time></trkpt><trkpt lat="38.15818822294827" lon="15.264194462897681"><ele>91.0</ele><time>2026-04-11T12:07:03Z</time></trkpt><trkpt lat="38.15829584908763" lon="15.264156401153146"><ele>91.0</ele><time>2026-04-11T12:07:04Z</time></trkpt><trkpt lat="38.15840839539953" lon="15.264146512981883"><ele>90.5</ele><time>2026-04-11T12:07:05Z</time></trkpt><trkpt lat="38.15852730648598" lon="15.26415769158242"><ele>90.0</ele><time>2026-04-11T12:07:06Z</time></trkpt><trkpt lat="38.15864901907798" lon="15.26414250066959"><ele>89.5</ele><time>2026-04-11T12:07:07Z</time></trkpt><trkpt lat="38.15877958289336" lon="15.264145188614608"><ele>89.0</ele><time>2026-04-11T12:07:08Z</time></trkpt><trkpt lat="38.158909889207905" lon="15.264164418685521"><ele>89.0</ele><time>2026-04-11T12:07:09Z</time></trkpt><trkpt lat="38.15904987216396" lon="15.264165647414206"><ele>89.0</ele><time>2026-04-11T12:07:10Z</time></trkpt><trkpt lat="38.159194121048756" lon="15.264148527999797"><ele>89.0</ele><time>2026-04-11T12:07:11Z</time></trkpt><trkpt lat="38.159335765054365" lon="15.26415307457609"><ele>89.0</ele><time>2026-04-11T12:07:12Z</time></trkpt><trkpt lat="38.15946415139569" lon="15.26415991743699"><ele>89.0</ele><time>2026-04-11T12:07:13Z</time></trkpt><trkpt lat="38.15958300980045" lon="15.264166918906424"><ele>89.0</ele><time>2026-04-11T12:07:14Z</time></trkpt><trkpt lat="38.159704601491434" lon="15.264173767710933"><ele>89.0</ele><time>2026-04-11T12:07:15Z</time></trkpt><trkpt lat="38.15982138093246" lon="15.264198919533499"><ele>89.0</ele><time>2026-04-11T12:07:16Z</time></trkpt><trkpt lat="38.15993376031728" lon="15.264199877225519"><ele>89.0</ele><time>2026-04-11T12:07:17Z</time></trkpt><trkpt lat="38.16004627662225" lon="15.264191457051659"><ele>89.0</ele><time>2026-04-11T12:07:18Z</time></trkpt><trkpt lat="38.16015645388587" lon="15.264161419632027"><ele>89.0</ele><time>2026-04-11T12:07:19Z</time></trkpt><trkpt lat="38.16025029884402" lon="15.264134881497636"><ele>89.0</ele><time>2026-04-11T12:07:20Z</time></trkpt><trkpt lat="38.16033185956854" lon="15.264109658488488"><ele>89.0</ele><time>2026-04-11T12:07:21Z</time></trkpt><trkpt lat="38.16040545868987" lon="15.264087342449734"><ele>89.0</ele><time>2026-04-11T12:07:22Z</time></trkpt><trkpt lat="38.16048537126568" lon="15.264065958828867"><ele>89.0</ele><time>2026-04-11T12:07:23Z</time></trkpt><trkpt lat="38.16056858737721" lon="15.264059659878969"><ele>89.0</ele><time>2026-04-11T12:07:24Z</time></trkpt><trkpt lat="38.16066159873034" lon="15.264058333618605"><ele>89.0</ele><time>2026-04-11T12:07:25Z</time></trkpt><trkpt lat="38.16075821576236" lon="15.264065217889048"><ele>89.0</ele><time>2026-04-11T12:07:26Z</time></trkpt><trkpt lat="38.16084454098234" lon="15.264078161890327"><ele>89.0</ele><time>2026-04-11T12:07:27Z</time></trkpt><trkpt lat="38.16093244398903" lon="15.264097746916786"><ele>88.80000000000001</ele><time>2026-04-11T12:07:28Z</time></trkpt><trkpt lat="38.16102648508434" lon="15.264124961165576"><ele>88.60000000000001</ele><time>2026-04-11T12:07:29Z</time></trkpt><trkpt lat="38.16113067609499" lon="15.264160960799373"><ele>88.4</ele><time>2026-04-11T12:07:30Z</time></trkpt><trkpt lat="38.161245465197965" lon="15.264193663147047"><ele>88.2</ele><time>2026-04-11T12:07:31Z</time></trkpt><trkpt lat="38.16136320150369" lon="15.264211678602663"><ele>88.0</ele><time>2026-04-11T12:07:32Z</time></trkpt><trkpt lat="38.16147862351864" lon="15.264220274869135"><ele>87.60000000000001</ele><time>2026-04-11T12:07:33Z</time></trkpt><trkpt lat="38.16159093417199" lon="15.264225923174905"><ele>87.2</ele><time>2026-04-11T12:07:34Z</time></trkpt><trkpt lat="38.1617038953156" lon="15.264229865044761"><ele>86.8</ele><time>2026-04-11T12:07:35Z</time></trkpt><trkpt lat="38.16180756258594" lon="15.264235557876711"><ele>86.4</ele><time>2026-04-11T12:07:36Z</time></trkpt><trkpt lat="38.16190202582914" lon="15.264230861509535"><ele>86.0</ele><time>2026-04-11T12:07:37Z</time></trkpt><trkpt lat="38.16197380139644" lon="15.264248227912177"><ele>86.0</ele><time>2026-04-11T12:07:38Z</time></trkpt><trkpt lat="38.162052114678254" lon="15.2643071899514"><ele>86.0</ele><time>2026-04-11T12:07:40Z</time></trkpt><trkpt lat="38.16210699557787" lon="15.264387448578125"><ele>86.0</ele><time>2026-04-11T12:07:43Z</time></trkpt><trkpt lat="38.16214055896084" lon="15.26446554119926"><ele>86.0</ele><time>2026-04-11T12:07:49Z</time></trkpt><trkpt lat="38.162139428115694" lon="15.264581505540988"><ele>86.0</ele><time>2026-04-11T12:08:10Z</time></trkpt><trkpt lat="38.162111338379006" lon="15.264684417559028"><ele>86.0</ele><time>2026-04-11T12:08:12Z</time></trkpt><trkpt lat="38.16204248639291" lon="15.264788320627268"><ele>86.19999999999999</ele><time>2026-04-11T12:08:14Z</time></trkpt><trkpt lat="38.161966632536476" lon="15.264854943282588"><ele>86.39999999999999</ele><time>2026-04-11T12:08:16Z</time></trkpt><trkpt lat="38.16186119087448" lon="15.264919777304709"><ele>86.6</ele><time>2026-04-11T12:08:18Z</time></trkpt><trkpt lat="38.161797305157435" lon="15.264954002371988"><ele>86.8</ele><time>2026-04-11T12:08:19Z</time></trkpt><trkpt lat="38.16170810215751" lon="15.26499784411095"><ele>87.0</ele><time>2026-04-11T12:08:20.999Z</time></trkpt><trkpt lat="38.161642086491504" lon="15.265051510209515"><ele>87.0</ele><time>2026-04-11T12:08:23.999Z</time></trkpt><trkpt lat="38.16160935345085" lon="15.265125209247993"><ele>87.0</ele><time>2026-04-11T12:08:27.999Z</time></trkpt><trkpt lat="38.16172347772645" lon="15.26512756815381"><ele>87.0</ele><time>2026-04-11T12:08:29.999Z</time></trkpt><trkpt lat="38.161830108462375" lon="15.265039830401292"><ele>87.0</ele><time>2026-04-11T12:08:31.999Z</time></trkpt><trkpt lat="38.16190158664366" lon="15.264994461110174"><ele>87.0</ele><time>2026-04-11T12:08:32.999Z</time></trkpt><trkpt lat="38.16198616676887" lon="15.26493650037469"><ele>87.0</ele><time>2026-04-11T12:08:33.999Z</time></trkpt><trkpt lat="38.1620776745755" lon="15.264878777807732"><ele>87.0</ele><time>2026-04-11T12:08:34.999Z</time></trkpt><trkpt lat="38.162173612878874" lon="15.264813126529148"><ele>87.0</ele><time>2026-04-11T12:08:35.999Z</time></trkpt><trkpt lat="38.16226747849998" lon="15.26474070201496"><ele>87.0</ele><time>2026-04-11T12:08:36.999Z</time></trkpt><trkpt lat="38.16236166436239" lon="15.264666788995942"><ele>87.0</ele><time>2026-04-11T12:08:37.999Z</time></trkpt><trkpt lat="38.16245574416774" lon="15.26458951609258"><ele>86.0</ele><time>2026-04-11T12:08:38.999Z</time></trkpt><trkpt lat="38.162548973802146" lon="15.264505747050102"><ele>85.0</ele><time>2026-04-11T12:08:39.999Z</time></trkpt><trkpt lat="38.16264339208273" lon="15.264408974002139"><ele>84.0</ele><time>2026-04-11T12:08:40.999Z</time></trkpt><trkpt lat="38.16274006139395" lon="15.264299111768047"><ele>83.0</ele><time>2026-04-11T12:08:41.999Z</time></trkpt><trkpt lat="38.16283813780125" lon="15.26419316694336"><ele>83.0</ele><time>2026-04-11T12:08:42.999Z</time></trkpt><trkpt lat="38.162939869039235" lon="15.264081878963369"><ele>83.0</ele><time>2026-04-11T12:08:43.999Z</time></trkpt><trkpt lat="38.16304908046212" lon="15.263965684279844"><ele>83.0</ele><time>2026-04-11T12:08:44.999Z</time></trkpt><trkpt lat="38.163148477615806" lon="15.263851769400292"><ele>83.0</ele><time>2026-04-11T12:08:45.999Z</time></trkpt><trkpt lat="38.16323745571201" lon="15.26375066069849"><ele>82.25</ele><time>2026-04-11T12:08:46.999Z</time></trkpt><trkpt lat="38.16332482969453" lon="15.263664938268983"><ele>81.5</ele><time>2026-04-11T12:08:47.999Z</time></trkpt><trkpt lat="38.16341032247624" lon="15.2635625909442"><ele>80.75</ele><time>2026-04-11T12:08:48.999Z</time></trkpt><trkpt lat="38.16351493034833" lon="15.263459473996479"><ele>80.0</ele><time>2026-04-11T12:08:49.999Z</time></trkpt><trkpt lat="38.16363961193838" lon="15.263343175109734"><ele>80.0</ele><time>2026-04-11T12:08:50.999Z</time></trkpt><trkpt lat="38.16374830009966" lon="15.26324507792247"><ele>80.0</ele><time>2026-04-11T12:08:51.999Z</time></trkpt><trkpt lat="38.16384132441144" lon="15.263161688017412"><ele>80.0</ele><time>2026-04-11T12:08:52.999Z</time></trkpt><trkpt lat="38.16392263016541" lon="15.263085840096185"><ele>80.0</ele><time>2026-04-11T12:08:53.999Z</time></trkpt><trkpt lat="38.16400642945752" lon="15.263015448676652"><ele>80.0</ele><time>2026-04-11T12:08:54.999Z</time></trkpt><trkpt lat="38.16409834847168" lon="15.262949750121683"><ele>79.0</ele><time>2026-04-11T12:08:55.999Z</time></trkpt><trkpt lat="38.1641997086466" lon="15.262885123708992"><ele>78.0</ele><time>2026-04-11T12:08:56.999Z</time></trkpt><trkpt lat="38.1643081867242" lon="15.262817606000294"><ele>77.0</ele><time>2026-04-11T12:08:57.999Z</time></trkpt><trkpt lat="38.164426368141555" lon="15.262760330906836"><ele>76.0</ele><time>2026-04-11T12:08:58.999Z</time></trkpt><trkpt lat="38.164527245727506" lon="15.262672610698774"><ele>76.0</ele><time>2026-04-11T12:08:59.999Z</time></trkpt><trkpt lat="38.16462455053705" lon="15.262610840770334"><ele>76.0</ele><time>2026-04-11T12:09:00.999Z</time></trkpt><trkpt lat="38.16472547738561" lon="15.262544651907374"><ele>76.0</ele><time>2026-04-11T12:09:01.999Z</time></trkpt><trkpt lat="38.164828488276505" lon="15.262470045686223"><ele>76.0</ele><time>2026-04-11T12:09:02.999Z</time></trkpt><trkpt lat="38.164929207118774" lon="15.262381291387157"><ele>76.5</ele><time>2026-04-11T12:09:03.999Z</time></trkpt><trkpt lat="38.16503100252485" lon="15.262287097055049"><ele>77.0</ele><time>2026-04-11T12:09:04.999Z</time></trkpt><trkpt lat="38.16512718555398" lon="15.262191300418293"><ele>77.5</ele><time>2026-04-11T12:09:05.999Z</time></trkpt><trkpt lat="38.16522506570986" lon="15.262100571811352"><ele>78.0</ele><time>2026-04-11T12:09:06.999Z</time></trkpt><trkpt lat="38.16532249786596" lon="15.262008919471995"><ele>78.0</ele><time>2026-04-11T12:09:08Z</time></trkpt><trkpt lat="38.165423166958924" lon="15.26192447988843"><ele>78.0</ele><time>2026-04-11T12:09:09Z</time></trkpt><trkpt lat="38.16552875432419" lon="15.261840628570576"><ele>78.0</ele><time>2026-04-11T12:09:10Z</time></trkpt><trkpt lat="38.16562835449458" lon="15.261753178488307"><ele>78.0</ele><time>2026-04-11T12:09:11Z</time></trkpt><trkpt lat="38.165727189818504" lon="15.261660873554856"><ele>77.25</ele><time>2026-04-11T12:09:12Z</time></trkpt><trkpt lat="38.16582246402135" lon="15.261571594871535"><ele>76.5</ele><time>2026-04-11T12:09:13Z</time></trkpt><trkpt lat="38.1659172463336" lon="15.261482527316396"><ele>75.75</ele><time>2026-04-11T12:09:14Z</time></trkpt><trkpt lat="38.16601103529622" lon="15.261396868634343"><ele>75.0</ele><time>2026-04-11T12:09:15Z</time></trkpt><trkpt lat="38.166104935469725" lon="15.261314592632823"><ele>74.8</ele><time>2026-04-11T12:09:16Z</time></trkpt><trkpt lat="38.166197408619084" lon="15.26123723301177"><ele>74.6</ele><time>2026-04-11T12:09:17Z</time></trkpt><trkpt lat="38.166287055224885" lon="15.26116152120128"><ele>74.4</ele><time>2026-04-11T12:09:18Z</time></trkpt><trkpt lat="38.16637550322664" lon="15.26108391943275"><ele>74.2</ele><time>2026-04-11T12:09:19Z</time></trkpt><trkpt lat="38.16646420873181" lon="15.2610079470821"><ele>74.0</ele><time>2026-04-11T12:09:20Z</time></trkpt><trkpt lat="38.166548592631806" lon="15.260940159472783"><ele>73.75</ele><time>2026-04-11T12:09:21Z</time></trkpt><trkpt lat="38.16662954777773" lon="15.260875445285302"><ele>73.5</ele><time>2026-04-11T12:09:22Z</time></trkpt><trkpt lat="38.16672089227076" lon="15.260802034241314"><ele>73.25</ele><time>2026-04-11T12:09:23Z</time></trkpt><trkpt lat="38.16682384224164" lon="15.2607191838907"><ele>73.0</ele><time>2026-04-11T12:09:24Z</time></trkpt><trkpt lat="38.16693157541023" lon="15.260631346178746"><ele>73.0</ele><time>2026-04-11T12:09:25Z</time></trkpt><trkpt lat="38.16704058607581" lon="15.260548028745944"><ele>73.0</ele><time>2026-04-11T12:09:26Z</time></trkpt><trkpt lat="38.16715044863298" lon="15.260473848208116"><ele>73.0</ele><time>2026-04-11T12:09:27Z</time></trkpt><trkpt lat="38.16725943845918" lon="15.260403578827383"><ele>73.0</ele><time>2026-04-11T12:09:28Z</time></trkpt><trkpt lat="38.16735755917598" lon="15.260331793290815"><ele>72.75</ele><time>2026-04-11T12:09:29Z</time></trkpt><trkpt lat="38.167448077816594" lon="15.260259067369532"><ele>72.5</ele><time>2026-04-11T12:09:30Z</time></trkpt><trkpt lat="38.167541108744736" lon="15.260163523251634"><ele>72.25</ele><time>2026-04-11T12:09:31Z</time></trkpt><trkpt lat="38.16762658554249" lon="15.260062935258043"><ele>72.0</ele><time>2026-04-11T12:09:32Z</time></trkpt><trkpt lat="38.167703328093" lon="15.259965432270176"><ele>72.0</ele><time>2026-04-11T12:09:33Z</time></trkpt><trkpt lat="38.167774372566875" lon="15.25986876283545"><ele>72.0</ele><time>2026-04-11T12:09:34Z</time></trkpt><trkpt lat="38.167850443542626" lon="15.259767497131815"><ele>72.0</ele><time>2026-04-11T12:09:35Z</time></trkpt><trkpt lat="38.16792865133809" lon="15.259667664941858"><ele>72.0</ele><time>2026-04-11T12:09:36Z</time></trkpt><trkpt lat="38.16800887665322" lon="15.259565079372738"><ele>72.0</ele><time>2026-04-11T12:09:37Z</time></trkpt><trkpt lat="38.16809221912099" lon="15.25945945653353"><ele>71.75</ele><time>2026-04-11T12:09:38Z</time></trkpt><trkpt lat="38.16817753743121" lon="15.259350599988807"><ele>71.5</ele><time>2026-04-11T12:09:39Z</time></trkpt><trkpt lat="38.168266786037385" lon="15.259244222482101"><ele>71.25</ele><time>2026-04-11T12:09:40Z</time></trkpt><trkpt lat="38.168343679188744" lon="15.259142838898148"><ele>71.0</ele><time>2026-04-11T12:09:41Z</time></trkpt><trkpt lat="38.16841435270324" lon="15.259038183361572"><ele>70.25</ele><time>2026-04-11T12:09:42Z</time></trkpt><trkpt lat="38.16848780757264" lon="15.25892927559402"><ele>69.5</ele><time>2026-04-11T12:09:43Z</time></trkpt><trkpt lat="38.16856821415616" lon="15.258819523862599"><ele>68.75</ele><time>2026-04-11T12:09:44Z</time></trkpt><trkpt lat="38.16865133716655" lon="15.258697861408182"><ele>68.0</ele><time>2026-04-11T12:09:45Z</time></trkpt><trkpt lat="38.16872985463278" lon="15.258567019629748"><ele>68.0</ele><time>2026-04-11T12:09:46Z</time></trkpt><trkpt lat="38.16880538896576" lon="15.258443728305192"><ele>68.0</ele><time>2026-04-11T12:09:47Z</time></trkpt><trkpt lat="38.168872683002405" lon="15.258358278432093"><ele>68.0</ele><time>2026-04-11T12:09:48Z</time></trkpt><trkpt lat="38.16895269654127" lon="15.258269148699181"><ele>68.0</ele><time>2026-04-11T12:09:50Z</time></trkpt><trkpt lat="38.16900032388694" lon="15.258205072987048"><ele>68.0</ele><time>2026-04-11T12:09:53Z</time></trkpt><trkpt lat="38.1690926458863" lon="15.258151065747976"><ele>67.75</ele><time>2026-04-11T12:10:13Z</time></trkpt><trkpt lat="38.16916486927018" lon="15.258089427225539"><ele>67.5</ele><time>2026-04-11T12:10:14Z</time></trkpt><trkpt lat="38.16925363264444" lon="15.258017028444257"><ele>67.25</ele><time>2026-04-11T12:10:15Z</time></trkpt><trkpt lat="38.169363063749024" lon="15.25791625945175"><ele>67.0</ele><time>2026-04-11T12:10:16Z</time></trkpt><trkpt lat="38.1694845482063" lon="15.257820912151704"><ele>67.0</ele><time>2026-04-11T12:10:17Z</time></trkpt><trkpt lat="38.1696198337664" lon="15.257717512681934"><ele>67.0</ele><time>2026-04-11T12:10:18Z</time></trkpt><trkpt lat="38.169740316692916" lon="15.257627399653385"><ele>67.0</ele><time>2026-04-11T12:10:19Z</time></trkpt><trkpt lat="38.16984629003814" lon="15.257545441703314"><ele>67.0</ele><time>2026-04-11T12:10:20Z</time></trkpt><trkpt lat="38.1699492288316" lon="15.257467945864116"><ele>66.75</ele><time>2026-04-11T12:10:21Z</time></trkpt><trkpt lat="38.17004631923632" lon="15.25739025357458"><ele>66.5</ele><time>2026-04-11T12:10:22Z</time></trkpt><trkpt lat="38.17014644998053" lon="15.257294679152592"><ele>66.25</ele><time>2026-04-11T12:10:23Z</time></trkpt><trkpt lat="38.17024632936974" lon="15.257184561371401"><ele>66.0</ele><time>2026-04-11T12:10:23.999Z</time></trkpt><trkpt lat="38.17033103251655" lon="15.257087897776598"><ele>66.0</ele><time>2026-04-11T12:10:24.999Z</time></trkpt><trkpt lat="38.17042352614135" lon="15.256986278425101"><ele>66.0</ele><time>2026-04-11T12:10:25.999Z</time></trkpt><trkpt lat="38.17050736242245" lon="15.25688211345441"><ele>66.0</ele><time>2026-04-11T12:10:26.999Z</time></trkpt><trkpt lat="38.17058172037349" lon="15.25678977007734"><ele>66.0</ele><time>2026-04-11T12:10:27.999Z</time></trkpt><trkpt lat="38.1706350556616" lon="15.256714075399655"><ele>66.0</ele><time>2026-04-11T12:10:28.999Z</time></trkpt><trkpt lat="38.170676512209134" lon="15.256653717516743"><ele>66.16666666666667</ele><time>2026-04-11T12:10:29.999Z</time></trkpt><trkpt lat="38.17072692381197" lon="15.256580342707664"><ele>66.33333333333333</ele><time>2026-04-11T12:10:31.999Z</time></trkpt><trkpt lat="38.170730507446386" lon="15.256499883942494"><ele>66.5</ele><time>2026-04-11T12:10:34.999Z</time></trkpt><trkpt lat="38.17068240155328" lon="15.256435933887563"><ele>66.66666666666666</ele><time>2026-04-11T12:10:36.999Z</time></trkpt><trkpt lat="38.170601941744444" lon="15.256350990892434"><ele>66.83333333333333</ele><time>2026-04-11T12:10:38.999Z</time></trkpt><trkpt lat="38.170542521108864" lon="15.256299470022233"><ele>67.0</ele><time>2026-04-11T12:10:39.999Z</time></trkpt><trkpt lat="38.17045927544814" lon="15.256228583933082"><ele>67.0</ele><time>2026-04-11T12:10:41.999Z</time></trkpt><trkpt lat="38.17048255249646" lon="15.25613532572719"><ele>67.0</ele><time>2026-04-11T12:10:43.999Z</time></trkpt><trkpt lat="38.17042601508279" lon="15.256195046020922"><ele>67.0</ele><time>2026-04-11T12:11:15Z</time></trkpt></trkseg><trkseg><trkpt lat="38.09120637550526" lon="15.294650320455716"><ele>335.0</ele><time>2026-04-11T12:57:50.033Z</time></trkpt><trkpt lat="38.09116258241231" lon="15.294745802669638"><ele>335.0</ele><time>2026-04-11T12:58:04.033Z</time></trkpt><trkpt lat="38.091118053718176" lon="15.29480424989867"><ele>335.0</ele><time>2026-04-11T12:58:06.033Z</time></trkpt><trkpt lat="38.091054698507016" lon="15.294809316213184"><ele>335.0</ele><time>2026-04-11T12:58:08.033Z</time></trkpt><trkpt lat="38.09097534389263" lon="15.294792645967801"><ele>335.0</ele><time>2026-04-11T12:58:10.002Z</time></trkpt><trkpt lat="38.090851285945746" lon="15.294816770049781"><ele>335.0</ele><time>2026-04-11T12:58:12.002Z</time></trkpt><trkpt lat="38.09073396958995" lon="15.294866029533098"><ele>334.1666666666667</ele><time>2026-04-11T12:58:14.003Z</time></trkpt><trkpt lat="38.0906382160597" lon="15.294894317306355"><ele>333.33333333333337</ele><time>2026-04-11T12:58:16.003Z</time></trkpt><trkpt lat="38.09053018903289" lon="15.294945893084181"><ele>332.5</ele><time>2026-04-11T12:58:18.003Z</time></trkpt><trkpt lat="38.09046767837833" lon="15.29497203498165"><ele>331.6666666666667</ele><time>2026-04-11T12:58:19.003Z</time></trkpt><trkpt lat="38.090403792506194" lon="15.294991438912948"><ele>330.8333333333333</ele><time>2026-04-11T12:58:20.003Z</time></trkpt><trkpt lat="38.0903065554543" lon="15.295032612018721"><ele>330.0</ele><time>2026-04-11T12:58:22.003Z</time></trkpt><trkpt lat="38.09020312534584" lon="15.29506831853434"><ele>330.0</ele><time>2026-04-11T12:58:24.003Z</time></trkpt><trkpt lat="38.090103489279734" lon="15.295103617718695"><ele>330.0</ele><time>2026-04-11T12:58:26.003Z</time></trkpt><trkpt lat="38.090009275717996" lon="15.295159600088848"><ele>330.0</ele><time>2026-04-11T12:58:28.003Z</time></trkpt><trkpt lat="38.08991233821445" lon="15.29523438297132"><ele>330.0</ele><time>2026-04-11T12:58:30.003Z</time></trkpt><trkpt lat="38.089811081820734" lon="15.295290943671727"><ele>330.0</ele><time>2026-04-11T12:58:32.003Z</time></trkpt><trkpt lat="38.0897206531976" lon="15.295355992516065"><ele>331.8</ele><time>2026-04-11T12:58:34.003Z</time></trkpt><trkpt lat="38.08964367206164" lon="15.295435195827103"><ele>333.6</ele><time>2026-04-11T12:58:36.003Z</time></trkpt><trkpt lat="38.08957337198081" lon="15.295532600600547"><ele>335.4</ele><time>2026-04-11T12:58:38.003Z</time></trkpt><trkpt lat="38.08949967592395" lon="15.295647900453783"><ele>337.2</ele><time>2026-04-11T12:58:40.003Z</time></trkpt><trkpt lat="38.089408437506755" lon="15.295736312098715"><ele>339.0</ele><time>2026-04-11T12:58:42.003Z</time></trkpt><trkpt lat="38.089325768586534" lon="15.295801953942496"><ele>339.3333333333333</ele><time>2026-04-11T12:58:44.003Z</time></trkpt><trkpt lat="38.08923132588871" lon="15.295889785320355"><ele>339.6666666666667</ele><time>2026-04-11T12:58:46.003Z</time></trkpt><trkpt lat="38.089130887970086" lon="15.295948844815657"><ele>340.0</ele><time>2026-04-11T12:58:48.003Z</time></trkpt><trkpt lat="38.089064640256154" lon="15.295993343752402"><ele>340.33333333333337</ele><time>2026-04-11T12:58:49.003Z</time></trkpt><trkpt lat="38.08899707167806" lon="15.29602847804772"><ele>340.6666666666667</ele><time>2026-04-11T12:58:50.003Z</time></trkpt><trkpt lat="38.08893677077348" lon="15.296071645969972"><ele>341.0</ele><time>2026-04-11T12:58:51.003Z</time></trkpt><trkpt lat="38.08887588242804" lon="15.29610589394162"><ele>341.0</ele><time>2026-04-11T12:58:52.003Z</time></trkpt><trkpt lat="38.08880833503854" lon="15.296146072751004"><ele>341.0</ele><time>2026-04-11T12:58:53.003Z</time></trkpt><trkpt lat="38.088744683183805" lon="15.296209251552696"><ele>341.0</ele><time>2026-04-11T12:58:54.003Z</time></trkpt><trkpt lat="38.08868702210654" lon="15.296276596116295"><ele>341.0</ele><time>2026-04-11T12:58:55.003Z</time></trkpt><trkpt lat="38.0886119177245" lon="15.296309792481196"><ele>341.0</ele><time>2026-04-11T12:58:56.003Z</time></trkpt><trkpt lat="38.08852783659256" lon="15.296332404908483"><ele>341.0</ele><time>2026-04-11T12:58:57.003Z</time></trkpt><trkpt lat="38.08845374930027" lon="15.296350167477637"><ele>341.0</ele><time>2026-04-11T12:58:58.003Z</time></trkpt><trkpt lat="38.088390511592664" lon="15.296373277854697"><ele>341.0</ele><time>2026-04-11T12:58:59.003Z</time></trkpt><trkpt lat="38.088269260798924" lon="15.296406643763667"><ele>341.0</ele><time>2026-04-11T12:59:01.003Z</time></trkpt><trkpt lat="38.08813774894393" lon="15.296428402228736"><ele>341.0</ele><time>2026-04-11T12:59:03.003Z</time></trkpt><trkpt lat="38.08802269430503" lon="15.296453043836454"><ele>341.0</ele><time>2026-04-11T12:59:05.003Z</time></trkpt><trkpt lat="38.08796054675353" lon="15.29647277957232"><ele>341.8</ele><time>2026-04-11T12:59:06.003Z</time></trkpt><trkpt lat="38.087900758746414" lon="15.296502188808649"><ele>342.6</ele><time>2026-04-11T12:59:07.003Z</time></trkpt><trkpt lat="38.08778625753183" lon="15.296582894201835"><ele>343.4</ele><time>2026-04-11T12:59:09.003Z</time></trkpt><trkpt lat="38.0876849193303" lon="15.296650002064304"><ele>344.2</ele><time>2026-04-11T12:59:11.003Z</time></trkpt><trkpt lat="38.08757220413496" lon="15.29671034255134"><ele>345.0</ele><time>2026-04-11T12:59:13.003Z</time></trkpt><trkpt lat="38.08751063792531" lon="15.29674237076657"><ele>345.0</ele><time>2026-04-11T12:59:14.003Z</time></trkpt><trkpt lat="38.087446804277235" lon="15.296772888967997"><ele>345.0</ele><time>2026-04-11T12:59:15.003Z</time></trkpt><trkpt lat="38.08737845176854" lon="15.296800857607117"><ele>345.0</ele><time>2026-04-11T12:59:16.003Z</time></trkpt><trkpt lat="38.087309692586565" lon="15.296830037347062"><ele>345.0</ele><time>2026-04-11T12:59:17.003Z</time></trkpt><trkpt lat="38.08724121262107" lon="15.296868553136092"><ele>345.0</ele><time>2026-04-11T12:59:18.003Z</time></trkpt><trkpt lat="38.08718026125236" lon="15.296904425829693"><ele>345.0</ele><time>2026-04-11T12:59:19.002Z</time></trkpt><trkpt lat="38.08711934739636" lon="15.29694564390937"><ele>345.0</ele><time>2026-04-11T12:59:20.002Z</time></trkpt><trkpt lat="38.08705859821384" lon="15.296987138662903"><ele>345.57142857142856</ele><time>2026-04-11T12:59:21.002Z</time></trkpt><trkpt lat="38.086998275488774" lon="15.297031943709719"><ele>346.1428571428571</ele><time>2026-04-11T12:59:22.002Z</time></trkpt><trkpt lat="38.08694026165575" lon="15.297067820366024"><ele>346.71428571428567</ele><time>2026-04-11T12:59:23.002Z</time></trkpt><trkpt lat="38.086879917609735" lon="15.297100786838168"><ele>347.2857142857143</ele><time>2026-04-11T12:59:24.002Z</time></trkpt><trkpt lat="38.08681402975884" lon="15.297132778670504"><ele>347.85714285714283</ele><time>2026-04-11T12:59:25.002Z</time></trkpt><trkpt lat="38.08675179568351" lon="15.297156005646443"><ele>348.4285714285714</ele><time>2026-04-11T12:59:26.002Z</time></trkpt><trkpt lat="38.08668345147222" lon="15.297178225753372"><ele>349.0</ele><time>2026-04-11T12:59:27.002Z</time></trkpt><trkpt lat="38.08662029589171" lon="15.297206288200044"><ele>350.6</ele><time>2026-04-11T12:59:28.002Z</time></trkpt><trkpt lat="38.08656149454807" lon="15.297236636652498"><ele>352.2</ele><time>2026-04-11T12:59:29.002Z</time></trkpt><trkpt lat="38.086452565905766" lon="15.297299356227974"><ele>353.8</ele><time>2026-04-11T12:59:31.002Z</time></trkpt><trkpt lat="38.08634216226939" lon="15.297362598383668"><ele>355.40000000000003</ele><time>2026-04-11T12:59:33.002Z</time></trkpt><trkpt lat="38.08624573616226" lon="15.297412069932108"><ele>357.0</ele><time>2026-04-11T12:59:35.002Z</time></trkpt><trkpt lat="38.0861561504378" lon="15.297432787000332"><ele>357.0</ele><time>2026-04-11T12:59:37.002Z</time></trkpt><trkpt lat="38.086046585590296" lon="15.297445725417392"><ele>357.0</ele><time>2026-04-11T12:59:39.002Z</time></trkpt><trkpt lat="38.085977719701404" lon="15.297455042125733"><ele>357.0</ele><time>2026-04-11T12:59:40.002Z</time></trkpt><trkpt lat="38.08591263108927" lon="15.29745445266213"><ele>357.0</ele><time>2026-04-11T12:59:41.002Z</time></trkpt><trkpt lat="38.085846949462784" lon="15.297458051331441"><ele>357.0</ele><time>2026-04-11T12:59:42.002Z</time></trkpt><trkpt lat="38.08577563680777" lon="15.297456806901577"><ele>357.0</ele><time>2026-04-11T12:59:43.002Z</time></trkpt><trkpt lat="38.085703329565895" lon="15.29745513659612"><ele>357.3333333333333</ele><time>2026-04-11T12:59:44.002Z</time></trkpt><trkpt lat="38.085626616601026" lon="15.297448643444854"><ele>357.6666666666667</ele><time>2026-04-11T12:59:45.002Z</time></trkpt><trkpt lat="38.08555632606928" lon="15.297447515708027"><ele>358.0</ele><time>2026-04-11T12:59:46.002Z</time></trkpt><trkpt lat="38.08549201480135" lon="15.297448183522881"><ele>358.33333333333337</ele><time>2026-04-11T12:59:47.002Z</time></trkpt><trkpt lat="38.085383408026736" lon="15.297471882171735"><ele>358.6666666666667</ele><time>2026-04-11T12:59:49.002Z</time></trkpt><trkpt lat="38.08528881789114" lon="15.297512956605354"><ele>359.0</ele><time>2026-04-11T12:59:51.002Z</time></trkpt><trkpt lat="38.085211288199865" lon="15.297574439794348"><ele>359.0</ele><time>2026-04-11T12:59:53.002Z</time></trkpt><trkpt lat="38.08513829991195" lon="15.297640170502119"><ele>359.0</ele><time>2026-04-11T12:59:55.003Z</time></trkpt><trkpt lat="38.08506924281571" lon="15.297728673611896"><ele>359.0</ele><time>2026-04-11T12:59:57.003Z</time></trkpt><trkpt lat="38.084994755812545" lon="15.29780295853816"><ele>359.0</ele><time>2026-04-11T12:59:59.003Z</time></trkpt><trkpt lat="38.084893938307836" lon="15.297870924501641"><ele>359.0</ele><time>2026-04-11T13:00:01.002Z</time></trkpt><trkpt lat="38.08483730495037" lon="15.29791727170294"><ele>359.33333333333337</ele><time>2026-04-11T13:00:02.002Z</time></trkpt><trkpt lat="38.084774259572576" lon="15.297961892262677"><ele>359.6666666666667</ele><time>2026-04-11T13:00:03.002Z</time></trkpt><trkpt lat="38.084716182165806" lon="15.298016243891775"><ele>360.0</ele><time>2026-04-11T13:00:04.002Z</time></trkpt><trkpt lat="38.084659207551574" lon="15.298060134102373"><ele>360.3333333333333</ele><time>2026-04-11T13:00:05.002Z</time></trkpt><trkpt lat="38.084596009038066" lon="15.298115742506162"><ele>360.66666666666663</ele><time>2026-04-11T13:00:06.002Z</time></trkpt><trkpt lat="38.08451134194928" lon="15.298185619430035"><ele>361.0</ele><time>2026-04-11T13:00:08.002Z</time></trkpt><trkpt lat="38.0844298707809" lon="15.298214502396837"><ele>361.0</ele><time>2026-04-11T13:00:11.001Z</time></trkpt><trkpt lat="38.084342663118164" lon="15.29821107462237"><ele>361.0</ele><time>2026-04-11T13:00:13.001Z</time></trkpt><trkpt lat="38.08423365997413" lon="15.298200182632657"><ele>361.0</ele><time>2026-04-11T13:00:15.001Z</time></trkpt><trkpt lat="38.084168242285784" lon="15.298194386610339"><ele>361.0</ele><time>2026-04-11T13:00:16.001Z</time></trkpt><trkpt lat="38.084094283340846" lon="15.298188958047144"><ele>361.0</ele><time>2026-04-11T13:00:17.001Z</time></trkpt><trkpt lat="38.08400984580357" lon="15.298183949406713"><ele>361.0</ele><time>2026-04-11T13:00:18.001Z</time></trkpt><trkpt lat="38.08393308885322" lon="15.29818467471177"><ele>361.2857142857143</ele><time>2026-04-11T13:00:19.001Z</time></trkpt><trkpt lat="38.08386056605476" lon="15.298193814346238"><ele>361.57142857142856</ele><time>2026-04-11T13:00:20.001Z</time></trkpt><trkpt lat="38.0837971370519" lon="15.298218912221463"><ele>361.85714285714283</ele><time>2026-04-11T13:00:21.001Z</time></trkpt><trkpt lat="38.08372493795972" lon="15.298256852371132"><ele>362.1428571428571</ele><time>2026-04-11T13:00:22.001Z</time></trkpt><trkpt lat="38.08365792842651" lon="15.298282794273318"><ele>362.42857142857144</ele><time>2026-04-11T13:00:23.001Z</time></trkpt><trkpt lat="38.083594501849625" lon="15.298313497945623"><ele>362.71428571428567</ele><time>2026-04-11T13:00:24.001Z</time></trkpt><trkpt lat="38.08353231178733" lon="15.298335142815002"><ele>363.0</ele><time>2026-04-11T13:00:25.001Z</time></trkpt><trkpt lat="38.08340953130368" lon="15.298335312989446"><ele>363.0</ele><time>2026-04-11T13:00:27.001Z</time></trkpt><trkpt lat="38.08334566041557" lon="15.298332369369247"><ele>363.0</ele><time>2026-04-11T13:00:28.001Z</time></trkpt><trkpt lat="38.083230156490885" lon="15.298331005076086"><ele>363.0</ele><time>2026-04-11T13:00:30.001Z</time></trkpt><trkpt lat="38.08315291856649" lon="15.298321085806007"><ele>363.0</ele><time>2026-04-11T13:00:32Z</time></trkpt><trkpt lat="38.083089275389014" lon="15.298303127271584"><ele>363.0</ele><time>2026-04-11T13:00:34Z</time></trkpt><trkpt lat="38.083023019446244" lon="15.298265769789143"><ele>363.0</ele><time>2026-04-11T13:00:36Z</time></trkpt><trkpt lat="38.082927526263845" lon="15.298192414014819"><ele>365.6666666666667</ele><time>2026-04-11T13:00:38Z</time></trkpt><trkpt lat="38.082831664656865" lon="15.298141600327643"><ele>368.3333333333333</ele><time>2026-04-11T13:00:40Z</time></trkpt><trkpt lat="38.0827666211995" lon="15.298118639703535"><ele>371.0</ele><time>2026-04-11T13:00:41Z</time></trkpt><trkpt lat="38.08265919069393" lon="15.298073308320722"><ele>373.66666666666663</ele><time>2026-04-11T13:00:43Z</time></trkpt><trkpt lat="38.0825708845098" lon="15.298019219910186"><ele>376.3333333333333</ele><time>2026-04-11T13:00:45Z</time></trkpt><trkpt lat="38.08251123542966" lon="15.297989108265202"><ele>379.0</ele><time>2026-04-11T13:00:46Z</time></trkpt><trkpt lat="38.08244806498174" lon="15.297959397022867"><ele>379.14285714285717</ele><time>2026-04-11T13:00:47Z</time></trkpt><trkpt lat="38.08238098228167" lon="15.29792414359191"><ele>379.2857142857143</ele><time>2026-04-11T13:00:48Z</time></trkpt><trkpt lat="38.08230603329154" lon="15.297892686957672"><ele>379.42857142857144</ele><time>2026-04-11T13:00:49Z</time></trkpt><trkpt lat="38.082233487006306" lon="15.297863328403787"><ele>379.57142857142856</ele><time>2026-04-11T13:00:50Z</time></trkpt><trkpt lat="38.08216632078713" lon="15.29783068465094"><ele>379.7142857142857</ele><time>2026-04-11T13:00:51Z</time></trkpt><trkpt lat="38.08210306277032" lon="15.29780169969809"><ele>379.8571428571429</ele><time>2026-04-11T13:00:52Z</time></trkpt><trkpt lat="38.0820343847907" lon="15.297778939449897"><ele>380.0</ele><time>2026-04-11T13:00:53Z</time></trkpt><trkpt lat="38.081914425631204" lon="15.297741328208264"><ele>380.0</ele><time>2026-04-11T13:00:55Z</time></trkpt><trkpt lat="38.08184594042494" lon="15.297713546085465"><ele>380.0</ele><time>2026-04-11T13:00:56Z</time></trkpt><trkpt lat="38.081778106214955" lon="15.297678479778911"><ele>380.0</ele><time>2026-04-11T13:00:57Z</time></trkpt><trkpt lat="38.08171670128967" lon="15.297638626930143"><ele>380.0</ele><time>2026-04-11T13:00:58Z</time></trkpt><trkpt lat="38.081654451465326" lon="15.297601478938615"><ele>380.0</ele><time>2026-04-11T13:00:59Z</time></trkpt><trkpt lat="38.08156320610923" lon="15.29755971895168"><ele>380.0</ele><time>2026-04-11T13:01:01Z</time></trkpt><trkpt lat="38.08145031649629" lon="15.297514421875546"><ele>381.0</ele><time>2026-04-11T13:01:03Z</time></trkpt><trkpt lat="38.08138860616041" lon="15.297497958158113"><ele>382.0</ele><time>2026-04-11T13:01:04Z</time></trkpt><trkpt lat="38.08129936466764" lon="15.297448716174973"><ele>383.0</ele><time>2026-04-11T13:01:06Z</time></trkpt><trkpt lat="38.0812173269744" lon="15.29738054838228"><ele>384.0</ele><time>2026-04-11T13:01:08Z</time></trkpt><trkpt lat="38.08115235662954" lon="15.29733040047429"><ele>384.99999999999994</ele><time>2026-04-11T13:01:10Z</time></trkpt><trkpt lat="38.08108296748678" lon="15.29728910775532"><ele>386.0</ele><time>2026-04-11T13:01:13Z</time></trkpt><trkpt lat="38.081036904649515" lon="15.29722718816192"><ele>385.99999999999994</ele><time>2026-04-11T13:01:15Z</time></trkpt><trkpt lat="38.08099392801249" lon="15.297158352563086"><ele>386.0</ele><time>2026-04-11T13:01:17Z</time></trkpt><trkpt lat="38.08093661453653" lon="15.297082309957334"><ele>386.0</ele><time>2026-04-11T13:01:19Z</time></trkpt><trkpt lat="38.0808898372124" lon="15.296981075003174"><ele>386.0</ele><time>2026-04-11T13:01:21Z</time></trkpt><trkpt lat="38.08085458320462" lon="15.296889044157234"><ele>385.99999999999994</ele><time>2026-04-11T13:01:23Z</time></trkpt><trkpt lat="38.08084197356239" lon="15.29680494965602"><ele>386.0</ele><time>2026-04-11T13:01:25Z</time></trkpt><trkpt lat="38.08083071709607" lon="15.296683584762144"><ele>385.99999999999994</ele><time>2026-04-11T13:01:27Z</time></trkpt><trkpt lat="38.080821235861016" lon="15.29658362031216"><ele>386.0</ele><time>2026-04-11T13:01:29Z</time></trkpt><trkpt lat="38.08084238111446" lon="15.29644309670003"><ele>386.0</ele><time>2026-04-11T13:01:31Z</time></trkpt><trkpt lat="38.080825406102356" lon="15.296326869144664"><ele>386.0</ele><time>2026-04-11T13:01:33Z</time></trkpt><trkpt lat="38.08079407911685" lon="15.296250853814245"><ele>385.99999999999994</ele><time>2026-04-11T13:01:35Z</time></trkpt><trkpt lat="38.080736563596616" lon="15.296195146240873"><ele>386.0</ele><time>2026-04-11T13:01:37Z</time></trkpt><trkpt lat="38.08065135183905" lon="15.296164684947348"><ele>386.8</ele><time>2026-04-11T13:01:39Z</time></trkpt><trkpt lat="38.08057066165253" lon="15.296190364931746"><ele>387.6</ele><time>2026-04-11T13:01:41Z</time></trkpt><trkpt lat="38.08048977207977" lon="15.29625669438506"><ele>388.4</ele><time>2026-04-11T13:01:43Z</time></trkpt><trkpt lat="38.080401249956054" lon="15.296290690023284"><ele>389.2</ele><time>2026-04-11T13:01:45Z</time></trkpt><trkpt lat="38.08029006857444" lon="15.296293222957575"><ele>390.0</ele><time>2026-04-11T13:01:46.999Z</time></trkpt><trkpt lat="38.08020886294489" lon="15.296285063542983"><ele>390.0</ele><time>2026-04-11T13:01:47.999Z</time></trkpt><trkpt lat="38.08013020142664" lon="15.296274520217485"><ele>390.0</ele><time>2026-04-11T13:01:48.999Z</time></trkpt><trkpt lat="38.08002524360562" lon="15.296270430520927"><ele>390.0</ele><time>2026-04-11T13:01:50.999Z</time></trkpt><trkpt lat="38.07993102795359" lon="15.296290513228461"><ele>390.0</ele><time>2026-04-11T13:01:52.999Z</time></trkpt><trkpt lat="38.0798440476224" lon="15.296341832991088"><ele>390.0</ele><time>2026-04-11T13:01:54.999Z</time></trkpt><trkpt lat="38.0797537062716" lon="15.296399931940549"><ele>390.6</ele><time>2026-04-11T13:01:56.999Z</time></trkpt><trkpt lat="38.07963765687284" lon="15.296439563231417"><ele>391.2</ele><time>2026-04-11T13:01:58.999Z</time></trkpt><trkpt lat="38.07956453972791" lon="15.296456573649639"><ele>391.79999999999995</ele><time>2026-04-11T13:01:59.999Z</time></trkpt><trkpt lat="38.07950240246589" lon="15.296480157980746"><ele>392.4</ele><time>2026-04-11T13:02:01Z</time></trkpt><trkpt lat="38.0794145732111" lon="15.29649538843819"><ele>393.0</ele><time>2026-04-11T13:02:03Z</time></trkpt><trkpt lat="38.079286294216715" lon="15.296440365419258"><ele>393.0</ele><time>2026-04-11T13:02:05Z</time></trkpt><trkpt lat="38.07921689790046" lon="15.296422786627463"><ele>393.0</ele><time>2026-04-11T13:02:06Z</time></trkpt><trkpt lat="38.07914779252196" lon="15.29640850511533"><ele>393.0</ele><time>2026-04-11T13:02:07Z</time></trkpt><trkpt lat="38.079078627831" lon="15.296417979734876"><ele>393.0</ele><time>2026-04-11T13:02:08Z</time></trkpt><trkpt lat="38.079003165180744" lon="15.29640844128132"><ele>393.0</ele><time>2026-04-11T13:02:09Z</time></trkpt><trkpt lat="38.0789393010669" lon="15.296403308097123"><ele>393.0</ele><time>2026-04-11T13:02:10Z</time></trkpt><trkpt lat="38.07883834868836" lon="15.29640603648381"><ele>392.7142857142857</ele><time>2026-04-11T13:02:12Z</time></trkpt><trkpt lat="38.078773234252495" lon="15.296416918805313"><ele>392.42857142857144</ele><time>2026-04-11T13:02:14Z</time></trkpt><trkpt lat="38.07870785382556" lon="15.29642200220541"><ele>392.1428571428571</ele><time>2026-04-11T13:02:29Z</time></trkpt><trkpt lat="38.078631933816474" lon="15.296390522686192"><ele>391.8571428571429</ele><time>2026-04-11T13:02:33Z</time></trkpt><trkpt lat="38.07856063616197" lon="15.296321954446313"><ele>391.57142857142856</ele><time>2026-04-11T13:02:36Z</time></trkpt><trkpt lat="38.078516863020106" lon="15.296262609411684"><ele>391.2857142857143</ele><time>2026-04-11T13:02:38Z</time></trkpt><trkpt lat="38.07848214296043" lon="15.296186651986272"><ele>391.0</ele><time>2026-04-11T13:02:41Z</time></trkpt><trkpt lat="38.078427899981286" lon="15.29609733867326"><ele>390.71428571428567</ele><time>2026-04-11T13:02:43Z</time></trkpt><trkpt lat="38.07836951866451" lon="15.296063836880124"><ele>390.42857142857144</ele><time>2026-04-11T13:02:44Z</time></trkpt><trkpt lat="38.07830600851253" lon="15.296029583231327"><ele>390.1428571428571</ele><time>2026-04-11T13:02:45Z</time></trkpt><trkpt lat="38.07824201370826" lon="15.295997131440847"><ele>389.85714285714283</ele><time>2026-04-11T13:02:46Z</time></trkpt><trkpt lat="38.07818185988365" lon="15.295961643109303"><ele>389.57142857142856</ele><time>2026-04-11T13:02:47Z</time></trkpt><trkpt lat="38.078122742277976" lon="15.295930031614914"><ele>389.2857142857143</ele><time>2026-04-11T13:02:48Z</time></trkpt><trkpt lat="38.07800985274795" lon="15.295898749770606"><ele>389.0</ele><time>2026-04-11T13:02:50Z</time></trkpt><trkpt lat="38.07790082809847" lon="15.295900863889482"><ele>390.0</ele><time>2026-04-11T13:02:52Z</time></trkpt><trkpt lat="38.077810961809014" lon="15.295896995960286"><ele>391.0</ele><time>2026-04-11T13:02:54Z</time></trkpt><trkpt lat="38.07772961522078" lon="15.295828486805958"><ele>392.0</ele><time>2026-04-11T13:02:56Z</time></trkpt><trkpt lat="38.077652595767866" lon="15.295767769927005"><ele>393.0</ele><time>2026-04-11T13:02:58Z</time></trkpt><trkpt lat="38.07757149089776" lon="15.29575064769771"><ele>394.0</ele><time>2026-04-11T13:03:00Z</time></trkpt><trkpt lat="38.07747321701486" lon="15.295764674781863"><ele>395.79999999999995</ele><time>2026-04-11T13:03:02Z</time></trkpt><trkpt lat="38.077410447302256" lon="15.295774779317977"><ele>397.59999999999997</ele><time>2026-04-11T13:03:03Z</time></trkpt><trkpt lat="38.07730749960318" lon="15.295790178177297"><ele>399.4</ele><time>2026-04-11T13:03:05Z</time></trkpt><trkpt lat="38.07720129257175" lon="15.295731788458967"><ele>401.2</ele><time>2026-04-11T13:03:07Z</time></trkpt><trkpt lat="38.07713199311621" lon="15.295635947633208"><ele>403.0</ele><time>2026-04-11T13:03:09Z</time></trkpt><trkpt lat="38.07705175467155" lon="15.295533420706233"><ele>403.00000000000006</ele><time>2026-04-11T13:03:11Z</time></trkpt><trkpt lat="38.07700064075954" lon="15.295470647499679"><ele>403.0</ele><time>2026-04-11T13:03:12Z</time></trkpt><trkpt lat="38.076947702845295" lon="15.29540226131225"><ele>403.0</ele><time>2026-04-11T13:03:13Z</time></trkpt><trkpt lat="38.076890511922876" lon="15.295335846704486"><ele>403.0</ele><time>2026-04-11T13:03:14Z</time></trkpt><trkpt lat="38.076833496180605" lon="15.295268840918267"><ele>403.00000000000006</ele><time>2026-04-11T13:03:15Z</time></trkpt><trkpt lat="38.07675844084119" lon="15.295178943026563"><ele>403.0</ele><time>2026-04-11T13:03:17Z</time></trkpt><trkpt lat="38.07669234717776" lon="15.29503291158779"><ele>403.0</ele><time>2026-04-11T13:03:19Z</time></trkpt><trkpt lat="38.076648072756925" lon="15.29496803808531"><ele>403.0</ele><time>2026-04-11T13:03:20Z</time></trkpt><trkpt lat="38.076592372487426" lon="15.294923264345423"><ele>403.0</ele><time>2026-04-11T13:03:21Z</time></trkpt><trkpt lat="38.076521597236585" lon="15.294816836170053"><ele>403.0</ele><time>2026-04-11T13:03:23Z</time></trkpt><trkpt lat="38.07650051741484" lon="15.29466530223262"><ele>403.0</ele><time>2026-04-11T13:03:25Z</time></trkpt><trkpt lat="38.076482271163115" lon="15.294558656558575"><ele>406.00000000000006</ele><time>2026-04-11T13:03:26Z</time></trkpt><trkpt lat="38.076469437176534" lon="15.294461670941148"><ele>409.0</ele><time>2026-04-11T13:03:27Z</time></trkpt><trkpt lat="38.076456278247264" lon="15.294377702640194"><ele>412.0</ele><time>2026-04-11T13:03:28Z</time></trkpt><trkpt lat="38.07640741438978" lon="15.294238327200596"><ele>415.0</ele><time>2026-04-11T13:03:30Z</time></trkpt><trkpt lat="38.07636318228476" lon="15.294173165254783"><ele>418.00000000000006</ele><time>2026-04-11T13:03:31Z</time></trkpt><trkpt lat="38.07631156979253" lon="15.294098259554605"><ele>421.0</ele><time>2026-04-11T13:03:32Z</time></trkpt><trkpt lat="38.07626343458467" lon="15.294024051212498"><ele>421.00000000000006</ele><time>2026-04-11T13:03:33Z</time></trkpt><trkpt lat="38.0762158439055" lon="15.293959657862647"><ele>421.0</ele><time>2026-04-11T13:03:34Z</time></trkpt><trkpt lat="38.07612966687704" lon="15.293865219891225"><ele>421.0</ele><time>2026-04-11T13:03:36Z</time></trkpt><trkpt lat="38.07606648132183" lon="15.293796400629958"><ele>421.0</ele><time>2026-04-11T13:03:38Z</time></trkpt><trkpt lat="38.076005682313635" lon="15.29376786053039"><ele>421.00000000000006</ele><time>2026-04-11T13:03:40Z</time></trkpt><trkpt lat="38.07593921676364" lon="15.293782022908262"><ele>421.0</ele><time>2026-04-11T13:03:42Z</time></trkpt><trkpt lat="38.07587139431453" lon="15.293810637686018"><ele>422.6</ele><time>2026-04-11T13:03:44Z</time></trkpt><trkpt lat="38.075773930656226" lon="15.293860304899697"><ele>424.20000000000005</ele><time>2026-04-11T13:03:46Z</time></trkpt><trkpt lat="38.075669893103566" lon="15.293883266351632"><ele>425.79999999999995</ele><time>2026-04-11T13:03:48Z</time></trkpt><trkpt lat="38.075563798247586" lon="15.293857145090874"><ele>427.4</ele><time>2026-04-11T13:03:50Z</time></trkpt><trkpt lat="38.075454586243914" lon="15.293830775723837"><ele>429.0</ele><time>2026-04-11T13:03:51.999Z</time></trkpt><trkpt lat="38.07535580451218" lon="15.29378390090833"><ele>429.5</ele><time>2026-04-11T13:03:55.999Z</time></trkpt><trkpt lat="38.07528952154894" lon="15.29377750063675"><ele>430.0</ele><time>2026-04-11T13:03:57.999Z</time></trkpt><trkpt lat="38.07521263858688" lon="15.29376767093496"><ele>430.5</ele><time>2026-04-11T13:04:00.999Z</time></trkpt><trkpt lat="38.07514679733838" lon="15.29378444210678"><ele>431.0</ele><time>2026-04-11T13:04:03.999Z</time></trkpt><trkpt lat="38.075060339137586" lon="15.293755310640774"><ele>431.5</ele><time>2026-04-11T13:04:08Z</time></trkpt><trkpt lat="38.075018381159374" lon="15.293691371882"><ele>432.0</ele><time>2026-04-11T13:04:10Z</time></trkpt><trkpt lat="38.074904241541525" lon="15.293698388370196"><ele>432.0</ele><time>2026-04-11T13:04:12Z</time></trkpt><trkpt lat="38.07486040107677" lon="15.29363212945287"><ele>432.0</ele><time>2026-04-11T13:04:16Z</time></trkpt><trkpt lat="38.07452129903451" lon="15.293589074511456"><ele>432.0</ele><time>2026-04-11T13:04:19Z</time></trkpt><trkpt lat="38.07446563701734" lon="15.293533421516727"><ele>432.0</ele><time>2026-04-11T13:04:20Z</time></trkpt><trkpt lat="38.07441866202428" lon="15.293471684957915"><ele>432.0</ele><time>2026-04-11T13:04:21Z</time></trkpt><trkpt lat="38.07435739019711" lon="15.293408117783203"><ele>432.0</ele><time>2026-04-11T13:04:22Z</time></trkpt><trkpt lat="38.07431818902874" lon="15.293322432791456"><ele>432.0</ele><time>2026-04-11T13:04:23Z</time></trkpt><trkpt lat="38.07426768789391" lon="15.293207113698596"><ele>432.0</ele><time>2026-04-11T13:04:24Z</time></trkpt><trkpt lat="38.074231699365" lon="15.293125338045206"><ele>432.0</ele><time>2026-04-11T13:04:25Z</time></trkpt><trkpt lat="38.074181978921374" lon="15.293055120532307"><ele>431.8333333333333</ele><time>2026-04-11T13:04:26Z</time></trkpt><trkpt lat="38.074125442433484" lon="15.292975187851065"><ele>431.66666666666663</ele><time>2026-04-11T13:04:28Z</time></trkpt><trkpt lat="38.07403876373325" lon="15.292943132473486"><ele>431.5</ele><time>2026-04-11T13:04:33Z</time></trkpt><trkpt lat="38.07395778062762" lon="15.292932742244147"><ele>431.3333333333333</ele><time>2026-04-11T13:04:35Z</time></trkpt><trkpt lat="38.073884737450435" lon="15.292939754767701"><ele>431.16666666666663</ele><time>2026-04-11T13:04:37Z</time></trkpt><trkpt lat="38.07380563558822" lon="15.29298218400515"><ele>431.0</ele><time>2026-04-11T13:04:39Z</time></trkpt><trkpt lat="38.07371130302588" lon="15.293066890681352"><ele>429.4</ele><time>2026-04-11T13:04:41Z</time></trkpt><trkpt lat="38.07364812453634" lon="15.293130435344128"><ele>427.8</ele><time>2026-04-11T13:04:43Z</time></trkpt><trkpt lat="38.07354267663454" lon="15.293104180472744"><ele>426.2</ele><time>2026-04-11T13:04:46Z</time></trkpt><trkpt lat="38.0734402251575" lon="15.293043011316792"><ele>424.59999999999997</ele><time>2026-04-11T13:04:48Z</time></trkpt><trkpt lat="38.07335649283849" lon="15.292933284371172"><ele>423.0</ele><time>2026-04-11T13:04:50Z</time></trkpt><trkpt lat="38.073322363078084" lon="15.29285738761862"><ele>423.0</ele><time>2026-04-11T13:04:51Z</time></trkpt><trkpt lat="38.073282091351764" lon="15.292788511329663"><ele>423.0</ele><time>2026-04-11T13:04:52Z</time></trkpt><trkpt lat="38.073232946722186" lon="15.292722649032502"><ele>423.0</ele><time>2026-04-11T13:04:53Z</time></trkpt><trkpt lat="38.07317738247322" lon="15.292664341045223"><ele>423.0</ele><time>2026-04-11T13:04:54Z</time></trkpt><trkpt lat="38.073122050375346" lon="15.292615616571068"><ele>423.0</ele><time>2026-04-11T13:04:55Z</time></trkpt><trkpt lat="38.07305875799698" lon="15.292568322226996"><ele>423.0</ele><time>2026-04-11T13:04:56Z</time></trkpt><trkpt lat="38.07297016387291" lon="15.292525926025267"><ele>423.0</ele><time>2026-04-11T13:04:57Z</time></trkpt><trkpt lat="38.07290873365238" lon="15.292470648863443"><ele>424.4</ele><time>2026-04-11T13:04:58Z</time></trkpt><trkpt lat="38.0728496588706" lon="15.292431155737374"><ele>425.79999999999995</ele><time>2026-04-11T13:04:59Z</time></trkpt><trkpt lat="38.072743456472104" lon="15.292378330154104"><ele>427.2</ele><time>2026-04-11T13:05:01Z</time></trkpt><trkpt lat="38.07265065681286" lon="15.292362647859013"><ele>428.6</ele><time>2026-04-11T13:05:03Z</time></trkpt><trkpt lat="38.07256624260645" lon="15.292392559065913"><ele>430.0</ele><time>2026-04-11T13:05:05Z</time></trkpt><trkpt lat="38.07248900100234" lon="15.292465461625797"><ele>429.0</ele><time>2026-04-11T13:05:07Z</time></trkpt><trkpt lat="38.072400835282345" lon="15.292577310807717"><ele>428.0</ele><time>2026-04-11T13:05:09Z</time></trkpt><trkpt lat="38.072349041383305" lon="15.292638947781874"><ele>427.0</ele><time>2026-04-11T13:05:10Z</time></trkpt><trkpt lat="38.072297486011976" lon="15.292699646065829"><ele>426.0</ele><time>2026-04-11T13:05:11Z</time></trkpt><trkpt lat="38.072199559457" lon="15.292771339787796"><ele>425.0</ele><time>2026-04-11T13:05:13Z</time></trkpt><trkpt lat="38.07211157898798" lon="15.29278399516783"><ele>424.99999999999994</ele><time>2026-04-11T13:05:15Z</time></trkpt><trkpt lat="38.07201500484524" lon="15.292762456287068"><ele>425.0</ele><time>2026-04-11T13:05:17Z</time></trkpt><trkpt lat="38.07194387641315" lon="15.292701528905035"><ele>425.0</ele><time>2026-04-11T13:05:19Z</time></trkpt><trkpt lat="38.07187941848517" lon="15.292642261028941"><ele>425.0</ele><time>2026-04-11T13:05:20Z</time></trkpt><trkpt lat="38.07179807737066" lon="15.29258510979644"><ele>424.99999999999994</ele><time>2026-04-11T13:05:21Z</time></trkpt><trkpt lat="38.0717425113196" lon="15.292534594968506"><ele>425.0</ele><time>2026-04-11T13:05:22Z</time></trkpt><trkpt lat="38.07164310659194" lon="15.292481214535822"><ele>426.16666666666663</ele><time>2026-04-11T13:05:24Z</time></trkpt><trkpt lat="38.07156721215097" lon="15.292433179755376"><ele>427.3333333333333</ele><time>2026-04-11T13:05:26Z</time></trkpt><trkpt lat="38.0714899795854" lon="15.292329738003057"><ele>428.5</ele><time>2026-04-11T13:05:28Z</time></trkpt><trkpt lat="38.07146394982579" lon="15.292244135903106"><ele>429.66666666666663</ele><time>2026-04-11T13:05:29Z</time></trkpt><trkpt lat="38.071435301625876" lon="15.292160155766013"><ele>430.8333333333333</ele><time>2026-04-11T13:05:30Z</time></trkpt><trkpt lat="38.07140479230367" lon="15.292084182595207"><ele>432.0</ele><time>2026-04-11T13:05:31Z</time></trkpt><trkpt lat="38.071358989774836" lon="15.292020782963517"><ele>432.0</ele><time>2026-04-11T13:05:32Z</time></trkpt><trkpt lat="38.07130457968482" lon="15.291971554725677"><ele>432.0</ele><time>2026-04-11T13:05:33Z</time></trkpt><trkpt lat="38.07124092776788" lon="15.291923633427352"><ele>432.0</ele><time>2026-04-11T13:05:34Z</time></trkpt><trkpt lat="38.071168768790116" lon="15.291872951715167"><ele>432.0</ele><time>2026-04-11T13:05:35Z</time></trkpt><trkpt lat="38.071095936804426" lon="15.29182017270782"><ele>432.0</ele><time>2026-04-11T13:05:36Z</time></trkpt><trkpt lat="38.071013928674496" lon="15.291761880891148"><ele>432.0</ele><time>2026-04-11T13:05:37Z</time></trkpt><trkpt lat="38.070934990961334" lon="15.291701679907188"><ele>432.0</ele><time>2026-04-11T13:05:38Z</time></trkpt><trkpt lat="38.07085434026015" lon="15.291656771706648"><ele>432.0</ele><time>2026-04-11T13:05:39Z</time></trkpt><trkpt lat="38.07078232344024" lon="15.291626236291192"><ele>432.0</ele><time>2026-04-11T13:05:40Z</time></trkpt><trkpt lat="38.07071858311429" lon="15.291604058271423"><ele>432.0</ele><time>2026-04-11T13:05:41Z</time></trkpt><trkpt lat="38.07061797195682" lon="15.29156457440631"><ele>432.0</ele><time>2026-04-11T13:05:43Z</time></trkpt><trkpt lat="38.07052405286201" lon="15.291549349307203"><ele>432.0</ele><time>2026-04-11T13:05:45Z</time></trkpt><trkpt lat="38.07042169470397" lon="15.291565279539615"><ele>433.20000000000005</ele><time>2026-04-11T13:05:47Z</time></trkpt><trkpt lat="38.07033185549325" lon="15.291611106395077"><ele>434.40000000000003</ele><time>2026-04-11T13:05:49Z</time></trkpt><trkpt lat="38.0702691488255" lon="15.291650813684056"><ele>435.59999999999997</ele><time>2026-04-11T13:05:51Z</time></trkpt><trkpt lat="38.07019964646643" lon="15.291722923325777"><ele>436.79999999999995</ele><time>2026-04-11T13:05:53Z</time></trkpt><trkpt lat="38.07011877669181" lon="15.291824837760347"><ele>438.0</ele><time>2026-04-11T13:05:55Z</time></trkpt><trkpt lat="38.0700467271642" lon="15.291920609517058"><ele>438.0</ele><time>2026-04-11T13:05:56.999Z</time></trkpt><trkpt lat="38.07001118168519" lon="15.292039376160599"><ele>437.99999999999994</ele><time>2026-04-11T13:05:58.999Z</time></trkpt><trkpt lat="38.0699661092662" lon="15.292160647361843"><ele>437.99999999999994</ele><time>2026-04-11T13:06:00.999Z</time></trkpt><trkpt lat="38.069902706592224" lon="15.292249057420534"><ele>438.0</ele><time>2026-04-11T13:06:02.999Z</time></trkpt><trkpt lat="38.06982508604477" lon="15.292296527037221"><ele>438.0</ele><time>2026-04-11T13:06:04.999Z</time></trkpt><trkpt lat="38.06973154645775" lon="15.292336654552098"><ele>438.5</ele><time>2026-04-11T13:06:06.999Z</time></trkpt><trkpt lat="38.0696157632619" lon="15.292341506767364"><ele>439.0</ele><time>2026-04-11T13:06:08.999Z</time></trkpt><trkpt lat="38.06951064728731" lon="15.292280807426204"><ele>439.5</ele><time>2026-04-11T13:06:10.999Z</time></trkpt><trkpt lat="38.06944920704281" lon="15.29225829006228"><ele>440.0</ele><time>2026-04-11T13:06:12Z</time></trkpt><trkpt lat="38.06938096656719" lon="15.292251055305615"><ele>440.5</ele><time>2026-04-11T13:06:13Z</time></trkpt><trkpt lat="38.069316811439194" lon="15.292241525654651"><ele>441.0</ele><time>2026-04-11T13:06:14Z</time></trkpt><trkpt lat="38.069209184065166" lon="15.292221795510585"><ele>441.8</ele><time>2026-04-11T13:06:16Z</time></trkpt><trkpt lat="38.06909396096726" lon="15.29218474070323"><ele>442.6</ele><time>2026-04-11T13:06:18Z</time></trkpt><trkpt lat="38.069003905015" lon="15.292104856422455"><ele>443.4</ele><time>2026-04-11T13:06:20Z</time></trkpt><trkpt lat="38.06890483467577" lon="15.29199000225329"><ele>444.2</ele><time>2026-04-11T13:06:22Z</time></trkpt><trkpt lat="38.06884777709132" lon="15.291919794065508"><ele>445.0</ele><time>2026-04-11T13:06:23Z</time></trkpt><trkpt lat="38.0687969142162" lon="15.291858339843428"><ele>445.00000000000006</ele><time>2026-04-11T13:06:24Z</time></trkpt><trkpt lat="38.06874429047138" lon="15.291802359472346"><ele>445.0</ele><time>2026-04-11T13:06:25Z</time></trkpt><trkpt lat="38.068692172572526" lon="15.29175518616622"><ele>445.0</ele><time>2026-04-11T13:06:26Z</time></trkpt><trkpt lat="38.068637704916775" lon="15.291703939379634"><ele>445.0</ele><time>2026-04-11T13:06:27Z</time></trkpt><trkpt lat="38.068571298477316" lon="15.291663025464892"><ele>445.00000000000006</ele><time>2026-04-11T13:06:28Z</time></trkpt><trkpt lat="38.06850330467417" lon="15.291622519934231"><ele>445.0</ele><time>2026-04-11T13:06:29Z</time></trkpt><trkpt lat="38.06839566111496" lon="15.291560890743527"><ele>445.00000000000006</ele><time>2026-04-11T13:06:31Z</time></trkpt><trkpt lat="38.0683349405544" lon="15.291509602502556"><ele>445.0</ele><time>2026-04-11T13:06:32Z</time></trkpt><trkpt lat="38.06827431147148" lon="15.29147069663716"><ele>445.0</ele><time>2026-04-11T13:06:33Z</time></trkpt><trkpt lat="38.06817925482148" lon="15.29142884840093"><ele>445.0</ele><time>2026-04-11T13:06:35Z</time></trkpt><trkpt lat="38.06805648321696" lon="15.2914304389406"><ele>445.00000000000006</ele><time>2026-04-11T13:06:37Z</time></trkpt><trkpt lat="38.06798288146927" lon="15.291432783800614"><ele>445.0</ele><time>2026-04-11T13:06:38Z</time></trkpt><trkpt lat="38.06790912941614" lon="15.291435508246293"><ele>444.83333333333337</ele><time>2026-04-11T13:06:39Z</time></trkpt><trkpt lat="38.067841644630626" lon="15.291428909252094"><ele>444.6666666666667</ele><time>2026-04-11T13:06:40Z</time></trkpt><trkpt lat="38.06776334525714" lon="15.29141367981895"><ele>444.5</ele><time>2026-04-11T13:06:41Z</time></trkpt><trkpt lat="38.067690001077004" lon="15.291376416018277"><ele>444.33333333333337</ele><time>2026-04-11T13:06:42Z</time></trkpt><trkpt lat="38.06761296494584" lon="15.291331432022021"><ele>444.1666666666667</ele><time>2026-04-11T13:06:43Z</time></trkpt><trkpt lat="38.06753531175049" lon="15.291280748360682"><ele>444.0</ele><time>2026-04-11T13:06:44Z</time></trkpt><trkpt lat="38.06745438418819" lon="15.291224455151594"><ele>445.79999999999995</ele><time>2026-04-11T13:06:45Z</time></trkpt><trkpt lat="38.06737472153916" lon="15.291171789640899"><ele>447.59999999999997</ele><time>2026-04-11T13:06:46Z</time></trkpt><trkpt lat="38.06729468919474" lon="15.29112316300835"><ele>449.4</ele><time>2026-04-11T13:06:47Z</time></trkpt><trkpt lat="38.06721155893859" lon="15.291064041830221"><ele>451.2</ele><time>2026-04-11T13:06:48Z</time></trkpt><trkpt lat="38.06712468757764" lon="15.291007679416843"><ele>453.0</ele><time>2026-04-11T13:06:49Z</time></trkpt><trkpt lat="38.06704429453854" lon="15.29095365479101"><ele>453.0</ele><time>2026-04-11T13:06:50Z</time></trkpt><trkpt lat="38.06696380395404" lon="15.290901306896266"><ele>453.0</ele><time>2026-04-11T13:06:51Z</time></trkpt><trkpt lat="38.06688486845152" lon="15.290846505391734"><ele>453.0</ele><time>2026-04-11T13:06:52Z</time></trkpt><trkpt lat="38.066811972713374" lon="15.29078730112942"><ele>453.0</ele><time>2026-04-11T13:06:53Z</time></trkpt><trkpt lat="38.06674921785988" lon="15.290730364537351"><ele>453.0</ele><time>2026-04-11T13:06:54Z</time></trkpt><trkpt lat="38.06668504523318" lon="15.290664339873222"><ele>453.0</ele><time>2026-04-11T13:06:55Z</time></trkpt><trkpt lat="38.06662723715287" lon="15.290599404088129"><ele>453.0</ele><time>2026-04-11T13:06:56Z</time></trkpt><trkpt lat="38.06657845503484" lon="15.290538677149776"><ele>453.0</ele><time>2026-04-11T13:06:57Z</time></trkpt><trkpt lat="38.066504613241364" lon="15.29042446133516"><ele>453.0</ele><time>2026-04-11T13:06:59Z</time></trkpt><trkpt lat="38.06645761664472" lon="15.290336958427453"><ele>453.0</ele><time>2026-04-11T13:07:00.999Z</time></trkpt><trkpt lat="38.06641918736454" lon="15.290253271914441"><ele>453.0</ele><time>2026-04-11T13:07:03.999Z</time></trkpt><trkpt lat="38.06636698147768" lon="15.290181335609493"><ele>453.0</ele><time>2026-04-11T13:07:05.999Z</time></trkpt><trkpt lat="38.06630450450126" lon="15.290093331815822"><ele>453.0</ele><time>2026-04-11T13:07:07.999Z</time></trkpt><trkpt lat="38.06622516825724" lon="15.290013574678316"><ele>452.99999999999994</ele><time>2026-04-11T13:07:09.999Z</time></trkpt><trkpt lat="38.06615452209164" lon="15.289950730522241"><ele>452.99999999999994</ele><time>2026-04-11T13:07:11.999Z</time></trkpt><trkpt lat="38.06609964069396" lon="15.289872593168434"><ele>453.0</ele><time>2026-04-11T13:07:13.999Z</time></trkpt><trkpt lat="38.06604092335199" lon="15.289817762758199"><ele>453.0</ele><time>2026-04-11T13:07:15.999Z</time></trkpt><trkpt lat="38.06594168459575" lon="15.289767053712474"><ele>455.3333333333333</ele><time>2026-04-11T13:07:17.999Z</time></trkpt><trkpt lat="38.06587841290833" lon="15.289736931727257"><ele>457.66666666666663</ele><time>2026-04-11T13:07:18.999Z</time></trkpt><trkpt lat="38.065761848959454" lon="15.289706149715434"><ele>460.0</ele><time>2026-04-11T13:07:20.999Z</time></trkpt><trkpt lat="38.06568957151499" lon="15.289712605853905"><ele>462.3333333333333</ele><time>2026-04-11T13:07:21.999Z</time></trkpt><trkpt lat="38.06561064902078" lon="15.289718888144057"><ele>464.66666666666663</ele><time>2026-04-11T13:07:22.999Z</time></trkpt><trkpt lat="38.065534167597185" lon="15.289725135009999"><ele>467.0</ele><time>2026-04-11T13:07:23.999Z</time></trkpt><trkpt lat="38.06545646398984" lon="15.289728894217332"><ele>467.8333333333333</ele><time>2026-04-11T13:07:24.999Z</time></trkpt><trkpt lat="38.065378274681976" lon="15.289730801751181"><ele>468.66666666666663</ele><time>2026-04-11T13:07:25.999Z</time></trkpt><trkpt lat="38.0652919567124" lon="15.289741267189328"><ele>469.5</ele><time>2026-04-11T13:07:26.999Z</time></trkpt><trkpt lat="38.06522398654396" lon="15.289728472404825"><ele>470.33333333333337</ele><time>2026-04-11T13:07:27.999Z</time></trkpt><trkpt lat="38.06515345707612" lon="15.28971305279532"><ele>471.1666666666667</ele><time>2026-04-11T13:07:28.999Z</time></trkpt><trkpt lat="38.06507973761406" lon="15.289687576370907"><ele>472.0</ele><time>2026-04-11T13:07:29.999Z</time></trkpt><trkpt lat="38.06500761707079" lon="15.289655985990546"><ele>473.0</ele><time>2026-04-11T13:07:30.999Z</time></trkpt><trkpt lat="38.064937235860114" lon="15.289620677175925"><ele>474.0</ele><time>2026-04-11T13:07:31.999Z</time></trkpt><trkpt lat="38.064865991697815" lon="15.289589475916385"><ele>475.0</ele><time>2026-04-11T13:07:32.999Z</time></trkpt><trkpt lat="38.06478875957822" lon="15.289567658177477"><ele>476.0</ele><time>2026-04-11T13:07:33.999Z</time></trkpt><trkpt lat="38.064713646919834" lon="15.289564421696213"><ele>477.0</ele><time>2026-04-11T13:07:34.999Z</time></trkpt><trkpt lat="38.064644860160286" lon="15.289579637689146"><ele>478.0</ele><time>2026-04-11T13:07:35.999Z</time></trkpt><trkpt lat="38.064575508854674" lon="15.289600251245915"><ele>479.0</ele><time>2026-04-11T13:07:36.999Z</time></trkpt><trkpt lat="38.06449850837008" lon="15.289615918597505"><ele>478.99999999999994</ele><time>2026-04-11T13:07:37.999Z</time></trkpt><trkpt lat="38.06442343036706" lon="15.289623661997988"><ele>479.0</ele><time>2026-04-11T13:07:38.999Z</time></trkpt><trkpt lat="38.064350153454185" lon="15.289640020971577"><ele>479.0</ele><time>2026-04-11T13:07:39.999Z</time></trkpt><trkpt lat="38.064272588566695" lon="15.289656789464354"><ele>479.0</ele><time>2026-04-11T13:07:40.999Z</time></trkpt><trkpt lat="38.064205127810276" lon="15.289680812352513"><ele>478.99999999999994</ele><time>2026-04-11T13:07:41.999Z</time></trkpt><trkpt lat="38.06407595789076" lon="15.289765380614039"><ele>479.0</ele><time>2026-04-11T13:07:43.999Z</time></trkpt><trkpt lat="38.06399990772822" lon="15.289825703568232"><ele>478.2857142857143</ele><time>2026-04-11T13:07:44.999Z</time></trkpt><trkpt lat="38.06392676469822" lon="15.289876249187115"><ele>477.57142857142856</ele><time>2026-04-11T13:07:45.999Z</time></trkpt><trkpt lat="38.06386364399115" lon="15.289913822542564"><ele>476.85714285714283</ele><time>2026-04-11T13:07:46.999Z</time></trkpt><trkpt lat="38.06380302022478" lon="15.289953610448705"><ele>476.1428571428571</ele><time>2026-04-11T13:07:47.999Z</time></trkpt><trkpt lat="38.063738809016456" lon="15.290000206468122"><ele>475.42857142857144</ele><time>2026-04-11T13:07:48.999Z</time></trkpt><trkpt lat="38.06367240918164" lon="15.29004929498836"><ele>474.71428571428567</ele><time>2026-04-11T13:07:49.999Z</time></trkpt><trkpt lat="38.063611374055704" lon="15.290089710132953"><ele>473.99999999999994</ele><time>2026-04-11T13:07:50.999Z</time></trkpt><trkpt lat="38.06353707426316" lon="15.29012520180304"><ele>474.0</ele><time>2026-04-11T13:07:51.999Z</time></trkpt><trkpt lat="38.06345180968712" lon="15.290153559379473"><ele>474.0</ele><time>2026-04-11T13:07:52.999Z</time></trkpt><trkpt lat="38.06336285298519" lon="15.290177093437093"><ele>474.0</ele><time>2026-04-11T13:07:53.999Z</time></trkpt><trkpt lat="38.0632715821153" lon="15.290201261327597"><ele>474.0</ele><time>2026-04-11T13:07:54.999Z</time></trkpt><trkpt lat="38.063179579654424" lon="15.29023220578452"><ele>474.0</ele><time>2026-04-11T13:07:55.999Z</time></trkpt><trkpt lat="38.06310839793142" lon="15.290259447487072"><ele>474.0</ele><time>2026-04-11T13:07:56.999Z</time></trkpt><trkpt lat="38.06304244780874" lon="15.290292040599196"><ele>476.8333333333333</ele><time>2026-04-11T13:07:58.999Z</time></trkpt><trkpt lat="38.06294036456944" lon="15.290289640879628"><ele>479.66666666666663</ele><time>2026-04-11T13:08:01.999Z</time></trkpt><trkpt lat="38.0628769867772" lon="15.290293388491323"><ele>482.5</ele><time>2026-04-11T13:08:02.999Z</time></trkpt><trkpt lat="38.06275635465234" lon="15.290281236283652"><ele>485.3333333333333</ele><time>2026-04-11T13:08:04.999Z</time></trkpt><trkpt lat="38.06268172039434" lon="15.29026322776309"><ele>488.16666666666663</ele><time>2026-04-11T13:08:05.999Z</time></trkpt><trkpt lat="38.06261337822737" lon="15.290251584485413"><ele>491.0</ele><time>2026-04-11T13:08:06.999Z</time></trkpt><trkpt lat="38.06253335334424" lon="15.290225988347242"><ele>491.0</ele><time>2026-04-11T13:08:07.999Z</time></trkpt><trkpt lat="38.06244913324194" lon="15.2902059299648"><ele>490.99999999999994</ele><time>2026-04-11T13:08:08.999Z</time></trkpt><trkpt lat="38.0623700829077" lon="15.290190746152511"><ele>491.0</ele><time>2026-04-11T13:08:09.999Z</time></trkpt><trkpt lat="38.06229822698509" lon="15.290193410681606"><ele>491.0</ele><time>2026-04-11T13:08:10.999Z</time></trkpt><trkpt lat="38.062223198659844" lon="15.290200847835088"><ele>490.99999999999994</ele><time>2026-04-11T13:08:11.999Z</time></trkpt><trkpt lat="38.06215682480661" lon="15.290210524516246"><ele>491.0</ele><time>2026-04-11T13:08:12.999Z</time></trkpt><trkpt lat="38.06208800313596" lon="15.290194891624585"><ele>491.0</ele><time>2026-04-11T13:08:14.999Z</time></trkpt><trkpt lat="38.0620033877189" lon="15.29017117269246"><ele>489.4</ele><time>2026-04-11T13:08:16.999Z</time></trkpt><trkpt lat="38.061895619039156" lon="15.290149701499182"><ele>487.8</ele><time>2026-04-11T13:08:19Z</time></trkpt><trkpt lat="38.061766662605564" lon="15.290121995010013"><ele>486.19999999999993</ele><time>2026-04-11T13:08:21Z</time></trkpt><trkpt lat="38.0616830772936" lon="15.290094234833987"><ele>484.59999999999997</ele><time>2026-04-11T13:08:22Z</time></trkpt><trkpt lat="38.06160248270311" lon="15.290065107815447"><ele>483.0</ele><time>2026-04-11T13:08:23Z</time></trkpt><trkpt lat="38.06151972935324" lon="15.290044390006033"><ele>483.0</ele><time>2026-04-11T13:08:24Z</time></trkpt><trkpt lat="38.061448536635226" lon="15.290034222750187"><ele>483.0</ele><time>2026-04-11T13:08:25Z</time></trkpt><trkpt lat="38.06138033944493" lon="15.290016763566486"><ele>483.0</ele><time>2026-04-11T13:08:26Z</time></trkpt><trkpt lat="38.061301793188754" lon="15.290008229328341"><ele>483.0</ele><time>2026-04-11T13:08:27Z</time></trkpt><trkpt lat="38.061219956580054" lon="15.289991168070022"><ele>483.0</ele><time>2026-04-11T13:08:28Z</time></trkpt><trkpt lat="38.06114709690056" lon="15.289979739243876"><ele>483.0</ele><time>2026-04-11T13:08:29Z</time></trkpt><trkpt lat="38.06108036373634" lon="15.289974923386277"><ele>483.0</ele><time>2026-04-11T13:08:30Z</time></trkpt><trkpt lat="38.06101272961631" lon="15.289980943957266"><ele>483.0</ele><time>2026-04-11T13:08:31Z</time></trkpt><trkpt lat="38.06094474041734" lon="15.28998312469422"><ele>483.0</ele><time>2026-04-11T13:08:32Z</time></trkpt><trkpt lat="38.0608279608698" lon="15.28996114248654"><ele>483.0</ele><time>2026-04-11T13:08:34Z</time></trkpt><trkpt lat="38.06076278131776" lon="15.289940501228807"><ele>483.0</ele><time>2026-04-11T13:08:35Z</time></trkpt><trkpt lat="38.06070128973593" lon="15.289906329935432"><ele>483.0</ele><time>2026-04-11T13:08:36Z</time></trkpt><trkpt lat="38.06059094365307" lon="15.28989063916703"><ele>483.0</ele><time>2026-04-11T13:08:38Z</time></trkpt><trkpt lat="38.060524583976324" lon="15.289900100908847"><ele>484.3333333333333</ele><time>2026-04-11T13:08:41Z</time></trkpt><trkpt lat="38.06043299904942" lon="15.289916786370213"><ele>485.66666666666663</ele><time>2026-04-11T13:08:46Z</time></trkpt><trkpt lat="38.06036187032319" lon="15.289934638338762"><ele>487.0</ele><time>2026-04-11T13:08:49Z</time></trkpt><trkpt lat="38.06027423601072" lon="15.28993869595988"><ele>488.3333333333333</ele><time>2026-04-11T13:08:52Z</time></trkpt><trkpt lat="38.06021751471314" lon="15.289887338316863"><ele>489.66666666666663</ele><time>2026-04-11T13:08:54Z</time></trkpt><trkpt lat="38.06013398142119" lon="15.289813426995995"><ele>491.0</ele><time>2026-04-11T13:08:56Z</time></trkpt><trkpt lat="38.060046211919705" lon="15.289754958801735"><ele>491.8333333333333</ele><time>2026-04-11T13:08:58Z</time></trkpt><trkpt lat="38.059987157046095" lon="15.289713104784354"><ele>492.66666666666663</ele><time>2026-04-11T13:09:01Z</time></trkpt><trkpt lat="38.059879547879106" lon="15.289683669098252"><ele>493.5</ele><time>2026-04-11T13:09:04Z</time></trkpt><trkpt lat="38.059775136279825" lon="15.289633125902538"><ele>494.33333333333337</ele><time>2026-04-11T13:09:06Z</time></trkpt><trkpt lat="38.05970943050978" lon="15.28961452320885"><ele>495.1666666666667</ele><time>2026-04-11T13:09:08Z</time></trkpt><trkpt lat="38.05963642463242" lon="15.289601047956076"><ele>496.0</ele><time>2026-04-11T13:09:11Z</time></trkpt><trkpt lat="38.05955799784356" lon="15.289552891831661"><ele>496.00000000000006</ele><time>2026-04-11T13:09:15Z</time></trkpt><trkpt lat="38.059466451914496" lon="15.289519423102638"><ele>496.0</ele><time>2026-04-11T13:09:18Z</time></trkpt><trkpt lat="38.05939372529583" lon="15.289499818001236"><ele>496.0</ele><time>2026-04-11T13:09:20Z</time></trkpt><trkpt lat="38.059325495627846" lon="15.289519204244517"><ele>496.0</ele><time>2026-04-11T13:09:22Z</time></trkpt><trkpt lat="38.05926381300774" lon="15.289555183079168"><ele>496.00000000000006</ele><time>2026-04-11T13:09:24Z</time></trkpt><trkpt lat="38.0591822799955" lon="15.289565623907375"><ele>496.0</ele><time>2026-04-11T13:09:26Z</time></trkpt><trkpt lat="38.0590718559771" lon="15.289536112901734"><ele>496.20000000000005</ele><time>2026-04-11T13:09:28Z</time></trkpt><trkpt lat="38.05898041060548" lon="15.289456102195025"><ele>496.40000000000003</ele><time>2026-04-11T13:09:30Z</time></trkpt><trkpt lat="38.05893079550557" lon="15.289390823774765"><ele>496.6</ele><time>2026-04-11T13:09:31Z</time></trkpt><trkpt lat="38.05888302143294" lon="15.289312096699087"><ele>496.8</ele><time>2026-04-11T13:09:32Z</time></trkpt><trkpt lat="38.05883454064223" lon="15.289244507776322"><ele>497.0</ele><time>2026-04-11T13:09:33Z</time></trkpt><trkpt lat="38.058743743752274" lon="15.289123177209335"><ele>496.99999999999994</ele><time>2026-04-11T13:09:35Z</time></trkpt><trkpt lat="38.05871864305102" lon="15.289036766807477"><ele>497.0</ele><time>2026-04-11T13:09:36Z</time></trkpt><trkpt lat="38.05869112295207" lon="15.288915368039746"><ele>497.0</ele><time>2026-04-11T13:09:38Z</time></trkpt><trkpt lat="38.05867669581386" lon="15.288824466143437"><ele>497.0</ele><time>2026-04-11T13:09:41Z</time></trkpt><trkpt lat="38.0586506436183" lon="15.288747341193826"><ele>496.99999999999994</ele><time>2026-04-11T13:09:44Z</time></trkpt><trkpt lat="38.05858249858834" lon="15.288695013284222"><ele>497.0</ele><time>2026-04-11T13:09:48Z</time></trkpt><trkpt lat="38.05849461596071" lon="15.288625738256545"><ele>497.20000000000005</ele><time>2026-04-11T13:09:51Z</time></trkpt><trkpt lat="38.05842138846507" lon="15.28856852864768"><ele>497.40000000000003</ele><time>2026-04-11T13:09:53Z</time></trkpt><trkpt lat="38.05838684675471" lon="15.288451694539111"><ele>497.59999999999997</ele><time>2026-04-11T13:09:56Z</time></trkpt><trkpt lat="38.05834900237595" lon="15.288315696516856"><ele>497.79999999999995</ele><time>2026-04-11T13:09:58Z</time></trkpt><trkpt lat="38.05832298976261" lon="15.288212960691864"><ele>498.0</ele><time>2026-04-11T13:10:00Z</time></trkpt><trkpt lat="38.05829041888877" lon="15.288118318611103"><ele>500.8333333333333</ele><time>2026-04-11T13:10:03Z</time></trkpt><trkpt lat="38.05826722763053" lon="15.288016552149834"><ele>503.66666666666663</ele><time>2026-04-11T13:10:05.999Z</time></trkpt><trkpt lat="38.05826106596928" lon="15.287923115213202"><ele>506.5</ele><time>2026-04-11T13:10:08.999Z</time></trkpt><trkpt lat="38.05825682696525" lon="15.287829070993798"><ele>509.3333333333333</ele><time>2026-04-11T13:10:10.999Z</time></trkpt><trkpt lat="38.0582509315503" lon="15.287742348231282"><ele>512.1666666666666</ele><time>2026-04-11T13:10:12.999Z</time></trkpt><trkpt lat="38.058237814521135" lon="15.287657608691164"><ele>515.0</ele><time>2026-04-11T13:10:16.999Z</time></trkpt><trkpt lat="38.05819971978153" lon="15.287557322152452"><ele>515.0</ele><time>2026-04-11T13:10:19.999Z</time></trkpt><trkpt lat="38.05815634912598" lon="15.287473572544137"><ele>515.0</ele><time>2026-04-11T13:10:21.999Z</time></trkpt><trkpt lat="38.05807472872047" lon="15.287370534360589"><ele>515.0</ele><time>2026-04-11T13:10:24Z</time></trkpt><trkpt lat="38.05797822831068" lon="15.287298559430807"><ele>515.0</ele><time>2026-04-11T13:10:26Z</time></trkpt><trkpt lat="38.05788203465007" lon="15.287228603452762"><ele>515.0</ele><time>2026-04-11T13:10:28Z</time></trkpt><trkpt lat="38.05781610035704" lon="15.287184127903759"><ele>520.5</ele><time>2026-04-11T13:10:30Z</time></trkpt><trkpt lat="38.05774703079295" lon="15.287121541360037"><ele>526.0</ele><time>2026-04-11T13:10:33Z</time></trkpt><trkpt lat="38.05766647968774" lon="15.287067242536033"><ele>531.5</ele><time>2026-04-11T13:10:35Z</time></trkpt><trkpt lat="38.0575902356478" lon="15.287049054602498"><ele>537.0</ele><time>2026-04-11T13:10:37Z</time></trkpt><trkpt lat="38.057635969055696" lon="15.286988481242988"><ele>542.5</ele><time>2026-04-11T13:19:14Z</time></trkpt><trkpt lat="38.05757348315658" lon="15.287040001891286"><ele>548.0</ele><time>2026-04-11T13:20:22.999Z</time></trkpt><trkpt lat="38.05763451928358" lon="15.287077003763157"><ele>548.0</ele><time>2026-04-11T13:21:18Z</time></trkpt><trkpt lat="38.057698418974425" lon="15.287050096381085"><ele>548.0</ele><time>2026-04-11T13:21:47Z</time></trkpt><trkpt lat="38.05775833511983" lon="15.287106042725062"><ele>548.0</ele><time>2026-04-11T13:21:51Z</time></trkpt><trkpt lat="38.05782413010783" lon="15.287169843678125"><ele>548.0</ele><time>2026-04-11T13:21:54Z</time></trkpt><trkpt lat="38.05789445435435" lon="15.287217884985116"><ele>548.0</ele><time>2026-04-11T13:21:56Z</time></trkpt><trkpt lat="38.05796558089439" lon="15.287260324586313"><ele>548.0</ele><time>2026-04-11T13:21:59Z</time></trkpt><trkpt lat="38.058021423069256" lon="15.287307396030208"><ele>543.2857142857143</ele><time>2026-04-11T13:22:02Z</time></trkpt><trkpt lat="38.05809606947316" lon="15.287389652600849"><ele>538.5714285714286</ele><time>2026-04-11T13:22:05Z</time></trkpt><trkpt lat="38.058144593119536" lon="15.287444346882504"><ele>533.8571428571429</ele><time>2026-04-11T13:22:07Z</time></trkpt><trkpt lat="38.05818985281397" lon="15.287514742513615"><ele>529.1428571428571</ele><time>2026-04-11T13:22:10Z</time></trkpt><trkpt lat="38.05822685787731" lon="15.2875803489619"><ele>524.4285714285714</ele><time>2026-04-11T13:22:15Z</time></trkpt><trkpt lat="38.05825107064592" lon="15.287654162584165"><ele>519.7142857142858</ele><time>2026-04-11T13:22:19Z</time></trkpt><trkpt lat="38.0582687641438" lon="15.287747187353073"><ele>515.0</ele><time>2026-04-11T13:22:22Z</time></trkpt><trkpt lat="38.05827140595981" lon="15.287860928386168"><ele>515.0</ele><time>2026-04-11T13:22:24Z</time></trkpt><trkpt lat="38.05827609884895" lon="15.287969818400299"><ele>515.0</ele><time>2026-04-11T13:22:26Z</time></trkpt><trkpt lat="38.058288299423594" lon="15.288068987843953"><ele>515.0</ele><time>2026-04-11T13:22:28Z</time></trkpt><trkpt lat="38.0583184985798" lon="15.288165261355248"><ele>515.0</ele><time>2026-04-11T13:22:31Z</time></trkpt><trkpt lat="38.05833573899454" lon="15.28826663680456"><ele>515.0</ele><time>2026-04-11T13:22:38Z</time></trkpt><trkpt lat="38.05837010989524" lon="15.288352670720826"><ele>515.0</ele><time>2026-04-11T13:22:40Z</time></trkpt><trkpt lat="38.05840447750355" lon="15.288446727614906"><ele>512.1666666666666</ele><time>2026-04-11T13:22:43Z</time></trkpt><trkpt lat="38.058447108082554" lon="15.288537513224538"><ele>509.3333333333333</ele><time>2026-04-11T13:22:46Z</time></trkpt><trkpt lat="38.058486840601304" lon="15.288619407178622"><ele>506.5</ele><time>2026-04-11T13:22:49Z</time></trkpt><trkpt lat="38.058551155757925" lon="15.288670568483694"><ele>503.66666666666663</ele><time>2026-04-11T13:22:52Z</time></trkpt><trkpt lat="38.05862375893025" lon="15.288717786256615"><ele>500.8333333333333</ele><time>2026-04-11T13:22:55Z</time></trkpt><trkpt lat="38.05867672741238" lon="15.288788642369763"><ele>498.0</ele><time>2026-04-11T13:22:57.999Z</time></trkpt><trkpt lat="38.05870561117314" lon="15.288916662558051"><ele>497.79999999999995</ele><time>2026-04-11T13:23:01Z</time></trkpt><trkpt lat="38.05873637296694" lon="15.289037265097575"><ele>497.59999999999997</ele><time>2026-04-11T13:23:03Z</time></trkpt><trkpt lat="38.058781877976585" lon="15.289131355884075"><ele>497.40000000000003</ele><time>2026-04-11T13:23:05Z</time></trkpt><trkpt lat="38.058842038523174" lon="15.28924890576889"><ele>497.20000000000005</ele><time>2026-04-11T13:23:07Z</time></trkpt><trkpt lat="38.05891356647594" lon="15.289344328108903"><ele>497.0</ele><time>2026-04-11T13:23:09Z</time></trkpt><trkpt lat="38.05899538068302" lon="15.289458863962306"><ele>497.0</ele><time>2026-04-11T13:23:11Z</time></trkpt><trkpt lat="38.05908501238778" lon="15.289544632033984"><ele>497.00000000000006</ele><time>2026-04-11T13:23:13Z</time></trkpt><trkpt lat="38.05917890879824" lon="15.289585591079486"><ele>497.00000000000006</ele><time>2026-04-11T13:23:15Z</time></trkpt><trkpt lat="38.059274317319456" lon="15.289582370553648"><ele>497.0</ele><time>2026-04-11T13:23:17Z</time></trkpt><trkpt lat="38.05935810288243" lon="15.289542452903126"><ele>497.0</ele><time>2026-04-11T13:23:19Z</time></trkpt><trkpt lat="38.05940942798516" lon="15.28949575885588"><ele>496.8333333333333</ele><time>2026-04-11T13:23:22Z</time></trkpt><trkpt lat="38.05948980035197" lon="15.289517528663469"><ele>496.66666666666663</ele><time>2026-04-11T13:23:27Z</time></trkpt><trkpt lat="38.059578421688514" lon="15.289556508421258"><ele>496.5</ele><time>2026-04-11T13:23:30Z</time></trkpt><trkpt lat="38.059642198486976" lon="15.289583137758639"><ele>496.33333333333337</ele><time>2026-04-11T13:23:32Z</time></trkpt><trkpt lat="38.05972303173233" lon="15.28961004482246"><ele>496.1666666666667</ele><time>2026-04-11T13:23:34Z</time></trkpt><trkpt lat="38.05981335328969" lon="15.28964959846554"><ele>496.0</ele><time>2026-04-11T13:23:36Z</time></trkpt><trkpt lat="38.059929380054186" lon="15.289704056900419"><ele>495.1666666666667</ele><time>2026-04-11T13:23:38Z</time></trkpt><trkpt lat="38.059991263657295" lon="15.289728842372032"><ele>494.33333333333337</ele><time>2026-04-11T13:23:39Z</time></trkpt><trkpt lat="38.06005438935058" lon="15.289763182326555"><ele>493.5</ele><time>2026-04-11T13:23:40Z</time></trkpt><trkpt lat="38.06014417876439" lon="15.289821813712189"><ele>492.66666666666663</ele><time>2026-04-11T13:23:42Z</time></trkpt><trkpt lat="38.06022530440568" lon="15.289892529368712"><ele>491.8333333333333</ele><time>2026-04-11T13:23:44Z</time></trkpt><trkpt lat="38.06029289866595" lon="15.289952081855821"><ele>491.0</ele><time>2026-04-11T13:23:47Z</time></trkpt><trkpt lat="38.06037353638216" lon="15.289972036771553"><ele>490.99999999999994</ele><time>2026-04-11T13:23:52Z</time></trkpt><trkpt lat="38.060461754998535" lon="15.289941433178042"><ele>491.0</ele><time>2026-04-11T13:23:55Z</time></trkpt><trkpt lat="38.0605245643537" lon="15.289935354482044"><ele>491.0</ele><time>2026-04-11T13:23:57Z</time></trkpt><trkpt lat="38.06059569651124" lon="15.2899305308579"><ele>491.0</ele><time>2026-04-11T13:23:59Z</time></trkpt><trkpt lat="38.06069392245418" lon="15.289945533180603"><ele>490.99999999999994</ele><time>2026-04-11T13:24:01Z</time></trkpt><trkpt lat="38.06080157823442" lon="15.289977613857538"><ele>491.0</ele><time>2026-04-11T13:24:03Z</time></trkpt><trkpt lat="38.060865132604825" lon="15.289995913099947"><ele>489.4</ele><time>2026-04-11T13:24:04Z</time></trkpt><trkpt lat="38.06097128215699" lon="15.290015202105389"><ele>487.8</ele><time>2026-04-11T13:24:06Z</time></trkpt><trkpt lat="38.0610978566963" lon="15.289995331866765"><ele>486.19999999999993</ele><time>2026-04-11T13:24:08Z</time></trkpt><trkpt lat="38.06121995580986" lon="15.29001083487779"><ele>484.59999999999997</ele><time>2026-04-11T13:24:10Z</time></trkpt><trkpt lat="38.06128525916422" lon="15.290029307878475"><ele>483.0</ele><time>2026-04-11T13:24:11Z</time></trkpt><trkpt lat="38.06136253401366" lon="15.290052949798485"><ele>483.0</ele><time>2026-04-11T13:24:12Z</time></trkpt><trkpt lat="38.06143873893831" lon="15.290069132802547"><ele>483.0</ele><time>2026-04-11T13:24:13Z</time></trkpt><trkpt lat="38.06151194303607" lon="15.290073198963732"><ele>483.0</ele><time>2026-04-11T13:24:14Z</time></trkpt><trkpt lat="38.06158686831714" lon="15.290081539794603"><ele>483.0</ele><time>2026-04-11T13:24:15Z</time></trkpt><trkpt lat="38.0616603788236" lon="15.290094411943123"><ele>483.0</ele><time>2026-04-11T13:24:16Z</time></trkpt><trkpt lat="38.06173220838606" lon="15.290112859594345"><ele>483.0</ele><time>2026-04-11T13:24:17Z</time></trkpt><trkpt lat="38.061804353342836" lon="15.29013534502348"><ele>483.0</ele><time>2026-04-11T13:24:18Z</time></trkpt><trkpt lat="38.0618716503105" lon="15.29015876790242"><ele>482.8333333333333</ele><time>2026-04-11T13:24:19Z</time></trkpt><trkpt lat="38.06197305726029" lon="15.29018145692796"><ele>482.66666666666663</ele><time>2026-04-11T13:24:21Z</time></trkpt><trkpt lat="38.06203854531178" lon="15.290190740136486"><ele>482.5</ele><time>2026-04-11T13:24:22Z</time></trkpt><trkpt lat="38.062108658464716" lon="15.290203853947032"><ele>482.3333333333333</ele><time>2026-04-11T13:24:23Z</time></trkpt><trkpt lat="38.06218427128942" lon="15.290208450129398"><ele>482.16666666666663</ele><time>2026-04-11T13:24:24Z</time></trkpt><trkpt lat="38.06226406374327" lon="15.290210085236724"><ele>482.0</ele><time>2026-04-11T13:24:25Z</time></trkpt><trkpt lat="38.06234417662571" lon="15.290207722598021"><ele>481.99999999999994</ele><time>2026-04-11T13:24:26Z</time></trkpt><trkpt lat="38.06242071777912" lon="15.290214752042683"><ele>482.0</ele><time>2026-04-11T13:24:27Z</time></trkpt><trkpt lat="38.06249385326641" lon="15.290236714177109"><ele>482.0</ele><time>2026-04-11T13:24:28Z</time></trkpt><trkpt lat="38.06257310256011" lon="15.29025852282523"><ele>482.0</ele><time>2026-04-11T13:24:29Z</time></trkpt><trkpt lat="38.062643256459836" lon="15.290279284826514"><ele>481.99999999999994</ele><time>2026-04-11T13:24:30Z</time></trkpt><trkpt lat="38.062708450678095" lon="15.290292746044155"><ele>482.0</ele><time>2026-04-11T13:24:31Z</time></trkpt><trkpt lat="38.062825890230556" lon="15.29030230173733"><ele>480.40000000000003</ele><time>2026-04-11T13:24:33Z</time></trkpt><trkpt lat="38.06292675593179" lon="15.290304615410356"><ele>478.80000000000007</ele><time>2026-04-11T13:24:35Z</time></trkpt><trkpt lat="38.06303395054916" lon="15.290291378066657"><ele>477.2</ele><time>2026-04-11T13:24:37Z</time></trkpt><trkpt lat="38.06315572010454" lon="15.290252844364815"><ele>475.6</ele><time>2026-04-11T13:24:39Z</time></trkpt><trkpt lat="38.0632228601873" lon="15.290229947985921"><ele>474.0</ele><time>2026-04-11T13:24:40Z</time></trkpt><trkpt lat="38.06328794698401" lon="15.290207637221295"><ele>474.0</ele><time>2026-04-11T13:24:41Z</time></trkpt><trkpt lat="38.063399276581904" lon="15.290178168972725"><ele>474.0</ele><time>2026-04-11T13:24:43Z</time></trkpt><trkpt lat="38.06348062799367" lon="15.290162663273351"><ele>474.0</ele><time>2026-04-11T13:24:45Z</time></trkpt><trkpt lat="38.06355141995261" lon="15.290142461034208"><ele>474.0</ele><time>2026-04-11T13:24:47Z</time></trkpt><trkpt lat="38.063639760364374" lon="15.290104857047075"><ele>474.0</ele><time>2026-04-11T13:24:50Z</time></trkpt><trkpt lat="38.06369883669236" lon="15.290046787296648"><ele>474.0</ele><time>2026-04-11T13:25:29Z</time></trkpt><trkpt lat="38.063754469695134" lon="15.290006719523525"><ele>474.0</ele><time>2026-04-11T13:25:30Z</time></trkpt><trkpt lat="38.06385535575521" lon="15.289934025342081"><ele>474.0</ele><time>2026-04-11T13:25:32Z</time></trkpt><trkpt lat="38.06390552302054" lon="15.289882972252407"><ele>474.0</ele><time>2026-04-11T13:25:33Z</time></trkpt><trkpt lat="38.063977842246835" lon="15.289832243043632"><ele>474.0</ele><time>2026-04-11T13:25:34Z</time></trkpt><trkpt lat="38.06406115904592" lon="15.289780567286607"><ele>474.0</ele><time>2026-04-11T13:25:35Z</time></trkpt><trkpt lat="38.06413337606799" lon="15.28973061205193"><ele>474.0</ele><time>2026-04-11T13:25:36Z</time></trkpt><trkpt lat="38.064201300154856" lon="15.289690226746558"><ele>474.8333333333333</ele><time>2026-04-11T13:25:37Z</time></trkpt><trkpt lat="38.06426845722949" lon="15.289655641341394"><ele>475.66666666666663</ele><time>2026-04-11T13:25:38Z</time></trkpt><trkpt lat="38.06433928028065" lon="15.289635742955"><ele>476.5</ele><time>2026-04-11T13:25:39Z</time></trkpt><trkpt lat="38.06440728404916" lon="15.289628369512732"><ele>477.3333333333333</ele><time>2026-04-11T13:25:40Z</time></trkpt><trkpt lat="38.06448619543599" lon="15.289622657085518"><ele>478.16666666666663</ele><time>2026-04-11T13:25:41Z</time></trkpt><trkpt lat="38.06457529197351" lon="15.289611126988355"><ele>479.0</ele><time>2026-04-11T13:25:42Z</time></trkpt><trkpt lat="38.064662972490076" lon="15.289593577912125"><ele>478.99999999999994</ele><time>2026-04-11T13:25:43Z</time></trkpt><trkpt lat="38.06474784148155" lon="15.289577977380905"><ele>479.0</ele><time>2026-04-11T13:25:44Z</time></trkpt><trkpt lat="38.06482693014497" lon="15.289579454479838"><ele>479.0</ele><time>2026-04-11T13:25:45Z</time></trkpt><trkpt lat="38.06490591417119" lon="15.289608498303382"><ele>479.0</ele><time>2026-04-11T13:25:46Z</time></trkpt><trkpt lat="38.06498966259577" lon="15.289647494631074"><ele>478.99999999999994</ele><time>2026-04-11T13:25:47Z</time></trkpt><trkpt lat="38.06507575448281" lon="15.289694310286535"><ele>479.0</ele><time>2026-04-11T13:25:48Z</time></trkpt><trkpt lat="38.06515886396331" lon="15.289727069435203"><ele>477.8333333333333</ele><time>2026-04-11T13:25:49Z</time></trkpt><trkpt lat="38.06523315440968" lon="15.289743103266922"><ele>476.66666666666663</ele><time>2026-04-11T13:25:50Z</time></trkpt><trkpt lat="38.06531228886424" lon="15.289753720486999"><ele>475.5</ele><time>2026-04-11T13:25:51Z</time></trkpt><trkpt lat="38.06539779133397" lon="15.289751252125344"><ele>474.33333333333337</ele><time>2026-04-11T13:25:52Z</time></trkpt><trkpt lat="38.06548651808329" lon="15.289746201985762"><ele>473.1666666666667</ele><time>2026-04-11T13:25:53Z</time></trkpt><trkpt lat="38.065587448304484" lon="15.28973982413578"><ele>472.0</ele><time>2026-04-11T13:25:54Z</time></trkpt><trkpt lat="38.06567625154871" lon="15.289732426853707"><ele>472.0</ele><time>2026-04-11T13:25:55Z</time></trkpt><trkpt lat="38.065756405364695" lon="15.289727475362572"><ele>472.0</ele><time>2026-04-11T13:25:56Z</time></trkpt><trkpt lat="38.065822944117876" lon="15.289727952904705"><ele>472.0</ele><time>2026-04-11T13:25:57Z</time></trkpt><trkpt lat="38.065887566116224" lon="15.289742183228999"><ele>472.0</ele><time>2026-04-11T13:25:58Z</time></trkpt><trkpt lat="38.06594832852826" lon="15.289773685239405"><ele>472.0</ele><time>2026-04-11T13:25:59Z</time></trkpt><trkpt lat="38.066012518741054" lon="15.289812440171765"><ele>472.0</ele><time>2026-04-11T13:26:00Z</time></trkpt><trkpt lat="38.06608107508453" lon="15.289860971472791"><ele>472.0</ele><time>2026-04-11T13:26:01Z</time></trkpt><trkpt lat="38.066174153930234" lon="15.289959623754376"><ele>468.83333333333337</ele><time>2026-04-11T13:26:03Z</time></trkpt><trkpt lat="38.066229806711505" lon="15.290037414121027"><ele>465.6666666666667</ele><time>2026-04-11T13:26:05Z</time></trkpt><trkpt lat="38.06628981636897" lon="15.2900721268564"><ele>462.5</ele><time>2026-04-11T13:26:08Z</time></trkpt><trkpt lat="38.06634987861956" lon="15.29012818023811"><ele>459.33333333333337</ele><time>2026-04-11T13:26:11Z</time></trkpt><trkpt lat="38.06639734264588" lon="15.290202653279987"><ele>456.1666666666667</ele><time>2026-04-11T13:26:13Z</time></trkpt><trkpt lat="38.06644477780613" lon="15.290287937776029"><ele>453.0</ele><time>2026-04-11T13:26:15Z</time></trkpt><trkpt lat="38.066511305966145" lon="15.290409184527025"><ele>453.0</ele><time>2026-04-11T13:26:17Z</time></trkpt><trkpt lat="38.06658155075786" lon="15.29052975949605"><ele>452.99999999999994</ele><time>2026-04-11T13:26:19Z</time></trkpt><trkpt lat="38.06664071110341" lon="15.290609955466769"><ele>452.99999999999994</ele><time>2026-04-11T13:26:21Z</time></trkpt><trkpt lat="38.06670113618204" lon="15.290668299416366"><ele>453.0</ele><time>2026-04-11T13:26:23Z</time></trkpt><trkpt lat="38.066775543206816" lon="15.290758985354021"><ele>453.0</ele><time>2026-04-11T13:26:26Z</time></trkpt><trkpt lat="38.06683061028233" lon="15.29080583870912"><ele>453.0</ele><time>2026-04-11T13:26:28Z</time></trkpt><trkpt lat="38.06689261241716" lon="15.290856587149316"><ele>453.0</ele><time>2026-04-11T13:26:30Z</time></trkpt><trkpt lat="38.066958653069854" lon="15.29091402466381"><ele>453.0</ele><time>2026-04-11T13:26:32Z</time></trkpt><trkpt lat="38.067026221666985" lon="15.290936954889444"><ele>453.0</ele><time>2026-04-11T13:26:52Z</time></trkpt><trkpt lat="38.067095217772" lon="15.291000634440168"><ele>453.0</ele><time>2026-04-11T13:28:45Z</time></trkpt><trkpt lat="38.06716630264827" lon="15.290996962548464"><ele>453.0</ele><time>2026-04-11T13:28:55Z</time></trkpt><trkpt lat="38.06718244695081" lon="15.290881196484122"><ele>453.0</ele><time>2026-04-11T13:28:58Z</time></trkpt><trkpt lat="38.0672305397674" lon="15.290749863941835"><ele>453.0</ele><time>2026-04-11T13:29:00Z</time></trkpt><trkpt lat="38.06725467474772" lon="15.290649141016933"><ele>453.0</ele><time>2026-04-11T13:29:02Z</time></trkpt><trkpt lat="38.067273148652575" lon="15.290570594753463"><ele>453.0</ele><time>2026-04-11T13:29:05Z</time></trkpt><trkpt lat="38.06731768415952" lon="15.29049401095983"><ele>453.0</ele><time>2026-04-11T13:29:26Z</time></trkpt><trkpt lat="38.06735870925327" lon="15.290407793773054"><ele>453.0</ele><time>2026-04-11T13:29:30Z</time></trkpt><trkpt lat="38.06740455762889" lon="15.290333529153227"><ele>453.3333333333333</ele><time>2026-04-11T13:29:33Z</time></trkpt><trkpt lat="38.06747160568493" lon="15.290258079379281"><ele>453.66666666666663</ele><time>2026-04-11T13:29:36Z</time></trkpt><trkpt lat="38.06754689773525" lon="15.290192642211954"><ele>454.0</ele><time>2026-04-11T13:29:39Z</time></trkpt><trkpt lat="38.06759918495091" lon="15.290143391131087"><ele>454.3333333333333</ele><time>2026-04-11T13:29:42Z</time></trkpt><trkpt lat="38.067523177617986" lon="15.29010565681332"><ele>454.66666666666663</ele><time>2026-04-11T13:29:47Z</time></trkpt><trkpt lat="38.0674571519056" lon="15.290093433664818"><ele>455.0</ele><time>2026-04-11T13:29:49Z</time></trkpt><trkpt lat="38.06739573265524" lon="15.290064726107016"><ele>454.99999999999994</ele><time>2026-04-11T13:29:51Z</time></trkpt><trkpt lat="38.06732020337161" lon="15.290046705339202"><ele>455.0</ele><time>2026-04-11T13:29:54Z</time></trkpt><trkpt lat="38.06723906747012" lon="15.290048004869142"><ele>455.0</ele><time>2026-04-11T13:29:57Z</time></trkpt><trkpt lat="38.067176354400864" lon="15.290016198176637"><ele>455.0</ele><time>2026-04-11T13:30:00Z</time></trkpt><trkpt lat="38.06727313700425" lon="15.290040150049416"><ele>454.99999999999994</ele><time>2026-04-11T13:30:56.999Z</time></trkpt><trkpt lat="38.067352816176594" lon="15.290051673759688"><ele>455.0</ele><time>2026-04-11T13:30:59.999Z</time></trkpt><trkpt lat="38.06743541183387" lon="15.290081693823286"><ele>455.8333333333333</ele><time>2026-04-11T13:31:02.999Z</time></trkpt><trkpt lat="38.067505076344645" lon="15.290095985274796"><ele>456.66666666666663</ele><time>2026-04-11T13:31:04.999Z</time></trkpt><trkpt lat="38.06758265764884" lon="15.290137030355742"><ele>457.5</ele><time>2026-04-11T13:31:08.999Z</time></trkpt><trkpt lat="38.06764186051701" lon="15.290191820450723"><ele>458.33333333333337</ele><time>2026-04-11T13:31:12.999Z</time></trkpt><trkpt lat="38.06769634238163" lon="15.290245985540365"><ele>459.1666666666667</ele><time>2026-04-11T13:31:15.999Z</time></trkpt><trkpt lat="38.067815143874945" lon="15.290273236709847"><ele>460.0</ele><time>2026-04-11T13:31:49Z</time></trkpt><trkpt lat="38.06787660949654" lon="15.290292511231577"><ele>460.00000000000006</ele><time>2026-04-11T13:31:51Z</time></trkpt><trkpt lat="38.06779922031273" lon="15.290277265434264"><ele>460.0</ele><time>2026-04-11T13:32:22Z</time></trkpt><trkpt lat="38.06771871100659" lon="15.29025960505514"><ele>460.0</ele><time>2026-04-11T13:32:26Z</time></trkpt><trkpt lat="38.067665985955166" lon="15.290199334870117"><ele>460.0</ele><time>2026-04-11T13:32:29Z</time></trkpt><trkpt lat="38.06759745024926" lon="15.290153385127441"><ele>460.00000000000006</ele><time>2026-04-11T13:32:32Z</time></trkpt><trkpt lat="38.06765400798078" lon="15.290218828037204"><ele>460.0</ele><time>2026-04-11T13:33:01.999Z</time></trkpt><trkpt lat="38.06771093474231" lon="15.29026195051224"><ele>460.00000000000006</ele><time>2026-04-11T13:33:05.999Z</time></trkpt><trkpt lat="38.067777599450885" lon="15.290284205866106"><ele>460.0</ele><time>2026-04-11T13:33:09.999Z</time></trkpt><trkpt lat="38.06785113371895" lon="15.290286843187143"><ele>460.0</ele><time>2026-04-11T13:33:15.999Z</time></trkpt><trkpt lat="38.067778477139115" lon="15.290268727893055"><ele>460.0</ele><time>2026-04-11T13:34:05Z</time></trkpt><trkpt lat="38.06771182723889" lon="15.290253976302894"><ele>460.00000000000006</ele><time>2026-04-11T13:34:11Z</time></trkpt><trkpt lat="38.067657216666724" lon="15.290198118855479"><ele>460.0</ele><time>2026-04-11T13:34:16Z</time></trkpt><trkpt lat="38.06753587614549" lon="15.290179671605454"><ele>459.99999999999994</ele><time>2026-04-11T13:34:38Z</time></trkpt><trkpt lat="38.06748096243996" lon="15.290237749914018"><ele>460.0</ele><time>2026-04-11T13:34:41Z</time></trkpt><trkpt lat="38.067422566520385" lon="15.290325216038788"><ele>459.99999999999994</ele><time>2026-04-11T13:34:44Z</time></trkpt><trkpt lat="38.06736767310189" lon="15.290373663057807"><ele>459.99999999999994</ele><time>2026-04-11T13:34:46Z</time></trkpt><trkpt lat="38.06731766045412" lon="15.290434930203206"><ele>460.0</ele><time>2026-04-11T13:34:49Z</time></trkpt><trkpt lat="38.06725890454345" lon="15.290487306948556"><ele>459.99999999999994</ele><time>2026-04-11T13:34:53Z</time></trkpt><trkpt lat="38.06728620917698" lon="15.290577515163577"><ele>459.99999999999994</ele><time>2026-04-11T13:37:25.999Z</time></trkpt><trkpt lat="38.06730855395616" lon="15.290498167524536"><ele>459.2857142857142</ele><time>2026-04-11T13:37:36.999Z</time></trkpt><trkpt lat="38.06726839648742" lon="15.2905632029809"><ele>458.57142857142856</ele><time>2026-04-11T13:38:13Z</time></trkpt><trkpt lat="38.06731984545418" lon="15.290477117656751"><ele>457.85714285714283</ele><time>2026-04-11T13:39:04Z</time></trkpt><trkpt lat="38.06737678956271" lon="15.290433698683545"><ele>457.1428571428571</ele><time>2026-04-11T13:39:10Z</time></trkpt><trkpt lat="38.06733525076798" lon="15.290494551454536"><ele>456.42857142857144</ele><time>2026-04-11T13:40:22Z</time></trkpt><trkpt lat="38.06729195185806" lon="15.290567516607599"><ele>455.7142857142857</ele><time>2026-04-11T13:40:53Z</time></trkpt><trkpt lat="38.067251675927714" lon="15.29067371981531"><ele>455.0</ele><time>2026-04-11T13:45:20.999Z</time></trkpt><trkpt lat="38.06722428179865" lon="15.290778525179793"><ele>454.66666666666663</ele><time>2026-04-11T13:45:22.999Z</time></trkpt><trkpt lat="38.06719664071838" lon="15.290870072554258"><ele>454.3333333333333</ele><time>2026-04-11T13:45:24.999Z</time></trkpt><trkpt lat="38.06716685985112" lon="15.290964871634444"><ele>454.0</ele><time>2026-04-11T13:45:27.999Z</time></trkpt><trkpt lat="38.06719684609864" lon="15.291044874710378"><ele>453.66666666666663</ele><time>2026-04-11T13:45:31.999Z</time></trkpt><trkpt lat="38.06725579949645" lon="15.291098560943672"><ele>453.3333333333333</ele><time>2026-04-11T13:45:33.999Z</time></trkpt><trkpt lat="38.067350089617406" lon="15.29115032631177"><ele>453.0</ele><time>2026-04-11T13:45:35.999Z</time></trkpt><trkpt lat="38.06746001314915" lon="15.291223129129017"><ele>454.1666666666667</ele><time>2026-04-11T13:45:37.999Z</time></trkpt><trkpt lat="38.067522192171005" lon="15.291263647750485"><ele>455.33333333333337</ele><time>2026-04-11T13:45:38.999Z</time></trkpt><trkpt lat="38.06758736190225" lon="15.291309679107682"><ele>456.5</ele><time>2026-04-11T13:45:39.999Z</time></trkpt><trkpt lat="38.06765426759013" lon="15.291347263367808"><ele>457.6666666666667</ele><time>2026-04-11T13:45:40.999Z</time></trkpt><trkpt lat="38.06771216681349" lon="15.291381545107118"><ele>458.83333333333337</ele><time>2026-04-11T13:45:41.999Z</time></trkpt><trkpt lat="38.06781492770824" lon="15.291435698729728"><ele>460.0</ele><time>2026-04-11T13:45:43.999Z</time></trkpt><trkpt lat="38.06792963534853" lon="15.291462851097824"><ele>460.0</ele><time>2026-04-11T13:45:45.999Z</time></trkpt><trkpt lat="38.06804428538325" lon="15.291455846320684"><ele>460.0</ele><time>2026-04-11T13:45:47.999Z</time></trkpt><trkpt lat="38.0681684364584" lon="15.29144912154417"><ele>460.0</ele><time>2026-04-11T13:45:49.999Z</time></trkpt><trkpt lat="38.06827621736953" lon="15.291473330865903"><ele>460.0</ele><time>2026-04-11T13:45:51.999Z</time></trkpt><trkpt lat="38.06835965975652" lon="15.291514800609546"><ele>460.0</ele><time>2026-04-11T13:45:53.999Z</time></trkpt><trkpt lat="38.06842584198494" lon="15.291561803503111"><ele>457.0</ele><time>2026-04-11T13:45:55.999Z</time></trkpt><trkpt lat="38.0684940944812" lon="15.291611708969413"><ele>454.0</ele><time>2026-04-11T13:45:57.999Z</time></trkpt><trkpt lat="38.06858232533485" lon="15.291670020970715"><ele>451.0</ele><time>2026-04-11T13:45:59.999Z</time></trkpt><trkpt lat="38.068693624482385" lon="15.291738277149134"><ele>448.0</ele><time>2026-04-11T13:46:01.999Z</time></trkpt><trkpt lat="38.06878311488142" lon="15.291813761211086"><ele>445.0</ele><time>2026-04-11T13:46:03.999Z</time></trkpt><trkpt lat="38.06885416732912" lon="15.29189311470369"><ele>445.0</ele><time>2026-04-11T13:46:06Z</time></trkpt><trkpt lat="38.06892288441124" lon="15.291975562789718"><ele>445.0</ele><time>2026-04-11T13:46:08Z</time></trkpt><trkpt lat="38.06901377709523" lon="15.292065496468624"><ele>445.0</ele><time>2026-04-11T13:46:10Z</time></trkpt><trkpt lat="38.069092717700954" lon="15.292143397796764"><ele>445.0</ele><time>2026-04-11T13:46:12Z</time></trkpt><trkpt lat="38.06917748754031" lon="15.292214948525602"><ele>445.0</ele><time>2026-04-11T13:46:14Z</time></trkpt><trkpt lat="38.069259103398274" lon="15.292249262925036"><ele>447.6</ele><time>2026-04-11T13:46:16Z</time></trkpt><trkpt lat="38.06934912340039" lon="15.292268891850037"><ele>450.2</ele><time>2026-04-11T13:46:18Z</time></trkpt><trkpt lat="38.069465930752436" lon="15.292281487868614"><ele>452.79999999999995</ele><time>2026-04-11T13:46:20Z</time></trkpt><trkpt lat="38.069577856574355" lon="15.29230596374187"><ele>455.4</ele><time>2026-04-11T13:46:22Z</time></trkpt><trkpt lat="38.069684315025626" lon="15.292351083340579"><ele>458.0</ele><time>2026-04-11T13:46:24Z</time></trkpt><trkpt lat="38.06977917237723" lon="15.292352912441201"><ele>458.0</ele><time>2026-04-11T13:46:26Z</time></trkpt><trkpt lat="38.06987625918835" lon="15.292311676558038"><ele>457.99999999999994</ele><time>2026-04-11T13:46:28Z</time></trkpt><trkpt lat="38.06996697393604" lon="15.292236381585775"><ele>457.99999999999994</ele><time>2026-04-11T13:46:30Z</time></trkpt><trkpt lat="38.070028138257825" lon="15.292136636816629"><ele>458.0</ele><time>2026-04-11T13:46:32Z</time></trkpt><trkpt lat="38.07005286835491" lon="15.292009459761788"><ele>458.0</ele><time>2026-04-11T13:46:34Z</time></trkpt><trkpt lat="38.070082793294034" lon="15.29190582297661"><ele>454.0</ele><time>2026-04-11T13:46:36Z</time></trkpt><trkpt lat="38.070133711146944" lon="15.29182418091151"><ele>449.99999999999994</ele><time>2026-04-11T13:46:38Z</time></trkpt><trkpt lat="38.0702088887083" lon="15.291736526223524"><ele>445.99999999999994</ele><time>2026-04-11T13:46:40Z</time></trkpt><trkpt lat="38.0702883718501" lon="15.291659366217521"><ele>442.0</ele><time>2026-04-11T13:46:42Z</time></trkpt><trkpt lat="38.070365377929576" lon="15.291601013221666"><ele>438.0</ele><time>2026-04-11T13:46:44Z</time></trkpt><trkpt lat="38.07044851321878" lon="15.291561828783486"><ele>438.0</ele><time>2026-04-11T13:46:46Z</time></trkpt><trkpt lat="38.07054324619847" lon="15.291546056192653"><ele>437.99999999999994</ele><time>2026-04-11T13:46:48Z</time></trkpt><trkpt lat="38.070644348734426" lon="15.291557329248088"><ele>437.99999999999994</ele><time>2026-04-11T13:46:50Z</time></trkpt><trkpt lat="38.070732471269814" lon="15.291593505776383"><ele>438.0</ele><time>2026-04-11T13:46:52Z</time></trkpt><trkpt lat="38.070835256031124" lon="15.291639999250577"><ele>438.0</ele><time>2026-04-11T13:46:54Z</time></trkpt><trkpt lat="38.07093817481816" lon="15.29168804071133"><ele>436.79999999999995</ele><time>2026-04-11T13:46:56Z</time></trkpt><trkpt lat="38.07104817534485" lon="15.291766854943523"><ele>435.59999999999997</ele><time>2026-04-11T13:46:58Z</time></trkpt><trkpt lat="38.07115823214005" lon="15.291850485100438"><ele>434.40000000000003</ele><time>2026-04-11T13:47:00Z</time></trkpt><trkpt lat="38.07121653832053" lon="15.291892463862638"><ele>433.20000000000005</ele><time>2026-04-11T13:47:01Z</time></trkpt><trkpt lat="38.07127342063123" lon="15.291935709833247"><ele>432.0</ele><time>2026-04-11T13:47:02Z</time></trkpt><trkpt lat="38.071329686025834" lon="15.291974761716439"><ele>432.0</ele><time>2026-04-11T13:47:03Z</time></trkpt><trkpt lat="38.07141885534594" lon="15.29206972582113"><ele>432.00000000000006</ele><time>2026-04-11T13:47:05Z</time></trkpt><trkpt lat="38.07148084932806" lon="15.292186571700341"><ele>432.00000000000006</ele><time>2026-04-11T13:47:07Z</time></trkpt><trkpt lat="38.07151572663039" lon="15.292305860512744"><ele>432.0</ele><time>2026-04-11T13:47:09Z</time></trkpt><trkpt lat="38.071572856676" lon="15.292419738971331"><ele>432.0</ele><time>2026-04-11T13:47:11Z</time></trkpt><trkpt lat="38.071647317200366" lon="15.292484028098814"><ele>430.8333333333333</ele><time>2026-04-11T13:47:13Z</time></trkpt><trkpt lat="38.07172628253404" lon="15.292511999991895"><ele>429.66666666666663</ele><time>2026-04-11T13:47:15Z</time></trkpt><trkpt lat="38.07180864698989" lon="15.292555660945043"><ele>428.5</ele><time>2026-04-11T13:47:17Z</time></trkpt><trkpt lat="38.071887660653736" lon="15.292629214520739"><ele>427.3333333333333</ele><time>2026-04-11T13:47:18.999Z</time></trkpt><trkpt lat="38.071944830896435" lon="15.292681180761845"><ele>426.16666666666663</ele><time>2026-04-11T13:47:20.999Z</time></trkpt><trkpt lat="38.072015414731325" lon="15.292746018829197"><ele>425.0</ele><time>2026-04-11T13:47:22.999Z</time></trkpt><trkpt lat="38.07210248032117" lon="15.292791759312628"><ele>425.0</ele><time>2026-04-11T13:47:24.999Z</time></trkpt><trkpt lat="38.072193105807315" lon="15.2927953181505"><ele>425.0</ele><time>2026-04-11T13:47:26.999Z</time></trkpt><trkpt lat="38.07228367164007" lon="15.292755617134949"><ele>425.0</ele><time>2026-04-11T13:47:28.999Z</time></trkpt><trkpt lat="38.07236888205794" lon="15.292686175623116"><ele>425.0</ele><time>2026-04-11T13:47:30.999Z</time></trkpt><trkpt lat="38.07245387739355" lon="15.292583026253803"><ele>425.0</ele><time>2026-04-11T13:47:32.999Z</time></trkpt><trkpt lat="38.07251646857987" lon="15.29250653933086"><ele>425.8333333333333</ele><time>2026-04-11T13:47:34.999Z</time></trkpt><trkpt lat="38.072585460924195" lon="15.292437834332402"><ele>426.66666666666663</ele><time>2026-04-11T13:47:37.999Z</time></trkpt><trkpt lat="38.07264344815575" lon="15.292397268309585"><ele>427.5</ele><time>2026-04-11T13:47:39.999Z</time></trkpt><trkpt lat="38.07270833656684" lon="15.292377100885998"><ele>428.33333333333337</ele><time>2026-04-11T13:47:41.999Z</time></trkpt><trkpt lat="38.07278266058948" lon="15.292375775432356"><ele>429.1666666666667</ele><time>2026-04-11T13:47:43.999Z</time></trkpt><trkpt lat="38.07286685141884" lon="15.29242124190944"><ele>430.0</ele><time>2026-04-11T13:47:45.999Z</time></trkpt><trkpt lat="38.072951535445895" lon="15.292478194562642"><ele>430.0</ele><time>2026-04-11T13:47:47.999Z</time></trkpt><trkpt lat="38.073054080525026" lon="15.292563413962974"><ele>430.0</ele><time>2026-04-11T13:47:49.999Z</time></trkpt><trkpt lat="38.07315629862702" lon="15.29262199414237"><ele>430.0</ele><time>2026-04-11T13:47:51.999Z</time></trkpt><trkpt lat="38.07324200094526" lon="15.292682610212484"><ele>430.0</ele><time>2026-04-11T13:47:53.999Z</time></trkpt><trkpt lat="38.073301456525094" lon="15.292768811202164"><ele>430.0</ele><time>2026-04-11T13:47:55.999Z</time></trkpt><trkpt lat="38.07336195974544" lon="15.29289391799537"><ele>428.6</ele><time>2026-04-11T13:47:57.999Z</time></trkpt><trkpt lat="38.07344808609025" lon="15.293001603942745"><ele>427.2</ele><time>2026-04-11T13:47:59.999Z</time></trkpt><trkpt lat="38.07352789711564" lon="15.29310034444571"><ele>425.79999999999995</ele><time>2026-04-11T13:48:01.999Z</time></trkpt><trkpt lat="38.07361405699054" lon="15.293142293564138"><ele>424.4</ele><time>2026-04-11T13:48:03.999Z</time></trkpt><trkpt lat="38.07369853700333" lon="15.293134197362155"><ele>423.0</ele><time>2026-04-11T13:48:05.999Z</time></trkpt><trkpt lat="38.073763740460166" lon="15.293090051503633"><ele>423.0</ele><time>2026-04-11T13:48:07.999Z</time></trkpt><trkpt lat="38.073816739158076" lon="15.293030440460667"><ele>423.0</ele><time>2026-04-11T13:48:09.999Z</time></trkpt><trkpt lat="38.07387421737398" lon="15.292985331170135"><ele>423.0</ele><time>2026-04-11T13:48:12Z</time></trkpt><trkpt lat="38.073938970524935" lon="15.2929456405696"><ele>423.0</ele><time>2026-04-11T13:48:15Z</time></trkpt><trkpt lat="38.07401811576695" lon="15.292925231963064"><ele>423.0</ele><time>2026-04-11T13:48:19Z</time></trkpt><trkpt lat="38.07410964172989" lon="15.292927415268903"><ele>423.0</ele><time>2026-04-11T13:48:22Z</time></trkpt><trkpt lat="38.07420999474455" lon="15.292924862536955"><ele>424.59999999999997</ele><time>2026-04-11T13:48:25Z</time></trkpt><trkpt lat="38.07429178070224" lon="15.292957045583163"><ele>426.2</ele><time>2026-04-11T13:48:39Z</time></trkpt><trkpt lat="38.07436153174979" lon="15.293036272103924"><ele>427.8</ele><time>2026-04-11T13:48:41Z</time></trkpt><trkpt lat="38.07443989747035" lon="15.293160598923096"><ele>429.4</ele><time>2026-04-11T13:48:43Z</time></trkpt><trkpt lat="38.07451049459335" lon="15.293240934016499"><ele>431.0</ele><time>2026-04-11T13:48:45Z</time></trkpt><trkpt lat="38.07456765120123" lon="15.293300080400499"><ele>431.20000000000005</ele><time>2026-04-11T13:48:48Z</time></trkpt><trkpt lat="38.07464628871535" lon="15.29338849023807"><ele>431.40000000000003</ele><time>2026-04-11T13:48:50Z</time></trkpt><trkpt lat="38.074735699867055" lon="15.293462241355698"><ele>431.6</ele><time>2026-04-11T13:48:52Z</time></trkpt><trkpt lat="38.074794698032186" lon="15.293528078198847"><ele>431.8</ele><time>2026-04-11T13:48:54Z</time></trkpt><trkpt lat="38.07489555841456" lon="15.293572751521332"><ele>432.0</ele><time>2026-04-11T13:48:56Z</time></trkpt><trkpt lat="38.074959537535086" lon="15.293592378934676"><ele>432.0</ele><time>2026-04-11T13:48:59Z</time></trkpt><trkpt lat="38.07503017972506" lon="15.293592780014967"><ele>432.0</ele><time>2026-04-11T13:49:04Z</time></trkpt><trkpt lat="38.075095771828686" lon="15.293638023394845"><ele>432.0</ele><time>2026-04-11T13:49:08Z</time></trkpt><trkpt lat="38.075170842301496" lon="15.293667779983876"><ele>432.0</ele><time>2026-04-11T13:49:12Z</time></trkpt><trkpt lat="38.07526643136799" lon="15.293694612484515"><ele>432.0</ele><time>2026-04-11T13:49:14Z</time></trkpt><trkpt lat="38.07535382352941" lon="15.293685857937568"><ele>432.0</ele><time>2026-04-11T13:49:16Z</time></trkpt><trkpt lat="38.07544726258818" lon="15.29373055383991"><ele>432.0</ele><time>2026-04-11T13:49:18Z</time></trkpt><trkpt lat="38.075527439429116" lon="15.29374670577944"><ele>432.0</ele><time>2026-04-11T13:49:20Z</time></trkpt><trkpt lat="38.075625066405436" lon="15.29378772428649"><ele>432.0</ele><time>2026-04-11T13:49:22Z</time></trkpt><trkpt lat="38.075689614699314" lon="15.2937776919438"><ele>432.0</ele><time>2026-04-11T13:49:23.999Z</time></trkpt><trkpt lat="38.07576343482585" lon="15.29377782757094"><ele>432.0</ele><time>2026-04-11T13:49:25.999Z</time></trkpt><trkpt lat="38.0758325762083" lon="15.293784679758124"><ele>432.0</ele><time>2026-04-11T13:49:26.999Z</time></trkpt><trkpt lat="38.07591630138978" lon="15.293716666617314"><ele>431.40000000000003</ele><time>2026-04-11T13:49:28.999Z</time></trkpt><trkpt lat="38.07599887920318" lon="15.293717393815882"><ele>430.80000000000007</ele><time>2026-04-11T13:49:30.999Z</time></trkpt><trkpt lat="38.076068522779224" lon="15.29373620020125"><ele>430.2</ele><time>2026-04-11T13:49:32.999Z</time></trkpt><trkpt lat="38.07616904664971" lon="15.29383464866893"><ele>429.6</ele><time>2026-04-11T13:49:34.999Z</time></trkpt><trkpt lat="38.076256620494654" lon="15.293955217774446"><ele>429.0</ele><time>2026-04-11T13:49:36.999Z</time></trkpt><trkpt lat="38.07629563907934" lon="15.294020013794201"><ele>427.6666666666667</ele><time>2026-04-11T13:49:37.999Z</time></trkpt><trkpt lat="38.076345243499674" lon="15.294086625831321"><ele>426.33333333333337</ele><time>2026-04-11T13:49:38.999Z</time></trkpt><trkpt lat="38.076387220367494" lon="15.294157453414828"><ele>425.0</ele><time>2026-04-11T13:49:39.999Z</time></trkpt><trkpt lat="38.07645312280513" lon="15.294280823448126"><ele>423.6666666666667</ele><time>2026-04-11T13:49:41.999Z</time></trkpt><trkpt lat="38.076488073585715" lon="15.294418758329467"><ele>422.33333333333337</ele><time>2026-04-11T13:49:43.999Z</time></trkpt><trkpt lat="38.07650285769367" lon="15.29450985289614"><ele>421.0</ele><time>2026-04-11T13:49:44.999Z</time></trkpt><trkpt lat="38.07652889744737" lon="15.294599298245757"><ele>421.00000000000006</ele><time>2026-04-11T13:49:45.999Z</time></trkpt><trkpt lat="38.076547364384744" lon="15.294680839266869"><ele>421.0</ele><time>2026-04-11T13:49:46.999Z</time></trkpt><trkpt lat="38.076575596533" lon="15.294818245202428"><ele>421.0</ele><time>2026-04-11T13:49:48.999Z</time></trkpt><trkpt lat="38.07664356325955" lon="15.294937484888752"><ele>421.0</ele><time>2026-04-11T13:49:50.999Z</time></trkpt><trkpt lat="38.0766915922305" lon="15.294991660092718"><ele>421.00000000000006</ele><time>2026-04-11T13:49:51.999Z</time></trkpt><trkpt lat="38.07673994131732" lon="15.295047260382793"><ele>421.0</ele><time>2026-04-11T13:49:52.999Z</time></trkpt><trkpt lat="38.07681014289334" lon="15.295166642784775"><ele>422.8</ele><time>2026-04-11T13:49:54.999Z</time></trkpt><trkpt lat="38.076883933318584" lon="15.295289891151704"><ele>424.6</ele><time>2026-04-11T13:49:56.999Z</time></trkpt><trkpt lat="38.076983131565335" lon="15.295402745914474"><ele>426.4</ele><time>2026-04-11T13:49:58.999Z</time></trkpt><trkpt lat="38.0770285831076" lon="15.295464777565602"><ele>428.2</ele><time>2026-04-11T13:49:59.999Z</time></trkpt><trkpt lat="38.07707466719939" lon="15.295521259668075"><ele>430.0</ele><time>2026-04-11T13:50:00.999Z</time></trkpt><trkpt lat="38.077154843222516" lon="15.295626376579452"><ele>430.0</ele><time>2026-04-11T13:50:02.999Z</time></trkpt><trkpt lat="38.077236143306415" lon="15.295725659746058"><ele>430.0</ele><time>2026-04-11T13:50:04.999Z</time></trkpt><trkpt lat="38.077332409623814" lon="15.295792445775312"><ele>430.0</ele><time>2026-04-11T13:50:06.999Z</time></trkpt><trkpt lat="38.077447566291845" lon="15.29579832601549"><ele>430.0</ele><time>2026-04-11T13:50:08.999Z</time></trkpt><trkpt lat="38.07756127460264" lon="15.295757950718393"><ele>422.8</ele><time>2026-04-11T13:50:10.999Z</time></trkpt><trkpt lat="38.077657596253324" lon="15.295773369199432"><ele>415.6</ele><time>2026-04-11T13:50:12.999Z</time></trkpt><trkpt lat="38.07773962313257" lon="15.295826678771547"><ele>408.4</ele><time>2026-04-11T13:50:14.999Z</time></trkpt><trkpt lat="38.07783447910195" lon="15.295901895886992"><ele>401.2</ele><time>2026-04-11T13:50:17Z</time></trkpt><trkpt lat="38.0779317933912" lon="15.295932582445694"><ele>394.0</ele><time>2026-04-11T13:50:19Z</time></trkpt><trkpt lat="38.07804860752307" lon="15.29591918224469"><ele>394.0</ele><time>2026-04-11T13:50:21Z</time></trkpt><trkpt lat="38.07815738671562" lon="15.295931861086512"><ele>394.0</ele><time>2026-04-11T13:50:23Z</time></trkpt><trkpt lat="38.078253151915206" lon="15.295981752437832"><ele>394.0</ele><time>2026-04-11T13:50:25Z</time></trkpt><trkpt lat="38.07835301025396" lon="15.296046684999602"><ele>394.0</ele><time>2026-04-11T13:50:27Z</time></trkpt><trkpt lat="38.07841201519411" lon="15.296081874310023"><ele>394.0</ele><time>2026-04-11T13:50:28Z</time></trkpt><trkpt lat="38.078463669032615" lon="15.29613114114551"><ele>393.50000000000006</ele><time>2026-04-11T13:50:29Z</time></trkpt><trkpt lat="38.07853393789054" lon="15.296196751030228"><ele>393.0</ele><time>2026-04-11T13:50:31Z</time></trkpt><trkpt lat="38.07856413098238" lon="15.296277631940251"><ele>392.5</ele><time>2026-04-11T13:50:34Z</time></trkpt><trkpt lat="38.07861894518643" lon="15.296343916582005"><ele>392.0</ele><time>2026-04-11T13:50:38Z</time></trkpt><trkpt lat="38.07868003517049" lon="15.296422395945925"><ele>391.50000000000006</ele><time>2026-04-11T13:50:41Z</time></trkpt><trkpt lat="38.078750906521435" lon="15.296455940208629"><ele>391.0</ele><time>2026-04-11T13:50:44Z</time></trkpt><trkpt lat="38.07882854915034" lon="15.296451311706775"><ele>391.00000000000006</ele><time>2026-04-11T13:50:47Z</time></trkpt><trkpt lat="38.0789176991733" lon="15.296412545756231"><ele>391.0</ele><time>2026-04-11T13:50:49Z</time></trkpt><trkpt lat="38.078988787209184" lon="15.296422259161048"><ele>391.0</ele><time>2026-04-11T13:50:51Z</time></trkpt><trkpt lat="38.07905194662575" lon="15.296432143544285"><ele>391.0</ele><time>2026-04-11T13:50:53Z</time></trkpt><trkpt lat="38.079119048333474" lon="15.296438078154296"><ele>391.00000000000006</ele><time>2026-04-11T13:50:55Z</time></trkpt><trkpt lat="38.07923669432135" lon="15.296445609824861"><ele>391.0</ele><time>2026-04-11T13:50:57Z</time></trkpt><trkpt lat="38.0793045732155" lon="15.296456198056156"><ele>391.33333333333337</ele><time>2026-04-11T13:50:58Z</time></trkpt><trkpt lat="38.07942539198069" lon="15.296498529268405"><ele>391.6666666666667</ele><time>2026-04-11T13:51:00Z</time></trkpt><trkpt lat="38.07949113470368" lon="15.296515188349494"><ele>392.0</ele><time>2026-04-11T13:51:01Z</time></trkpt><trkpt lat="38.07959442781627" lon="15.296500411474252"><ele>392.33333333333337</ele><time>2026-04-11T13:51:03Z</time></trkpt><trkpt lat="38.07965272694044" lon="15.29646652790133"><ele>392.6666666666667</ele><time>2026-04-11T13:51:04Z</time></trkpt><trkpt lat="38.07971239027235" lon="15.296434991787718"><ele>393.0</ele><time>2026-04-11T13:51:05Z</time></trkpt><trkpt lat="38.079825716269546" lon="15.296407522926184"><ele>392.4</ele><time>2026-04-11T13:51:07Z</time></trkpt><trkpt lat="38.079924140881275" lon="15.296332158853312"><ele>391.79999999999995</ele><time>2026-04-11T13:51:09Z</time></trkpt><trkpt lat="38.08003033279094" lon="15.296283858349138"><ele>391.2</ele><time>2026-04-11T13:51:11Z</time></trkpt><trkpt lat="38.08014893647726" lon="15.296274408686674"><ele>390.6</ele><time>2026-04-11T13:51:13Z</time></trkpt><trkpt lat="38.08021299609726" lon="15.29627617505786"><ele>390.0</ele><time>2026-04-11T13:51:14Z</time></trkpt><trkpt lat="38.08027711734723" lon="15.296290108921186"><ele>390.0</ele><time>2026-04-11T13:51:15Z</time></trkpt><trkpt lat="38.080405713345" lon="15.296287750907823"><ele>390.0</ele><time>2026-04-11T13:51:17Z</time></trkpt><trkpt lat="38.08050426974956" lon="15.29627145303104"><ele>390.0</ele><time>2026-04-11T13:51:19Z</time></trkpt><trkpt lat="38.08058408483977" lon="15.296215648862061"><ele>390.0</ele><time>2026-04-11T13:51:21Z</time></trkpt><trkpt lat="38.08064812597768" lon="15.296179500595162"><ele>390.0</ele><time>2026-04-11T13:51:23Z</time></trkpt><trkpt lat="38.080734964358456" lon="15.296188060105257"><ele>389.42857142857144</ele><time>2026-04-11T13:51:26Z</time></trkpt><trkpt lat="38.080787447996386" lon="15.296234012794415"><ele>388.85714285714283</ele><time>2026-04-11T13:51:28Z</time></trkpt><trkpt lat="38.08084593848702" lon="15.296283025866929"><ele>388.28571428571433</ele><time>2026-04-11T13:51:30Z</time></trkpt><trkpt lat="38.08088238613667" lon="15.296349833763877"><ele>387.7142857142857</ele><time>2026-04-11T13:51:32Z</time></trkpt><trkpt lat="38.08087822309335" lon="15.296440263999136"><ele>387.14285714285717</ele><time>2026-04-11T13:51:34Z</time></trkpt><trkpt lat="38.08087407448295" lon="15.29653756916669"><ele>386.5714285714286</ele><time>2026-04-11T13:51:35.999Z</time></trkpt><trkpt lat="38.08086977252797" lon="15.296634564772132"><ele>386.0</ele><time>2026-04-11T13:51:37.999Z</time></trkpt><trkpt lat="38.0808809867998" lon="15.296737918940435"><ele>385.99999999999994</ele><time>2026-04-11T13:51:39.999Z</time></trkpt><trkpt lat="38.08090796613495" lon="15.29685070480355"><ele>386.0</ele><time>2026-04-11T13:51:41.999Z</time></trkpt><trkpt lat="38.080936955323416" lon="15.296946827720012"><ele>386.0</ele><time>2026-04-11T13:51:44.999Z</time></trkpt><trkpt lat="38.081016522509586" lon="15.297030257581065"><ele>386.0</ele><time>2026-04-11T13:51:47.999Z</time></trkpt><trkpt lat="38.081017373299574" lon="15.297140043208898"><ele>385.99999999999994</ele><time>2026-04-11T13:51:50.999Z</time></trkpt><trkpt lat="38.08105393911415" lon="15.297223497064834"><ele>386.0</ele><time>2026-04-11T13:51:52.999Z</time></trkpt><trkpt lat="38.08112450293039" lon="15.297269147765357"><ele>384.8</ele><time>2026-04-11T13:51:53.999Z</time></trkpt><trkpt lat="38.081191166369386" lon="15.297303754326464"><ele>383.6</ele><time>2026-04-11T13:51:54.999Z</time></trkpt><trkpt lat="38.0812666450279" lon="15.297347901934693"><ele>382.4</ele><time>2026-04-11T13:51:55.999Z</time></trkpt><trkpt lat="38.08139130967347" lon="15.297407335156269"><ele>381.2</ele><time>2026-04-11T13:51:57.999Z</time></trkpt><trkpt lat="38.08151651488355" lon="15.297444120376992"><ele>380.0</ele><time>2026-04-11T13:51:59.999Z</time></trkpt><trkpt lat="38.08163506891574" lon="15.297507060720328"><ele>380.0</ele><time>2026-04-11T13:52:01.999Z</time></trkpt><trkpt lat="38.08169473740155" lon="15.297548607572352"><ele>380.0</ele><time>2026-04-11T13:52:02.999Z</time></trkpt><trkpt lat="38.08176263537794" lon="15.297584065598807"><ele>380.0</ele><time>2026-04-11T13:52:03.999Z</time></trkpt><trkpt lat="38.081832452557585" lon="15.297618169222327"><ele>380.0</ele><time>2026-04-11T13:52:04.999Z</time></trkpt><trkpt lat="38.08190689079635" lon="15.297652519733036"><ele>380.0</ele><time>2026-04-11T13:52:05.999Z</time></trkpt><trkpt lat="38.08197891102379" lon="15.29768205314933"><ele>380.0</ele><time>2026-04-11T13:52:06.999Z</time></trkpt><trkpt lat="38.0820654634799" lon="15.297729386708268"><ele>380.0</ele><time>2026-04-11T13:52:07.999Z</time></trkpt><trkpt lat="38.08213955329709" lon="15.297776521907652"><ele>380.0</ele><time>2026-04-11T13:52:08.999Z</time></trkpt><trkpt lat="38.08220698226874" lon="15.297819224907109"><ele>380.0</ele><time>2026-04-11T13:52:09.999Z</time></trkpt><trkpt lat="38.08227496906877" lon="15.297849265518781"><ele>380.0</ele><time>2026-04-11T13:52:10.999Z</time></trkpt><trkpt lat="38.082345591170565" lon="15.297878345998551"><ele>380.0</ele><time>2026-04-11T13:52:11.999Z</time></trkpt><trkpt lat="38.082414152873106" lon="15.297914162862455"><ele>380.0</ele><time>2026-04-11T13:52:12.999Z</time></trkpt><trkpt lat="38.082486520116916" lon="15.29796426545777"><ele>379.8</ele><time>2026-04-11T13:52:13.999Z</time></trkpt><trkpt lat="38.0825519995075" lon="15.297998671760364"><ele>379.6</ele><time>2026-04-11T13:52:14.999Z</time></trkpt><trkpt lat="38.08266329827626" lon="15.298047001666461"><ele>379.4</ele><time>2026-04-11T13:52:16.999Z</time></trkpt><trkpt lat="38.08277590525908" lon="15.298100876176376"><ele>379.2</ele><time>2026-04-11T13:52:18.999Z</time></trkpt><trkpt lat="38.08289117992016" lon="15.29815026954341"><ele>379.0</ele><time>2026-04-11T13:52:20.999Z</time></trkpt><trkpt lat="38.08296608987548" lon="15.298184032550452"><ele>379.4</ele><time>2026-04-11T13:52:21.999Z</time></trkpt><trkpt lat="38.08307632607534" lon="15.298263702045961"><ele>379.79999999999995</ele><time>2026-04-11T13:52:24Z</time></trkpt><trkpt lat="38.08317313737382" lon="15.29831299769313"><ele>380.20000000000005</ele><time>2026-04-11T13:52:26Z</time></trkpt><trkpt lat="38.08326092149742" lon="15.298315699354886"><ele>380.6</ele><time>2026-04-11T13:52:28Z</time></trkpt><trkpt lat="38.08332737277548" lon="15.298316046270271"><ele>381.0</ele><time>2026-04-11T13:52:29Z</time></trkpt><trkpt lat="38.08340167745294" lon="15.29831752249405"><ele>378.0</ele><time>2026-04-11T13:52:30Z</time></trkpt><trkpt lat="38.083480083515326" lon="15.298317950656257"><ele>375.0</ele><time>2026-04-11T13:52:31Z</time></trkpt><trkpt lat="38.08356046399972" lon="15.298310994341135"><ele>372.0</ele><time>2026-04-11T13:52:32Z</time></trkpt><trkpt lat="38.083645204648555" lon="15.298300699663178"><ele>369.0</ele><time>2026-04-11T13:52:33Z</time></trkpt><trkpt lat="38.083720889532316" lon="15.298278409321094"><ele>366.0</ele><time>2026-04-11T13:52:34Z</time></trkpt><trkpt lat="38.083795432182114" lon="15.298258280349796"><ele>363.0</ele><time>2026-04-11T13:52:35Z</time></trkpt><trkpt lat="38.08386694653994" lon="15.298233901932655"><ele>363.0</ele><time>2026-04-11T13:52:36Z</time></trkpt><trkpt lat="38.083940706198426" lon="15.298202086399076"><ele>363.0</ele><time>2026-04-11T13:52:37Z</time></trkpt><trkpt lat="38.08400853957793" lon="15.298193512643746"><ele>363.0</ele><time>2026-04-11T13:52:38Z</time></trkpt><trkpt lat="38.08408388730307" lon="15.298186719583063"><ele>363.0</ele><time>2026-04-11T13:52:39Z</time></trkpt><trkpt lat="38.08416316533179" lon="15.298188989569356"><ele>363.0</ele><time>2026-04-11T13:52:40Z</time></trkpt><trkpt lat="38.08425079439524" lon="15.298189376314351"><ele>363.0</ele><time>2026-04-11T13:52:41Z</time></trkpt><trkpt lat="38.08432585196493" lon="15.298194932874212"><ele>362.59999999999997</ele><time>2026-04-11T13:52:42Z</time></trkpt><trkpt lat="38.08441320913101" lon="15.298203910752271"><ele>362.2</ele><time>2026-04-11T13:52:43Z</time></trkpt><trkpt lat="38.084485402567886" lon="15.298201335730008"><ele>361.8</ele><time>2026-04-11T13:52:44Z</time></trkpt><trkpt lat="38.08459725069803" lon="15.298174486648033"><ele>361.4</ele><time>2026-04-11T13:52:46Z</time></trkpt><trkpt lat="38.08468890984985" lon="15.298104603100578"><ele>361.0</ele><time>2026-04-11T13:52:48Z</time></trkpt><trkpt lat="38.0847493762358" lon="15.29805739596514"><ele>360.66666666666663</ele><time>2026-04-11T13:52:49Z</time></trkpt><trkpt lat="38.08480888404938" lon="15.297997720226713"><ele>360.3333333333333</ele><time>2026-04-11T13:52:50Z</time></trkpt><trkpt lat="38.084872078075435" lon="15.29794597157769"><ele>360.0</ele><time>2026-04-11T13:52:51Z</time></trkpt><trkpt lat="38.08493726721843" lon="15.297894056042788"><ele>359.6666666666667</ele><time>2026-04-11T13:52:52Z</time></trkpt><trkpt lat="38.085003431135576" lon="15.297845255884917"><ele>359.33333333333337</ele><time>2026-04-11T13:52:53Z</time></trkpt><trkpt lat="38.08509898513674" lon="15.297764644954892"><ele>359.0</ele><time>2026-04-11T13:52:55Z</time></trkpt><trkpt lat="38.08516457471982" lon="15.297705564894363"><ele>359.0</ele><time>2026-04-11T13:52:57Z</time></trkpt><trkpt lat="38.085229173939425" lon="15.297627802041799"><ele>359.0</ele><time>2026-04-11T13:52:59Z</time></trkpt><trkpt lat="38.085299766572106" lon="15.2975526939245"><ele>359.0</ele><time>2026-04-11T13:53:01Z</time></trkpt><trkpt lat="38.08540128346508" lon="15.297498117354339"><ele>359.0</ele><time>2026-04-11T13:53:03Z</time></trkpt><trkpt lat="38.08551915503203" lon="15.297452553265881"><ele>359.0</ele><time>2026-04-11T13:53:05Z</time></trkpt><trkpt lat="38.085645745705946" lon="15.29745587865372"><ele>358.6666666666667</ele><time>2026-04-11T13:53:07Z</time></trkpt><trkpt lat="38.08578058036385" lon="15.297462581626803"><ele>358.33333333333337</ele><time>2026-04-11T13:53:09Z</time></trkpt><trkpt lat="38.08585391562087" lon="15.297467651812676"><ele>358.0</ele><time>2026-04-11T13:53:10Z</time></trkpt><trkpt lat="38.08593043325677" lon="15.297474434348304"><ele>357.6666666666667</ele><time>2026-04-11T13:53:11Z</time></trkpt><trkpt lat="38.086006951446834" lon="15.29746701278532"><ele>357.3333333333333</ele><time>2026-04-11T13:53:12Z</time></trkpt><trkpt lat="38.08609370388344" lon="15.297456930191466"><ele>357.0</ele><time>2026-04-11T13:53:13Z</time></trkpt><trkpt lat="38.08616485165105" lon="15.29744924497435"><ele>357.0</ele><time>2026-04-11T13:53:14Z</time></trkpt><trkpt lat="38.086232586958644" lon="15.297436894784076"><ele>357.0</ele><time>2026-04-11T13:53:15Z</time></trkpt><trkpt lat="38.08629380717671" lon="15.297416315478609"><ele>357.0</ele><time>2026-04-11T13:53:16Z</time></trkpt><trkpt lat="38.0863618588017" lon="15.297390587418063"><ele>357.0</ele><time>2026-04-11T13:53:17Z</time></trkpt><trkpt lat="38.086431237793406" lon="15.297355721931279"><ele>357.0</ele><time>2026-04-11T13:53:18Z</time></trkpt><trkpt lat="38.086507351741695" lon="15.29731371525233"><ele>357.0</ele><time>2026-04-11T13:53:19Z</time></trkpt><trkpt lat="38.08658173597984" lon="15.297267271413016"><ele>357.0</ele><time>2026-04-11T13:53:20Z</time></trkpt><trkpt lat="38.08665168894194" lon="15.297225515310174"><ele>355.6666666666667</ele><time>2026-04-11T13:53:21Z</time></trkpt><trkpt lat="38.08672854964265" lon="15.29718568333185"><ele>354.3333333333333</ele><time>2026-04-11T13:53:22Z</time></trkpt><trkpt lat="38.086804480236395" lon="15.297152152033263"><ele>353.0</ele><time>2026-04-11T13:53:23Z</time></trkpt><trkpt lat="38.08688480669204" lon="15.29712196331177"><ele>351.66666666666663</ele><time>2026-04-11T13:53:24Z</time></trkpt><trkpt lat="38.08695039871017" lon="15.297083896599585"><ele>350.3333333333333</ele><time>2026-04-11T13:53:25Z</time></trkpt><trkpt lat="38.08701627872114" lon="15.297042356615043"><ele>349.0</ele><time>2026-04-11T13:53:26Z</time></trkpt><trkpt lat="38.08709004568837" lon="15.296993987315085"><ele>349.0</ele><time>2026-04-11T13:53:27Z</time></trkpt><trkpt lat="38.087165684739674" lon="15.296942431338623"><ele>349.0</ele><time>2026-04-11T13:53:28Z</time></trkpt><trkpt lat="38.087241099096246" lon="15.296896110456151"><ele>349.0</ele><time>2026-04-11T13:53:29Z</time></trkpt><trkpt lat="38.087325043923514" lon="15.296851529962812"><ele>349.0</ele><time>2026-04-11T13:53:30Z</time></trkpt><trkpt lat="38.08741129427936" lon="15.296807370097097"><ele>349.0</ele><time>2026-04-11T13:53:31Z</time></trkpt><trkpt lat="38.08750239960018" lon="15.296761078650709"><ele>348.3333333333333</ele><time>2026-04-11T13:53:32Z</time></trkpt><trkpt lat="38.08759073033508" lon="15.296719416629543"><ele>347.66666666666663</ele><time>2026-04-11T13:53:33Z</time></trkpt><trkpt lat="38.08766370805534" lon="15.296680274119952"><ele>347.0</ele><time>2026-04-11T13:53:33.999Z</time></trkpt><trkpt lat="38.08773413574956" lon="15.296643217818374"><ele>346.3333333333333</ele><time>2026-04-11T13:53:34.999Z</time></trkpt><trkpt lat="38.087801145741125" lon="15.296603910549672"><ele>345.6666666666667</ele><time>2026-04-11T13:53:35.999Z</time></trkpt><trkpt lat="38.08786029477201" lon="15.296561950324502"><ele>345.0</ele><time>2026-04-11T13:53:36.999Z</time></trkpt><trkpt lat="38.087917043305026" lon="15.296517990400673"><ele>345.0</ele><time>2026-04-11T13:53:37.999Z</time></trkpt><trkpt lat="38.08797708505814" lon="15.296482292163775"><ele>345.0</ele><time>2026-04-11T13:53:38.999Z</time></trkpt><trkpt lat="38.088100702846354" lon="15.296434495701135"><ele>345.0</ele><time>2026-04-11T13:53:40.999Z</time></trkpt><trkpt lat="38.08816758089451" lon="15.29642382977615"><ele>345.0</ele><time>2026-04-11T13:53:41.999Z</time></trkpt><trkpt lat="38.08827838705875" lon="15.296403407615744"><ele>345.0</ele><time>2026-04-11T13:53:43.999Z</time></trkpt><trkpt lat="38.0883712479528" lon="15.296378228270072"><ele>344.3333333333333</ele><time>2026-04-11T13:53:45.999Z</time></trkpt><trkpt lat="38.088436749795434" lon="15.296377900199591"><ele>343.6666666666667</ele><time>2026-04-11T13:53:47.999Z</time></trkpt><trkpt lat="38.08850292352133" lon="15.296341631107826"><ele>343.0</ele><time>2026-04-11T13:53:49.999Z</time></trkpt><trkpt lat="38.08862006803243" lon="15.296292822329875"><ele>342.33333333333337</ele><time>2026-04-11T13:53:51.999Z</time></trkpt><trkpt lat="38.08868234014517" lon="15.29625287715703"><ele>341.6666666666667</ele><time>2026-04-11T13:53:52.999Z</time></trkpt><trkpt lat="38.08874933940577" lon="15.296214361351526"><ele>341.0</ele><time>2026-04-11T13:53:53.999Z</time></trkpt><trkpt lat="38.08882801320195" lon="15.29617210940505"><ele>341.0</ele><time>2026-04-11T13:53:54.999Z</time></trkpt><trkpt lat="38.08890256751104" lon="15.296138260416072"><ele>341.0</ele><time>2026-04-11T13:53:55.999Z</time></trkpt><trkpt lat="38.08897717838393" lon="15.29609321632121"><ele>341.0</ele><time>2026-04-11T13:53:56.999Z</time></trkpt><trkpt lat="38.08905077050704" lon="15.296045919398566"><ele>341.0</ele><time>2026-04-11T13:53:57.999Z</time></trkpt><trkpt lat="38.08912595779368" lon="15.295996994510539"><ele>341.0</ele><time>2026-04-11T13:53:58.999Z</time></trkpt><trkpt lat="38.089191823090594" lon="15.295944346285644"><ele>341.0</ele><time>2026-04-11T13:53:59.999Z</time></trkpt><trkpt lat="38.08925574964791" lon="15.29589814315017"><ele>341.33333333333337</ele><time>2026-04-11T13:54:00.999Z</time></trkpt><trkpt lat="38.08931120778283" lon="15.295856265938578"><ele>341.6666666666667</ele><time>2026-04-11T13:54:01.999Z</time></trkpt><trkpt lat="38.089364907288214" lon="15.295813724993845"><ele>342.0</ele><time>2026-04-11T13:54:02.999Z</time></trkpt><trkpt lat="38.08943499001042" lon="15.295748078423964"><ele>342.3333333333333</ele><time>2026-04-11T13:54:04.999Z</time></trkpt><trkpt lat="38.08952425783913" lon="15.295665594468169"><ele>342.66666666666663</ele><time>2026-04-11T13:54:06.999Z</time></trkpt><trkpt lat="38.0895722427211" lon="15.295605685025615"><ele>343.0</ele><time>2026-04-11T13:54:07.999Z</time></trkpt><trkpt lat="38.0896139021748" lon="15.29554491152883"><ele>342.2</ele><time>2026-04-11T13:54:08.999Z</time></trkpt><trkpt lat="38.08965493204855" lon="15.295475544618188"><ele>341.4</ele><time>2026-04-11T13:54:09.999Z</time></trkpt><trkpt lat="38.089698264572114" lon="15.295415353200081"><ele>340.59999999999997</ele><time>2026-04-11T13:54:10.999Z</time></trkpt><trkpt lat="38.089787577538075" lon="15.295331575753917"><ele>339.79999999999995</ele><time>2026-04-11T13:54:12.999Z</time></trkpt><trkpt lat="38.089889860435974" lon="15.29526617382727"><ele>339.0</ele><time>2026-04-11T13:54:14.999Z</time></trkpt><trkpt lat="38.090006518502655" lon="15.295201829168388"><ele>337.5</ele><time>2026-04-11T13:54:16.999Z</time></trkpt><trkpt lat="38.090075062061906" lon="15.295175071068478"><ele>336.0</ele><time>2026-04-11T13:54:17.999Z</time></trkpt><trkpt lat="38.09012934137795" lon="15.295128995830309"><ele>334.5</ele><time>2026-04-11T13:54:18.999Z</time></trkpt><trkpt lat="38.090230424243174" lon="15.295069607565084"><ele>333.0</ele><time>2026-04-11T13:54:20.999Z</time></trkpt><trkpt lat="38.09028985977938" lon="15.295040743812947"><ele>331.5</ele><time>2026-04-11T13:54:21.999Z</time></trkpt><trkpt lat="38.090356541316694" lon="15.295014676524739"><ele>330.0</ele><time>2026-04-11T13:54:22.999Z</time></trkpt><trkpt lat="38.09043086562184" lon="15.294989854056274"><ele>330.00000000000006</ele><time>2026-04-11T13:54:23.999Z</time></trkpt><trkpt lat="38.0904973824112" lon="15.294966554137096"><ele>330.0</ele><time>2026-04-11T13:54:24.999Z</time></trkpt><trkpt lat="38.090565963584154" lon="15.294937503584393"><ele>330.0</ele><time>2026-04-11T13:54:25.999Z</time></trkpt><trkpt lat="38.09063454997449" lon="15.294907551891026"><ele>330.0</ele><time>2026-04-11T13:54:26.999Z</time></trkpt><trkpt lat="38.09069777813715" lon="15.29488573094843"><ele>330.0</ele><time>2026-04-11T13:54:27.999Z</time></trkpt><trkpt lat="38.090763987458374" lon="15.294867542646637"><ele>330.00000000000006</ele><time>2026-04-11T13:54:29Z</time></trkpt><trkpt lat="38.09082693478992" lon="15.294841978986211"><ele>330.0</ele><time>2026-04-11T13:54:30Z</time></trkpt><trkpt lat="38.09091631908017" lon="15.294803087479918"><ele>330.0</ele><time>2026-04-11T13:54:32Z</time></trkpt><trkpt lat="38.090975484754274" lon="15.294775742971176"><ele>330.0</ele><time>2026-04-11T13:54:34Z</time></trkpt><trkpt lat="38.09105669723264" lon="15.294770208587044"><ele>330.0</ele><time>2026-04-11T13:54:37Z</time></trkpt><trkpt lat="38.09113930722196" lon="15.294741990870676"><ele>330.0</ele><time>2026-04-11T13:54:39Z</time></trkpt><trkpt lat="38.091216863243076" lon="15.294702908739898"><ele>330.0</ele><time>2026-04-11T13:54:41Z</time></trkpt><trkpt lat="38.09126512271044" lon="15.294646904443113"><ele>330.0</ele><time>2026-04-11T13:54:43Z</time></trkpt><trkpt lat="38.09132223350844" lon="15.294557681892652"><ele>331.25</ele><time>2026-04-11T13:54:45Z</time></trkpt><trkpt lat="38.09140324162031" lon="15.294449691223193"><ele>332.5</ele><time>2026-04-11T13:54:47Z</time></trkpt><trkpt lat="38.09145909785942" lon="15.294327652101462"><ele>333.75</ele><time>2026-04-11T13:54:49Z</time></trkpt><trkpt lat="38.09152833128815" lon="15.294205483779155"><ele>335.0</ele><time>2026-04-11T13:54:51Z</time></trkpt><trkpt lat="38.0916192032421" lon="15.294096661527309"><ele>335.0</ele><time>2026-04-11T13:54:53Z</time></trkpt><trkpt lat="38.091673772459764" lon="15.294022816559023"><ele>335.0</ele><time>2026-04-11T13:54:54Z</time></trkpt><trkpt lat="38.09172615428401" lon="15.293918198781222"><ele>335.0</ele><time>2026-04-11T13:54:55Z</time></trkpt><trkpt lat="38.09177149922978" lon="15.2938213507309"><ele>335.0</ele><time>2026-04-11T13:54:56Z</time></trkpt><trkpt lat="38.09181675195221" lon="15.293728533535115"><ele>335.0</ele><time>2026-04-11T13:54:57Z</time></trkpt><trkpt lat="38.09185472154249" lon="15.293636926562746"><ele>335.0</ele><time>2026-04-11T13:54:58Z</time></trkpt><trkpt lat="38.09189279215553" lon="15.29354343708919"><ele>334.5</ele><time>2026-04-11T13:54:59Z</time></trkpt><trkpt lat="38.09192229721633" lon="15.29344921289228"><ele>334.0</ele><time>2026-04-11T13:55:00Z</time></trkpt><trkpt lat="38.091946234208145" lon="15.293352675416868"><ele>333.5</ele><time>2026-04-11T13:55:01Z</time></trkpt><trkpt lat="38.09196547610158" lon="15.293255628877787"><ele>333.0</ele><time>2026-04-11T13:55:02Z</time></trkpt><trkpt lat="38.09197086739483" lon="15.293166735913882"><ele>332.5</ele><time>2026-04-11T13:55:03Z</time></trkpt><trkpt lat="38.09196859748443" lon="15.293070980576804"><ele>332.0</ele><time>2026-04-11T13:55:04Z</time></trkpt><trkpt lat="38.09195693429624" lon="15.29297131433105"><ele>333.0</ele><time>2026-04-11T13:55:05Z</time></trkpt><trkpt lat="38.09193242449242" lon="15.292876766205751"><ele>334.0</ele><time>2026-04-11T13:55:06Z</time></trkpt><trkpt lat="38.09190338248575" lon="15.292774394222093"><ele>335.0</ele><time>2026-04-11T13:55:07Z</time></trkpt><trkpt lat="38.0918608927746" lon="15.292667711471411"><ele>336.0</ele><time>2026-04-11T13:55:08Z</time></trkpt><trkpt lat="38.09182195539446" lon="15.292583813150687"><ele>337.0</ele><time>2026-04-11T13:55:09Z</time></trkpt><trkpt lat="38.091789788206334" lon="15.292493778759518"><ele>338.0</ele><time>2026-04-11T13:55:10Z</time></trkpt><trkpt lat="38.09173584066374" lon="15.292405682766162"><ele>338.0</ele><time>2026-04-11T13:55:11Z</time></trkpt><trkpt lat="38.0916770675082" lon="15.292332381602494"><ele>338.0</ele><time>2026-04-11T13:55:12Z</time></trkpt><trkpt lat="38.091614409157216" lon="15.292269706235073"><ele>338.0</ele><time>2026-04-11T13:55:13Z</time></trkpt><trkpt lat="38.0915438030633" lon="15.292204023702666"><ele>338.0</ele><time>2026-04-11T13:55:14Z</time></trkpt><trkpt lat="38.09147235390891" lon="15.292156526049906"><ele>338.0</ele><time>2026-04-11T13:55:15Z</time></trkpt><trkpt lat="38.09140442825773" lon="15.292114632673094"><ele>338.0</ele><time>2026-04-11T13:55:16Z</time></trkpt><trkpt lat="38.091349588411454" lon="15.292063825962776"><ele>335.33333333333337</ele><time>2026-04-11T13:55:17Z</time></trkpt><trkpt lat="38.091294495755754" lon="15.29200946687667"><ele>332.6666666666667</ele><time>2026-04-11T13:55:18Z</time></trkpt><trkpt lat="38.09124030170758" lon="15.291942759601127"><ele>330.0</ele><time>2026-04-11T13:55:19Z</time></trkpt><trkpt lat="38.09118409960404" lon="15.291871008407078"><ele>327.3333333333333</ele><time>2026-04-11T13:55:20Z</time></trkpt><trkpt lat="38.091123206392396" lon="15.291791128684391"><ele>324.66666666666663</ele><time>2026-04-11T13:55:21Z</time></trkpt><trkpt lat="38.09106282208122" lon="15.291710176827994"><ele>322.0</ele><time>2026-04-11T13:55:22Z</time></trkpt><trkpt lat="38.09100659207242" lon="15.291626548184816"><ele>322.0</ele><time>2026-04-11T13:55:23Z</time></trkpt><trkpt lat="38.09095361368104" lon="15.291536264842659"><ele>322.0</ele><time>2026-04-11T13:55:24Z</time></trkpt><trkpt lat="38.090902309368744" lon="15.291445311571609"><ele>322.0</ele><time>2026-04-11T13:55:25Z</time></trkpt><trkpt lat="38.09085213439019" lon="15.291353291833369"><ele>322.0</ele><time>2026-04-11T13:55:26Z</time></trkpt><trkpt lat="38.09080322430781" lon="15.29125307042093"><ele>322.0</ele><time>2026-04-11T13:55:27Z</time></trkpt><trkpt lat="38.090752747357435" lon="15.291152627886936"><ele>320.8</ele><time>2026-04-11T13:55:28Z</time></trkpt><trkpt lat="38.090699838440166" lon="15.291055060535212"><ele>319.6</ele><time>2026-04-11T13:55:29Z</time></trkpt><trkpt lat="38.09065094093926" lon="15.290961585032026"><ele>318.40000000000003</ele><time>2026-04-11T13:55:30Z</time></trkpt><trkpt lat="38.090603224609524" lon="15.290872595589914"><ele>317.20000000000005</ele><time>2026-04-11T13:55:31Z</time></trkpt><trkpt lat="38.09054818404454" lon="15.29077011237361"><ele>316.0</ele><time>2026-04-11T13:55:32Z</time></trkpt><trkpt lat="38.090486989595256" lon="15.290666375185374"><ele>316.0</ele><time>2026-04-11T13:55:33Z</time></trkpt><trkpt lat="38.09043072391611" lon="15.29057250983336"><ele>316.0</ele><time>2026-04-11T13:55:33.999Z</time></trkpt><trkpt lat="38.09038183584277" lon="15.290489046456036"><ele>316.0</ele><time>2026-04-11T13:55:34.999Z</time></trkpt><trkpt lat="38.090337048406454" lon="15.290412027176496"><ele>316.0</ele><time>2026-04-11T13:55:35.999Z</time></trkpt><trkpt lat="38.090295475474846" lon="15.290345570799749"><ele>316.0</ele><time>2026-04-11T13:55:36.999Z</time></trkpt><trkpt lat="38.090258066269286" lon="15.29026972405231"><ele>316.0</ele><time>2026-04-11T13:55:37.999Z</time></trkpt><trkpt lat="38.09023430937066" lon="15.290194968177133"><ele>316.00000000000006</ele><time>2026-04-11T13:55:38.999Z</time></trkpt><trkpt lat="38.09021695880261" lon="15.290108895708281"><ele>316.0</ele><time>2026-04-11T13:55:39.999Z</time></trkpt><trkpt lat="38.090199623997115" lon="15.29002693252458"><ele>316.0</ele><time>2026-04-11T13:55:40.999Z</time></trkpt><trkpt lat="38.090192044179666" lon="15.289942260167718"><ele>316.0</ele><time>2026-04-11T13:55:41.999Z</time></trkpt><trkpt lat="38.090192020415" lon="15.28985908077447"><ele>316.0</ele><time>2026-04-11T13:55:42.999Z</time></trkpt><trkpt lat="38.090196145468084" lon="15.289773319592477"><ele>316.00000000000006</ele><time>2026-04-11T13:55:43.999Z</time></trkpt><trkpt lat="38.09020246234747" lon="15.289681832414344"><ele>316.0</ele><time>2026-04-11T13:55:44.999Z</time></trkpt><trkpt lat="38.0902099710085" lon="15.289577885435506"><ele>316.0</ele><time>2026-04-11T13:55:45.999Z</time></trkpt><trkpt lat="38.09021544712557" lon="15.289471230716149"><ele>316.0</ele><time>2026-04-11T13:55:46.999Z</time></trkpt><trkpt lat="38.090221375664264" lon="15.289369653849834"><ele>316.0</ele><time>2026-04-11T13:55:47.999Z</time></trkpt><trkpt lat="38.09022572123745" lon="15.289268988279542"><ele>316.0</ele><time>2026-04-11T13:55:48.999Z</time></trkpt><trkpt lat="38.09023096741608" lon="15.289163465730121"><ele>316.0</ele><time>2026-04-11T13:55:49.999Z</time></trkpt><trkpt lat="38.09023929241992" lon="15.289050149574727"><ele>316.0</ele><time>2026-04-11T13:55:50.999Z</time></trkpt><trkpt lat="38.09023498010117" lon="15.288941886661021"><ele>316.5</ele><time>2026-04-11T13:55:51.999Z</time></trkpt><trkpt lat="38.09023058350087" lon="15.288838140461003"><ele>317.0</ele><time>2026-04-11T13:55:52.999Z</time></trkpt><trkpt lat="38.090216988559966" lon="15.288732104593258"><ele>317.5</ele><time>2026-04-11T13:55:53.999Z</time></trkpt><trkpt lat="38.09019363254101" lon="15.288627914385044"><ele>318.0</ele><time>2026-04-11T13:55:54.999Z</time></trkpt><trkpt lat="38.09016929981178" lon="15.288528034934103"><ele>318.5</ele><time>2026-04-11T13:55:55.999Z</time></trkpt><trkpt lat="38.09014117320681" lon="15.288436312505262"><ele>319.0</ele><time>2026-04-11T13:55:56.999Z</time></trkpt><trkpt lat="38.0901123276508" lon="15.288353938291335"><ele>319.0</ele><time>2026-04-11T13:55:57.999Z</time></trkpt><trkpt lat="38.090083113463145" lon="15.288273059966846"><ele>319.0</ele><time>2026-04-11T13:55:58.999Z</time></trkpt><trkpt lat="38.090037614611354" lon="15.288151874612693"><ele>319.0</ele><time>2026-04-11T13:56:00.999Z</time></trkpt><trkpt lat="38.090019173747784" lon="15.288059560974146"><ele>319.0</ele><time>2026-04-11T13:56:02.999Z</time></trkpt><trkpt lat="38.090020171709455" lon="15.287960252590333"><ele>319.0</ele><time>2026-04-11T13:56:04.999Z</time></trkpt><trkpt lat="38.090046485108175" lon="15.287852967245067"><ele>319.0</ele><time>2026-04-11T13:56:06.999Z</time></trkpt><trkpt lat="38.090099001576434" lon="15.287721355716723"><ele>318.16666666666663</ele><time>2026-04-11T13:56:08.999Z</time></trkpt><trkpt lat="38.09013351366037" lon="15.28764434057613"><ele>317.3333333333333</ele><time>2026-04-11T13:56:09.999Z</time></trkpt><trkpt lat="38.090161256080385" lon="15.287572305745792"><ele>316.5</ele><time>2026-04-11T13:56:10.999Z</time></trkpt><trkpt lat="38.09022939933857" lon="15.287432923919246"><ele>315.6666666666667</ele><time>2026-04-11T13:56:12.999Z</time></trkpt><trkpt lat="38.09027112336173" lon="15.287354774491288"><ele>314.83333333333337</ele><time>2026-04-11T13:56:13.999Z</time></trkpt><trkpt lat="38.090318502851204" lon="15.287276454314828"><ele>314.0</ele><time>2026-04-11T13:56:14.999Z</time></trkpt><trkpt lat="38.090363335376644" lon="15.287197567386036"><ele>314.0</ele><time>2026-04-11T13:56:15.999Z</time></trkpt><trkpt lat="38.09041083636154" lon="15.287118515764199"><ele>314.0</ele><time>2026-04-11T13:56:16.999Z</time></trkpt><trkpt lat="38.09046504064565" lon="15.287023818846286"><ele>314.0</ele><time>2026-04-11T13:56:17.999Z</time></trkpt><trkpt lat="38.090527914839164" lon="15.286931334670106"><ele>314.0</ele><time>2026-04-11T13:56:18.999Z</time></trkpt><trkpt lat="38.09059884172156" lon="15.286835851488371"><ele>314.0</ele><time>2026-04-11T13:56:19.999Z</time></trkpt><trkpt lat="38.090671718641204" lon="15.286746628214127"><ele>314.0</ele><time>2026-04-11T13:56:20.999Z</time></trkpt><trkpt lat="38.09073537021311" lon="15.286654273741377"><ele>314.0</ele><time>2026-04-11T13:56:21.999Z</time></trkpt><trkpt lat="38.09079485054109" lon="15.286557338498136"><ele>314.0</ele><time>2026-04-11T13:56:22.999Z</time></trkpt><trkpt lat="38.09084892344807" lon="15.28646177778284"><ele>314.0</ele><time>2026-04-11T13:56:23.999Z</time></trkpt><trkpt lat="38.09090497841629" lon="15.286368058364713"><ele>314.0</ele><time>2026-04-11T13:56:24.999Z</time></trkpt><trkpt lat="38.090957488544404" lon="15.286268661510482"><ele>312.0</ele><time>2026-04-11T13:56:25.999Z</time></trkpt><trkpt lat="38.091011572149675" lon="15.28616988941576"><ele>310.0</ele><time>2026-04-11T13:56:26.999Z</time></trkpt><trkpt lat="38.091063466324265" lon="15.286075966412366"><ele>308.0</ele><time>2026-04-11T13:56:27.999Z</time></trkpt><trkpt lat="38.09111593724102" lon="15.285995981621525"><ele>306.0</ele><time>2026-04-11T13:56:28.999Z</time></trkpt><trkpt lat="38.091170323080505" lon="15.28592500613815"><ele>304.0</ele><time>2026-04-11T13:56:29.999Z</time></trkpt><trkpt lat="38.0912163671188" lon="15.285858014420246"><ele>302.0</ele><time>2026-04-11T13:56:30.999Z</time></trkpt><trkpt lat="38.09126316820047" lon="15.285781322885356"><ele>302.0</ele><time>2026-04-11T13:56:31.999Z</time></trkpt><trkpt lat="38.09129733243213" lon="15.285699933753856"><ele>302.0</ele><time>2026-04-11T13:56:32.999Z</time></trkpt><trkpt lat="38.09132653946789" lon="15.285596504773979"><ele>302.0</ele><time>2026-04-11T13:56:34Z</time></trkpt><trkpt lat="38.09134376787934" lon="15.285488098799783"><ele>302.0</ele><time>2026-04-11T13:56:35Z</time></trkpt><trkpt lat="38.09135980109402" lon="15.285384088759741"><ele>302.0</ele><time>2026-04-11T13:56:36Z</time></trkpt><trkpt lat="38.09137132523923" lon="15.285275199995883"><ele>302.0</ele><time>2026-04-11T13:56:37Z</time></trkpt><trkpt lat="38.09137263191516" lon="15.285166482826954"><ele>302.33333333333337</ele><time>2026-04-11T13:56:38Z</time></trkpt><trkpt lat="38.0913785509565" lon="15.285061938689017"><ele>302.6666666666667</ele><time>2026-04-11T13:56:39Z</time></trkpt><trkpt lat="38.09138427737052" lon="15.284967093115862"><ele>303.0</ele><time>2026-04-11T13:56:40Z</time></trkpt><trkpt lat="38.09140338202297" lon="15.284821403830549"><ele>303.3333333333333</ele><time>2026-04-11T13:56:42Z</time></trkpt><trkpt lat="38.091439796252494" lon="15.284726803540606"><ele>303.66666666666663</ele><time>2026-04-11T13:56:44Z</time></trkpt><trkpt lat="38.09150929139253" lon="15.28469157870313"><ele>304.0</ele><time>2026-04-11T13:56:46Z</time></trkpt><trkpt lat="38.0916064335037" lon="15.284714824813133"><ele>303.8333333333333</ele><time>2026-04-11T13:56:48Z</time></trkpt><trkpt lat="38.09166521015345" lon="15.284760498123433"><ele>303.66666666666663</ele><time>2026-04-11T13:56:49Z</time></trkpt><trkpt lat="38.091724438236355" lon="15.284826249144434"><ele>303.5</ele><time>2026-04-11T13:56:50Z</time></trkpt><trkpt lat="38.09178968890327" lon="15.284899637750947"><ele>303.3333333333333</ele><time>2026-04-11T13:56:51Z</time></trkpt><trkpt lat="38.09185542436153" lon="15.284978135116829"><ele>303.1666666666667</ele><time>2026-04-11T13:56:52Z</time></trkpt><trkpt lat="38.091940147243086" lon="15.285057553159191"><ele>303.0</ele><time>2026-04-11T13:56:53Z</time></trkpt><trkpt lat="38.0920050879803" lon="15.285124277399142"><ele>303.0</ele><time>2026-04-11T13:56:54Z</time></trkpt><trkpt lat="38.09207052009046" lon="15.285188005395492"><ele>303.0</ele><time>2026-04-11T13:56:55Z</time></trkpt><trkpt lat="38.09213523552054" lon="15.285240358238473"><ele>303.0</ele><time>2026-04-11T13:56:56Z</time></trkpt><trkpt lat="38.092200789905554" lon="15.285287843061182"><ele>303.0</ele><time>2026-04-11T13:56:57Z</time></trkpt><trkpt lat="38.092273294601846" lon="15.28533197382242"><ele>303.0</ele><time>2026-04-11T13:56:58Z</time></trkpt><trkpt lat="38.092352165942216" lon="15.285375132588788"><ele>303.0</ele><time>2026-04-11T13:56:59Z</time></trkpt><trkpt lat="38.092439106104386" lon="15.285412138410502"><ele>301.6</ele><time>2026-04-11T13:57:00Z</time></trkpt><trkpt lat="38.0925246753382" lon="15.285442701736688"><ele>300.20000000000005</ele><time>2026-04-11T13:57:01Z</time></trkpt><trkpt lat="38.09261145645324" lon="15.2854661692928"><ele>298.8</ele><time>2026-04-11T13:57:02Z</time></trkpt><trkpt lat="38.092702351466485" lon="15.285484893021634"><ele>297.40000000000003</ele><time>2026-04-11T13:57:03Z</time></trkpt><trkpt lat="38.092794147512315" lon="15.2855028156386"><ele>296.0</ele><time>2026-04-11T13:57:04Z</time></trkpt><trkpt lat="38.092892098932616" lon="15.285516475897996"><ele>296.0</ele><time>2026-04-11T13:57:05Z</time></trkpt><trkpt lat="38.092985465900355" lon="15.28553134327455"><ele>296.0</ele><time>2026-04-11T13:57:06Z</time></trkpt><trkpt lat="38.0930715538346" lon="15.285548590722186"><ele>296.0</ele><time>2026-04-11T13:57:07Z</time></trkpt><trkpt lat="38.09315763985192" lon="15.285566680586342"><ele>296.0</ele><time>2026-04-11T13:57:08Z</time></trkpt><trkpt lat="38.09324602585859" lon="15.28558793534348"><ele>296.0</ele><time>2026-04-11T13:57:09Z</time></trkpt><trkpt lat="38.09333221978883" lon="15.285618505339343"><ele>296.0</ele><time>2026-04-11T13:57:10Z</time></trkpt><trkpt lat="38.093419585443726" lon="15.28565178733006"><ele>298.2</ele><time>2026-04-11T13:57:11Z</time></trkpt><trkpt lat="38.09350583561624" lon="15.285683761971768"><ele>300.40000000000003</ele><time>2026-04-11T13:57:12Z</time></trkpt><trkpt lat="38.093591947879524" lon="15.285718044525405"><ele>302.6</ele><time>2026-04-11T13:57:13Z</time></trkpt><trkpt lat="38.093682048456614" lon="15.285747943164296"><ele>304.8</ele><time>2026-04-11T13:57:14Z</time></trkpt><trkpt lat="38.093775705917764" lon="15.28577196349707"><ele>307.0</ele><time>2026-04-11T13:57:15Z</time></trkpt><trkpt lat="38.09386646511724" lon="15.285796622506558"><ele>307.0</ele><time>2026-04-11T13:57:16Z</time></trkpt><trkpt lat="38.09395145207557" lon="15.28582193496609"><ele>307.0</ele><time>2026-04-11T13:57:17Z</time></trkpt><trkpt lat="38.094034597461395" lon="15.285847452456823"><ele>307.0</ele><time>2026-04-11T13:57:18Z</time></trkpt><trkpt lat="38.09411788848516" lon="15.285869737455398"><ele>307.0</ele><time>2026-04-11T13:57:19Z</time></trkpt><trkpt lat="38.09420784455839" lon="15.285885369019523"><ele>307.0</ele><time>2026-04-11T13:57:20Z</time></trkpt><trkpt lat="38.094298616183075" lon="15.285896012469342"><ele>307.0</ele><time>2026-04-11T13:57:21Z</time></trkpt><trkpt lat="38.09438052465943" lon="15.285898892407852"><ele>304.66666666666663</ele><time>2026-04-11T13:57:22Z</time></trkpt><trkpt lat="38.09446528329602" lon="15.285886044955841"><ele>302.3333333333333</ele><time>2026-04-11T13:57:23Z</time></trkpt><trkpt lat="38.094544678538355" lon="15.285869408762213"><ele>300.0</ele><time>2026-04-11T13:57:24Z</time></trkpt><trkpt lat="38.09461571833023" lon="15.285839708878209"><ele>297.6666666666667</ele><time>2026-04-11T13:57:25Z</time></trkpt><trkpt lat="38.09468049118301" lon="15.28579614927723"><ele>295.33333333333337</ele><time>2026-04-11T13:57:26Z</time></trkpt><trkpt lat="38.09474419204331" lon="15.285737517550892"><ele>293.0</ele><time>2026-04-11T13:57:27Z</time></trkpt><trkpt lat="38.094805643865136" lon="15.285670074407923"><ele>292.6666666666667</ele><time>2026-04-11T13:57:28Z</time></trkpt><trkpt lat="38.094863197787994" lon="15.285595375045059"><ele>292.33333333333337</ele><time>2026-04-11T13:57:29Z</time></trkpt><trkpt lat="38.09491314455099" lon="15.28551623479145"><ele>292.0</ele><time>2026-04-11T13:57:30Z</time></trkpt><trkpt lat="38.09495857448871" lon="15.285425992281393"><ele>291.6666666666667</ele><time>2026-04-11T13:57:31Z</time></trkpt><trkpt lat="38.094996461364225" lon="15.285331259606874"><ele>291.3333333333333</ele><time>2026-04-11T13:57:32Z</time></trkpt><trkpt lat="38.0950255415219" lon="15.28522873556381"><ele>291.0</ele><time>2026-04-11T13:57:33Z</time></trkpt><trkpt lat="38.095048126617925" lon="15.285116102305462"><ele>291.0</ele><time>2026-04-11T13:57:34Z</time></trkpt><trkpt lat="38.09506882211974" lon="15.285000404894792"><ele>291.0</ele><time>2026-04-11T13:57:35Z</time></trkpt><trkpt lat="38.09508664120512" lon="15.28488350173376"><ele>291.0</ele><time>2026-04-11T13:57:36Z</time></trkpt><trkpt lat="38.095096619342655" lon="15.284780022525615"><ele>291.0</ele><time>2026-04-11T13:57:37Z</time></trkpt><trkpt lat="38.095103437870556" lon="15.284681480664336"><ele>291.0</ele><time>2026-04-11T13:57:38Z</time></trkpt><trkpt lat="38.0951097587879" lon="15.284582361463066"><ele>291.0</ele><time>2026-04-11T13:57:39Z</time></trkpt><trkpt lat="38.09512090858663" lon="15.284501610045892"><ele>289.6666666666667</ele><time>2026-04-11T13:57:40Z</time></trkpt><trkpt lat="38.095175653404745" lon="15.28436643530233"><ele>288.3333333333333</ele><time>2026-04-11T13:57:41.999Z</time></trkpt><trkpt lat="38.095224139177226" lon="15.284307262473217"><ele>287.0</ele><time>2026-04-11T13:57:42.999Z</time></trkpt><trkpt lat="38.09528359957891" lon="15.284257707470482"><ele>285.66666666666663</ele><time>2026-04-11T13:57:43.999Z</time></trkpt><trkpt lat="38.09535280100974" lon="15.284224365578176"><ele>284.3333333333333</ele><time>2026-04-11T13:57:44.999Z</time></trkpt><trkpt lat="38.095426736465505" lon="15.284192854916537"><ele>283.0</ele><time>2026-04-11T13:57:45.999Z</time></trkpt><trkpt lat="38.095508007068446" lon="15.284170091532582"><ele>283.0</ele><time>2026-04-11T13:57:46.999Z</time></trkpt><trkpt lat="38.095584615211585" lon="15.284144405495601"><ele>283.0</ele><time>2026-04-11T13:57:47.999Z</time></trkpt><trkpt lat="38.09565972064902" lon="15.284119837170168"><ele>283.0</ele><time>2026-04-11T13:57:48.999Z</time></trkpt><trkpt lat="38.09572713280088" lon="15.284103439851215"><ele>283.0</ele><time>2026-04-11T13:57:49.999Z</time></trkpt><trkpt lat="38.09580541760549" lon="15.284083678528907"><ele>283.0</ele><time>2026-04-11T13:57:50.999Z</time></trkpt><trkpt lat="38.095875577880534" lon="15.284079710501992"><ele>283.0</ele><time>2026-04-11T13:57:51.999Z</time></trkpt><trkpt lat="38.0959500800865" lon="15.28407917691882"><ele>283.3333333333333</ele><time>2026-04-11T13:57:52.999Z</time></trkpt><trkpt lat="38.0960236776962" lon="15.284084852346687"><ele>283.66666666666663</ele><time>2026-04-11T13:57:53.999Z</time></trkpt><trkpt lat="38.096097968361995" lon="15.284097925698804"><ele>284.0</ele><time>2026-04-11T13:57:54.999Z</time></trkpt><trkpt lat="38.096167322482735" lon="15.28411572054848"><ele>284.3333333333333</ele><time>2026-04-11T13:57:55.999Z</time></trkpt><trkpt lat="38.09624119434628" lon="15.284148676083104"><ele>284.6666666666667</ele><time>2026-04-11T13:57:56.999Z</time></trkpt><trkpt lat="38.09632351852795" lon="15.284182050172904"><ele>285.0</ele><time>2026-04-11T13:57:57.999Z</time></trkpt><trkpt lat="38.09641043055317" lon="15.284204460604592"><ele>285.0</ele><time>2026-04-11T13:57:58.999Z</time></trkpt><trkpt lat="38.09650761491864" lon="15.28423477520304"><ele>285.0</ele><time>2026-04-11T13:57:59.999Z</time></trkpt><trkpt lat="38.096593388700235" lon="15.2842766263265"><ele>285.0</ele><time>2026-04-11T13:58:00.999Z</time></trkpt><trkpt lat="38.096680608047365" lon="15.284303488058748"><ele>285.0</ele><time>2026-04-11T13:58:01.999Z</time></trkpt><trkpt lat="38.09676505027803" lon="15.284332053639211"><ele>285.0</ele><time>2026-04-11T13:58:02.999Z</time></trkpt><trkpt lat="38.096858264103254" lon="15.284366261875775"><ele>284.4</ele><time>2026-04-11T13:58:03.999Z</time></trkpt><trkpt lat="38.09695714163951" lon="15.284399257453204"><ele>283.8</ele><time>2026-04-11T13:58:04.999Z</time></trkpt><trkpt lat="38.09705013488196" lon="15.284429119095986"><ele>283.2</ele><time>2026-04-11T13:58:05.999Z</time></trkpt><trkpt lat="38.09714827624758" lon="15.284457961713002"><ele>282.6</ele><time>2026-04-11T13:58:06.999Z</time></trkpt><trkpt lat="38.097248469612666" lon="15.284488112372669"><ele>282.0</ele><time>2026-04-11T13:58:07.999Z</time></trkpt><trkpt lat="38.097346872869586" lon="15.284515612052031"><ele>282.4</ele><time>2026-04-11T13:58:08.999Z</time></trkpt><trkpt lat="38.09744112975332" lon="15.284541108598514"><ele>282.79999999999995</ele><time>2026-04-11T13:58:09.999Z</time></trkpt><trkpt lat="38.09753771871654" lon="15.284574087332311"><ele>283.2</ele><time>2026-04-11T13:58:10.999Z</time></trkpt><trkpt lat="38.09762822820864" lon="15.28461072499386"><ele>283.59999999999997</ele><time>2026-04-11T13:58:11.999Z</time></trkpt><trkpt lat="38.097716559494394" lon="15.284643027854004"><ele>284.0</ele><time>2026-04-11T13:58:12.999Z</time></trkpt><trkpt lat="38.09780976024221" lon="15.28467375298681"><ele>284.0</ele><time>2026-04-11T13:58:13.999Z</time></trkpt><trkpt lat="38.09788996566961" lon="15.284702502725704"><ele>284.0</ele><time>2026-04-11T13:58:14.999Z</time></trkpt><trkpt lat="38.097975825863145" lon="15.284717012451786"><ele>284.0</ele><time>2026-04-11T13:58:15.999Z</time></trkpt><trkpt lat="38.098051490938936" lon="15.284730679936777"><ele>284.0</ele><time>2026-04-11T13:58:16.999Z</time></trkpt><trkpt lat="38.09811683342777" lon="15.284739888726484"><ele>284.0</ele><time>2026-04-11T13:58:17.999Z</time></trkpt><trkpt lat="38.09826694667879" lon="15.284747677163642"><ele>282.5</ele><time>2026-04-11T13:58:19.999Z</time></trkpt><trkpt lat="38.09835582187237" lon="15.284747763835421"><ele>281.0</ele><time>2026-04-11T13:58:20.999Z</time></trkpt><trkpt lat="38.098433309605674" lon="15.284735166686797"><ele>279.5</ele><time>2026-04-11T13:58:21.999Z</time></trkpt><trkpt lat="38.09850264846425" lon="15.284712525737161"><ele>278.0</ele><time>2026-04-11T13:58:22.999Z</time></trkpt><trkpt lat="38.098567379942914" lon="15.28467874269214"><ele>276.5</ele><time>2026-04-11T13:58:23.999Z</time></trkpt><trkpt lat="38.09862495486326" lon="15.284625648079901"><ele>275.0</ele><time>2026-04-11T13:58:24.999Z</time></trkpt><trkpt lat="38.098681648994486" lon="15.284554650651604"><ele>275.0</ele><time>2026-04-11T13:58:25.999Z</time></trkpt><trkpt lat="38.09873144351825" lon="15.284482695364657"><ele>275.0</ele><time>2026-04-11T13:58:26.999Z</time></trkpt><trkpt lat="38.09877293277053" lon="15.284391861442545"><ele>275.0</ele><time>2026-04-11T13:58:27.999Z</time></trkpt><trkpt lat="38.098805939761476" lon="15.284301835178368"><ele>275.0</ele><time>2026-04-11T13:58:28.999Z</time></trkpt><trkpt lat="38.09883760421712" lon="15.284200751100029"><ele>275.0</ele><time>2026-04-11T13:58:29.999Z</time></trkpt><trkpt lat="38.09886277957491" lon="15.28410141330558"><ele>275.0</ele><time>2026-04-11T13:58:30.999Z</time></trkpt><trkpt lat="38.09887489650823" lon="15.284007818896777"><ele>274.0</ele><time>2026-04-11T13:58:31.999Z</time></trkpt><trkpt lat="38.098891676595244" lon="15.283905919073607"><ele>273.0</ele><time>2026-04-11T13:58:32.999Z</time></trkpt><trkpt lat="38.09889340118406" lon="15.283808745629159"><ele>272.0</ele><time>2026-04-11T13:58:33.999Z</time></trkpt><trkpt lat="38.09888317440902" lon="15.283717048907809"><ele>271.0</ele><time>2026-04-11T13:58:34.999Z</time></trkpt><trkpt lat="38.098861503122365" lon="15.283625631115735"><ele>270.0</ele><time>2026-04-11T13:58:35.999Z</time></trkpt><trkpt lat="38.098826284586174" lon="15.283532788650588"><ele>269.0</ele><time>2026-04-11T13:58:36.999Z</time></trkpt><trkpt lat="38.09877841676809" lon="15.28344841413534"><ele>269.0</ele><time>2026-04-11T13:58:37.999Z</time></trkpt><trkpt lat="38.09871538727525" lon="15.283368471017681"><ele>269.0</ele><time>2026-04-11T13:58:39Z</time></trkpt><trkpt lat="38.098661165986165" lon="15.283291440987773"><ele>269.0</ele><time>2026-04-11T13:58:40Z</time></trkpt><trkpt lat="38.098611406398916" lon="15.283205397875689"><ele>269.0</ele><time>2026-04-11T13:58:41Z</time></trkpt><trkpt lat="38.09857365795115" lon="15.283122204112876"><ele>269.0</ele><time>2026-04-11T13:58:42Z</time></trkpt><trkpt lat="38.098551915849086" lon="15.283045616951767"><ele>269.0</ele><time>2026-04-11T13:58:43Z</time></trkpt><trkpt lat="38.09853926698022" lon="15.282888747158411"><ele>269.0</ele><time>2026-04-11T13:58:45Z</time></trkpt><trkpt lat="38.09855158159777" lon="15.28280168244141"><ele>269.0</ele><time>2026-04-11T13:58:46Z</time></trkpt><trkpt lat="38.09858255499237" lon="15.282697783060243"><ele>269.0</ele><time>2026-04-11T13:58:47Z</time></trkpt><trkpt lat="38.09861186360703" lon="15.282589879766007"><ele>269.0</ele><time>2026-04-11T13:58:48Z</time></trkpt><trkpt lat="38.09863856805738" lon="15.282467538658187"><ele>269.0</ele><time>2026-04-11T13:58:49Z</time></trkpt><trkpt lat="38.09866870843135" lon="15.2823479511327"><ele>269.0</ele><time>2026-04-11T13:58:50Z</time></trkpt><trkpt lat="38.09869379805049" lon="15.28222477121569"><ele>269.59999999999997</ele><time>2026-04-11T13:58:51Z</time></trkpt><trkpt lat="38.09871970788473" lon="15.282113762624673"><ele>270.2</ele><time>2026-04-11T13:58:52Z</time></trkpt><trkpt lat="38.09874479294684" lon="15.28201437660109"><ele>270.79999999999995</ele><time>2026-04-11T13:58:53Z</time></trkpt><trkpt lat="38.098777027078235" lon="15.281903388109999"><ele>271.4</ele><time>2026-04-11T13:58:54Z</time></trkpt><trkpt lat="38.098813238308566" lon="15.281786646212755"><ele>272.0</ele><time>2026-04-11T13:58:55Z</time></trkpt><trkpt lat="38.09884268577136" lon="15.28167798654261"><ele>272.0</ele><time>2026-04-11T13:58:56Z</time></trkpt><trkpt lat="38.0988722450116" lon="15.281558337393921"><ele>272.0</ele><time>2026-04-11T13:58:57Z</time></trkpt><trkpt lat="38.098899322633116" lon="15.28144191741013"><ele>272.0</ele><time>2026-04-11T13:58:58Z</time></trkpt><trkpt lat="38.098920706426256" lon="15.28132362294067"><ele>272.0</ele><time>2026-04-11T13:58:59Z</time></trkpt><trkpt lat="38.09893957145573" lon="15.281202725459382"><ele>272.0</ele><time>2026-04-11T13:59:00Z</time></trkpt><trkpt lat="38.09895985730748" lon="15.281073772928243"><ele>271.8</ele><time>2026-04-11T13:59:01Z</time></trkpt><trkpt lat="38.098979017668974" lon="15.2809397992219"><ele>271.6</ele><time>2026-04-11T13:59:02Z</time></trkpt><trkpt lat="38.09899950973705" lon="15.280803018794256"><ele>271.40000000000003</ele><time>2026-04-11T13:59:03Z</time></trkpt><trkpt lat="38.09901556381182" lon="15.28067139976841"><ele>271.2</ele><time>2026-04-11T13:59:04Z</time></trkpt><trkpt lat="38.09902928800334" lon="15.280540652653416"><ele>271.0</ele><time>2026-04-11T13:59:05Z</time></trkpt><trkpt lat="38.09904998374413" lon="15.280430195821879"><ele>271.0</ele><time>2026-04-11T13:59:06Z</time></trkpt><trkpt lat="38.09907236473844" lon="15.280315834141856"><ele>271.0</ele><time>2026-04-11T13:59:07Z</time></trkpt><trkpt lat="38.09908914708616" lon="15.280202691609055"><ele>271.0</ele><time>2026-04-11T13:59:08Z</time></trkpt><trkpt lat="38.09910580364515" lon="15.280100021348842"><ele>271.0</ele><time>2026-04-11T13:59:09Z</time></trkpt><trkpt lat="38.09912529397875" lon="15.279997466748414"><ele>271.0</ele><time>2026-04-11T13:59:10Z</time></trkpt><trkpt lat="38.09914788805177" lon="15.279900056607445"><ele>271.0</ele><time>2026-04-11T13:59:11Z</time></trkpt><trkpt lat="38.09916865728993" lon="15.27980317404051"><ele>268.3333333333333</ele><time>2026-04-11T13:59:12Z</time></trkpt><trkpt lat="38.099192649120624" lon="15.279712568688543"><ele>265.66666666666663</ele><time>2026-04-11T13:59:13Z</time></trkpt><trkpt lat="38.09921690789987" lon="15.279633533286125"><ele>263.0</ele><time>2026-04-11T13:59:14Z</time></trkpt><trkpt lat="38.099267764397005" lon="15.279532590139807"><ele>260.3333333333333</ele><time>2026-04-11T13:59:16Z</time></trkpt><trkpt lat="38.09936369661512" lon="15.279463054669723"><ele>257.6666666666667</ele><time>2026-04-11T13:59:18Z</time></trkpt><trkpt lat="38.099431440302155" lon="15.279402755157616"><ele>255.0</ele><time>2026-04-11T13:59:19Z</time></trkpt><trkpt lat="38.099503751272174" lon="15.279363954211865"><ele>255.0</ele><time>2026-04-11T13:59:20Z</time></trkpt><trkpt lat="38.0995860744032" lon="15.2793380977991"><ele>255.0</ele><time>2026-04-11T13:59:21Z</time></trkpt><trkpt lat="38.09966919656382" lon="15.279318606407196"><ele>255.0</ele><time>2026-04-11T13:59:22Z</time></trkpt><trkpt lat="38.09975244726926" lon="15.279304631515458"><ele>255.0</ele><time>2026-04-11T13:59:23Z</time></trkpt><trkpt lat="38.09982374356325" lon="15.27928320506584"><ele>255.0</ele><time>2026-04-11T13:59:24Z</time></trkpt><trkpt lat="38.09990159333126" lon="15.279242534250752"><ele>255.0</ele><time>2026-04-11T13:59:25Z</time></trkpt><trkpt lat="38.09994781670326" lon="15.279180217236664"><ele>254.0</ele><time>2026-04-11T13:59:26Z</time></trkpt><trkpt lat="38.100054604174886" lon="15.279114152537687"><ele>253.0</ele><time>2026-04-11T13:59:27Z</time></trkpt><trkpt lat="38.10012265421783" lon="15.279062488943714"><ele>252.0</ele><time>2026-04-11T13:59:28Z</time></trkpt><trkpt lat="38.100185223029186" lon="15.279014544803157"><ele>251.0</ele><time>2026-04-11T13:59:29Z</time></trkpt><trkpt lat="38.10029987781332" lon="15.278956922121818"><ele>250.0</ele><time>2026-04-11T13:59:31Z</time></trkpt><trkpt lat="38.10036856357134" lon="15.278921093883813"><ele>250.33333333333331</ele><time>2026-04-11T13:59:32Z</time></trkpt><trkpt lat="38.100443874965194" lon="15.278894630710234"><ele>250.66666666666666</ele><time>2026-04-11T13:59:33Z</time></trkpt><trkpt lat="38.10051097176942" lon="15.278864864622756"><ele>251.0</ele><time>2026-04-11T13:59:34Z</time></trkpt><trkpt lat="38.100584452219685" lon="15.278825039877443"><ele>251.33333333333331</ele><time>2026-04-11T13:59:35Z</time></trkpt><trkpt lat="38.100661075781176" lon="15.278770138152561"><ele>251.66666666666666</ele><time>2026-04-11T13:59:36Z</time></trkpt><trkpt lat="38.10073823241273" lon="15.278710831228608"><ele>252.0</ele><time>2026-04-11T13:59:37Z</time></trkpt><trkpt lat="38.10081148103355" lon="15.278649918478239"><ele>252.0</ele><time>2026-04-11T13:59:37.999Z</time></trkpt><trkpt lat="38.10088725000882" lon="15.278599291844143"><ele>252.0</ele><time>2026-04-11T13:59:38.999Z</time></trkpt><trkpt lat="38.10096955175407" lon="15.278564019898635"><ele>252.0</ele><time>2026-04-11T13:59:39.999Z</time></trkpt><trkpt lat="38.10104675669823" lon="15.278513907708334"><ele>252.0</ele><time>2026-04-11T13:59:40.999Z</time></trkpt><trkpt lat="38.101131672296965" lon="15.278457570797574"><ele>252.0</ele><time>2026-04-11T13:59:41.999Z</time></trkpt><trkpt lat="38.101212691591634" lon="15.278399453143813"><ele>252.0</ele><time>2026-04-11T13:59:42.999Z</time></trkpt><trkpt lat="38.101282270524" lon="15.278342238984484"><ele>252.0</ele><time>2026-04-11T13:59:43.999Z</time></trkpt><trkpt lat="38.101341135787514" lon="15.278280533922882"><ele>252.0</ele><time>2026-04-11T13:59:44.999Z</time></trkpt><trkpt lat="38.10140317264944" lon="15.278225337525646"><ele>252.0</ele><time>2026-04-11T13:59:45.999Z</time></trkpt><trkpt lat="38.10147312003947" lon="15.278189933352866"><ele>252.0</ele><time>2026-04-11T13:59:46.999Z</time></trkpt><trkpt lat="38.10153938354821" lon="15.278154722093486"><ele>252.0</ele><time>2026-04-11T13:59:47.999Z</time></trkpt><trkpt lat="38.1016037915273" lon="15.27812884205768"><ele>252.0</ele><time>2026-04-11T13:59:48.999Z</time></trkpt><trkpt lat="38.10167524220611" lon="15.278112265001901"><ele>252.0</ele><time>2026-04-11T13:59:49.999Z</time></trkpt><trkpt lat="38.10178028627539" lon="15.278119402101561"><ele>250.8</ele><time>2026-04-11T13:59:51.999Z</time></trkpt><trkpt lat="38.10185156071294" lon="15.278135820169798"><ele>249.6</ele><time>2026-04-11T13:59:53.999Z</time></trkpt><trkpt lat="38.101930197539026" lon="15.278209005726358"><ele>248.40000000000003</ele><time>2026-04-11T13:59:56.999Z</time></trkpt><trkpt lat="38.10201164999974" lon="15.278274930101697"><ele>247.20000000000002</ele><time>2026-04-11T13:59:58.999Z</time></trkpt><trkpt lat="38.10213555795475" lon="15.278332881775162"><ele>246.0</ele><time>2026-04-11T13:59:59.999Z</time></trkpt><trkpt lat="38.10221102557974" lon="15.278377016695405"><ele>246.0</ele><time>2026-04-11T14:00:00.999Z</time></trkpt><trkpt lat="38.10227396779964" lon="15.278419066615463"><ele>246.0</ele><time>2026-04-11T14:00:01.999Z</time></trkpt><trkpt lat="38.10233329375207" lon="15.278469169005849"><ele>246.0</ele><time>2026-04-11T14:00:02.999Z</time></trkpt><trkpt lat="38.102392005514076" lon="15.278535569010135"><ele>246.0</ele><time>2026-04-11T14:00:03.999Z</time></trkpt><trkpt lat="38.102451070502454" lon="15.278604934987742"><ele>246.0</ele><time>2026-04-11T14:00:04.999Z</time></trkpt><trkpt lat="38.10251043981378" lon="15.27868097636939"><ele>246.0</ele><time>2026-04-11T14:00:05.999Z</time></trkpt><trkpt lat="38.102567024535816" lon="15.278759669554661"><ele>245.83333333333334</ele><time>2026-04-11T14:00:06.999Z</time></trkpt><trkpt lat="38.10260937341784" lon="15.278851070629448"><ele>245.66666666666669</ele><time>2026-04-11T14:00:07.999Z</time></trkpt><trkpt lat="38.102643608313464" lon="15.278945762017445"><ele>245.5</ele><time>2026-04-11T14:00:08.999Z</time></trkpt><trkpt lat="38.10266939908642" lon="15.279044584526636"><ele>245.33333333333334</ele><time>2026-04-11T14:00:09.999Z</time></trkpt><trkpt lat="38.10270914458444" lon="15.279137279668932"><ele>245.16666666666669</ele><time>2026-04-11T14:00:10.999Z</time></trkpt><trkpt lat="38.102757716897614" lon="15.279224483948257"><ele>245.0</ele><time>2026-04-11T14:00:11.999Z</time></trkpt><trkpt lat="38.102820705163516" lon="15.279308786314788"><ele>247.4</ele><time>2026-04-11T14:00:12.999Z</time></trkpt><trkpt lat="38.10289373243618" lon="15.279385865289603"><ele>249.8</ele><time>2026-04-11T14:00:13.999Z</time></trkpt><trkpt lat="38.10297129949248" lon="15.279462815751474"><ele>252.2</ele><time>2026-04-11T14:00:14.999Z</time></trkpt><trkpt lat="38.10306148965791" lon="15.279532108711475"><ele>254.6</ele><time>2026-04-11T14:00:15.999Z</time></trkpt><trkpt lat="38.10314972235647" lon="15.27960574932154"><ele>257.0</ele><time>2026-04-11T14:00:16.999Z</time></trkpt><trkpt lat="38.103233650609866" lon="15.279676465077577"><ele>254.8</ele><time>2026-04-11T14:00:17.999Z</time></trkpt><trkpt lat="38.10330949143324" lon="15.279745946149546"><ele>252.6</ele><time>2026-04-11T14:00:18.999Z</time></trkpt><trkpt lat="38.103388503564716" lon="15.27980770893839"><ele>250.40000000000003</ele><time>2026-04-11T14:00:19.999Z</time></trkpt><trkpt lat="38.10347068310365" lon="15.27986609949431"><ele>248.20000000000002</ele><time>2026-04-11T14:00:20.999Z</time></trkpt><trkpt lat="38.10355900866685" lon="15.279912675201903"><ele>246.0</ele><time>2026-04-11T14:00:21.999Z</time></trkpt><trkpt lat="38.103646716031754" lon="15.279949820294771"><ele>246.0</ele><time>2026-04-11T14:00:22.999Z</time></trkpt><trkpt lat="38.10372947861281" lon="15.279968910023827"><ele>246.00000000000003</ele><time>2026-04-11T14:00:23.999Z</time></trkpt><trkpt lat="38.103824963672615" lon="15.279979843858397"><ele>246.00000000000003</ele><time>2026-04-11T14:00:24.999Z</time></trkpt><trkpt lat="38.103931992843485" lon="15.279984654638733"><ele>246.0</ele><time>2026-04-11T14:00:25.999Z</time></trkpt><trkpt lat="38.1040447634163" lon="15.279988680805294"><ele>246.0</ele><time>2026-04-11T14:00:26.999Z</time></trkpt><trkpt lat="38.10415943662149" lon="15.279989838756576"><ele>243.8</ele><time>2026-04-11T14:00:27.999Z</time></trkpt><trkpt lat="38.10427066856744" lon="15.279989073814992"><ele>241.60000000000002</ele><time>2026-04-11T14:00:28.999Z</time></trkpt><trkpt lat="38.10437852136935" lon="15.279982650873118"><ele>239.4</ele><time>2026-04-11T14:00:29.999Z</time></trkpt><trkpt lat="38.10448635511571" lon="15.279972161357183"><ele>237.2</ele><time>2026-04-11T14:00:30.999Z</time></trkpt><trkpt lat="38.104589106664484" lon="15.279952841839643"><ele>235.0</ele><time>2026-04-11T14:00:31.999Z</time></trkpt><trkpt lat="38.10469603953288" lon="15.279927608285483"><ele>235.0</ele><time>2026-04-11T14:00:32.999Z</time></trkpt><trkpt lat="38.10479729041848" lon="15.279893095591012"><ele>235.0</ele><time>2026-04-11T14:00:33.999Z</time></trkpt><trkpt lat="38.10489986296599" lon="15.279859774795954"><ele>235.0</ele><time>2026-04-11T14:00:34.999Z</time></trkpt><trkpt lat="38.10500738413748" lon="15.279829292480155"><ele>235.0</ele><time>2026-04-11T14:00:35.999Z</time></trkpt><trkpt lat="38.1051030798296" lon="15.27980841700814"><ele>235.0</ele><time>2026-04-11T14:00:36.999Z</time></trkpt><trkpt lat="38.10520663168247" lon="15.279792513977947"><ele>234.99999999999997</ele><time>2026-04-11T14:00:37.999Z</time></trkpt><trkpt lat="38.10531000422659" lon="15.279779622518465"><ele>235.0</ele><time>2026-04-11T14:00:38.999Z</time></trkpt><trkpt lat="38.10540618783302" lon="15.279762239500828"><ele>235.0</ele><time>2026-04-11T14:00:39.999Z</time></trkpt><trkpt lat="38.10549326887437" lon="15.279734219983931"><ele>235.0</ele><time>2026-04-11T14:00:40.999Z</time></trkpt><trkpt lat="38.10557032895744" lon="15.279702045086406"><ele>234.99999999999997</ele><time>2026-04-11T14:00:41.999Z</time></trkpt><trkpt lat="38.10563620875659" lon="15.279658296698791"><ele>235.0</ele><time>2026-04-11T14:00:42.999Z</time></trkpt><trkpt lat="38.105707977768276" lon="15.279586079196875"><ele>234.2</ele><time>2026-04-11T14:00:43.999Z</time></trkpt><trkpt lat="38.10577196559899" lon="15.279508477420721"><ele>233.4</ele><time>2026-04-11T14:00:45Z</time></trkpt><trkpt lat="38.10584285941016" lon="15.279425626204059"><ele>232.60000000000002</ele><time>2026-04-11T14:00:46Z</time></trkpt><trkpt lat="38.10590987819851" lon="15.27934690554385"><ele>231.8</ele><time>2026-04-11T14:00:47Z</time></trkpt><trkpt lat="38.10598438369021" lon="15.279273330463223"><ele>231.0</ele><time>2026-04-11T14:00:48Z</time></trkpt><trkpt lat="38.106051815375224" lon="15.27920077099776"><ele>231.0</ele><time>2026-04-11T14:00:49Z</time></trkpt><trkpt lat="38.10610948344809" lon="15.279115197293786"><ele>231.00000000000003</ele><time>2026-04-11T14:00:50Z</time></trkpt><trkpt lat="38.10616890001838" lon="15.279021895476177"><ele>231.00000000000003</ele><time>2026-04-11T14:00:51Z</time></trkpt><trkpt lat="38.10623102768265" lon="15.278923115806828"><ele>231.0</ele><time>2026-04-11T14:00:52Z</time></trkpt><trkpt lat="38.106291483894324" lon="15.278819322982983"><ele>231.0</ele><time>2026-04-11T14:00:53Z</time></trkpt><trkpt lat="38.1063519286208" lon="15.278713817937625"><ele>231.20000000000002</ele><time>2026-04-11T14:00:54Z</time></trkpt><trkpt lat="38.1064022416029" lon="15.278616452352292"><ele>231.40000000000003</ele><time>2026-04-11T14:00:55Z</time></trkpt><trkpt lat="38.10644024731465" lon="15.278534304297501"><ele>231.6</ele><time>2026-04-11T14:00:56Z</time></trkpt><trkpt lat="38.10649575315301" lon="15.278401434447584"><ele>231.8</ele><time>2026-04-11T14:00:58Z</time></trkpt><trkpt lat="38.10654466558277" lon="15.278294707808149"><ele>232.0</ele><time>2026-04-11T14:01:00Z</time></trkpt><trkpt lat="38.106614689269016" lon="15.278215306839156"><ele>231.66666666666666</ele><time>2026-04-11T14:01:02Z</time></trkpt><trkpt lat="38.10666794801255" lon="15.278159863493102"><ele>231.33333333333331</ele><time>2026-04-11T14:01:03Z</time></trkpt><trkpt lat="38.10672619260416" lon="15.27810173839862"><ele>231.0</ele><time>2026-04-11T14:01:04Z</time></trkpt><trkpt lat="38.106780862651505" lon="15.27803382334004"><ele>230.66666666666669</ele><time>2026-04-11T14:01:05Z</time></trkpt><trkpt lat="38.106835117511366" lon="15.277957975756431"><ele>230.33333333333334</ele><time>2026-04-11T14:01:06Z</time></trkpt><trkpt lat="38.1068883329033" lon="15.27787770476921"><ele>230.0</ele><time>2026-04-11T14:01:07Z</time></trkpt><trkpt lat="38.10693455915354" lon="15.27779650442327"><ele>230.00000000000003</ele><time>2026-04-11T14:01:08Z</time></trkpt><trkpt lat="38.10698063640466" lon="15.277722062323138"><ele>230.0</ele><time>2026-04-11T14:01:09Z</time></trkpt><trkpt lat="38.10701485107685" lon="15.277635475099418"><ele>230.0</ele><time>2026-04-11T14:01:10Z</time></trkpt><trkpt lat="38.10705107872796" lon="15.277525928817035"><ele>230.0</ele><time>2026-04-11T14:01:11Z</time></trkpt><trkpt lat="38.10709303442297" lon="15.27743015000353"><ele>230.00000000000003</ele><time>2026-04-11T14:01:12Z</time></trkpt><trkpt lat="38.10715322685655" lon="15.27733180134811"><ele>230.0</ele><time>2026-04-11T14:01:13Z</time></trkpt><trkpt lat="38.10721978963238" lon="15.277245921041828"><ele>230.2</ele><time>2026-04-11T14:01:14Z</time></trkpt><trkpt lat="38.10728914952176" lon="15.277177267243381"><ele>230.4</ele><time>2026-04-11T14:01:15Z</time></trkpt><trkpt lat="38.10735939959827" lon="15.277106872151954"><ele>230.60000000000002</ele><time>2026-04-11T14:01:16Z</time></trkpt><trkpt lat="38.10743195565636" lon="15.277039986793524"><ele>230.8</ele><time>2026-04-11T14:01:17Z</time></trkpt><trkpt lat="38.10751142741874" lon="15.276974981815018"><ele>231.0</ele><time>2026-04-11T14:01:18Z</time></trkpt><trkpt lat="38.10759211011575" lon="15.27689994097506"><ele>231.0</ele><time>2026-04-11T14:01:19Z</time></trkpt><trkpt lat="38.10767838659353" lon="15.276823565608563"><ele>231.00000000000003</ele><time>2026-04-11T14:01:20Z</time></trkpt><trkpt lat="38.10775644535411" lon="15.276750316369014"><ele>231.00000000000003</ele><time>2026-04-11T14:01:21Z</time></trkpt><trkpt lat="38.10782388817578" lon="15.276679737694"><ele>231.0</ele><time>2026-04-11T14:01:22Z</time></trkpt><trkpt lat="38.1078872463548" lon="15.27660159511205"><ele>231.0</ele><time>2026-04-11T14:01:23Z</time></trkpt><trkpt lat="38.10794624347354" lon="15.27651669679724"><ele>230.66666666666666</ele><time>2026-04-11T14:01:24Z</time></trkpt><trkpt lat="38.10800119744618" lon="15.27642670149097"><ele>230.33333333333331</ele><time>2026-04-11T14:01:25Z</time></trkpt><trkpt lat="38.10805047369324" lon="15.276334110311861"><ele>230.0</ele><time>2026-04-11T14:01:26Z</time></trkpt><trkpt lat="38.10809827408585" lon="15.276247264884404"><ele>229.66666666666666</ele><time>2026-04-11T14:01:27Z</time></trkpt><trkpt lat="38.108144529181814" lon="15.276167666535594"><ele>229.33333333333331</ele><time>2026-04-11T14:01:28Z</time></trkpt><trkpt lat="38.10819869896967" lon="15.276105907971539"><ele>229.0</ele><time>2026-04-11T14:01:29Z</time></trkpt><trkpt lat="38.10825685112233" lon="15.276043133098653"><ele>228.66666666666666</ele><time>2026-04-11T14:01:30Z</time></trkpt><trkpt lat="38.10831738261727" lon="15.275991903519122"><ele>228.33333333333331</ele><time>2026-04-11T14:01:31Z</time></trkpt><trkpt lat="38.10837790772565" lon="15.275958327951516"><ele>228.0</ele><time>2026-04-11T14:01:32Z</time></trkpt><trkpt lat="38.10844588849168" lon="15.275930654135113"><ele>227.66666666666669</ele><time>2026-04-11T14:01:33Z</time></trkpt><trkpt lat="38.108511552664325" lon="15.275896430416612"><ele>227.33333333333334</ele><time>2026-04-11T14:01:34Z</time></trkpt><trkpt lat="38.10858794608784" lon="15.275883982147404"><ele>227.0</ele><time>2026-04-11T14:01:35Z</time></trkpt><trkpt lat="38.10868822510952" lon="15.275866955678389"><ele>227.0</ele><time>2026-04-11T14:01:36Z</time></trkpt><trkpt lat="38.10879586526289" lon="15.275862033871038"><ele>227.0</ele><time>2026-04-11T14:01:37Z</time></trkpt><trkpt lat="38.108900934940706" lon="15.275845794926882"><ele>227.0</ele><time>2026-04-11T14:01:38Z</time></trkpt><trkpt lat="38.10900777521118" lon="15.275811372752582"><ele>227.0</ele><time>2026-04-11T14:01:39Z</time></trkpt><trkpt lat="38.109101143470056" lon="15.275758918402461"><ele>227.0</ele><time>2026-04-11T14:01:39.999Z</time></trkpt><trkpt lat="38.10918170619302" lon="15.275736326747518"><ele>226.8</ele><time>2026-04-11T14:01:40.999Z</time></trkpt><trkpt lat="38.109293071395626" lon="15.275703441906336"><ele>226.6</ele><time>2026-04-11T14:01:41.999Z</time></trkpt><trkpt lat="38.10940028062291" lon="15.275677117337132"><ele>226.40000000000003</ele><time>2026-04-11T14:01:42.999Z</time></trkpt><trkpt lat="38.10949013408902" lon="15.275656491375793"><ele>226.20000000000002</ele><time>2026-04-11T14:01:43.999Z</time></trkpt><trkpt lat="38.109596349832174" lon="15.275639368768116"><ele>226.0</ele><time>2026-04-11T14:01:44.999Z</time></trkpt><trkpt lat="38.10970713865171" lon="15.275619846943618"><ele>226.0</ele><time>2026-04-11T14:01:45.999Z</time></trkpt><trkpt lat="38.10981049598022" lon="15.275607323326646"><ele>226.00000000000003</ele><time>2026-04-11T14:01:46.999Z</time></trkpt><trkpt lat="38.10990776856014" lon="15.275600814986502"><ele>226.00000000000003</ele><time>2026-04-11T14:01:47.999Z</time></trkpt><trkpt lat="38.10999590382389" lon="15.275604329070337"><ele>226.0</ele><time>2026-04-11T14:01:48.999Z</time></trkpt><trkpt lat="38.11008986628665" lon="15.27561130797113"><ele>226.0</ele><time>2026-04-11T14:01:49.999Z</time></trkpt><trkpt lat="38.11018651455068" lon="15.275617763706503"><ele>226.20000000000002</ele><time>2026-04-11T14:01:50.999Z</time></trkpt><trkpt lat="38.110286735052306" lon="15.275634518507486"><ele>226.40000000000003</ele><time>2026-04-11T14:01:51.999Z</time></trkpt><trkpt lat="38.110385864597234" lon="15.275659480680389"><ele>226.6</ele><time>2026-04-11T14:01:52.999Z</time></trkpt><trkpt lat="38.110489463425736" lon="15.275690650240344"><ele>226.8</ele><time>2026-04-11T14:01:53.999Z</time></trkpt><trkpt lat="38.110590331791606" lon="15.275717754560455"><ele>227.0</ele><time>2026-04-11T14:01:54.999Z</time></trkpt><trkpt lat="38.110695262041965" lon="15.275739850213633"><ele>225.8</ele><time>2026-04-11T14:01:55.999Z</time></trkpt><trkpt lat="38.1108047556161" lon="15.275756371336403"><ele>224.6</ele><time>2026-04-11T14:01:56.999Z</time></trkpt><trkpt lat="38.11090778866443" lon="15.275762848014898"><ele>223.40000000000003</ele><time>2026-04-11T14:01:57.999Z</time></trkpt><trkpt lat="38.11100416201491" lon="15.275766153193047"><ele>222.20000000000002</ele><time>2026-04-11T14:01:58.999Z</time></trkpt><trkpt lat="38.11110460863636" lon="15.27576810771882"><ele>221.0</ele><time>2026-04-11T14:01:59.999Z</time></trkpt><trkpt lat="38.11120962833738" lon="15.275764778248321"><ele>221.00000000000003</ele><time>2026-04-11T14:02:00.999Z</time></trkpt><trkpt lat="38.111300452123025" lon="15.27575616043098"><ele>221.0</ele><time>2026-04-11T14:02:01.999Z</time></trkpt><trkpt lat="38.111386415725214" lon="15.275737923839486"><ele>221.0</ele><time>2026-04-11T14:02:02.999Z</time></trkpt><trkpt lat="38.1114641473773" lon="15.275705834602922"><ele>221.0</ele><time>2026-04-11T14:02:03.999Z</time></trkpt><trkpt lat="38.11153366513991" lon="15.275682606932147"><ele>221.00000000000003</ele><time>2026-04-11T14:02:04.999Z</time></trkpt><trkpt lat="38.111596547691285" lon="15.27566882127088"><ele>221.0</ele><time>2026-04-11T14:02:05.999Z</time></trkpt><trkpt lat="38.11166704985026" lon="15.275661528376007"><ele>219.83333333333334</ele><time>2026-04-11T14:02:06.999Z</time></trkpt><trkpt lat="38.11174952707231" lon="15.27566595255795"><ele>218.66666666666669</ele><time>2026-04-11T14:02:07.999Z</time></trkpt><trkpt lat="38.11183168902217" lon="15.275674911426446"><ele>217.5</ele><time>2026-04-11T14:02:08.999Z</time></trkpt><trkpt lat="38.11191951507895" lon="15.275695032828166"><ele>216.33333333333331</ele><time>2026-04-11T14:02:09.999Z</time></trkpt><trkpt lat="38.112003064838476" lon="15.27572962044485"><ele>215.16666666666666</ele><time>2026-04-11T14:02:10.999Z</time></trkpt><trkpt lat="38.11209008377049" lon="15.275771004827249"><ele>214.0</ele><time>2026-04-11T14:02:11.999Z</time></trkpt><trkpt lat="38.11218131614755" lon="15.275811304615088"><ele>214.0</ele><time>2026-04-11T14:02:12.999Z</time></trkpt><trkpt lat="38.1122740652891" lon="15.275857099153196"><ele>213.99999999999997</ele><time>2026-04-11T14:02:13.999Z</time></trkpt><trkpt lat="38.11236632467266" lon="15.275902695206836"><ele>213.99999999999997</ele><time>2026-04-11T14:02:14.999Z</time></trkpt><trkpt lat="38.11246291654052" lon="15.275959124631258"><ele>214.0</ele><time>2026-04-11T14:02:15.999Z</time></trkpt><trkpt lat="38.11256560130234" lon="15.276019944644075"><ele>214.0</ele><time>2026-04-11T14:02:16.999Z</time></trkpt><trkpt lat="38.11266938961486" lon="15.276077361283978"><ele>212.75</ele><time>2026-04-11T14:02:17.999Z</time></trkpt><trkpt lat="38.11277933094364" lon="15.27613142198486"><ele>211.5</ele><time>2026-04-11T14:02:18.999Z</time></trkpt><trkpt lat="38.11288956913604" lon="15.27618427740866"><ele>210.25</ele><time>2026-04-11T14:02:19.999Z</time></trkpt><trkpt lat="38.113001722987605" lon="15.276239642046324"><ele>209.0</ele><time>2026-04-11T14:02:20.999Z</time></trkpt><trkpt lat="38.11311713989157" lon="15.276291757635152"><ele>209.0</ele><time>2026-04-11T14:02:21.999Z</time></trkpt><trkpt lat="38.11322588937154" lon="15.276348208967551"><ele>209.0</ele><time>2026-04-11T14:02:22.999Z</time></trkpt><trkpt lat="38.11333780704478" lon="15.2764014572211"><ele>209.0</ele><time>2026-04-11T14:02:23.999Z</time></trkpt><trkpt lat="38.11344415592264" lon="15.276457035309416"><ele>209.0</ele><time>2026-04-11T14:02:24.999Z</time></trkpt><trkpt lat="38.11355675574989" lon="15.276509802952964"><ele>208.75</ele><time>2026-04-11T14:02:25.999Z</time></trkpt><trkpt lat="38.11367077613051" lon="15.276562748086944"><ele>208.5</ele><time>2026-04-11T14:02:26.999Z</time></trkpt><trkpt lat="38.113781985112475" lon="15.276616666350607"><ele>208.25</ele><time>2026-04-11T14:02:27.999Z</time></trkpt><trkpt lat="38.11389686224191" lon="15.276665017935251"><ele>208.0</ele><time>2026-04-11T14:02:28.999Z</time></trkpt><trkpt lat="38.11401095229876" lon="15.276718334159996"><ele>207.25</ele><time>2026-04-11T14:02:29.999Z</time></trkpt><trkpt lat="38.11412771618109" lon="15.2767710420003"><ele>206.5</ele><time>2026-04-11T14:02:30.999Z</time></trkpt><trkpt lat="38.11423508059652" lon="15.276817610483862"><ele>205.75</ele><time>2026-04-11T14:02:31.999Z</time></trkpt><trkpt lat="38.11434403414776" lon="15.276862465138754"><ele>205.0</ele><time>2026-04-11T14:02:32.999Z</time></trkpt><trkpt lat="38.11445215519211" lon="15.276905324908592"><ele>205.0</ele><time>2026-04-11T14:02:33.999Z</time></trkpt><trkpt lat="38.11455291413306" lon="15.276935686505498"><ele>205.0</ele><time>2026-04-11T14:02:34.999Z</time></trkpt><trkpt lat="38.114652330446084" lon="15.276951594598838"><ele>205.0</ele><time>2026-04-11T14:02:35.999Z</time></trkpt><trkpt lat="38.1147551687523" lon="15.27696174275053"><ele>205.0</ele><time>2026-04-11T14:02:36.999Z</time></trkpt><trkpt lat="38.11486305035592" lon="15.276973618302415"><ele>205.0</ele><time>2026-04-11T14:02:37.999Z</time></trkpt><trkpt lat="38.114979285550355" lon="15.276977982479915"><ele>204.25</ele><time>2026-04-11T14:02:38.999Z</time></trkpt><trkpt lat="38.11509456336883" lon="15.276984533700857"><ele>203.5</ele><time>2026-04-11T14:02:39.999Z</time></trkpt><trkpt lat="38.115211969202356" lon="15.276983016818047"><ele>202.75</ele><time>2026-04-11T14:02:40.999Z</time></trkpt><trkpt lat="38.11533200220691" lon="15.276984268128668"><ele>202.0</ele><time>2026-04-11T14:02:41.999Z</time></trkpt><trkpt lat="38.11544722417166" lon="15.276984800024545"><ele>202.0</ele><time>2026-04-11T14:02:42.999Z</time></trkpt><trkpt lat="38.1155572783244" lon="15.276988239326096"><ele>202.0</ele><time>2026-04-11T14:02:43.999Z</time></trkpt><trkpt lat="38.115669117592496" lon="15.276981784529164"><ele>202.0</ele><time>2026-04-11T14:02:44.999Z</time></trkpt><trkpt lat="38.115774099116145" lon="15.276990116869683"><ele>202.0</ele><time>2026-04-11T14:02:45.999Z</time></trkpt><trkpt lat="38.115864179399324" lon="15.277009775211798"><ele>202.0</ele><time>2026-04-11T14:02:46.999Z</time></trkpt><trkpt lat="38.11594080513859" lon="15.277011320859987"><ele>201.66666666666666</ele><time>2026-04-11T14:02:47.999Z</time></trkpt><trkpt lat="38.11601915278065" lon="15.277016569883637"><ele>201.33333333333331</ele><time>2026-04-11T14:02:48.999Z</time></trkpt><trkpt lat="38.11609875233139" lon="15.277002064805068"><ele>201.0</ele><time>2026-04-11T14:02:49.999Z</time></trkpt><trkpt lat="38.11618747517233" lon="15.276978217235982"><ele>200.66666666666669</ele><time>2026-04-11T14:02:51Z</time></trkpt><trkpt lat="38.11627314621603" lon="15.276943482109164"><ele>200.33333333333334</ele><time>2026-04-11T14:02:52Z</time></trkpt><trkpt lat="38.11636113546621" lon="15.276906239795448"><ele>200.0</ele><time>2026-04-11T14:02:53Z</time></trkpt><trkpt lat="38.11645813442676" lon="15.276865794842115"><ele>200.0</ele><time>2026-04-11T14:02:54Z</time></trkpt><trkpt lat="38.116568076418446" lon="15.276825132749194"><ele>200.0</ele><time>2026-04-11T14:02:55Z</time></trkpt><trkpt lat="38.11666943798183" lon="15.276788517149694"><ele>200.0</ele><time>2026-04-11T14:02:56Z</time></trkpt><trkpt lat="38.11676565797027" lon="15.276751251349879"><ele>200.0</ele><time>2026-04-11T14:02:57Z</time></trkpt><trkpt lat="38.11686014636762" lon="15.276712890133393"><ele>200.0</ele><time>2026-04-11T14:02:58Z</time></trkpt><trkpt lat="38.11694037801688" lon="15.276679068319051"><ele>199.16666666666669</ele><time>2026-04-11T14:02:59Z</time></trkpt><trkpt lat="38.117012651494996" lon="15.276643819173762"><ele>198.33333333333334</ele><time>2026-04-11T14:03:00Z</time></trkpt><trkpt lat="38.11709317350691" lon="15.276616333681181"><ele>197.5</ele><time>2026-04-11T14:03:01Z</time></trkpt><trkpt lat="38.11716926413538" lon="15.276571262189515"><ele>196.66666666666669</ele><time>2026-04-11T14:03:02Z</time></trkpt><trkpt lat="38.11725205487882" lon="15.276524499197812"><ele>195.83333333333334</ele><time>2026-04-11T14:03:03Z</time></trkpt><trkpt lat="38.11733713949597" lon="15.276468294101653"><ele>195.0</ele><time>2026-04-11T14:03:04Z</time></trkpt><trkpt lat="38.117424378609016" lon="15.276410930947751"><ele>194.4</ele><time>2026-04-11T14:03:05Z</time></trkpt><trkpt lat="38.117502112555066" lon="15.276362926906021"><ele>193.8</ele><time>2026-04-11T14:03:06Z</time></trkpt><trkpt lat="38.1175883451573" lon="15.276316023317252"><ele>193.2</ele><time>2026-04-11T14:03:07Z</time></trkpt><trkpt lat="38.117673607651085" lon="15.276277154106824"><ele>192.6</ele><time>2026-04-11T14:03:08Z</time></trkpt><trkpt lat="38.1177694386156" lon="15.27624496483853"><ele>192.0</ele><time>2026-04-11T14:03:09Z</time></trkpt><trkpt lat="38.11786763528936" lon="15.276206817055305"><ele>192.0</ele><time>2026-04-11T14:03:10Z</time></trkpt><trkpt lat="38.11795209637636" lon="15.276170459913315"><ele>192.0</ele><time>2026-04-11T14:03:11Z</time></trkpt><trkpt lat="38.11803659247339" lon="15.276146996922181"><ele>192.0</ele><time>2026-04-11T14:03:12Z</time></trkpt><trkpt lat="38.118095188430615" lon="15.2760701855228"><ele>192.0</ele><time>2026-04-11T14:03:13Z</time></trkpt><trkpt lat="38.11816348045304" lon="15.276011610241348"><ele>192.0</ele><time>2026-04-11T14:03:14Z</time></trkpt><trkpt lat="38.11822800356176" lon="15.275948502886061"><ele>192.0</ele><time>2026-04-11T14:03:15Z</time></trkpt><trkpt lat="38.11829368630754" lon="15.275866769061894"><ele>192.0</ele><time>2026-04-11T14:03:16Z</time></trkpt><trkpt lat="38.11836855418116" lon="15.275778326392041"><ele>192.0</ele><time>2026-04-11T14:03:17Z</time></trkpt><trkpt lat="38.1184324200694" lon="15.275664862638294"><ele>192.0</ele><time>2026-04-11T14:03:18Z</time></trkpt><trkpt lat="38.11850101337786" lon="15.275556958350624"><ele>192.0</ele><time>2026-04-11T14:03:19Z</time></trkpt><trkpt lat="38.118566930199655" lon="15.275448280036592"><ele>192.0</ele><time>2026-04-11T14:03:20Z</time></trkpt><trkpt lat="38.118632953141876" lon="15.275339966278146"><ele>191.6</ele><time>2026-04-11T14:03:21Z</time></trkpt><trkpt lat="38.11869166005222" lon="15.275248618279234"><ele>191.2</ele><time>2026-04-11T14:03:22Z</time></trkpt><trkpt lat="38.118743100554994" lon="15.275171573534037"><ele>190.8</ele><time>2026-04-11T14:03:23Z</time></trkpt><trkpt lat="38.11878858966998" lon="15.275105810975875"><ele>190.4</ele><time>2026-04-11T14:03:24Z</time></trkpt><trkpt lat="38.11889233240929" lon="15.274980861817921"><ele>190.0</ele><time>2026-04-11T14:03:26Z</time></trkpt><trkpt lat="38.118961830455135" lon="15.274907044434187"><ele>190.0</ele><time>2026-04-11T14:03:27Z</time></trkpt><trkpt lat="38.11903825434977" lon="15.274831233088952"><ele>190.0</ele><time>2026-04-11T14:03:28Z</time></trkpt><trkpt lat="38.119115403390914" lon="15.27476147411075"><ele>190.0</ele><time>2026-04-11T14:03:29Z</time></trkpt><trkpt lat="38.11919783786366" lon="15.274690420161077"><ele>190.0</ele><time>2026-04-11T14:03:30Z</time></trkpt><trkpt lat="38.119292397547206" lon="15.274613739190821"><ele>190.0</ele><time>2026-04-11T14:03:31Z</time></trkpt><trkpt lat="38.119386062483585" lon="15.274539606105595"><ele>189.4</ele><time>2026-04-11T14:03:32Z</time></trkpt><trkpt lat="38.11948029890995" lon="15.27446824591217"><ele>188.8</ele><time>2026-04-11T14:03:33Z</time></trkpt><trkpt lat="38.11956737227798" lon="15.274403030093653"><ele>188.2</ele><time>2026-04-11T14:03:34Z</time></trkpt><trkpt lat="38.11966055176471" lon="15.274338290998159"><ele>187.6</ele><time>2026-04-11T14:03:35Z</time></trkpt><trkpt lat="38.11975439474648" lon="15.274291511385272"><ele>187.0</ele><time>2026-04-11T14:03:35.999Z</time></trkpt><trkpt lat="38.119855789190034" lon="15.274263543831673"><ele>186.6</ele><time>2026-04-11T14:03:36.999Z</time></trkpt><trkpt lat="38.11996185793725" lon="15.274243376678266"><ele>186.2</ele><time>2026-04-11T14:03:37.999Z</time></trkpt><trkpt lat="38.120058087950376" lon="15.27423135546244"><ele>185.8</ele><time>2026-04-11T14:03:38.999Z</time></trkpt><trkpt lat="38.12016326512187" lon="15.274222751917025"><ele>185.4</ele><time>2026-04-11T14:03:39.999Z</time></trkpt><trkpt lat="38.12026796358482" lon="15.274216732410094"><ele>185.0</ele><time>2026-04-11T14:03:40.999Z</time></trkpt><trkpt lat="38.120374533406846" lon="15.27421139620269"><ele>185.0</ele><time>2026-04-11T14:03:41.999Z</time></trkpt><trkpt lat="38.12048364499274" lon="15.274205932731112"><ele>185.0</ele><time>2026-04-11T14:03:42.999Z</time></trkpt><trkpt lat="38.12058734647777" lon="15.274200740147052"><ele>185.0</ele><time>2026-04-11T14:03:43.999Z</time></trkpt><trkpt lat="38.12068851142826" lon="15.274195674575346"><ele>185.0</ele><time>2026-04-11T14:03:44.999Z</time></trkpt><trkpt lat="38.12078760516796" lon="15.27419559207862"><ele>185.0</ele><time>2026-04-11T14:03:45.999Z</time></trkpt><trkpt lat="38.120888642635244" lon="15.274200617977423"><ele>184.6</ele><time>2026-04-11T14:03:46.999Z</time></trkpt><trkpt lat="38.120982822356545" lon="15.27421195361184"><ele>184.2</ele><time>2026-04-11T14:03:47.999Z</time></trkpt><trkpt lat="38.12108048504665" lon="15.27422719017094"><ele>183.8</ele><time>2026-04-11T14:03:48.999Z</time></trkpt><trkpt lat="38.121184628212255" lon="15.274269690863356"><ele>183.4</ele><time>2026-04-11T14:03:49.999Z</time></trkpt><trkpt lat="38.12129010520839" lon="15.274278788300492"><ele>183.0</ele><time>2026-04-11T14:03:50.999Z</time></trkpt><trkpt lat="38.12139664002617" lon="15.27429025481708"><ele>183.0</ele><time>2026-04-11T14:03:51.999Z</time></trkpt><trkpt lat="38.121501133721296" lon="15.27430402907724"><ele>183.0</ele><time>2026-04-11T14:03:52.999Z</time></trkpt><trkpt lat="38.12160260470705" lon="15.274328862135016"><ele>183.0</ele><time>2026-04-11T14:03:53.999Z</time></trkpt><trkpt lat="38.1217055652624" lon="15.274354953005464"><ele>183.0</ele><time>2026-04-11T14:03:54.999Z</time></trkpt><trkpt lat="38.121812970448815" lon="15.274379923792512"><ele>183.0</ele><time>2026-04-11T14:03:55.999Z</time></trkpt><trkpt lat="38.12191610559669" lon="15.274404792707204"><ele>182.4</ele><time>2026-04-11T14:03:56.999Z</time></trkpt><trkpt lat="38.122009616760955" lon="15.274438288596464"><ele>181.8</ele><time>2026-04-11T14:03:57.999Z</time></trkpt><trkpt lat="38.12210437111407" lon="15.274476987254872"><ele>181.2</ele><time>2026-04-11T14:03:58.999Z</time></trkpt><trkpt lat="38.122202195817685" lon="15.27452733224806"><ele>180.6</ele><time>2026-04-11T14:03:59.999Z</time></trkpt><trkpt lat="38.12229222240794" lon="15.274553471424458"><ele>180.0</ele><time>2026-04-11T14:04:00.999Z</time></trkpt><trkpt lat="38.12238138146134" lon="15.274549906772467"><ele>179.6</ele><time>2026-04-11T14:04:01.999Z</time></trkpt><trkpt lat="38.12246574815545" lon="15.274572725804557"><ele>179.2</ele><time>2026-04-11T14:04:02.999Z</time></trkpt><trkpt lat="38.12256765030329" lon="15.274566083647226"><ele>178.8</ele><time>2026-04-11T14:04:03.999Z</time></trkpt><trkpt lat="38.122664937475115" lon="15.274540894854294"><ele>178.4</ele><time>2026-04-11T14:04:04.999Z</time></trkpt><trkpt lat="38.12276399087615" lon="15.274547502072961"><ele>178.0</ele><time>2026-04-11T14:04:05.999Z</time></trkpt><trkpt lat="38.122860926276466" lon="15.274595711752204"><ele>178.0</ele><time>2026-04-11T14:04:06.999Z</time></trkpt><trkpt lat="38.12294793087096" lon="15.274629578044726"><ele>178.0</ele><time>2026-04-11T14:04:07.999Z</time></trkpt><trkpt lat="38.123038646522716" lon="15.274677510787033"><ele>178.0</ele><time>2026-04-11T14:04:08.999Z</time></trkpt><trkpt lat="38.123143233150344" lon="15.27473027473216"><ele>178.0</ele><time>2026-04-11T14:04:09.999Z</time></trkpt><trkpt lat="38.12325109582188" lon="15.274785316919633"><ele>178.0</ele><time>2026-04-11T14:04:10.999Z</time></trkpt><trkpt lat="38.123355866641866" lon="15.274838657105187"><ele>179.0</ele><time>2026-04-11T14:04:11.999Z</time></trkpt><trkpt lat="38.123461969283355" lon="15.274892035029008"><ele>180.0</ele><time>2026-04-11T14:04:12.999Z</time></trkpt><trkpt lat="38.123572239414884" lon="15.274944043270247"><ele>181.0</ele><time>2026-04-11T14:04:13.999Z</time></trkpt><trkpt lat="38.123683390045485" lon="15.274995217419637"><ele>182.0</ele><time>2026-04-11T14:04:14.999Z</time></trkpt><trkpt lat="38.12379449682588" lon="15.275023355582158"><ele>182.0</ele><time>2026-04-11T14:04:15.999Z</time></trkpt><trkpt lat="38.123908652283454" lon="15.275060377637658"><ele>182.0</ele><time>2026-04-11T14:04:16.999Z</time></trkpt><trkpt lat="38.12402182210296" lon="15.275089280894354"><ele>182.0</ele><time>2026-04-11T14:04:17.999Z</time></trkpt><trkpt lat="38.124127307919615" lon="15.275114628016414"><ele>182.0</ele><time>2026-04-11T14:04:18.999Z</time></trkpt><trkpt lat="38.1242281715912" lon="15.275138912167835"><ele>182.0</ele><time>2026-04-11T14:04:19.999Z</time></trkpt><trkpt lat="38.12431737854046" lon="15.275154172732021"><ele>181.66666666666666</ele><time>2026-04-11T14:04:20.999Z</time></trkpt><trkpt lat="38.124397103951296" lon="15.275161313091505"><ele>181.33333333333331</ele><time>2026-04-11T14:04:21.999Z</time></trkpt><trkpt lat="38.12446782718645" lon="15.275157192988576"><ele>181.0</ele><time>2026-04-11T14:04:22.999Z</time></trkpt><trkpt lat="38.12453725135561" lon="15.27514116909726"><ele>180.66666666666666</ele><time>2026-04-11T14:04:23.999Z</time></trkpt><trkpt lat="38.12461877119237" lon="15.275113664243491"><ele>180.33333333333334</ele><time>2026-04-11T14:04:24.999Z</time></trkpt><trkpt lat="38.124707260202136" lon="15.275079266374945"><ele>180.0</ele><time>2026-04-11T14:04:25.999Z</time></trkpt><trkpt lat="38.12480411170577" lon="15.27504714455162"><ele>178.75</ele><time>2026-04-11T14:04:26.999Z</time></trkpt><trkpt lat="38.124910642300016" lon="15.275012191501252"><ele>177.5</ele><time>2026-04-11T14:04:27.999Z</time></trkpt><trkpt lat="38.125029549988554" lon="15.274984743430403"><ele>176.25</ele><time>2026-04-11T14:04:28.999Z</time></trkpt><trkpt lat="38.12514295621274" lon="15.274983605987103"><ele>175.0</ele><time>2026-04-11T14:04:29.999Z</time></trkpt><trkpt lat="38.12527463008844" lon="15.274977682398005"><ele>175.0</ele><time>2026-04-11T14:04:30.999Z</time></trkpt><trkpt lat="38.12539961245981" lon="15.274972059838987"><ele>175.0</ele><time>2026-04-11T14:04:31.999Z</time></trkpt><trkpt lat="38.125525161301425" lon="15.27496574696348"><ele>175.0</ele><time>2026-04-11T14:04:32.999Z</time></trkpt><trkpt lat="38.125667134580915" lon="15.274951996132666"><ele>175.0</ele><time>2026-04-11T14:04:33.999Z</time></trkpt><trkpt lat="38.12580214581527" lon="15.274921942603715"><ele>174.75</ele><time>2026-04-11T14:04:34.999Z</time></trkpt><trkpt lat="38.12591960482535" lon="15.27488585528696"><ele>174.5</ele><time>2026-04-11T14:04:35.999Z</time></trkpt><trkpt lat="38.126027270167796" lon="15.27484420316702"><ele>174.25</ele><time>2026-04-11T14:04:36.999Z</time></trkpt><trkpt lat="38.126132030692794" lon="15.274790737646173"><ele>174.0</ele><time>2026-04-11T14:04:37.999Z</time></trkpt><trkpt lat="38.12623532937517" lon="15.274721221970397"><ele>173.2</ele><time>2026-04-11T14:04:38.999Z</time></trkpt><trkpt lat="38.126332436089236" lon="15.274657032792696"><ele>172.39999999999998</ele><time>2026-04-11T14:04:39.999Z</time></trkpt><trkpt lat="38.12642569024804" lon="15.274595390213939"><ele>171.6</ele><time>2026-04-11T14:04:40.999Z</time></trkpt><trkpt lat="38.12651498722437" lon="15.27453817410805"><ele>170.8</ele><time>2026-04-11T14:04:41.999Z</time></trkpt><trkpt lat="38.1266144068015" lon="15.274478640087686"><ele>170.0</ele><time>2026-04-11T14:04:42.999Z</time></trkpt><trkpt lat="38.12672387654237" lon="15.274427342039044"><ele>169.5</ele><time>2026-04-11T14:04:43.999Z</time></trkpt><trkpt lat="38.12684140171854" lon="15.274407243530243"><ele>169.0</ele><time>2026-04-11T14:04:44.999Z</time></trkpt><trkpt lat="38.126961342900984" lon="15.274411370689364"><ele>168.5</ele><time>2026-04-11T14:04:45.999Z</time></trkpt><trkpt lat="38.127090541365966" lon="15.274419049958293"><ele>168.0</ele><time>2026-04-11T14:04:46.999Z</time></trkpt><trkpt lat="38.127206250862436" lon="15.274426893980147"><ele>168.0</ele><time>2026-04-11T14:04:47.999Z</time></trkpt><trkpt lat="38.12732009287135" lon="15.274435666570849"><ele>168.0</ele><time>2026-04-11T14:04:48.999Z</time></trkpt><trkpt lat="38.12744803475768" lon="15.27444360951527"><ele>168.0</ele><time>2026-04-11T14:04:49.999Z</time></trkpt><trkpt lat="38.12757934876029" lon="15.27443493119324"><ele>168.0</ele><time>2026-04-11T14:04:50.999Z</time></trkpt><trkpt lat="38.12770912284107" lon="15.274414165138012"><ele>167.8</ele><time>2026-04-11T14:04:51.999Z</time></trkpt><trkpt lat="38.12783583228881" lon="15.274387586853441"><ele>167.60000000000002</ele><time>2026-04-11T14:04:52.999Z</time></trkpt><trkpt lat="38.12794590069258" lon="15.274362346944777"><ele>167.39999999999998</ele><time>2026-04-11T14:04:53.999Z</time></trkpt><trkpt lat="38.12805433730312" lon="15.274335258492693"><ele>167.2</ele><time>2026-04-11T14:04:54.999Z</time></trkpt><trkpt lat="38.12813539038631" lon="15.27431265286744"><ele>167.0</ele><time>2026-04-11T14:04:55.999Z</time></trkpt><trkpt lat="38.12821373378405" lon="15.27429079857541"><ele>166.0</ele><time>2026-04-11T14:04:57Z</time></trkpt><trkpt lat="38.128313649157334" lon="15.274269432961777"><ele>165.0</ele><time>2026-04-11T14:04:58Z</time></trkpt><trkpt lat="38.12844048006675" lon="15.274247475729718"><ele>164.0</ele><time>2026-04-11T14:04:59Z</time></trkpt><trkpt lat="38.12856807725809" lon="15.274225385840731"><ele>163.0</ele><time>2026-04-11T14:05:00Z</time></trkpt><trkpt lat="38.12870117304167" lon="15.274196625635513"><ele>163.0</ele><time>2026-04-11T14:05:01Z</time></trkpt><trkpt lat="38.12881859174346" lon="15.274165549884971"><ele>163.0</ele><time>2026-04-11T14:05:02Z</time></trkpt><trkpt lat="38.1289206089696" lon="15.274142989833347"><ele>163.0</ele><time>2026-04-11T14:05:03Z</time></trkpt><trkpt lat="38.129029169508925" lon="15.274133315277961"><ele>163.0</ele><time>2026-04-11T14:05:04Z</time></trkpt><trkpt lat="38.12914170457919" lon="15.274151241037472"><ele>163.0</ele><time>2026-04-11T14:05:05Z</time></trkpt><trkpt lat="38.12927267919131" lon="15.274157899628815"><ele>162.66666666666669</ele><time>2026-04-11T14:05:06Z</time></trkpt><trkpt lat="38.12938553430792" lon="15.274159748039699"><ele>162.33333333333334</ele><time>2026-04-11T14:05:07Z</time></trkpt><trkpt lat="38.12948037157548" lon="15.274159151843996"><ele>162.0</ele><time>2026-04-11T14:05:08Z</time></trkpt><trkpt lat="38.12955824685201" lon="15.274158662283652"><ele>161.66666666666666</ele><time>2026-04-11T14:05:09Z</time></trkpt><trkpt lat="38.12962962190114" lon="15.27415821359055"><ele>161.33333333333331</ele><time>2026-04-11T14:05:10Z</time></trkpt><trkpt lat="38.129715353791845" lon="15.274154171271011"><ele>161.0</ele><time>2026-04-11T14:05:11Z</time></trkpt><trkpt lat="38.12977963758745" lon="15.274151415759151"><ele>161.0</ele><time>2026-04-11T14:05:12Z</time></trkpt><trkpt lat="38.12984950346763" lon="15.274148420975216"><ele>161.0</ele><time>2026-04-11T14:05:13Z</time></trkpt><trkpt lat="38.12991651776396" lon="15.27414554842644"><ele>161.0</ele><time>2026-04-11T14:05:14Z</time></trkpt><trkpt lat="38.12999359842186" lon="15.27414224438687"><ele>161.0</ele><time>2026-04-11T14:05:15Z</time></trkpt><trkpt lat="38.130078221346565" lon="15.274139139154277"><ele>161.0</ele><time>2026-04-11T14:05:16Z</time></trkpt><trkpt lat="38.130176809868026" lon="15.27413699070691"><ele>161.0</ele><time>2026-04-11T14:05:17Z</time></trkpt><trkpt lat="38.130286611101184" lon="15.274136453033297"><ele>160.75</ele><time>2026-04-11T14:05:18Z</time></trkpt><trkpt lat="38.130394530875456" lon="15.274135924573104"><ele>160.5</ele><time>2026-04-11T14:05:19Z</time></trkpt><trkpt lat="38.13050777754113" lon="15.274136573832486"><ele>160.25</ele><time>2026-04-11T14:05:20Z</time></trkpt><trkpt lat="38.130630249409556" lon="15.274139118868938"><ele>160.0</ele><time>2026-04-11T14:05:21Z</time></trkpt><trkpt lat="38.13074973944506" lon="15.274143689601308"><ele>160.0</ele><time>2026-04-11T14:05:22Z</time></trkpt><trkpt lat="38.13087239008182" lon="15.27415164448845"><ele>160.0</ele><time>2026-04-11T14:05:23Z</time></trkpt><trkpt lat="38.13098420198835" lon="15.27416530860772"><ele>160.0</ele><time>2026-04-11T14:05:24Z</time></trkpt><trkpt lat="38.131100631251584" lon="15.274186395181822"><ele>160.0</ele><time>2026-04-11T14:05:25Z</time></trkpt><trkpt lat="38.13124263038875" lon="15.274213779172035"><ele>160.0</ele><time>2026-04-11T14:05:26Z</time></trkpt><trkpt lat="38.131400273896375" lon="15.274228198939687"><ele>160.0</ele><time>2026-04-11T14:05:27Z</time></trkpt><trkpt lat="38.131539687061206" lon="15.274225262360133"><ele>160.0</ele><time>2026-04-11T14:05:28Z</time></trkpt><trkpt lat="38.13170662831052" lon="15.274196513906713"><ele>159.5</ele><time>2026-04-11T14:05:29Z</time></trkpt><trkpt lat="38.131844822942895" lon="15.274153737160514"><ele>159.0</ele><time>2026-04-11T14:05:30Z</time></trkpt><trkpt lat="38.13196126551786" lon="15.274110451965505"><ele>158.5</ele><time>2026-04-11T14:05:31Z</time></trkpt><trkpt lat="38.13208560272023" lon="15.274057853611454"><ele>158.0</ele><time>2026-04-11T14:05:31.999Z</time></trkpt><trkpt lat="38.13222087115015" lon="15.273982226990896"><ele>157.5</ele><time>2026-04-11T14:05:32.999Z</time></trkpt><trkpt lat="38.13234531439572" lon="15.27389653241228"><ele>157.0</ele><time>2026-04-11T14:05:33.999Z</time></trkpt><trkpt lat="38.132452435681095" lon="15.273834695692722"><ele>156.5</ele><time>2026-04-11T14:05:34.999Z</time></trkpt><trkpt lat="38.132562261992746" lon="15.273797694556372"><ele>156.0</ele><time>2026-04-11T14:05:35.999Z</time></trkpt><trkpt lat="38.132692400924796" lon="15.273769627079215"><ele>155.75</ele><time>2026-04-11T14:05:36.999Z</time></trkpt><trkpt lat="38.13282586132882" lon="15.273732955972632"><ele>155.5</ele><time>2026-04-11T14:05:37.999Z</time></trkpt><trkpt lat="38.1329594248814" lon="15.27369619335514"><ele>155.25</ele><time>2026-04-11T14:05:38.999Z</time></trkpt><trkpt lat="38.13309342804939" lon="15.273659309745822"><ele>155.0</ele><time>2026-04-11T14:05:39.999Z</time></trkpt><trkpt lat="38.13322779206349" lon="15.27360936997053"><ele>154.75</ele><time>2026-04-11T14:05:40.999Z</time></trkpt><trkpt lat="38.13336424899889" lon="15.27358187226003"><ele>154.5</ele><time>2026-04-11T14:05:41.999Z</time></trkpt><trkpt lat="38.13349498650956" lon="15.273551611676337"><ele>154.25</ele><time>2026-04-11T14:05:42.999Z</time></trkpt><trkpt lat="38.13362238880251" lon="15.273517638244458"><ele>154.0</ele><time>2026-04-11T14:05:43.999Z</time></trkpt><trkpt lat="38.133735705513764" lon="15.273482728669153"><ele>154.0</ele><time>2026-04-11T14:05:44.999Z</time></trkpt><trkpt lat="38.1338409375511" lon="15.273452870633527"><ele>154.0</ele><time>2026-04-11T14:05:45.999Z</time></trkpt><trkpt lat="38.13394396679763" lon="15.273425389864833"><ele>154.0</ele><time>2026-04-11T14:05:46.999Z</time></trkpt><trkpt lat="38.13404805461174" lon="15.27338905560223"><ele>154.0</ele><time>2026-04-11T14:05:47.999Z</time></trkpt><trkpt lat="38.13414671170007" lon="15.273360420121428"><ele>154.0</ele><time>2026-04-11T14:05:48.999Z</time></trkpt><trkpt lat="38.13423767461803" lon="15.273340806427736"><ele>153.6</ele><time>2026-04-11T14:05:49.999Z</time></trkpt><trkpt lat="38.1343302269552" lon="15.273327923198636"><ele>153.2</ele><time>2026-04-11T14:05:50.999Z</time></trkpt><trkpt lat="38.13443214814134" lon="15.273305682285924"><ele>152.79999999999998</ele><time>2026-04-11T14:05:51.999Z</time></trkpt><trkpt lat="38.1345392137211" lon="15.273271929915314"><ele>152.4</ele><time>2026-04-11T14:05:52.999Z</time></trkpt><trkpt lat="38.13464434136477" lon="15.273229544916392"><ele>152.0</ele><time>2026-04-11T14:05:53.999Z</time></trkpt><trkpt lat="38.13474514525963" lon="15.273199940407377"><ele>152.0</ele><time>2026-04-11T14:05:54.999Z</time></trkpt><trkpt lat="38.13484700455068" lon="15.273173152190555"><ele>152.0</ele><time>2026-04-11T14:05:55.999Z</time></trkpt><trkpt lat="38.13495135791483" lon="15.27315016448595"><ele>152.0</ele><time>2026-04-11T14:05:56.999Z</time></trkpt><trkpt lat="38.135060834572755" lon="15.273127446358137"><ele>152.0</ele><time>2026-04-11T14:05:57.999Z</time></trkpt><trkpt lat="38.13517201743378" lon="15.273107118705664"><ele>152.0</ele><time>2026-04-11T14:05:58.999Z</time></trkpt><trkpt lat="38.135296267468846" lon="15.273074076525456"><ele>151.0</ele><time>2026-04-11T14:05:59.999Z</time></trkpt><trkpt lat="38.13541085478934" lon="15.273040397142315"><ele>150.0</ele><time>2026-04-11T14:06:00.999Z</time></trkpt><trkpt lat="38.13552820948595" lon="15.272998069621488"><ele>149.0</ele><time>2026-04-11T14:06:01.999Z</time></trkpt><trkpt lat="38.135643302996534" lon="15.272952948388383"><ele>148.0</ele><time>2026-04-11T14:06:02.999Z</time></trkpt><trkpt lat="38.13574325148701" lon="15.272905878830876"><ele>147.4</ele><time>2026-04-11T14:06:03.999Z</time></trkpt><trkpt lat="38.13585206860786" lon="15.2728526688244"><ele>146.8</ele><time>2026-04-11T14:06:04.999Z</time></trkpt><trkpt lat="38.13596046308674" lon="15.272799215652755"><ele>146.2</ele><time>2026-04-11T14:06:05.999Z</time></trkpt><trkpt lat="38.136056433809735" lon="15.27274637252895"><ele>145.6</ele><time>2026-04-11T14:06:06.999Z</time></trkpt><trkpt lat="38.13614487384105" lon="15.272699779240527"><ele>145.0</ele><time>2026-04-11T14:06:07.999Z</time></trkpt><trkpt lat="38.136224231475694" lon="15.27264860437605"><ele>145.0</ele><time>2026-04-11T14:06:08.999Z</time></trkpt><trkpt lat="38.13629792704954" lon="15.272589618800383"><ele>145.0</ele><time>2026-04-11T14:06:09.999Z</time></trkpt><trkpt lat="38.13637941094816" lon="15.27253984728356"><ele>145.0</ele><time>2026-04-11T14:06:10.999Z</time></trkpt><trkpt lat="38.136466954307004" lon="15.272505209331289"><ele>145.0</ele><time>2026-04-11T14:06:11.999Z</time></trkpt><trkpt lat="38.13655683716409" lon="15.272459453870422"><ele>145.0</ele><time>2026-04-11T14:06:12.999Z</time></trkpt><trkpt lat="38.13664974531785" lon="15.272422230938766"><ele>144.66666666666669</ele><time>2026-04-11T14:06:13.999Z</time></trkpt><trkpt lat="38.136732066587655" lon="15.272397182383834"><ele>144.33333333333334</ele><time>2026-04-11T14:06:14.999Z</time></trkpt><trkpt lat="38.13680942826181" lon="15.272382337763931"><ele>144.0</ele><time>2026-04-11T14:06:15.999Z</time></trkpt><trkpt lat="38.13689834567194" lon="15.272360574681116"><ele>143.66666666666666</ele><time>2026-04-11T14:06:16.999Z</time></trkpt><trkpt lat="38.13699091494741" lon="15.27233143282724"><ele>143.33333333333331</ele><time>2026-04-11T14:06:17.999Z</time></trkpt><trkpt lat="38.137069685490246" lon="15.272301913759803"><ele>143.0</ele><time>2026-04-11T14:06:18.999Z</time></trkpt><trkpt lat="38.13714911753322" lon="15.272272145576135"><ele>143.0</ele><time>2026-04-11T14:06:19.999Z</time></trkpt><trkpt lat="38.137225651390786" lon="15.272243463361537"><ele>143.0</ele><time>2026-04-11T14:06:20.999Z</time></trkpt><trkpt lat="38.13729723828968" lon="15.272216635036344"><ele>143.0</ele><time>2026-04-11T14:06:21.999Z</time></trkpt><trkpt lat="38.13736625435276" lon="15.272191570941596"><ele>143.0</ele><time>2026-04-11T14:06:22.999Z</time></trkpt><trkpt lat="38.13743614234684" lon="15.272167041554148"><ele>143.0</ele><time>2026-04-11T14:06:23.999Z</time></trkpt><trkpt lat="38.137510641114716" lon="15.272140893847"><ele>143.0</ele><time>2026-04-11T14:06:24.999Z</time></trkpt><trkpt lat="38.13758691778251" lon="15.272114122142478"><ele>142.66666666666666</ele><time>2026-04-11T14:06:25.999Z</time></trkpt><trkpt lat="38.13765985947883" lon="15.272088520959635"><ele>142.33333333333331</ele><time>2026-04-11T14:06:26.999Z</time></trkpt><trkpt lat="38.137731099245535" lon="15.272063517107092"><ele>142.0</ele><time>2026-04-11T14:06:27.999Z</time></trkpt><trkpt lat="38.13780065174714" lon="15.27203910554223"><ele>141.66666666666666</ele><time>2026-04-11T14:06:28.999Z</time></trkpt><trkpt lat="38.137884892081836" lon="15.272007863267241"><ele>141.33333333333334</ele><time>2026-04-11T14:06:29.999Z</time></trkpt><trkpt lat="38.137965249003116" lon="15.271976850897637"><ele>141.0</ele><time>2026-04-11T14:06:30.999Z</time></trkpt><trkpt lat="38.13804968603623" lon="15.271942993477605"><ele>141.0</ele><time>2026-04-11T14:06:31.999Z</time></trkpt><trkpt lat="38.13814420801304" lon="15.271902240787272"><ele>141.0</ele><time>2026-04-11T14:06:32.999Z</time></trkpt><trkpt lat="38.138246957311885" lon="15.271854611959926"><ele>141.0</ele><time>2026-04-11T14:06:33.999Z</time></trkpt><trkpt lat="38.13832200097772" lon="15.27181343266225"><ele>141.0</ele><time>2026-04-11T14:06:34.999Z</time></trkpt><trkpt lat="38.13841026644174" lon="15.271764625695832"><ele>141.0</ele><time>2026-04-11T14:06:35.999Z</time></trkpt><trkpt lat="38.138489136432064" lon="15.271718396161765"><ele>140.4</ele><time>2026-04-11T14:06:36.999Z</time></trkpt><trkpt lat="38.13856897082085" lon="15.271671601408219"><ele>139.8</ele><time>2026-04-11T14:06:37.999Z</time></trkpt><trkpt lat="38.13864941068546" lon="15.271624451724959"><ele>139.20000000000002</ele><time>2026-04-11T14:06:38.999Z</time></trkpt><trkpt lat="38.13873089808147" lon="15.271576688073038"><ele>138.6</ele><time>2026-04-11T14:06:39.999Z</time></trkpt><trkpt lat="38.13881589515982" lon="15.271525270115323"><ele>138.0</ele><time>2026-04-11T14:06:40.999Z</time></trkpt><trkpt lat="38.138911298378545" lon="15.271464831139287"><ele>138.0</ele><time>2026-04-11T14:06:41.999Z</time></trkpt><trkpt lat="38.13899834251014" lon="15.271409157529936"><ele>138.0</ele><time>2026-04-11T14:06:42.999Z</time></trkpt><trkpt lat="38.13907767001279" lon="15.271361387224731"><ele>138.0</ele><time>2026-04-11T14:06:43.999Z</time></trkpt><trkpt lat="38.139152443777924" lon="15.271320105159417"><ele>138.0</ele><time>2026-04-11T14:06:44.999Z</time></trkpt><trkpt lat="38.13924602978726" lon="15.271273275799368"><ele>138.0</ele><time>2026-04-11T14:06:45.999Z</time></trkpt><trkpt lat="38.13934395148639" lon="15.271226481852604"><ele>137.5</ele><time>2026-04-11T14:06:46.999Z</time></trkpt><trkpt lat="38.13944378195066" lon="15.271178974773044"><ele>137.0</ele><time>2026-04-11T14:06:47.999Z</time></trkpt><trkpt lat="38.139558279265096" lon="15.271124488085107"><ele>136.5</ele><time>2026-04-11T14:06:48.999Z</time></trkpt><trkpt lat="38.13967025403358" lon="15.271071201785253"><ele>136.0</ele><time>2026-04-11T14:06:49.999Z</time></trkpt><trkpt lat="38.13977941943301" lon="15.271019160621242"><ele>135.75</ele><time>2026-04-11T14:06:50.999Z</time></trkpt><trkpt lat="38.13989733000338" lon="15.270964578530611"><ele>135.5</ele><time>2026-04-11T14:06:51.999Z</time></trkpt><trkpt lat="38.140016534411174" lon="15.270909397414597"><ele>135.25</ele><time>2026-04-11T14:06:52.999Z</time></trkpt><trkpt lat="38.140128277539645" lon="15.27085955651753"><ele>135.0</ele><time>2026-04-11T14:06:53.999Z</time></trkpt><trkpt lat="38.14023506654913" lon="15.270812364044485"><ele>135.0</ele><time>2026-04-11T14:06:54.999Z</time></trkpt><trkpt lat="38.140340012954" lon="15.2707687314943"><ele>135.0</ele><time>2026-04-11T14:06:55.999Z</time></trkpt><trkpt lat="38.14044911796391" lon="15.270725143389319"><ele>135.0</ele><time>2026-04-11T14:06:56.999Z</time></trkpt><trkpt lat="38.14056461022948" lon="15.270679889247399"><ele>135.0</ele><time>2026-04-11T14:06:57.999Z</time></trkpt><trkpt lat="38.140687364416095" lon="15.270631789644979"><ele>133.75</ele><time>2026-04-11T14:06:58.999Z</time></trkpt><trkpt lat="38.14081307883508" lon="15.270577916845763"><ele>132.5</ele><time>2026-04-11T14:06:59.999Z</time></trkpt><trkpt lat="38.140940898465345" lon="15.270515668737982"><ele>131.25</ele><time>2026-04-11T14:07:00.999Z</time></trkpt><trkpt lat="38.141064878313294" lon="15.270444974258217"><ele>130.0</ele><time>2026-04-11T14:07:01.999Z</time></trkpt><trkpt lat="38.14118928691032" lon="15.270371174265145"><ele>130.0</ele><time>2026-04-11T14:07:03Z</time></trkpt><trkpt lat="38.14130425532361" lon="15.270294661649807"><ele>130.0</ele><time>2026-04-11T14:07:04Z</time></trkpt><trkpt lat="38.14141910770153" lon="15.270250849179416"><ele>130.0</ele><time>2026-04-11T14:07:05Z</time></trkpt><trkpt lat="38.14152286163991" lon="15.270205362723862"><ele>130.0</ele><time>2026-04-11T14:07:06Z</time></trkpt><trkpt lat="38.14160897439763" lon="15.270133774060179"><ele>130.2</ele><time>2026-04-11T14:07:07Z</time></trkpt><trkpt lat="38.14168724210898" lon="15.270076791859895"><ele>130.4</ele><time>2026-04-11T14:07:08Z</time></trkpt><trkpt lat="38.141760312134764" lon="15.27003358770996"><ele>130.6</ele><time>2026-04-11T14:07:09Z</time></trkpt><trkpt lat="38.141862760892906" lon="15.26998635036661"><ele>130.8</ele><time>2026-04-11T14:07:10Z</time></trkpt><trkpt lat="38.14198136593996" lon="15.269937565356337"><ele>131.0</ele><time>2026-04-11T14:07:11Z</time></trkpt><trkpt lat="38.1421091475375" lon="15.269888158154531"><ele>131.0</ele><time>2026-04-11T14:07:12Z</time></trkpt><trkpt lat="38.14223404306373" lon="15.269839927039506"><ele>131.0</ele><time>2026-04-11T14:07:13Z</time></trkpt><trkpt lat="38.142362290836644" lon="15.26979040126617"><ele>131.0</ele><time>2026-04-11T14:07:14Z</time></trkpt><trkpt lat="38.14248835329837" lon="15.269741719427682"><ele>131.0</ele><time>2026-04-11T14:07:15Z</time></trkpt><trkpt lat="38.142617042137594" lon="15.269692023486614"><ele>129.25</ele><time>2026-04-11T14:07:16Z</time></trkpt><trkpt lat="38.14275404415994" lon="15.26963911713128"><ele>127.5</ele><time>2026-04-11T14:07:17Z</time></trkpt><trkpt lat="38.14289180434572" lon="15.26958488067393"><ele>125.75</ele><time>2026-04-11T14:07:18Z</time></trkpt><trkpt lat="38.143025986238214" lon="15.269531277029332"><ele>124.0</ele><time>2026-04-11T14:07:19Z</time></trkpt><trkpt lat="38.143160040954605" lon="15.269477724273283"><ele>124.0</ele><time>2026-04-11T14:07:20Z</time></trkpt><trkpt lat="38.143293200172764" lon="15.269422881439196"><ele>124.0</ele><time>2026-04-11T14:07:21Z</time></trkpt><trkpt lat="38.14342672921916" lon="15.269366498051605"><ele>124.0</ele><time>2026-04-11T14:07:22Z</time></trkpt><trkpt lat="38.14356021345973" lon="15.269310133648302"><ele>124.0</ele><time>2026-04-11T14:07:23Z</time></trkpt><trkpt lat="38.14370134510942" lon="15.269263610506883"><ele>124.0</ele><time>2026-04-11T14:07:24Z</time></trkpt><trkpt lat="38.14383916624747" lon="15.269185527820282"><ele>124.0</ele><time>2026-04-11T14:07:25Z</time></trkpt><trkpt lat="38.143978060930294" lon="15.269121557161588"><ele>124.0</ele><time>2026-04-11T14:07:26Z</time></trkpt><trkpt lat="38.1441115723989" lon="15.26905406547411"><ele>124.0</ele><time>2026-04-11T14:07:27Z</time></trkpt><trkpt lat="38.1442372647038" lon="15.268988022743747"><ele>123.5</ele><time>2026-04-11T14:07:28Z</time></trkpt><trkpt lat="38.1443579413137" lon="15.26891497124188"><ele>123.0</ele><time>2026-04-11T14:07:29Z</time></trkpt><trkpt lat="38.14447965049821" lon="15.26883134808978"><ele>122.5</ele><time>2026-04-11T14:07:30Z</time></trkpt><trkpt lat="38.14459753994256" lon="15.268771852716577"><ele>122.0</ele><time>2026-04-11T14:07:31Z</time></trkpt><trkpt lat="38.14471009154282" lon="15.268702226251486"><ele>122.0</ele><time>2026-04-11T14:07:32Z</time></trkpt><trkpt lat="38.144824109259424" lon="15.268632662824501"><ele>122.0</ele><time>2026-04-11T14:07:33Z</time></trkpt><trkpt lat="38.14493654318086" lon="15.268539948587648"><ele>122.0</ele><time>2026-04-11T14:07:34Z</time></trkpt><trkpt lat="38.14506604912178" lon="15.268478199758427"><ele>122.0</ele><time>2026-04-11T14:07:35Z</time></trkpt><trkpt lat="38.145197312830526" lon="15.268417967107208"><ele>121.5</ele><time>2026-04-11T14:07:36Z</time></trkpt><trkpt lat="38.14532847331262" lon="15.268370568904178"><ele>121.0</ele><time>2026-04-11T14:07:37Z</time></trkpt><trkpt lat="38.14546573964912" lon="15.268333970018336"><ele>120.5</ele><time>2026-04-11T14:07:38Z</time></trkpt><trkpt lat="38.14561083814084" lon="15.268294098038936"><ele>120.0</ele><time>2026-04-11T14:07:39Z</time></trkpt><trkpt lat="38.14575186410182" lon="15.268243348363123"><ele>120.0</ele><time>2026-04-11T14:07:40Z</time></trkpt><trkpt lat="38.145894697085595" lon="15.268194766863076"><ele>120.0</ele><time>2026-04-11T14:07:41Z</time></trkpt><trkpt lat="38.146042175326244" lon="15.268135070622257"><ele>120.0</ele><time>2026-04-11T14:07:42Z</time></trkpt><trkpt lat="38.146195167626104" lon="15.268069006616575"><ele>119.0</ele><time>2026-04-11T14:07:42.999Z</time></trkpt><trkpt lat="38.14634458690883" lon="15.268002138410617"><ele>118.0</ele><time>2026-04-11T14:07:43.999Z</time></trkpt><trkpt lat="38.14649765784372" lon="15.267936824252216"><ele>117.0</ele><time>2026-04-11T14:07:44.999Z</time></trkpt><trkpt lat="38.14663650568012" lon="15.267880200986717"><ele>116.8</ele><time>2026-04-11T14:07:45.999Z</time></trkpt><trkpt lat="38.146751547343655" lon="15.267820894124103"><ele>116.6</ele><time>2026-04-11T14:07:46.999Z</time></trkpt><trkpt lat="38.14684926400015" lon="15.267766937275233"><ele>116.39999999999999</ele><time>2026-04-11T14:07:47.999Z</time></trkpt><trkpt lat="38.146929852895255" lon="15.267688231415994"><ele>116.19999999999999</ele><time>2026-04-11T14:07:48.999Z</time></trkpt><trkpt lat="38.14702508932476" lon="15.267617843904805"><ele>116.0</ele><time>2026-04-11T14:07:49.999Z</time></trkpt><trkpt lat="38.147139731397466" lon="15.267543639932725"><ele>116.0</ele><time>2026-04-11T14:07:50.999Z</time></trkpt><trkpt lat="38.14726275640356" lon="15.267480579761871"><ele>116.0</ele><time>2026-04-11T14:07:51.999Z</time></trkpt><trkpt lat="38.14738251506435" lon="15.26739328096446"><ele>116.0</ele><time>2026-04-11T14:07:52.999Z</time></trkpt><trkpt lat="38.14751133812153" lon="15.267299739362983"><ele>116.0</ele><time>2026-04-11T14:07:53.999Z</time></trkpt><trkpt lat="38.14763319524769" lon="15.267207034732689"><ele>115.25</ele><time>2026-04-11T14:07:54.999Z</time></trkpt><trkpt lat="38.1477693255155" lon="15.267140694769477"><ele>114.5</ele><time>2026-04-11T14:07:55.999Z</time></trkpt><trkpt lat="38.147898157965244" lon="15.267054150759952"><ele>113.75</ele><time>2026-04-11T14:07:56.999Z</time></trkpt><trkpt lat="38.14802816839158" lon="15.266951445080966"><ele>113.0</ele><time>2026-04-11T14:07:57.999Z</time></trkpt><trkpt lat="38.14816371473097" lon="15.266865803100846"><ele>112.5</ele><time>2026-04-11T14:07:58.999Z</time></trkpt><trkpt lat="38.14830163452887" lon="15.266780624044921"><ele>112.0</ele><time>2026-04-11T14:07:59.999Z</time></trkpt><trkpt lat="38.148433912260224" lon="15.26670170143877"><ele>111.5</ele><time>2026-04-11T14:08:00.999Z</time></trkpt><trkpt lat="38.14856405269157" lon="15.266629922353061"><ele>111.0</ele><time>2026-04-11T14:08:01.999Z</time></trkpt><trkpt lat="38.1486867258412" lon="15.266556097700011"><ele>111.0</ele><time>2026-04-11T14:08:02.999Z</time></trkpt><trkpt lat="38.148809470220556" lon="15.266487810016953"><ele>111.0</ele><time>2026-04-11T14:08:03.999Z</time></trkpt><trkpt lat="38.14892476860308" lon="15.26642577178486"><ele>111.0</ele><time>2026-04-11T14:08:04.999Z</time></trkpt><trkpt lat="38.1490309519289" lon="15.266363000623258"><ele>111.0</ele><time>2026-04-11T14:08:05.999Z</time></trkpt><trkpt lat="38.14916319769947" lon="15.266301301070593"><ele>109.75</ele><time>2026-04-11T14:08:06.999Z</time></trkpt><trkpt lat="38.14929995954513" lon="15.266234165178798"><ele>108.5</ele><time>2026-04-11T14:08:07.999Z</time></trkpt><trkpt lat="38.14943388374889" lon="15.266159547142044"><ele>107.25</ele><time>2026-04-11T14:08:08.999Z</time></trkpt><trkpt lat="38.149571971366434" lon="15.266077545040346"><ele>106.0</ele><time>2026-04-11T14:08:09.999Z</time></trkpt><trkpt lat="38.14971231390401" lon="15.26600017102133"><ele>106.0</ele><time>2026-04-11T14:08:10.999Z</time></trkpt><trkpt lat="38.14984574764994" lon="15.265922892588346"><ele>106.0</ele><time>2026-04-11T14:08:11.999Z</time></trkpt><trkpt lat="38.149972915428705" lon="15.265867644275263"><ele>106.0</ele><time>2026-04-11T14:08:12.999Z</time></trkpt><trkpt lat="38.15008534515775" lon="15.26581277675044"><ele>106.0</ele><time>2026-04-11T14:08:13.999Z</time></trkpt><trkpt lat="38.15020542406734" lon="15.265755074464263"><ele>105.8</ele><time>2026-04-11T14:08:14.999Z</time></trkpt><trkpt lat="38.15032891914829" lon="15.265710872333786"><ele>105.6</ele><time>2026-04-11T14:08:15.999Z</time></trkpt><trkpt lat="38.15044017709516" lon="15.265673329908429"><ele>105.4</ele><time>2026-04-11T14:08:16.999Z</time></trkpt><trkpt lat="38.150514668464645" lon="15.265652441548566"><ele>105.2</ele><time>2026-04-11T14:08:17.999Z</time></trkpt><trkpt lat="38.15058368608962" lon="15.265625590705326"><ele>105.0</ele><time>2026-04-11T14:08:18.999Z</time></trkpt><trkpt lat="38.15065260391209" lon="15.265603403675629"><ele>105.0</ele><time>2026-04-11T14:08:19.999Z</time></trkpt><trkpt lat="38.15072249811693" lon="15.265577257381086"><ele>105.0</ele><time>2026-04-11T14:08:20.999Z</time></trkpt><trkpt lat="38.150785579191655" lon="15.26554812014041"><ele>105.0</ele><time>2026-04-11T14:08:21.999Z</time></trkpt><trkpt lat="38.15085970255036" lon="15.265512733010421"><ele>105.0</ele><time>2026-04-11T14:08:22.999Z</time></trkpt><trkpt lat="38.15092859371748" lon="15.265473265632346"><ele>105.0</ele><time>2026-04-11T14:08:23.999Z</time></trkpt><trkpt lat="38.150995048790904" lon="15.265410176992681"><ele>105.0</ele><time>2026-04-11T14:08:24.999Z</time></trkpt><trkpt lat="38.15105668871805" lon="15.265334411073667"><ele>105.0</ele><time>2026-04-11T14:08:25.999Z</time></trkpt><trkpt lat="38.1511185967172" lon="15.265251751086387"><ele>105.0</ele><time>2026-04-11T14:08:26.999Z</time></trkpt><trkpt lat="38.15118219380861" lon="15.265158493291963"><ele>105.0</ele><time>2026-04-11T14:08:27.999Z</time></trkpt><trkpt lat="38.151253378987676" lon="15.265066595141153"><ele>105.0</ele><time>2026-04-11T14:08:28.999Z</time></trkpt><trkpt lat="38.15133292476673" lon="15.264985355355382"><ele>105.0</ele><time>2026-04-11T14:08:29.999Z</time></trkpt><trkpt lat="38.15141700797954" lon="15.264936644886353"><ele>105.0</ele><time>2026-04-11T14:08:30.999Z</time></trkpt><trkpt lat="38.15149240810237" lon="15.264881647336267"><ele>105.0</ele><time>2026-04-11T14:08:31.999Z</time></trkpt><trkpt lat="38.151563475702275" lon="15.264809126163335"><ele>105.0</ele><time>2026-04-11T14:08:32.999Z</time></trkpt><trkpt lat="38.15166000536625" lon="15.264771041060328"><ele>105.0</ele><time>2026-04-11T14:08:33.999Z</time></trkpt><trkpt lat="38.15175747971427" lon="15.264726310764043"><ele>105.0</ele><time>2026-04-11T14:08:34.999Z</time></trkpt><trkpt lat="38.15185591484464" lon="15.264675171585838"><ele>103.75</ele><time>2026-04-11T14:08:35.999Z</time></trkpt><trkpt lat="38.15197202472218" lon="15.264635870790972"><ele>102.5</ele><time>2026-04-11T14:08:36.999Z</time></trkpt><trkpt lat="38.15209311422963" lon="15.264619388962041"><ele>101.25</ele><time>2026-04-11T14:08:37.999Z</time></trkpt><trkpt lat="38.15221952965672" lon="15.264636478497957"><ele>100.0</ele><time>2026-04-11T14:08:38.999Z</time></trkpt><trkpt lat="38.15234698880662" lon="15.264653841213846"><ele>99.75</ele><time>2026-04-11T14:08:39.999Z</time></trkpt><trkpt lat="38.15247581344294" lon="15.264650097407436"><ele>99.5</ele><time>2026-04-11T14:08:40.999Z</time></trkpt><trkpt lat="38.152609051319516" lon="15.264643746810043"><ele>99.25</ele><time>2026-04-11T14:08:41.999Z</time></trkpt><trkpt lat="38.15274058631281" lon="15.264632624423353"><ele>99.0</ele><time>2026-04-11T14:08:42.999Z</time></trkpt><trkpt lat="38.15287924286361" lon="15.264618277128776"><ele>99.0</ele><time>2026-04-11T14:08:43.999Z</time></trkpt><trkpt lat="38.15302364276658" lon="15.264598729527945"><ele>99.0</ele><time>2026-04-11T14:08:44.999Z</time></trkpt><trkpt lat="38.15317310653649" lon="15.264577995234731"><ele>99.0</ele><time>2026-04-11T14:08:45.999Z</time></trkpt><trkpt lat="38.153326691469" lon="15.264559650123685"><ele>98.0</ele><time>2026-04-11T14:08:46.999Z</time></trkpt><trkpt lat="38.1534828216389" lon="15.26457091327799"><ele>97.0</ele><time>2026-04-11T14:08:47.999Z</time></trkpt><trkpt lat="38.1536325846084" lon="15.264561511508692"><ele>96.0</ele><time>2026-04-11T14:08:48.999Z</time></trkpt><trkpt lat="38.15378107082488" lon="15.264551808017753"><ele>96.0</ele><time>2026-04-11T14:08:49.999Z</time></trkpt><trkpt lat="38.15393299612854" lon="15.264539637208577"><ele>96.0</ele><time>2026-04-11T14:08:50.999Z</time></trkpt><trkpt lat="38.1540899483822" lon="15.264521223169883"><ele>96.0</ele><time>2026-04-11T14:08:51.999Z</time></trkpt><trkpt lat="38.15424018397431" lon="15.264473775819706"><ele>95.75</ele><time>2026-04-11T14:08:52.999Z</time></trkpt><trkpt lat="38.154389879857206" lon="15.264449412874411"><ele>95.5</ele><time>2026-04-11T14:08:53.999Z</time></trkpt><trkpt lat="38.15452982916335" lon="15.264435814806165"><ele>95.25</ele><time>2026-04-11T14:08:54.999Z</time></trkpt><trkpt lat="38.15466869449437" lon="15.264426383049015"><ele>95.0</ele><time>2026-04-11T14:08:55.999Z</time></trkpt><trkpt lat="38.15480629428138" lon="15.264447706037444"><ele>95.0</ele><time>2026-04-11T14:08:56.999Z</time></trkpt><trkpt lat="38.154934632042696" lon="15.264442205045146"><ele>95.0</ele><time>2026-04-11T14:08:57.999Z</time></trkpt><trkpt lat="38.155051000726075" lon="15.264421275368711"><ele>95.0</ele><time>2026-04-11T14:08:58.999Z</time></trkpt><trkpt lat="38.15516672923389" lon="15.264392137494871"><ele>95.0</ele><time>2026-04-11T14:08:59.999Z</time></trkpt><trkpt lat="38.1552896555612" lon="15.2643581304534"><ele>95.0</ele><time>2026-04-11T14:09:00.999Z</time></trkpt><trkpt lat="38.15538831196631" lon="15.264319048957132"><ele>95.0</ele><time>2026-04-11T14:09:01.999Z</time></trkpt><trkpt lat="38.15546752251905" lon="15.264290116914953"><ele>95.0</ele><time>2026-04-11T14:09:02.999Z</time></trkpt><trkpt lat="38.15553353741714" lon="15.264271532236062"><ele>95.0</ele><time>2026-04-11T14:09:03.999Z</time></trkpt><trkpt lat="38.15565374167116" lon="15.26428348587389"><ele>95.0</ele><time>2026-04-11T14:09:05.999Z</time></trkpt><trkpt lat="38.15572005952701" lon="15.264298645064956"><ele>95.0</ele><time>2026-04-11T14:09:06.999Z</time></trkpt><trkpt lat="38.15579250438152" lon="15.264316384840885"><ele>94.4</ele><time>2026-04-11T14:09:07.999Z</time></trkpt><trkpt lat="38.15587957571948" lon="15.264339482268344"><ele>93.8</ele><time>2026-04-11T14:09:09Z</time></trkpt><trkpt lat="38.155974418398436" lon="15.26436234836455"><ele>93.19999999999999</ele><time>2026-04-11T14:09:10Z</time></trkpt><trkpt lat="38.15607222973492" lon="15.264372907191452"><ele>92.6</ele><time>2026-04-11T14:09:11Z</time></trkpt><trkpt lat="38.156155589116345" lon="15.2644051157939"><ele>92.0</ele><time>2026-04-11T14:09:12Z</time></trkpt><trkpt lat="38.15624413442916" lon="15.26442780098446"><ele>92.0</ele><time>2026-04-11T14:09:13Z</time></trkpt><trkpt lat="38.15633617770561" lon="15.264437252689353"><ele>92.0</ele><time>2026-04-11T14:09:14Z</time></trkpt><trkpt lat="38.15643622743249" lon="15.264435978478838"><ele>92.0</ele><time>2026-04-11T14:09:15Z</time></trkpt><trkpt lat="38.156533621563725" lon="15.264424414226296"><ele>92.0</ele><time>2026-04-11T14:09:16Z</time></trkpt><trkpt lat="38.15663489793912" lon="15.264403422766438"><ele>92.0</ele><time>2026-04-11T14:09:17Z</time></trkpt><trkpt lat="38.156740508605495" lon="15.264378274924345"><ele>91.8</ele><time>2026-04-11T14:09:18Z</time></trkpt><trkpt lat="38.156849729865" lon="15.264347261673011"><ele>91.6</ele><time>2026-04-11T14:09:19Z</time></trkpt><trkpt lat="38.15695045822301" lon="15.264309054295072"><ele>91.39999999999999</ele><time>2026-04-11T14:09:20Z</time></trkpt><trkpt lat="38.15704790684418" lon="15.264275118913899"><ele>91.19999999999999</ele><time>2026-04-11T14:09:21Z</time></trkpt><trkpt lat="38.157137468524546" lon="15.2642403635643"><ele>91.0</ele><time>2026-04-11T14:09:22Z</time></trkpt><trkpt lat="38.157229967838944" lon="15.264246261973906"><ele>91.0</ele><time>2026-04-11T14:09:23Z</time></trkpt><trkpt lat="38.157321354839084" lon="15.264248047408634"><ele>91.0</ele><time>2026-04-11T14:09:24Z</time></trkpt><trkpt lat="38.15741801734246" lon="15.264257748565452"><ele>91.0</ele><time>2026-04-11T14:09:25Z</time></trkpt><trkpt lat="38.15753049121089" lon="15.26426615388601"><ele>91.0</ele><time>2026-04-11T14:09:26Z</time></trkpt><trkpt lat="38.157649704052936" lon="15.264268934377519"><ele>91.0</ele><time>2026-04-11T14:09:27Z</time></trkpt><trkpt lat="38.157774628672094" lon="15.264266337576457"><ele>91.0</ele><time>2026-04-11T14:09:28Z</time></trkpt><trkpt lat="38.15790830721845" lon="15.264243517309113"><ele>91.0</ele><time>2026-04-11T14:09:29Z</time></trkpt><trkpt lat="38.15804503940655" lon="15.264230204712831"><ele>91.0</ele><time>2026-04-11T14:09:30Z</time></trkpt><trkpt lat="38.158166902293644" lon="15.264206821742128"><ele>91.0</ele><time>2026-04-11T14:09:31Z</time></trkpt><trkpt lat="38.15828073909119" lon="15.264186725275641"><ele>90.5</ele><time>2026-04-11T14:09:32Z</time></trkpt><trkpt lat="38.15838824876626" lon="15.264177228868412"><ele>90.0</ele><time>2026-04-11T14:09:33Z</time></trkpt><trkpt lat="38.158504436386" lon="15.264167561304681"><ele>89.5</ele><time>2026-04-11T14:09:34Z</time></trkpt><trkpt lat="38.15862977760299" lon="15.264166924962032"><ele>89.0</ele><time>2026-04-11T14:09:35Z</time></trkpt><trkpt lat="38.15876596048183" lon="15.264164737935008"><ele>89.0</ele><time>2026-04-11T14:09:36Z</time></trkpt><trkpt lat="38.158906403806085" lon="15.264164729823666"><ele>89.0</ele><time>2026-04-11T14:09:37Z</time></trkpt><trkpt lat="38.15905281783832" lon="15.264163411084905"><ele>89.0</ele><time>2026-04-11T14:09:38Z</time></trkpt><trkpt lat="38.15920842145989" lon="15.264169669503648"><ele>89.0</ele><time>2026-04-11T14:09:39Z</time></trkpt><trkpt lat="38.15936382498245" lon="15.264172258105381"><ele>89.0</ele><time>2026-04-11T14:09:40Z</time></trkpt><trkpt lat="38.15950791755445" lon="15.264180893666447"><ele>89.0</ele><time>2026-04-11T14:09:41Z</time></trkpt><trkpt lat="38.15965518767119" lon="15.26419138591556"><ele>89.0</ele><time>2026-04-11T14:09:42Z</time></trkpt><trkpt lat="38.159797665472716" lon="15.264195535837432"><ele>89.0</ele><time>2026-04-11T14:09:43Z</time></trkpt><trkpt lat="38.15991426307535" lon="15.264192442432071"><ele>89.0</ele><time>2026-04-11T14:09:44Z</time></trkpt><trkpt lat="38.16002702410784" lon="15.26417693943301"><ele>89.0</ele><time>2026-04-11T14:09:45Z</time></trkpt><trkpt lat="38.16014245096485" lon="15.264148820997098"><ele>89.0</ele><time>2026-04-11T14:09:46Z</time></trkpt><trkpt lat="38.160246437008425" lon="15.264114941133068"><ele>89.0</ele><time>2026-04-11T14:09:47Z</time></trkpt><trkpt lat="38.16033968985502" lon="15.264107168766536"><ele>89.0</ele><time>2026-04-11T14:09:48Z</time></trkpt><trkpt lat="38.160420317862055" lon="15.264083365279458"><ele>89.0</ele><time>2026-04-11T14:09:49Z</time></trkpt><trkpt lat="38.16049509905634" lon="15.264065604587362"><ele>89.0</ele><time>2026-04-11T14:09:49.999Z</time></trkpt><trkpt lat="38.160573986693805" lon="15.264059362101229"><ele>89.0</ele><time>2026-04-11T14:09:50.999Z</time></trkpt><trkpt lat="38.16066782591446" lon="15.264058442194488"><ele>89.0</ele><time>2026-04-11T14:09:51.999Z</time></trkpt><trkpt lat="38.16076202566554" lon="15.264065544030995"><ele>89.0</ele><time>2026-04-11T14:09:52.999Z</time></trkpt><trkpt lat="38.16084978609122" lon="15.264059992052633"><ele>89.0</ele><time>2026-04-11T14:09:53.999Z</time></trkpt><trkpt lat="38.160934801493234" lon="15.264083191783902"><ele>88.80000000000001</ele><time>2026-04-11T14:09:54.999Z</time></trkpt><trkpt lat="38.16102619972679" lon="15.264106514311392"><ele>88.60000000000001</ele><time>2026-04-11T14:09:55.999Z</time></trkpt><trkpt lat="38.161125096516045" lon="15.264158577434351"><ele>88.4</ele><time>2026-04-11T14:09:56.999Z</time></trkpt><trkpt lat="38.16124104208794" lon="15.26419284778408"><ele>88.2</ele><time>2026-04-11T14:09:57.999Z</time></trkpt><trkpt lat="38.161353722212425" lon="15.264210604729012"><ele>88.0</ele><time>2026-04-11T14:09:58.999Z</time></trkpt><trkpt lat="38.161480900547126" lon="15.264220435987463"><ele>87.60000000000001</ele><time>2026-04-11T14:09:59.999Z</time></trkpt><trkpt lat="38.16160858232195" lon="15.264226539309696"><ele>87.2</ele><time>2026-04-11T14:10:00.999Z</time></trkpt><trkpt lat="38.16172288348428" lon="15.264230617000177"><ele>86.8</ele><time>2026-04-11T14:10:01.999Z</time></trkpt><trkpt lat="38.16182432060282" lon="15.264236536016147"><ele>86.4</ele><time>2026-04-11T14:10:02.999Z</time></trkpt><trkpt lat="38.16190931333644" lon="15.264225348758238"><ele>86.0</ele><time>2026-04-11T14:10:03.999Z</time></trkpt><trkpt lat="38.16196758920778" lon="15.264263519836831"><ele>86.0</ele><time>2026-04-11T14:10:04.999Z</time></trkpt><trkpt lat="38.162058476425045" lon="15.264322570100415"><ele>86.0</ele><time>2026-04-11T14:10:06.999Z</time></trkpt><trkpt lat="38.16211145941186" lon="15.264415983848323"><ele>86.0</ele><time>2026-04-11T14:10:08.999Z</time></trkpt><trkpt lat="38.16215341253386" lon="15.264524680153643"><ele>86.0</ele><time>2026-04-11T14:10:10.999Z</time></trkpt><trkpt lat="38.1621352170571" lon="15.264636863714548"><ele>86.0</ele><time>2026-04-11T14:10:12.999Z</time></trkpt><trkpt lat="38.16207701341401" lon="15.264706641721885"><ele>86.0</ele><time>2026-04-11T14:10:14.999Z</time></trkpt><trkpt lat="38.16202931076532" lon="15.264761717471467"><ele>86.0</ele><time>2026-04-11T14:10:15.999Z</time></trkpt><trkpt lat="38.161981117306674" lon="15.264813773096671"><ele>86.0</ele><time>2026-04-11T14:10:16.999Z</time></trkpt><trkpt lat="38.16192028909104" lon="15.26486293741097"><ele>86.0</ele><time>2026-04-11T14:10:17.999Z</time></trkpt><trkpt lat="38.16184510737772" lon="15.264911980154226"><ele>86.0</ele><time>2026-04-11T14:10:18.999Z</time></trkpt><trkpt lat="38.16177369045621" lon="15.264950260320017"><ele>86.0</ele><time>2026-04-11T14:10:19.999Z</time></trkpt><trkpt lat="38.16169462809716" lon="15.265041795171667"><ele>86.19999999999999</ele><time>2026-04-11T14:10:21.999Z</time></trkpt><trkpt lat="38.16164957806537" lon="15.26513019559169"><ele>86.39999999999999</ele><time>2026-04-11T14:10:24.999Z</time></trkpt><trkpt lat="38.16178163743732" lon="15.265097678301329"><ele>86.6</ele><time>2026-04-11T14:10:31.999Z</time></trkpt><trkpt lat="38.16184102602786" lon="15.265062444486116"><ele>86.8</ele><time>2026-04-11T14:10:33.999Z</time></trkpt><trkpt lat="38.16190755835818" lon="15.265009939415446"><ele>87.0</ele><time>2026-04-11T14:10:36.999Z</time></trkpt><trkpt lat="38.16199005481489" lon="15.264955891102355"><ele>87.0</ele><time>2026-04-11T14:10:39.999Z</time></trkpt><trkpt lat="38.162077798381596" lon="15.264917555285699"><ele>87.0</ele><time>2026-04-11T14:10:42.999Z</time></trkpt><trkpt lat="38.16214546345458" lon="15.26486814354946"><ele>87.0</ele><time>2026-04-11T14:10:44.999Z</time></trkpt><trkpt lat="38.16220158747171" lon="15.264827568656926"><ele>87.0</ele><time>2026-04-11T14:10:46.999Z</time></trkpt><trkpt lat="38.162272189647176" lon="15.264776243350044"><ele>87.0</ele><time>2026-04-11T14:10:48.999Z</time></trkpt><trkpt lat="38.162353402028735" lon="15.264709512265895"><ele>87.0</ele><time>2026-04-11T14:10:50.999Z</time></trkpt><trkpt lat="38.162422603656005" lon="15.264651986363555"><ele>86.33333333333333</ele><time>2026-04-11T14:10:52.999Z</time></trkpt><trkpt lat="38.162489465121986" lon="15.264593516721906"><ele>85.66666666666667</ele><time>2026-04-11T14:10:54.999Z</time></trkpt><trkpt lat="38.16255470858461" lon="15.26453922245833"><ele>85.0</ele><time>2026-04-11T14:10:56.999Z</time></trkpt><trkpt lat="38.162614477872516" lon="15.264479645217424"><ele>84.33333333333334</ele><time>2026-04-11T14:10:58.999Z</time></trkpt><trkpt lat="38.1626813114818" lon="15.264387051924544"><ele>83.66666666666667</ele><time>2026-04-11T14:11:00.999Z</time></trkpt><trkpt lat="38.162762546992965" lon="15.264298037846759"><ele>83.0</ele><time>2026-04-11T14:11:02.999Z</time></trkpt><trkpt lat="38.162808289838615" lon="15.264241939456769"><ele>83.0</ele><time>2026-04-11T14:11:03.999Z</time></trkpt><trkpt lat="38.16288012412281" lon="15.264152238356798"><ele>83.0</ele><time>2026-04-11T14:11:05.999Z</time></trkpt><trkpt lat="38.16297279812912" lon="15.264061331330558"><ele>83.0</ele><time>2026-04-11T14:11:07.999Z</time></trkpt><trkpt lat="38.163064874438035" lon="15.263962982937667"><ele>83.0</ele><time>2026-04-11T14:11:09.999Z</time></trkpt><trkpt lat="38.16315585801004" lon="15.263853149822793"><ele>82.5</ele><time>2026-04-11T14:11:11.999Z</time></trkpt><trkpt lat="38.163227765499826" lon="15.263783454408276"><ele>82.0</ele><time>2026-04-11T14:11:13.999Z</time></trkpt><trkpt lat="38.16328266111128" lon="15.263735274475847"><ele>81.5</ele><time>2026-04-11T14:11:17Z</time></trkpt><trkpt lat="38.16333483191843" lon="15.263665406272763"><ele>81.0</ele><time>2026-04-11T14:11:20Z</time></trkpt><trkpt lat="38.163427072281976" lon="15.263572116556269"><ele>80.5</ele><time>2026-04-11T14:11:22Z</time></trkpt><trkpt lat="38.16349470141148" lon="15.263498286215347"><ele>80.0</ele><time>2026-04-11T14:11:23Z</time></trkpt><trkpt lat="38.16356534602256" lon="15.263433269588965"><ele>80.0</ele><time>2026-04-11T14:11:24Z</time></trkpt><trkpt lat="38.16363634470367" lon="15.263369360207674"><ele>80.0</ele><time>2026-04-11T14:11:25Z</time></trkpt><trkpt lat="38.16370892818711" lon="15.26329892971629"><ele>80.0</ele><time>2026-04-11T14:11:26Z</time></trkpt><trkpt lat="38.16377940646361" lon="15.263225322488408"><ele>80.0</ele><time>2026-04-11T14:11:27Z</time></trkpt><trkpt lat="38.16384921430964" lon="15.263160720101055"><ele>80.0</ele><time>2026-04-11T14:11:28Z</time></trkpt><trkpt lat="38.16391739235025" lon="15.263093311560157"><ele>80.0</ele><time>2026-04-11T14:11:29Z</time></trkpt><trkpt lat="38.16398505380205" lon="15.263036765924575"><ele>79.33333333333334</ele><time>2026-04-11T14:11:30Z</time></trkpt><trkpt lat="38.16405308414253" lon="15.262986475893188"><ele>78.66666666666667</ele><time>2026-04-11T14:11:31Z</time></trkpt><trkpt lat="38.16412202919788" lon="15.262935643618945"><ele>78.0</ele><time>2026-04-11T14:11:32Z</time></trkpt><trkpt lat="38.16419868212004" lon="15.262886072916526"><ele>77.33333333333333</ele><time>2026-04-11T14:11:33Z</time></trkpt><trkpt lat="38.164277572349725" lon="15.262835553613963"><ele>76.66666666666666</ele><time>2026-04-11T14:11:34Z</time></trkpt><trkpt lat="38.16435938296154" lon="15.262784368464688"><ele>76.0</ele><time>2026-04-11T14:11:35Z</time></trkpt><trkpt lat="38.16444238419132" lon="15.26273232321041"><ele>76.0</ele><time>2026-04-11T14:11:36Z</time></trkpt><trkpt lat="38.1645267968229" lon="15.262682697439667"><ele>76.0</ele><time>2026-04-11T14:11:37Z</time></trkpt><trkpt lat="38.164612084174074" lon="15.262630030634696"><ele>76.0</ele><time>2026-04-11T14:11:38Z</time></trkpt><trkpt lat="38.164695862229294" lon="15.262574832593959"><ele>76.0</ele><time>2026-04-11T14:11:39Z</time></trkpt><trkpt lat="38.16477696837957" lon="15.262514943674466"><ele>76.0</ele><time>2026-04-11T14:11:40Z</time></trkpt><trkpt lat="38.164868447690104" lon="15.262440080136273"><ele>76.39999999999999</ele><time>2026-04-11T14:11:41Z</time></trkpt><trkpt lat="38.164958812346" lon="15.262356042017911"><ele>76.8</ele><time>2026-04-11T14:11:42Z</time></trkpt><trkpt lat="38.16503427045198" lon="15.262283428834301"><ele>77.19999999999999</ele><time>2026-04-11T14:11:43Z</time></trkpt><trkpt lat="38.16510781631214" lon="15.26220966033201"><ele>77.6</ele><time>2026-04-11T14:11:44Z</time></trkpt><trkpt lat="38.16519685525495" lon="15.262129495532122"><ele>78.0</ele><time>2026-04-11T14:11:45Z</time></trkpt><trkpt lat="38.16528014057869" lon="15.262055539751485"><ele>78.0</ele><time>2026-04-11T14:11:46Z</time></trkpt><trkpt lat="38.16536332741688" lon="15.261980139505887"><ele>78.0</ele><time>2026-04-11T14:11:47Z</time></trkpt><trkpt lat="38.165456860877725" lon="15.26189739748627"><ele>78.0</ele><time>2026-04-11T14:11:48Z</time></trkpt><trkpt lat="38.16554817123971" lon="15.261811715760711"><ele>78.0</ele><time>2026-04-11T14:11:49Z</time></trkpt><trkpt lat="38.165645574818335" lon="15.261726778917538"><ele>78.0</ele><time>2026-04-11T14:11:50Z</time></trkpt><trkpt lat="38.16574512037328" lon="15.2616375153752"><ele>77.25</ele><time>2026-04-11T14:11:51Z</time></trkpt><trkpt lat="38.16584838781613" lon="15.261544389732197"><ele>76.5</ele><time>2026-04-11T14:11:52Z</time></trkpt><trkpt lat="38.16595352171069" lon="15.26145037460429"><ele>75.75</ele><time>2026-04-11T14:11:53Z</time></trkpt><trkpt lat="38.16606261064359" lon="15.261351034000606"><ele>75.0</ele><time>2026-04-11T14:11:54Z</time></trkpt><trkpt lat="38.16616266271239" lon="15.261261837327472"><ele>74.75</ele><time>2026-04-11T14:11:55Z</time></trkpt><trkpt lat="38.166262440259054" lon="15.261172296796019"><ele>74.5</ele><time>2026-04-11T14:11:56Z</time></trkpt><trkpt lat="38.16636108627937" lon="15.261082236444658"><ele>74.25</ele><time>2026-04-11T14:11:57Z</time></trkpt><trkpt lat="38.1664510874358" lon="15.261002174815353"><ele>74.0</ele><time>2026-04-11T14:11:58Z</time></trkpt><trkpt lat="38.16653978599554" lon="15.260921535152871"><ele>73.8</ele><time>2026-04-11T14:11:58.999Z</time></trkpt><trkpt lat="38.16662233298465" lon="15.260867147493975"><ele>73.60000000000001</ele><time>2026-04-11T14:11:59.999Z</time></trkpt><trkpt lat="38.166709814595585" lon="15.260805337424614"><ele>73.4</ele><time>2026-04-11T14:12:00.999Z</time></trkpt><trkpt lat="38.16680723638232" lon="15.260733032015928"><ele>73.2</ele><time>2026-04-11T14:12:01.999Z</time></trkpt><trkpt lat="38.166902114827174" lon="15.26066015257011"><ele>73.0</ele><time>2026-04-11T14:12:02.999Z</time></trkpt><trkpt lat="38.16698868007165" lon="15.260586188353615"><ele>73.0</ele><time>2026-04-11T14:12:03.999Z</time></trkpt><trkpt lat="38.16708696392809" lon="15.260518743231515"><ele>73.0</ele><time>2026-04-11T14:12:04.999Z</time></trkpt><trkpt lat="38.16719425260686" lon="15.260449067095333"><ele>73.0</ele><time>2026-04-11T14:12:05.999Z</time></trkpt><trkpt lat="38.16730323559118" lon="15.260373382592832"><ele>73.0</ele><time>2026-04-11T14:12:06.999Z</time></trkpt><trkpt lat="38.16739969135458" lon="15.260292065372424"><ele>72.8</ele><time>2026-04-11T14:12:07.999Z</time></trkpt><trkpt lat="38.16748550285064" lon="15.260212133589178"><ele>72.6</ele><time>2026-04-11T14:12:08.999Z</time></trkpt><trkpt lat="38.167566594938265" lon="15.260124608020966"><ele>72.4</ele><time>2026-04-11T14:12:09.999Z</time></trkpt><trkpt lat="38.167656017014636" lon="15.260049817765582"><ele>72.2</ele><time>2026-04-11T14:12:10.999Z</time></trkpt><trkpt lat="38.167725714216466" lon="15.259942114853393"><ele>72.0</ele><time>2026-04-11T14:12:11.999Z</time></trkpt><trkpt lat="38.16780534728975" lon="15.259842327216786"><ele>71.8</ele><time>2026-04-11T14:12:12.999Z</time></trkpt><trkpt lat="38.16787890337846" lon="15.259744693221243"><ele>71.6</ele><time>2026-04-11T14:12:13.999Z</time></trkpt><trkpt lat="38.1679488416552" lon="15.259648054690649"><ele>71.39999999999999</ele><time>2026-04-11T14:12:14.999Z</time></trkpt><trkpt lat="38.16801917731061" lon="15.25955494434075"><ele>71.2</ele><time>2026-04-11T14:12:15.999Z</time></trkpt><trkpt lat="38.16807546670483" lon="15.259482951450257"><ele>71.0</ele><time>2026-04-11T14:12:16.999Z</time></trkpt><trkpt lat="38.168123868316584" lon="15.259417714658483"><ele>71.0</ele><time>2026-04-11T14:12:17.999Z</time></trkpt><trkpt lat="38.16818371735956" lon="15.25934821725871"><ele>71.0</ele><time>2026-04-11T14:12:18.999Z</time></trkpt><trkpt lat="38.1682487180228" lon="15.25927283457651"><ele>71.0</ele><time>2026-04-11T14:12:19.999Z</time></trkpt><trkpt lat="38.168314436719896" lon="15.259188186432663"><ele>71.0</ele><time>2026-04-11T14:12:20.999Z</time></trkpt><trkpt lat="38.168383159607956" lon="15.259097818631345"><ele>71.0</ele><time>2026-04-11T14:12:21.999Z</time></trkpt><trkpt lat="38.16844746154778" lon="15.258995655864771"><ele>70.39999999999999</ele><time>2026-04-11T14:12:22.999Z</time></trkpt><trkpt lat="38.16851293165769" lon="15.25889186509478"><ele>69.8</ele><time>2026-04-11T14:12:23.999Z</time></trkpt><trkpt lat="38.168579942532126" lon="15.258790020481682"><ele>69.19999999999999</ele><time>2026-04-11T14:12:24.999Z</time></trkpt><trkpt lat="38.16864871303269" lon="15.258689379615012"><ele>68.6</ele><time>2026-04-11T14:12:25.999Z</time></trkpt><trkpt lat="38.168724674676476" lon="15.25859991936421"><ele>68.0</ele><time>2026-04-11T14:12:26.999Z</time></trkpt><trkpt lat="38.16878344495767" lon="15.258506763202284"><ele>68.0</ele><time>2026-04-11T14:12:27.999Z</time></trkpt><trkpt lat="38.16882616231312" lon="15.258411956062432"><ele>68.0</ele><time>2026-04-11T14:12:28.999Z</time></trkpt><trkpt lat="38.16890127852598" lon="15.258329846098658"><ele>68.0</ele><time>2026-04-11T14:12:29.999Z</time></trkpt><trkpt lat="38.16898320051953" lon="15.258243224431695"><ele>68.0</ele><time>2026-04-11T14:12:30.999Z</time></trkpt><trkpt lat="38.16907167074871" lon="15.25815198276831"><ele>68.0</ele><time>2026-04-11T14:12:31.999Z</time></trkpt><trkpt lat="38.16917172625452" lon="15.258083707680791"><ele>67.75</ele><time>2026-04-11T14:12:32.999Z</time></trkpt><trkpt lat="38.169275056469225" lon="15.258000360214183"><ele>67.5</ele><time>2026-04-11T14:12:33.999Z</time></trkpt><trkpt lat="38.16938494642088" lon="15.257914862288299"><ele>67.25</ele><time>2026-04-11T14:12:34.999Z</time></trkpt><trkpt lat="38.1695020797334" lon="15.257823728941256"><ele>67.0</ele><time>2026-04-11T14:12:35.999Z</time></trkpt><trkpt lat="38.1696212531623" lon="15.25773252433499"><ele>67.0</ele><time>2026-04-11T14:12:36.999Z</time></trkpt><trkpt lat="38.16971783148316" lon="15.257634896308833"><ele>67.0</ele><time>2026-04-11T14:12:37.999Z</time></trkpt><trkpt lat="38.169817238800896" lon="15.25756594153582"><ele>67.0</ele><time>2026-04-11T14:12:38.999Z</time></trkpt><trkpt lat="38.16990927219511" lon="15.257505933530071"><ele>67.0</ele><time>2026-04-11T14:12:39.999Z</time></trkpt><trkpt lat="38.1699918508075" lon="15.257438436832741"><ele>67.0</ele><time>2026-04-11T14:12:40.999Z</time></trkpt><trkpt lat="38.1700765052538" lon="15.257360700447716"><ele>66.8</ele><time>2026-04-11T14:12:41.999Z</time></trkpt><trkpt lat="38.17016353544537" lon="15.25726952280112"><ele>66.6</ele><time>2026-04-11T14:12:42.999Z</time></trkpt><trkpt lat="38.170243916433364" lon="15.257182617839325"><ele>66.39999999999999</ele><time>2026-04-11T14:12:43.999Z</time></trkpt><trkpt lat="38.170310165186244" lon="15.257113317397547"><ele>66.2</ele><time>2026-04-11T14:12:44.999Z</time></trkpt><trkpt lat="38.17038390765496" lon="15.25703008513526"><ele>66.0</ele><time>2026-04-11T14:12:45.999Z</time></trkpt><trkpt lat="38.17046036309873" lon="15.256935378875056"><ele>66.0</ele><time>2026-04-11T14:12:46.999Z</time></trkpt><trkpt lat="38.170539376876086" lon="15.256838267510958"><ele>66.0</ele><time>2026-04-11T14:12:47.999Z</time></trkpt><trkpt lat="38.17060803660384" lon="15.256747636380837"><ele>66.0</ele><time>2026-04-11T14:12:48.999Z</time></trkpt><trkpt lat="38.17065695997116" lon="15.256669295891422"><ele>66.0</ele><time>2026-04-11T14:12:49.999Z</time></trkpt><trkpt lat="38.17073037270831" lon="15.256575681622447"><ele>66.0</ele><time>2026-04-11T14:12:51.999Z</time></trkpt><trkpt lat="38.17071993717163" lon="15.256470961488317"><ele>66.2</ele><time>2026-04-11T14:12:53.999Z</time></trkpt><trkpt lat="38.17066152533974" lon="15.25638177877956"><ele>66.39999999999999</ele><time>2026-04-11T14:12:55.999Z</time></trkpt><trkpt lat="38.17055586418456" lon="15.25630332394276"><ele>66.6</ele><time>2026-04-11T14:12:57.999Z</time></trkpt><trkpt lat="38.17050558514173" lon="15.25621836089264"><ele>66.8</ele><time>2026-04-11T14:12:59.999Z</time></trkpt><trkpt lat="38.17048236881699" lon="15.256067567988923"><ele>67.0</ele><time>2026-04-11T14:13:11.999Z</time></trkpt><trkpt lat="38.17036234099037" lon="15.256040327727383"><ele>67.0</ele><time>2026-04-11T14:13:12.999Z</time></trkpt><trkpt lat="38.170289180916306" lon="15.255951684781563"><ele>67.0</ele><time>2026-04-11T14:13:14.999Z</time></trkpt><trkpt lat="38.17023685077562" lon="15.25590042241889"><ele>67.0</ele><time>2026-04-11T14:13:15.999Z</time></trkpt><trkpt lat="38.17018390277706" lon="15.255846084283553"><ele>67.0</ele><time>2026-04-11T14:13:16.999Z</time></trkpt><trkpt lat="38.1701286268458" lon="15.255784191011827"><ele>67.0</ele><time>2026-04-11T14:13:17.999Z</time></trkpt><trkpt lat="38.170081393921976" lon="15.255715179152043"><ele>67.0</ele><time>2026-04-11T14:13:18.999Z</time></trkpt><trkpt lat="38.17005027310828" lon="15.255606276665436"><ele>66.83333333333333</ele><time>2026-04-11T14:13:19.999Z</time></trkpt><trkpt lat="38.17003138253811" lon="15.255493269990284"><ele>66.66666666666666</ele><time>2026-04-11T14:13:21Z</time></trkpt><trkpt lat="38.1700219623489" lon="15.25537585857117"><ele>66.5</ele><time>2026-04-11T14:13:22Z</time></trkpt><trkpt lat="38.170020130203184" lon="15.255272533453402"><ele>66.33333333333333</ele><time>2026-04-11T14:13:23Z</time></trkpt><trkpt lat="38.17001339254946" lon="15.255155728901094"><ele>66.16666666666667</ele><time>2026-04-11T14:13:24Z</time></trkpt><trkpt lat="38.17000717459578" lon="15.25504279725293"><ele>66.0</ele><time>2026-04-11T14:13:25Z</time></trkpt><trkpt lat="38.17000202661374" lon="15.254925955189295"><ele>66.0</ele><time>2026-04-11T14:13:26Z</time></trkpt><trkpt lat="38.16998259900894" lon="15.254819158637666"><ele>66.0</ele><time>2026-04-11T14:13:27Z</time></trkpt><trkpt lat="38.16998196826495" lon="15.254709641371326"><ele>66.0</ele><time>2026-04-11T14:13:28Z</time></trkpt><trkpt lat="38.169978442406276" lon="15.254586048144265"><ele>66.0</ele><time>2026-04-11T14:13:29Z</time></trkpt><trkpt lat="38.16997262342825" lon="15.25446175483072"><ele>66.0</ele><time>2026-04-11T14:13:30Z</time></trkpt><trkpt lat="38.16996906270061" lon="15.254319207527619"><ele>65.75</ele><time>2026-04-11T14:13:31Z</time></trkpt><trkpt lat="38.16996031116818" lon="15.254170860167678"><ele>65.5</ele><time>2026-04-11T14:13:32Z</time></trkpt><trkpt lat="38.16995408889118" lon="15.254018832309729"><ele>65.25</ele><time>2026-04-11T14:13:33Z</time></trkpt><trkpt lat="38.169947717929965" lon="15.25386723077539"><ele>65.0</ele><time>2026-04-11T14:13:34Z</time></trkpt><trkpt lat="38.16992887870453" lon="15.253724982466915"><ele>65.0</ele><time>2026-04-11T14:13:35Z</time></trkpt><trkpt lat="38.169899676326935" lon="15.253584750137072"><ele>65.0</ele><time>2026-04-11T14:13:36Z</time></trkpt><trkpt lat="38.16985447744944" lon="15.253458893573809"><ele>65.0</ele><time>2026-04-11T14:13:37Z</time></trkpt><trkpt lat="38.16978571746573" lon="15.253346505401163"><ele>65.0</ele><time>2026-04-11T14:13:38Z</time></trkpt><trkpt lat="38.1696984767498" lon="15.253248882986439"><ele>65.25</ele><time>2026-04-11T14:13:39Z</time></trkpt><trkpt lat="38.169610488052996" lon="15.253139743298474"><ele>65.5</ele><time>2026-04-11T14:13:40Z</time></trkpt><trkpt lat="38.16951179637878" lon="15.253052342279714"><ele>65.75</ele><time>2026-04-11T14:13:41Z</time></trkpt><trkpt lat="38.16940916197777" lon="15.252982544999842"><ele>66.0</ele><time>2026-04-11T14:13:42Z</time></trkpt><trkpt lat="38.16931661854613" lon="15.252892027208487"><ele>65.5</ele><time>2026-04-11T14:13:43Z</time></trkpt><trkpt lat="38.16921856937272" lon="15.25279806637935"><ele>65.0</ele><time>2026-04-11T14:13:44Z</time></trkpt><trkpt lat="38.16911534204537" lon="15.252708536377037"><ele>64.5</ele><time>2026-04-11T14:13:45Z</time></trkpt><trkpt lat="38.169012560235025" lon="15.252612373323286"><ele>64.0</ele><time>2026-04-11T14:13:46Z</time></trkpt><trkpt lat="38.16890725622924" lon="15.252517211051583"><ele>64.0</ele><time>2026-04-11T14:13:47Z</time></trkpt><trkpt lat="38.16879942178085" lon="15.252419769152969"><ele>64.0</ele><time>2026-04-11T14:13:48Z</time></trkpt><trkpt lat="38.168692538754605" lon="15.25232222058128"><ele>64.0</ele><time>2026-04-11T14:13:49Z</time></trkpt><trkpt lat="38.16858701505103" lon="15.252225739362945"><ele>64.0</ele><time>2026-04-11T14:13:50Z</time></trkpt><trkpt lat="38.16848479571546" lon="15.252137012321521"><ele>64.0</ele><time>2026-04-11T14:13:51Z</time></trkpt><trkpt lat="38.168384510657916" lon="15.252045055120972"><ele>64.0</ele><time>2026-04-11T14:13:52Z</time></trkpt><trkpt lat="38.16828898272194" lon="15.251956842880153"><ele>64.0</ele><time>2026-04-11T14:13:53Z</time></trkpt><trkpt lat="38.16820084463248" lon="15.251876345957443"><ele>64.0</ele><time>2026-04-11T14:13:54Z</time></trkpt><trkpt lat="38.168110658619725" lon="15.251795795158225"><ele>64.5</ele><time>2026-04-11T14:13:55Z</time></trkpt><trkpt lat="38.16801572693925" lon="15.251706280557071"><ele>65.0</ele><time>2026-04-11T14:13:56Z</time></trkpt><trkpt lat="38.167911265907684" lon="15.251609717646106"><ele>65.5</ele><time>2026-04-11T14:13:57Z</time></trkpt><trkpt lat="38.16780563833666" lon="15.25151393830506"><ele>66.0</ele><time>2026-04-11T14:13:57.999Z</time></trkpt><trkpt lat="38.16769130857164" lon="15.251413066091285"><ele>66.0</ele><time>2026-04-11T14:13:58.999Z</time></trkpt><trkpt lat="38.16758181813774" lon="15.251312691664213"><ele>66.0</ele><time>2026-04-11T14:13:59.999Z</time></trkpt><trkpt lat="38.16747722366656" lon="15.251216001493532"><ele>66.0</ele><time>2026-04-11T14:14:00.999Z</time></trkpt><trkpt lat="38.167375858269544" lon="15.251116441160088"><ele>66.0</ele><time>2026-04-11T14:14:01.999Z</time></trkpt><trkpt lat="38.16727500349211" lon="15.251021657249492"><ele>66.0</ele><time>2026-04-11T14:14:02.999Z</time></trkpt><trkpt lat="38.16717374831372" lon="15.250928186287052"><ele>66.0</ele><time>2026-04-11T14:14:03.999Z</time></trkpt><trkpt lat="38.167075792345756" lon="15.250818691004797"><ele>66.0</ele><time>2026-04-11T14:14:04.999Z</time></trkpt><trkpt lat="38.16698869754978" lon="15.250713290723255"><ele>66.0</ele><time>2026-04-11T14:14:05.999Z</time></trkpt><trkpt lat="38.16690430155983" lon="15.250610394212334"><ele>65.39999999999999</ele><time>2026-04-11T14:14:06.999Z</time></trkpt><trkpt lat="38.16682072397987" lon="15.25051880765697"><ele>64.8</ele><time>2026-04-11T14:14:07.999Z</time></trkpt><trkpt lat="38.1667342504322" lon="15.250433713558063"><ele>64.19999999999999</ele><time>2026-04-11T14:14:08.999Z</time></trkpt><trkpt lat="38.16664853683741" lon="15.25034829121127"><ele>63.599999999999994</ele><time>2026-04-11T14:14:09.999Z</time></trkpt><trkpt lat="38.1665681564365" lon="15.250266997561504"><ele>63.0</ele><time>2026-04-11T14:14:10.999Z</time></trkpt><trkpt lat="38.16648943802355" lon="15.250198291405164"><ele>63.0</ele><time>2026-04-11T14:14:11.999Z</time></trkpt><trkpt lat="38.1664203179681" lon="15.250137174931462"><ele>63.0</ele><time>2026-04-11T14:14:12.999Z</time></trkpt><trkpt lat="38.16634814613515" lon="15.25005865313274"><ele>63.0</ele><time>2026-04-11T14:14:13.999Z</time></trkpt><trkpt lat="38.166276258656" lon="15.249962948060256"><ele>63.0</ele><time>2026-04-11T14:14:14.999Z</time></trkpt><trkpt lat="38.166203960249675" lon="15.249870895357917"><ele>63.0</ele><time>2026-04-11T14:14:15.999Z</time></trkpt><trkpt lat="38.16612789675984" lon="15.249771391064831"><ele>62.75</ele><time>2026-04-11T14:14:16.999Z</time></trkpt><trkpt lat="38.16603503542393" lon="15.24966186685774"><ele>62.5</ele><time>2026-04-11T14:14:17.999Z</time></trkpt><trkpt lat="38.16595008144568" lon="15.249537078624169"><ele>62.25</ele><time>2026-04-11T14:14:18.999Z</time></trkpt><trkpt lat="38.165880655079825" lon="15.249423502287547"><ele>62.0</ele><time>2026-04-11T14:14:19.999Z</time></trkpt><trkpt lat="38.165819950470706" lon="15.24931076756216"><ele>62.00000000000001</ele><time>2026-04-11T14:14:20.999Z</time></trkpt><trkpt lat="38.16575794807001" lon="15.249217503783356"><ele>62.0</ele><time>2026-04-11T14:14:21.999Z</time></trkpt><trkpt lat="38.16570700671135" lon="15.249131396529092"><ele>62.0</ele><time>2026-04-11T14:14:22.999Z</time></trkpt><trkpt lat="38.165665536798265" lon="15.249061294584413"><ele>62.0</ele><time>2026-04-11T14:14:23.999Z</time></trkpt><trkpt lat="38.16559256590806" lon="15.248968133449162"><ele>62.00000000000001</ele><time>2026-04-11T14:14:25.999Z</time></trkpt><trkpt lat="38.16555486601066" lon="15.24888323783153"><ele>62.0</ele><time>2026-04-11T14:14:28.999Z</time></trkpt><trkpt lat="38.16563204091501" lon="15.248801349568842"><ele>61.66666666666667</ele><time>2026-04-11T14:14:30.999Z</time></trkpt><trkpt lat="38.16569062696131" lon="15.248708501639431"><ele>61.333333333333336</ele><time>2026-04-11T14:14:32.999Z</time></trkpt><trkpt lat="38.165761266770176" lon="15.248651326174286"><ele>61.0</ele><time>2026-04-11T14:14:34.999Z</time></trkpt><trkpt lat="38.16580827875333" lon="15.248596748145829"><ele>60.66666666666667</ele><time>2026-04-11T14:14:35.999Z</time></trkpt><trkpt lat="38.16585509009536" lon="15.24854240303495"><ele>60.333333333333336</ele><time>2026-04-11T14:14:36.999Z</time></trkpt><trkpt lat="38.165915749246516" lon="15.248470188106365"><ele>60.0</ele><time>2026-04-11T14:14:38.999Z</time></trkpt><trkpt lat="38.165954345298644" lon="15.24840311726066"><ele>60.0</ele><time>2026-04-11T14:14:41.999Z</time></trkpt><trkpt lat="38.165905446261846" lon="15.2484848537404"><ele>60.0</ele><time>2026-04-11T14:14:46.999Z</time></trkpt><trkpt lat="38.165800879231526" lon="15.248582203458225"><ele>60.0</ele><time>2026-04-11T14:14:48.999Z</time></trkpt><trkpt lat="38.16571349657722" lon="15.248705905541613"><ele>60.0</ele><time>2026-04-11T14:14:49.999Z</time></trkpt><trkpt lat="38.16561352295594" lon="15.248821201668633"><ele>60.0</ele><time>2026-04-11T14:14:51.999Z</time></trkpt><trkpt lat="38.16554531635532" lon="15.248880018183732"><ele>60.0</ele><time>2026-04-11T14:14:54.999Z</time></trkpt><trkpt lat="38.16545846279175" lon="15.248831726288012"><ele>60.0</ele><time>2026-04-11T14:14:56.999Z</time></trkpt><trkpt lat="38.165405225395915" lon="15.248747587044134"><ele>60.0</ele><time>2026-04-11T14:14:57.999Z</time></trkpt><trkpt lat="38.16534531232362" lon="15.24867007210489"><ele>60.0</ele><time>2026-04-11T14:14:58.999Z</time></trkpt><trkpt lat="38.16527693425761" lon="15.248591976746269"><ele>60.0</ele><time>2026-04-11T14:14:59.999Z</time></trkpt><trkpt lat="38.16522232704485" lon="15.248488901434456"><ele>60.0</ele><time>2026-04-11T14:15:00.999Z</time></trkpt><trkpt lat="38.16515788841689" lon="15.248385325169616"><ele>60.0</ele><time>2026-04-11T14:15:01.999Z</time></trkpt><trkpt lat="38.165100724678865" lon="15.248308703179152"><ele>60.0</ele><time>2026-04-11T14:15:02.999Z</time></trkpt><trkpt lat="38.165048076189805" lon="15.248240956215277"><ele>60.0</ele><time>2026-04-11T14:15:03.999Z</time></trkpt><trkpt lat="38.164988846395595" lon="15.248187652786092"><ele>60.0</ele><time>2026-04-11T14:15:05.999Z</time></trkpt><trkpt lat="38.16499207347722" lon="15.24807269678313"><ele>60.0</ele><time>2026-04-11T14:15:08.999Z</time></trkpt><trkpt lat="38.16504646759134" lon="15.248013868174523"><ele>59.833333333333336</ele><time>2026-04-11T14:15:09.999Z</time></trkpt><trkpt lat="38.1650970311687" lon="15.247945643703966"><ele>59.66666666666667</ele><time>2026-04-11T14:15:10.999Z</time></trkpt><trkpt lat="38.16513927479573" lon="15.247871591502015"><ele>59.5</ele><time>2026-04-11T14:15:11.999Z</time></trkpt><trkpt lat="38.165187310248385" lon="15.247801560577752"><ele>59.333333333333336</ele><time>2026-04-11T14:15:12.999Z</time></trkpt><trkpt lat="38.16523409113265" lon="15.24773805800237"><ele>59.16666666666667</ele><time>2026-04-11T14:15:13.999Z</time></trkpt><trkpt lat="38.16531358160177" lon="15.24763551052244"><ele>59.0</ele><time>2026-04-11T14:15:15.999Z</time></trkpt><trkpt lat="38.16538553831262" lon="15.247600619993213"><ele>59.0</ele><time>2026-04-11T14:15:17.999Z</time></trkpt><trkpt lat="38.16544869790068" lon="15.24758773126992"><ele>59.0</ele><time>2026-04-11T14:15:22.999Z</time></trkpt><trkpt lat="38.16542165778169" lon="15.247668667718843"><ele>59.0</ele><time>2026-04-11T14:22:16.451Z</time></trkpt></trkseg></trk></gpx>